<?xml version="1.0" encoding="UTF-8" standalone="no" ?>
<gpx xmlns="http://www.topografix.com/GPX/1/1" xmlns:xsi="http://www.w3.org/2001/XMLSchema-instance" xsi:schemaLocation="http://www.topografix.com/GPX/1/1 http://www.topografix.com/GPX/1/1/gpx.xsd" version="1.1" creator="VisuGPX - https://www.visugpx.com">
  <metadata>
    <name>Marathon MontBlanc 2010</name>
    <desc><![CDATA[Course trail, départ Chamonix, arrivée Plan Praz]]></desc>
  </metadata>
  <trk>
    <name><![CDATA[Marathon Mont Blanc]]></name>
    <cmt><![CDATA[132éme]]></cmt>
    <trkseg>
      <trkpt lat="45.92365" lon="6.86907">
        <ele>1036.4</ele>
        <time>2010-06-27T05:01:40Z</time>
      </trkpt>
      <trkpt lat="45.92362" lon="6.8691">
        <ele>1052.8000488281</ele>
        <time>2010-06-27T05:01:46Z</time>
      </trkpt>
      <trkpt lat="45.92361" lon="6.86915">
        <ele>1052.8000488281</ele>
        <time>2010-06-27T05:01:52Z</time>
      </trkpt>
      <trkpt lat="45.92357" lon="6.86928">
        <ele>1052.8000488281</ele>
        <time>2010-06-27T05:02:07Z</time>
      </trkpt>
      <trkpt lat="45.92357" lon="6.86931">
        <ele>1052.8000488281</ele>
        <time>2010-06-27T05:02:10Z</time>
      </trkpt>
      <trkpt lat="45.92355" lon="6.86958">
        <ele>1056.4000244141</ele>
        <time>2010-06-27T05:02:26Z</time>
      </trkpt>
      <trkpt lat="45.92355" lon="6.8696">
        <ele>1056.5999755859</ele>
        <time>2010-06-27T05:02:27Z</time>
      </trkpt>
      <trkpt lat="45.92368" lon="6.86976">
        <ele>1056.4000244141</ele>
        <time>2010-06-27T05:02:36Z</time>
      </trkpt>
      <trkpt lat="45.92387" lon="6.8698">
        <ele>1056.8000488281</ele>
        <time>2010-06-27T05:02:44Z</time>
      </trkpt>
      <trkpt lat="45.92407" lon="6.86978">
        <ele>1056.8000488281</ele>
        <time>2010-06-27T05:02:54Z</time>
      </trkpt>
      <trkpt lat="45.92427" lon="6.86974">
        <ele>1058.8000488281</ele>
        <time>2010-06-27T05:03:02Z</time>
      </trkpt>
      <trkpt lat="45.92446" lon="6.86971">
        <ele>1064.5999755859</ele>
        <time>2010-06-27T05:03:10Z</time>
      </trkpt>
      <trkpt lat="45.92446" lon="6.86977">
        <ele>1065.5999755859</ele>
        <time>2010-06-27T05:03:13Z</time>
      </trkpt>
      <trkpt lat="45.92449" lon="6.8698">
        <ele>1067</ele>
        <time>2010-06-27T05:03:16Z</time>
      </trkpt>
      <trkpt lat="45.9246" lon="6.86979">
        <ele>1068.4000244141</ele>
        <time>2010-06-27T05:03:20Z</time>
      </trkpt>
      <trkpt lat="45.92478" lon="6.86976">
        <ele>1070.4000244141</ele>
        <time>2010-06-27T05:03:28Z</time>
      </trkpt>
      <trkpt lat="45.9248" lon="6.86981">
        <ele>1070.4000244141</ele>
        <time>2010-06-27T05:03:31Z</time>
      </trkpt>
      <trkpt lat="45.9249" lon="6.86981">
        <ele>1070.1999511719</ele>
        <time>2010-06-27T05:03:35Z</time>
      </trkpt>
      <trkpt lat="45.92499" lon="6.86983">
        <ele>1070.1999511719</ele>
        <time>2010-06-27T05:03:38Z</time>
      </trkpt>
      <trkpt lat="45.92517" lon="6.86984">
        <ele>1070.1999511719</ele>
        <time>2010-06-27T05:03:43Z</time>
      </trkpt>
      <trkpt lat="45.92536" lon="6.86985">
        <ele>1070.5999755859</ele>
        <time>2010-06-27T05:03:47Z</time>
      </trkpt>
      <trkpt lat="45.92554" lon="6.86985">
        <ele>1069.8000488281</ele>
        <time>2010-06-27T05:03:55Z</time>
      </trkpt>
      <trkpt lat="45.92557" lon="6.86985">
        <ele>1069.5999755859</ele>
        <time>2010-06-27T05:03:56Z</time>
      </trkpt>
      <trkpt lat="45.92567" lon="6.86988">
        <ele>1069.4000244141</ele>
        <time>2010-06-27T05:03:59Z</time>
      </trkpt>
      <trkpt lat="45.92577" lon="6.86992">
        <ele>1069.1999511719</ele>
        <time>2010-06-27T05:04:02Z</time>
      </trkpt>
      <trkpt lat="45.92598" lon="6.86998">
        <ele>1068</ele>
        <time>2010-06-27T05:04:10Z</time>
      </trkpt>
      <trkpt lat="45.92616" lon="6.87004">
        <ele>1067.1999511719</ele>
        <time>2010-06-27T05:04:17Z</time>
      </trkpt>
      <trkpt lat="45.92635" lon="6.87008">
        <ele>1066.4000244141</ele>
        <time>2010-06-27T05:04:24Z</time>
      </trkpt>
      <trkpt lat="45.92653" lon="6.87007">
        <ele>1065.8000488281</ele>
        <time>2010-06-27T05:04:30Z</time>
      </trkpt>
      <trkpt lat="45.92672" lon="6.87009">
        <ele>1065</ele>
        <time>2010-06-27T05:04:37Z</time>
      </trkpt>
      <trkpt lat="45.92691" lon="6.8701">
        <ele>1064.4000244141</ele>
        <time>2010-06-27T05:04:45Z</time>
      </trkpt>
      <trkpt lat="45.9271" lon="6.8701">
        <ele>1063.8000488281</ele>
        <time>2010-06-27T05:04:51Z</time>
      </trkpt>
      <trkpt lat="45.92729" lon="6.87014">
        <ele>1063.5999755859</ele>
        <time>2010-06-27T05:04:58Z</time>
      </trkpt>
      <trkpt lat="45.92749" lon="6.87018">
        <ele>1063.4000244141</ele>
        <time>2010-06-27T05:05:05Z</time>
      </trkpt>
      <trkpt lat="45.92768" lon="6.87018">
        <ele>1063.1999511719</ele>
        <time>2010-06-27T05:05:13Z</time>
      </trkpt>
      <trkpt lat="45.92791" lon="6.87021">
        <ele>1063</ele>
        <time>2010-06-27T05:05:20Z</time>
      </trkpt>
      <trkpt lat="45.92807" lon="6.87026">
        <ele>1062.8000488281</ele>
        <time>2010-06-27T05:05:27Z</time>
      </trkpt>
      <trkpt lat="45.92825" lon="6.87038">
        <ele>1062.5999755859</ele>
        <time>2010-06-27T05:05:33Z</time>
      </trkpt>
      <trkpt lat="45.9282" lon="6.8707">
        <ele>1062.1999511719</ele>
        <time>2010-06-27T05:05:40Z</time>
      </trkpt>
      <trkpt lat="45.92815" lon="6.87094">
        <ele>1061.5999755859</ele>
        <time>2010-06-27T05:05:47Z</time>
      </trkpt>
      <trkpt lat="45.92805" lon="6.87119">
        <ele>1061</ele>
        <time>2010-06-27T05:05:55Z</time>
      </trkpt>
      <trkpt lat="45.92797" lon="6.87145">
        <ele>1060.4000244141</ele>
        <time>2010-06-27T05:06:03Z</time>
      </trkpt>
      <trkpt lat="45.92796" lon="6.8715">
        <ele>1060.1999511719</ele>
        <time>2010-06-27T05:06:05Z</time>
      </trkpt>
      <trkpt lat="45.9279" lon="6.87169">
        <ele>1059.5999755859</ele>
        <time>2010-06-27T05:06:10Z</time>
      </trkpt>
      <trkpt lat="45.92785" lon="6.87197">
        <ele>1059</ele>
        <time>2010-06-27T05:06:18Z</time>
      </trkpt>
      <trkpt lat="45.92781" lon="6.87224">
        <ele>1058.4000244141</ele>
        <time>2010-06-27T05:06:25Z</time>
      </trkpt>
      <trkpt lat="45.92782" lon="6.87249">
        <ele>1057.8000488281</ele>
        <time>2010-06-27T05:06:31Z</time>
      </trkpt>
      <trkpt lat="45.92791" lon="6.8727">
        <ele>1057.4000244141</ele>
        <time>2010-06-27T05:06:37Z</time>
      </trkpt>
      <trkpt lat="45.92796" lon="6.87298">
        <ele>1057</ele>
        <time>2010-06-27T05:06:44Z</time>
      </trkpt>
      <trkpt lat="45.92793" lon="6.87324">
        <ele>1056.4000244141</ele>
        <time>2010-06-27T05:06:51Z</time>
      </trkpt>
      <trkpt lat="45.92776" lon="6.8734">
        <ele>1056</ele>
        <time>2010-06-27T05:07:00Z</time>
      </trkpt>
      <trkpt lat="45.92761" lon="6.87352">
        <ele>1055.5999755859</ele>
        <time>2010-06-27T05:07:09Z</time>
      </trkpt>
      <trkpt lat="45.92752" lon="6.87374">
        <ele>1055.1999511719</ele>
        <time>2010-06-27T05:07:16Z</time>
      </trkpt>
      <trkpt lat="45.92752" lon="6.874">
        <ele>1054.5999755859</ele>
        <time>2010-06-27T05:07:24Z</time>
      </trkpt>
      <trkpt lat="45.92749" lon="6.87427">
        <ele>1054.4000244141</ele>
        <time>2010-06-27T05:07:30Z</time>
      </trkpt>
      <trkpt lat="45.92744" lon="6.87446">
        <ele>1054.1999511719</ele>
        <time>2010-06-27T05:07:35Z</time>
      </trkpt>
      <trkpt lat="45.92744" lon="6.87456">
        <ele>1054.1999511719</ele>
        <time>2010-06-27T05:07:37Z</time>
      </trkpt>
      <trkpt lat="45.92744" lon="6.87482">
        <ele>1054</ele>
        <time>2010-06-27T05:07:45Z</time>
      </trkpt>
      <trkpt lat="45.92747" lon="6.87484">
        <ele>1053.8000488281</ele>
        <time>2010-06-27T05:07:50Z</time>
      </trkpt>
      <trkpt lat="45.92748" lon="6.87485">
        <ele>1053.5999755859</ele>
        <time>2010-06-27T05:07:52Z</time>
      </trkpt>
      <trkpt lat="45.92763" lon="6.87497">
        <ele>1053.4000244141</ele>
        <time>2010-06-27T05:07:59Z</time>
      </trkpt>
      <trkpt lat="45.92777" lon="6.87514">
        <ele>1053.5999755859</ele>
        <time>2010-06-27T05:08:05Z</time>
      </trkpt>
      <trkpt lat="45.92792" lon="6.87529">
        <ele>1053.5999755859</ele>
        <time>2010-06-27T05:08:11Z</time>
      </trkpt>
      <trkpt lat="45.92807" lon="6.87544">
        <ele>1053.8000488281</ele>
        <time>2010-06-27T05:08:17Z</time>
      </trkpt>
      <trkpt lat="45.92821" lon="6.8756">
        <ele>1053.8000488281</ele>
        <time>2010-06-27T05:08:23Z</time>
      </trkpt>
      <trkpt lat="45.92836" lon="6.87579">
        <ele>1054</ele>
        <time>2010-06-27T05:08:30Z</time>
      </trkpt>
      <trkpt lat="45.92851" lon="6.87596">
        <ele>1054</ele>
        <time>2010-06-27T05:08:36Z</time>
      </trkpt>
      <trkpt lat="45.92865" lon="6.87617">
        <ele>1053.8000488281</ele>
        <time>2010-06-27T05:08:43Z</time>
      </trkpt>
      <trkpt lat="45.92878" lon="6.87635">
        <ele>1053.4000244141</ele>
        <time>2010-06-27T05:08:49Z</time>
      </trkpt>
      <trkpt lat="45.92893" lon="6.87656">
        <ele>1053</ele>
        <time>2010-06-27T05:08:56Z</time>
      </trkpt>
      <trkpt lat="45.92908" lon="6.87675">
        <ele>1052.8000488281</ele>
        <time>2010-06-27T05:09:03Z</time>
      </trkpt>
      <trkpt lat="45.92923" lon="6.87693">
        <ele>1052.4000244141</ele>
        <time>2010-06-27T05:09:10Z</time>
      </trkpt>
      <trkpt lat="45.92937" lon="6.87712">
        <ele>1052</ele>
        <time>2010-06-27T05:09:17Z</time>
      </trkpt>
      <trkpt lat="45.92952" lon="6.87733">
        <ele>1051.8000488281</ele>
        <time>2010-06-27T05:09:24Z</time>
      </trkpt>
      <trkpt lat="45.92963" lon="6.87757">
        <ele>1052.1999511719</ele>
        <time>2010-06-27T05:09:31Z</time>
      </trkpt>
      <trkpt lat="45.92977" lon="6.87779">
        <ele>1052.8000488281</ele>
        <time>2010-06-27T05:09:39Z</time>
      </trkpt>
      <trkpt lat="45.92993" lon="6.87792">
        <ele>1054</ele>
        <time>2010-06-27T05:09:48Z</time>
      </trkpt>
      <trkpt lat="45.9301" lon="6.878">
        <ele>1055.1999511719</ele>
        <time>2010-06-27T05:09:55Z</time>
      </trkpt>
      <trkpt lat="45.93025" lon="6.87816">
        <ele>1055.8000488281</ele>
        <time>2010-06-27T05:10:01Z</time>
      </trkpt>
      <trkpt lat="45.93034" lon="6.87843">
        <ele>1056.4000244141</ele>
        <time>2010-06-27T05:10:08Z</time>
      </trkpt>
      <trkpt lat="45.93042" lon="6.8787">
        <ele>1057.1999511719</ele>
        <time>2010-06-27T05:10:15Z</time>
      </trkpt>
      <trkpt lat="45.9305" lon="6.87895">
        <ele>1058.1999511719</ele>
        <time>2010-06-27T05:10:22Z</time>
      </trkpt>
      <trkpt lat="45.93053" lon="6.87922">
        <ele>1058.8000488281</ele>
        <time>2010-06-27T05:10:29Z</time>
      </trkpt>
      <trkpt lat="45.93059" lon="6.87947">
        <ele>1059.4000244141</ele>
        <time>2010-06-27T05:10:36Z</time>
      </trkpt>
      <trkpt lat="45.9307" lon="6.87972">
        <ele>1060.4000244141</ele>
        <time>2010-06-27T05:10:43Z</time>
      </trkpt>
      <trkpt lat="45.93081" lon="6.87996">
        <ele>1061.5999755859</ele>
        <time>2010-06-27T05:10:50Z</time>
      </trkpt>
      <trkpt lat="45.93091" lon="6.88016">
        <ele>1062.5999755859</ele>
        <time>2010-06-27T05:10:56Z</time>
      </trkpt>
      <trkpt lat="45.93104" lon="6.88035">
        <ele>1063.5999755859</ele>
        <time>2010-06-27T05:11:02Z</time>
      </trkpt>
      <trkpt lat="45.93114" lon="6.88057">
        <ele>1064.4000244141</ele>
        <time>2010-06-27T05:11:08Z</time>
      </trkpt>
      <trkpt lat="45.93126" lon="6.88081">
        <ele>1065</ele>
        <time>2010-06-27T05:11:15Z</time>
      </trkpt>
      <trkpt lat="45.93136" lon="6.88106">
        <ele>1065.5999755859</ele>
        <time>2010-06-27T05:11:22Z</time>
      </trkpt>
      <trkpt lat="45.93144" lon="6.88133">
        <ele>1065.8000488281</ele>
        <time>2010-06-27T05:11:29Z</time>
      </trkpt>
      <trkpt lat="45.93152" lon="6.8816">
        <ele>1066.1999511719</ele>
        <time>2010-06-27T05:11:36Z</time>
      </trkpt>
      <trkpt lat="45.93156" lon="6.88187">
        <ele>1066.1999511719</ele>
        <time>2010-06-27T05:11:43Z</time>
      </trkpt>
      <trkpt lat="45.93159" lon="6.88214">
        <ele>1066.4000244141</ele>
        <time>2010-06-27T05:11:50Z</time>
      </trkpt>
      <trkpt lat="45.93163" lon="6.88241">
        <ele>1066.4000244141</ele>
        <time>2010-06-27T05:11:58Z</time>
      </trkpt>
      <trkpt lat="45.93169" lon="6.88264">
        <ele>1066.4000244141</ele>
        <time>2010-06-27T05:12:06Z</time>
      </trkpt>
      <trkpt lat="45.9317" lon="6.88266">
        <ele>1066.4000244141</ele>
        <time>2010-06-27T05:12:07Z</time>
      </trkpt>
      <trkpt lat="45.93181" lon="6.88283">
        <ele>1066.4000244141</ele>
        <time>2010-06-27T05:12:13Z</time>
      </trkpt>
      <trkpt lat="45.93183" lon="6.88286">
        <ele>1066.4000244141</ele>
        <time>2010-06-27T05:12:14Z</time>
      </trkpt>
      <trkpt lat="45.93196" lon="6.88307">
        <ele>1066.5999755859</ele>
        <time>2010-06-27T05:12:22Z</time>
      </trkpt>
      <trkpt lat="45.9321" lon="6.88324">
        <ele>1066.5999755859</ele>
        <time>2010-06-27T05:12:28Z</time>
      </trkpt>
      <trkpt lat="45.93216" lon="6.88341">
        <ele>1066.5999755859</ele>
        <time>2010-06-27T05:12:33Z</time>
      </trkpt>
      <trkpt lat="45.93219" lon="6.88348">
        <ele>1066.5999755859</ele>
        <time>2010-06-27T05:12:35Z</time>
      </trkpt>
      <trkpt lat="45.93225" lon="6.88373">
        <ele>1066.5999755859</ele>
        <time>2010-06-27T05:12:41Z</time>
      </trkpt>
      <trkpt lat="45.93226" lon="6.88401">
        <ele>1066.5999755859</ele>
        <time>2010-06-27T05:12:48Z</time>
      </trkpt>
      <trkpt lat="45.93224" lon="6.8843">
        <ele>1067.1999511719</ele>
        <time>2010-06-27T05:12:55Z</time>
      </trkpt>
      <trkpt lat="45.93226" lon="6.88455">
        <ele>1067.5999755859</ele>
        <time>2010-06-27T05:13:00Z</time>
      </trkpt>
      <trkpt lat="45.93228" lon="6.88458">
        <ele>1067.8000488281</ele>
        <time>2010-06-27T05:13:02Z</time>
      </trkpt>
      <trkpt lat="45.93238" lon="6.88483">
        <ele>1067.8000488281</ele>
        <time>2010-06-27T05:13:09Z</time>
      </trkpt>
      <trkpt lat="45.93256" lon="6.88499">
        <ele>1068.1999511719</ele>
        <time>2010-06-27T05:13:16Z</time>
      </trkpt>
      <trkpt lat="45.93267" lon="6.88511">
        <ele>1068.4000244141</ele>
        <time>2010-06-27T05:13:20Z</time>
      </trkpt>
      <trkpt lat="45.9327" lon="6.88516">
        <ele>1068.5999755859</ele>
        <time>2010-06-27T05:13:23Z</time>
      </trkpt>
      <trkpt lat="45.93281" lon="6.88538">
        <ele>1069</ele>
        <time>2010-06-27T05:13:30Z</time>
      </trkpt>
      <trkpt lat="45.93294" lon="6.88561">
        <ele>1069.4000244141</ele>
        <time>2010-06-27T05:13:37Z</time>
      </trkpt>
      <trkpt lat="45.93303" lon="6.88585">
        <ele>1070</ele>
        <time>2010-06-27T05:13:45Z</time>
      </trkpt>
      <trkpt lat="45.93311" lon="6.88613">
        <ele>1069.8000488281</ele>
        <time>2010-06-27T05:13:52Z</time>
      </trkpt>
      <trkpt lat="45.93323" lon="6.88642">
        <ele>1069.8000488281</ele>
        <time>2010-06-27T05:13:59Z</time>
      </trkpt>
      <trkpt lat="45.9333" lon="6.88663">
        <ele>1070.8000488281</ele>
        <time>2010-06-27T05:14:06Z</time>
      </trkpt>
      <trkpt lat="45.93333" lon="6.88674">
        <ele>1071</ele>
        <time>2010-06-27T05:14:09Z</time>
      </trkpt>
      <trkpt lat="45.9334" lon="6.88686">
        <ele>1071.4000244141</ele>
        <time>2010-06-27T05:14:13Z</time>
      </trkpt>
      <trkpt lat="45.93353" lon="6.88707">
        <ele>1071.8000488281</ele>
        <time>2010-06-27T05:14:19Z</time>
      </trkpt>
      <trkpt lat="45.93364" lon="6.88733">
        <ele>1072</ele>
        <time>2010-06-27T05:14:26Z</time>
      </trkpt>
      <trkpt lat="45.93374" lon="6.88756">
        <ele>1072</ele>
        <time>2010-06-27T05:14:32Z</time>
      </trkpt>
      <trkpt lat="45.93383" lon="6.88778">
        <ele>1072.4000244141</ele>
        <time>2010-06-27T05:14:38Z</time>
      </trkpt>
      <trkpt lat="45.93395" lon="6.88803">
        <ele>1072.5999755859</ele>
        <time>2010-06-27T05:14:45Z</time>
      </trkpt>
      <trkpt lat="45.9341" lon="6.88823">
        <ele>1072.4000244141</ele>
        <time>2010-06-27T05:14:53Z</time>
      </trkpt>
      <trkpt lat="45.93426" lon="6.88845">
        <ele>1072.4000244141</ele>
        <time>2010-06-27T05:15:00Z</time>
      </trkpt>
      <trkpt lat="45.93443" lon="6.88858">
        <ele>1072.5999755859</ele>
        <time>2010-06-27T05:15:07Z</time>
      </trkpt>
      <trkpt lat="45.93459" lon="6.88874">
        <ele>1072.8000488281</ele>
        <time>2010-06-27T05:15:14Z</time>
      </trkpt>
      <trkpt lat="45.93463" lon="6.88889">
        <ele>1072.8000488281</ele>
        <time>2010-06-27T05:15:18Z</time>
      </trkpt>
      <trkpt lat="45.93462" lon="6.88899">
        <ele>1072.5999755859</ele>
        <time>2010-06-27T05:15:21Z</time>
      </trkpt>
      <trkpt lat="45.93457" lon="6.88913">
        <ele>1072.5999755859</ele>
        <time>2010-06-27T05:15:24Z</time>
      </trkpt>
      <trkpt lat="45.93455" lon="6.88921">
        <ele>1072.5999755859</ele>
        <time>2010-06-27T05:15:27Z</time>
      </trkpt>
      <trkpt lat="45.93454" lon="6.88955">
        <ele>1072.1999511719</ele>
        <time>2010-06-27T05:15:35Z</time>
      </trkpt>
      <trkpt lat="45.93458" lon="6.88982">
        <ele>1072.1999511719</ele>
        <time>2010-06-27T05:15:42Z</time>
      </trkpt>
      <trkpt lat="45.9346" lon="6.89">
        <ele>1072</ele>
        <time>2010-06-27T05:15:47Z</time>
      </trkpt>
      <trkpt lat="45.93463" lon="6.89006">
        <ele>1072</ele>
        <time>2010-06-27T05:15:49Z</time>
      </trkpt>
      <trkpt lat="45.9347" lon="6.89024">
        <ele>1072.5999755859</ele>
        <time>2010-06-27T05:15:55Z</time>
      </trkpt>
      <trkpt lat="45.93472" lon="6.89027">
        <ele>1073</ele>
        <time>2010-06-27T05:15:57Z</time>
      </trkpt>
      <trkpt lat="45.93487" lon="6.89049">
        <ele>1074.5999755859</ele>
        <time>2010-06-27T05:16:05Z</time>
      </trkpt>
      <trkpt lat="45.93507" lon="6.89056">
        <ele>1076.4000244141</ele>
        <time>2010-06-27T05:16:12Z</time>
      </trkpt>
      <trkpt lat="45.93525" lon="6.89054">
        <ele>1077.8000488281</ele>
        <time>2010-06-27T05:16:18Z</time>
      </trkpt>
      <trkpt lat="45.93544" lon="6.89048">
        <ele>1079.1999511719</ele>
        <time>2010-06-27T05:16:25Z</time>
      </trkpt>
      <trkpt lat="45.93563" lon="6.8904">
        <ele>1080.4000244141</ele>
        <time>2010-06-27T05:16:32Z</time>
      </trkpt>
      <trkpt lat="45.9357" lon="6.89041">
        <ele>1080.8000488281</ele>
        <time>2010-06-27T05:16:35Z</time>
      </trkpt>
      <trkpt lat="45.93575" lon="6.89056">
        <ele>1081</ele>
        <time>2010-06-27T05:16:39Z</time>
      </trkpt>
      <trkpt lat="45.93576" lon="6.8906">
        <ele>1081</ele>
        <time>2010-06-27T05:16:40Z</time>
      </trkpt>
      <trkpt lat="45.93584" lon="6.89082">
        <ele>1081</ele>
        <time>2010-06-27T05:16:45Z</time>
      </trkpt>
      <trkpt lat="45.93594" lon="6.89105">
        <ele>1081</ele>
        <time>2010-06-27T05:16:51Z</time>
      </trkpt>
      <trkpt lat="45.93602" lon="6.89125">
        <ele>1081</ele>
        <time>2010-06-27T05:16:57Z</time>
      </trkpt>
      <trkpt lat="45.93613" lon="6.89153">
        <ele>1081.1999511719</ele>
        <time>2010-06-27T05:17:03Z</time>
      </trkpt>
      <trkpt lat="45.93625" lon="6.89176">
        <ele>1081.5999755859</ele>
        <time>2010-06-27T05:17:10Z</time>
      </trkpt>
      <trkpt lat="45.93636" lon="6.89198">
        <ele>1081.8000488281</ele>
        <time>2010-06-27T05:17:16Z</time>
      </trkpt>
      <trkpt lat="45.93649" lon="6.89217">
        <ele>1081.8000488281</ele>
        <time>2010-06-27T05:17:22Z</time>
      </trkpt>
      <trkpt lat="45.93663" lon="6.89236">
        <ele>1082</ele>
        <time>2010-06-27T05:17:29Z</time>
      </trkpt>
      <trkpt lat="45.93674" lon="6.89256">
        <ele>1082.1999511719</ele>
        <time>2010-06-27T05:17:35Z</time>
      </trkpt>
      <trkpt lat="45.93687" lon="6.89281">
        <ele>1082.4000244141</ele>
        <time>2010-06-27T05:17:42Z</time>
      </trkpt>
      <trkpt lat="45.93697" lon="6.89305">
        <ele>1082.8000488281</ele>
        <time>2010-06-27T05:17:48Z</time>
      </trkpt>
      <trkpt lat="45.93704" lon="6.8933">
        <ele>1083</ele>
        <time>2010-06-27T05:17:54Z</time>
      </trkpt>
      <trkpt lat="45.9371" lon="6.89354">
        <ele>1083.4000244141</ele>
        <time>2010-06-27T05:18:00Z</time>
      </trkpt>
      <trkpt lat="45.93718" lon="6.89377">
        <ele>1083.5999755859</ele>
        <time>2010-06-27T05:18:06Z</time>
      </trkpt>
      <trkpt lat="45.93731" lon="6.89397">
        <ele>1084</ele>
        <time>2010-06-27T05:18:12Z</time>
      </trkpt>
      <trkpt lat="45.93745" lon="6.89416">
        <ele>1084.4000244141</ele>
        <time>2010-06-27T05:18:19Z</time>
      </trkpt>
      <trkpt lat="45.93758" lon="6.89437">
        <ele>1085.1999511719</ele>
        <time>2010-06-27T05:18:26Z</time>
      </trkpt>
      <trkpt lat="45.93772" lon="6.89457">
        <ele>1086</ele>
        <time>2010-06-27T05:18:33Z</time>
      </trkpt>
      <trkpt lat="45.93783" lon="6.89479">
        <ele>1086.5999755859</ele>
        <time>2010-06-27T05:18:40Z</time>
      </trkpt>
      <trkpt lat="45.93794" lon="6.89503">
        <ele>1087.1999511719</ele>
        <time>2010-06-27T05:18:46Z</time>
      </trkpt>
      <trkpt lat="45.93806" lon="6.89523">
        <ele>1087.4000244141</ele>
        <time>2010-06-27T05:18:52Z</time>
      </trkpt>
      <trkpt lat="45.93821" lon="6.8954">
        <ele>1088</ele>
        <time>2010-06-27T05:18:59Z</time>
      </trkpt>
      <trkpt lat="45.93834" lon="6.89559">
        <ele>1088.8000488281</ele>
        <time>2010-06-27T05:19:05Z</time>
      </trkpt>
      <trkpt lat="45.93843" lon="6.89583">
        <ele>1089.4000244141</ele>
        <time>2010-06-27T05:19:11Z</time>
      </trkpt>
      <trkpt lat="45.93855" lon="6.89603">
        <ele>1090.1999511719</ele>
        <time>2010-06-27T05:19:17Z</time>
      </trkpt>
      <trkpt lat="45.93868" lon="6.89625">
        <ele>1091.1999511719</ele>
        <time>2010-06-27T05:19:24Z</time>
      </trkpt>
      <trkpt lat="45.93881" lon="6.89642">
        <ele>1091.8000488281</ele>
        <time>2010-06-27T05:19:30Z</time>
      </trkpt>
      <trkpt lat="45.93895" lon="6.89659">
        <ele>1092.4000244141</ele>
        <time>2010-06-27T05:19:36Z</time>
      </trkpt>
      <trkpt lat="45.93911" lon="6.89677">
        <ele>1093.1999511719</ele>
        <time>2010-06-27T05:19:43Z</time>
      </trkpt>
      <trkpt lat="45.93929" lon="6.89689">
        <ele>1093.5999755859</ele>
        <time>2010-06-27T05:19:51Z</time>
      </trkpt>
      <trkpt lat="45.93949" lon="6.89688">
        <ele>1093.5999755859</ele>
        <time>2010-06-27T05:19:58Z</time>
      </trkpt>
      <trkpt lat="45.93966" lon="6.89678">
        <ele>1093.4000244141</ele>
        <time>2010-06-27T05:20:05Z</time>
      </trkpt>
      <trkpt lat="45.93987" lon="6.89671">
        <ele>1093.1999511719</ele>
        <time>2010-06-27T05:20:12Z</time>
      </trkpt>
      <trkpt lat="45.94004" lon="6.8966">
        <ele>1092.8000488281</ele>
        <time>2010-06-27T05:20:19Z</time>
      </trkpt>
      <trkpt lat="45.94022" lon="6.89664">
        <ele>1092.5999755859</ele>
        <time>2010-06-27T05:20:25Z</time>
      </trkpt>
      <trkpt lat="45.94039" lon="6.89672">
        <ele>1092.5999755859</ele>
        <time>2010-06-27T05:20:31Z</time>
      </trkpt>
      <trkpt lat="45.94056" lon="6.89686">
        <ele>1092.8000488281</ele>
        <time>2010-06-27T05:20:37Z</time>
      </trkpt>
      <trkpt lat="45.94072" lon="6.89703">
        <ele>1094.4000244141</ele>
        <time>2010-06-27T05:20:44Z</time>
      </trkpt>
      <trkpt lat="45.94085" lon="6.89724">
        <ele>1096.8000488281</ele>
        <time>2010-06-27T05:20:50Z</time>
      </trkpt>
      <trkpt lat="45.9409" lon="6.89747">
        <ele>1098.1999511719</ele>
        <time>2010-06-27T05:20:57Z</time>
      </trkpt>
      <trkpt lat="45.94096" lon="6.89778">
        <ele>1099</ele>
        <time>2010-06-27T05:21:03Z</time>
      </trkpt>
      <trkpt lat="45.94105" lon="6.89803">
        <ele>1100.5999755859</ele>
        <time>2010-06-27T05:21:08Z</time>
      </trkpt>
      <trkpt lat="45.94114" lon="6.89828">
        <ele>1102.1999511719</ele>
        <time>2010-06-27T05:21:14Z</time>
      </trkpt>
      <trkpt lat="45.94119" lon="6.89853">
        <ele>1103</ele>
        <time>2010-06-27T05:21:23Z</time>
      </trkpt>
      <trkpt lat="45.94133" lon="6.89869">
        <ele>1103.4000244141</ele>
        <time>2010-06-27T05:21:30Z</time>
      </trkpt>
      <trkpt lat="45.94151" lon="6.89881">
        <ele>1103.8000488281</ele>
        <time>2010-06-27T05:21:37Z</time>
      </trkpt>
      <trkpt lat="45.94167" lon="6.89896">
        <ele>1104.1999511719</ele>
        <time>2010-06-27T05:21:43Z</time>
      </trkpt>
      <trkpt lat="45.94184" lon="6.89912">
        <ele>1104.4000244141</ele>
        <time>2010-06-27T05:21:50Z</time>
      </trkpt>
      <trkpt lat="45.94201" lon="6.89921">
        <ele>1104.4000244141</ele>
        <time>2010-06-27T05:21:57Z</time>
      </trkpt>
      <trkpt lat="45.94219" lon="6.89932">
        <ele>1104.5999755859</ele>
        <time>2010-06-27T05:22:03Z</time>
      </trkpt>
      <trkpt lat="45.94239" lon="6.89937">
        <ele>1105.4000244141</ele>
        <time>2010-06-27T05:22:10Z</time>
      </trkpt>
      <trkpt lat="45.94258" lon="6.89935">
        <ele>1106.5999755859</ele>
        <time>2010-06-27T05:22:18Z</time>
      </trkpt>
      <trkpt lat="45.94275" lon="6.89936">
        <ele>1108.5999755859</ele>
        <time>2010-06-27T05:22:26Z</time>
      </trkpt>
      <trkpt lat="45.94278" lon="6.89937">
        <ele>1108.8000488281</ele>
        <time>2010-06-27T05:22:27Z</time>
      </trkpt>
      <trkpt lat="45.94294" lon="6.89952">
        <ele>1109.5999755859</ele>
        <time>2010-06-27T05:22:32Z</time>
      </trkpt>
      <trkpt lat="45.94308" lon="6.89969">
        <ele>1111.4000244141</ele>
        <time>2010-06-27T05:22:40Z</time>
      </trkpt>
      <trkpt lat="45.94325" lon="6.89981">
        <ele>1113.8000488281</ele>
        <time>2010-06-27T05:22:47Z</time>
      </trkpt>
      <trkpt lat="45.94335" lon="6.90005">
        <ele>1117.4000244141</ele>
        <time>2010-06-27T05:22:54Z</time>
      </trkpt>
      <trkpt lat="45.94344" lon="6.90032">
        <ele>1121.4000244141</ele>
        <time>2010-06-27T05:23:01Z</time>
      </trkpt>
      <trkpt lat="45.94346" lon="6.90045">
        <ele>1123</ele>
        <time>2010-06-27T05:23:04Z</time>
      </trkpt>
      <trkpt lat="45.94344" lon="6.90059">
        <ele>1125</ele>
        <time>2010-06-27T05:23:08Z</time>
      </trkpt>
      <trkpt lat="45.94341" lon="6.9007">
        <ele>1127</ele>
        <time>2010-06-27T05:23:13Z</time>
      </trkpt>
      <trkpt lat="45.9435" lon="6.90075">
        <ele>1128.4000244141</ele>
        <time>2010-06-27T05:23:17Z</time>
      </trkpt>
      <trkpt lat="45.9436" lon="6.9008">
        <ele>1128.8000488281</ele>
        <time>2010-06-27T05:23:20Z</time>
      </trkpt>
      <trkpt lat="45.9437" lon="6.90084">
        <ele>1129.1999511719</ele>
        <time>2010-06-27T05:23:24Z</time>
      </trkpt>
      <trkpt lat="45.9439" lon="6.90092">
        <ele>1129.8000488281</ele>
        <time>2010-06-27T05:23:30Z</time>
      </trkpt>
      <trkpt lat="45.9441" lon="6.90097">
        <ele>1129.4000244141</ele>
        <time>2010-06-27T05:23:37Z</time>
      </trkpt>
      <trkpt lat="45.94427" lon="6.90098">
        <ele>1129.1999511719</ele>
        <time>2010-06-27T05:23:43Z</time>
      </trkpt>
      <trkpt lat="45.9443" lon="6.90098">
        <ele>1129.1999511719</ele>
        <time>2010-06-27T05:23:44Z</time>
      </trkpt>
      <trkpt lat="45.94448" lon="6.90099">
        <ele>1129.1999511719</ele>
        <time>2010-06-27T05:23:51Z</time>
      </trkpt>
      <trkpt lat="45.94466" lon="6.90104">
        <ele>1129.4000244141</ele>
        <time>2010-06-27T05:23:59Z</time>
      </trkpt>
      <trkpt lat="45.94474" lon="6.9011">
        <ele>1130</ele>
        <time>2010-06-27T05:24:03Z</time>
      </trkpt>
      <trkpt lat="45.94482" lon="6.90119">
        <ele>1131.1999511719</ele>
        <time>2010-06-27T05:24:06Z</time>
      </trkpt>
      <trkpt lat="45.94497" lon="6.9014">
        <ele>1134</ele>
        <time>2010-06-27T05:24:13Z</time>
      </trkpt>
      <trkpt lat="45.945" lon="6.90152">
        <ele>1134.8000488281</ele>
        <time>2010-06-27T05:24:17Z</time>
      </trkpt>
      <trkpt lat="45.94503" lon="6.90168">
        <ele>1135.4000244141</ele>
        <time>2010-06-27T05:24:22Z</time>
      </trkpt>
      <trkpt lat="45.94505" lon="6.90174">
        <ele>1135.1999511719</ele>
        <time>2010-06-27T05:24:24Z</time>
      </trkpt>
      <trkpt lat="45.94515" lon="6.90187">
        <ele>1135.5999755859</ele>
        <time>2010-06-27T05:24:29Z</time>
      </trkpt>
      <trkpt lat="45.94534" lon="6.90192">
        <ele>1137</ele>
        <time>2010-06-27T05:24:37Z</time>
      </trkpt>
      <trkpt lat="45.94555" lon="6.90201">
        <ele>1138</ele>
        <time>2010-06-27T05:24:44Z</time>
      </trkpt>
      <trkpt lat="45.9457" lon="6.90216">
        <ele>1139.8000488281</ele>
        <time>2010-06-27T05:24:50Z</time>
      </trkpt>
      <trkpt lat="45.94585" lon="6.9023">
        <ele>1141.4000244141</ele>
        <time>2010-06-27T05:24:56Z</time>
      </trkpt>
      <trkpt lat="45.94603" lon="6.90246">
        <ele>1142.8000488281</ele>
        <time>2010-06-27T05:25:04Z</time>
      </trkpt>
      <trkpt lat="45.94621" lon="6.90259">
        <ele>1144.8000488281</ele>
        <time>2010-06-27T05:25:12Z</time>
      </trkpt>
      <trkpt lat="45.94632" lon="6.90267">
        <ele>1145.1999511719</ele>
        <time>2010-06-27T05:25:17Z</time>
      </trkpt>
      <trkpt lat="45.94638" lon="6.90272">
        <ele>1146</ele>
        <time>2010-06-27T05:25:20Z</time>
      </trkpt>
      <trkpt lat="45.94656" lon="6.90283">
        <ele>1147.8000488281</ele>
        <time>2010-06-27T05:25:28Z</time>
      </trkpt>
      <trkpt lat="45.94664" lon="6.90288">
        <ele>1149</ele>
        <time>2010-06-27T05:25:31Z</time>
      </trkpt>
      <trkpt lat="45.94673" lon="6.90295">
        <ele>1150.4000244141</ele>
        <time>2010-06-27T05:25:35Z</time>
      </trkpt>
      <trkpt lat="45.94687" lon="6.90313">
        <ele>1152.5999755859</ele>
        <time>2010-06-27T05:25:43Z</time>
      </trkpt>
      <trkpt lat="45.94691" lon="6.90322">
        <ele>1153.4000244141</ele>
        <time>2010-06-27T05:25:46Z</time>
      </trkpt>
      <trkpt lat="45.94696" lon="6.90333">
        <ele>1154</ele>
        <time>2010-06-27T05:25:50Z</time>
      </trkpt>
      <trkpt lat="45.94696" lon="6.90335">
        <ele>1154.1999511719</ele>
        <time>2010-06-27T05:25:51Z</time>
      </trkpt>
      <trkpt lat="45.94699" lon="6.90347">
        <ele>1155.1999511719</ele>
        <time>2010-06-27T05:25:56Z</time>
      </trkpt>
      <trkpt lat="45.947" lon="6.9036">
        <ele>1156.4000244141</ele>
        <time>2010-06-27T05:26:00Z</time>
      </trkpt>
      <trkpt lat="45.94701" lon="6.90366">
        <ele>1156.8000488281</ele>
        <time>2010-06-27T05:26:02Z</time>
      </trkpt>
      <trkpt lat="45.94705" lon="6.90372">
        <ele>1157</ele>
        <time>2010-06-27T05:26:04Z</time>
      </trkpt>
      <trkpt lat="45.94712" lon="6.9038">
        <ele>1157.5999755859</ele>
        <time>2010-06-27T05:26:07Z</time>
      </trkpt>
      <trkpt lat="45.94716" lon="6.90386">
        <ele>1158.1999511719</ele>
        <time>2010-06-27T05:26:09Z</time>
      </trkpt>
      <trkpt lat="45.94723" lon="6.90404">
        <ele>1159</ele>
        <time>2010-06-27T05:26:14Z</time>
      </trkpt>
      <trkpt lat="45.94734" lon="6.90427">
        <ele>1160</ele>
        <time>2010-06-27T05:26:22Z</time>
      </trkpt>
      <trkpt lat="45.94746" lon="6.90448">
        <ele>1160.8000488281</ele>
        <time>2010-06-27T05:26:29Z</time>
      </trkpt>
      <trkpt lat="45.94749" lon="6.90475">
        <ele>1162</ele>
        <time>2010-06-27T05:26:36Z</time>
      </trkpt>
      <trkpt lat="45.94747" lon="6.90486">
        <ele>1163</ele>
        <time>2010-06-27T05:26:40Z</time>
      </trkpt>
      <trkpt lat="45.94754" lon="6.90496">
        <ele>1164.1999511719</ele>
        <time>2010-06-27T05:26:46Z</time>
      </trkpt>
      <trkpt lat="45.94764" lon="6.90483">
        <ele>1164.8000488281</ele>
        <time>2010-06-27T05:26:51Z</time>
      </trkpt>
      <trkpt lat="45.94768" lon="6.90478">
        <ele>1165</ele>
        <time>2010-06-27T05:26:53Z</time>
      </trkpt>
      <trkpt lat="45.9478" lon="6.90465">
        <ele>1165.1999511719</ele>
        <time>2010-06-27T05:26:59Z</time>
      </trkpt>
      <trkpt lat="45.94782" lon="6.9046">
        <ele>1165.1999511719</ele>
        <time>2010-06-27T05:27:01Z</time>
      </trkpt>
      <trkpt lat="45.94788" lon="6.90432">
        <ele>1165.5999755859</ele>
        <time>2010-06-27T05:27:10Z</time>
      </trkpt>
      <trkpt lat="45.94783" lon="6.90408">
        <ele>1166.4000244141</ele>
        <time>2010-06-27T05:27:18Z</time>
      </trkpt>
      <trkpt lat="45.94779" lon="6.90382">
        <ele>1168.1999511719</ele>
        <time>2010-06-27T05:27:28Z</time>
      </trkpt>
      <trkpt lat="45.94778" lon="6.9038">
        <ele>1168.4000244141</ele>
        <time>2010-06-27T05:27:29Z</time>
      </trkpt>
      <trkpt lat="45.94777" lon="6.90379">
        <ele>1168.5999755859</ele>
        <time>2010-06-27T05:27:30Z</time>
      </trkpt>
      <trkpt lat="45.94773" lon="6.90358">
        <ele>1170.1999511719</ele>
        <time>2010-06-27T05:27:38Z</time>
      </trkpt>
      <trkpt lat="45.94773" lon="6.90346">
        <ele>1171.1999511719</ele>
        <time>2010-06-27T05:27:42Z</time>
      </trkpt>
      <trkpt lat="45.94777" lon="6.90334">
        <ele>1172.1999511719</ele>
        <time>2010-06-27T05:27:46Z</time>
      </trkpt>
      <trkpt lat="45.94787" lon="6.90322">
        <ele>1174.1999511719</ele>
        <time>2010-06-27T05:27:51Z</time>
      </trkpt>
      <trkpt lat="45.94793" lon="6.90324">
        <ele>1174.5999755859</ele>
        <time>2010-06-27T05:27:53Z</time>
      </trkpt>
      <trkpt lat="45.94805" lon="6.90335">
        <ele>1176</ele>
        <time>2010-06-27T05:27:57Z</time>
      </trkpt>
      <trkpt lat="45.94809" lon="6.90339">
        <ele>1176.4000244141</ele>
        <time>2010-06-27T05:27:59Z</time>
      </trkpt>
      <trkpt lat="45.94827" lon="6.90349">
        <ele>1178.5999755859</ele>
        <time>2010-06-27T05:28:06Z</time>
      </trkpt>
      <trkpt lat="45.94836" lon="6.90373">
        <ele>1180.1999511719</ele>
        <time>2010-06-27T05:28:13Z</time>
      </trkpt>
      <trkpt lat="45.94841" lon="6.90386">
        <ele>1181.1999511719</ele>
        <time>2010-06-27T05:28:17Z</time>
      </trkpt>
      <trkpt lat="45.94846" lon="6.90396">
        <ele>1182.5999755859</ele>
        <time>2010-06-27T05:28:22Z</time>
      </trkpt>
      <trkpt lat="45.94855" lon="6.90409">
        <ele>1184.4000244141</ele>
        <time>2010-06-27T05:28:28Z</time>
      </trkpt>
      <trkpt lat="45.94859" lon="6.90415">
        <ele>1184.8000488281</ele>
        <time>2010-06-27T05:28:30Z</time>
      </trkpt>
      <trkpt lat="45.94866" lon="6.90438">
        <ele>1187.1999511719</ele>
        <time>2010-06-27T05:28:41Z</time>
      </trkpt>
      <trkpt lat="45.94868" lon="6.90467">
        <ele>1188.4000244141</ele>
        <time>2010-06-27T05:28:50Z</time>
      </trkpt>
      <trkpt lat="45.94869" lon="6.90487">
        <ele>1189.4000244141</ele>
        <time>2010-06-27T05:28:57Z</time>
      </trkpt>
      <trkpt lat="45.9487" lon="6.90495">
        <ele>1190.4000244141</ele>
        <time>2010-06-27T05:29:00Z</time>
      </trkpt>
      <trkpt lat="45.94869" lon="6.90498">
        <ele>1190.5999755859</ele>
        <time>2010-06-27T05:29:01Z</time>
      </trkpt>
      <trkpt lat="45.94868" lon="6.90507">
        <ele>1191.8000488281</ele>
        <time>2010-06-27T05:29:04Z</time>
      </trkpt>
      <trkpt lat="45.94875" lon="6.90519">
        <ele>1193.8000488281</ele>
        <time>2010-06-27T05:29:08Z</time>
      </trkpt>
      <trkpt lat="45.94894" lon="6.90519">
        <ele>1197.1999511719</ele>
        <time>2010-06-27T05:29:17Z</time>
      </trkpt>
      <trkpt lat="45.94908" lon="6.90527">
        <ele>1199.8000488281</ele>
        <time>2010-06-27T05:29:23Z</time>
      </trkpt>
      <trkpt lat="45.94912" lon="6.90532">
        <ele>1200.5999755859</ele>
        <time>2010-06-27T05:29:25Z</time>
      </trkpt>
      <trkpt lat="45.94928" lon="6.90548">
        <ele>1202.5999755859</ele>
        <time>2010-06-27T05:29:31Z</time>
      </trkpt>
      <trkpt lat="45.9494" lon="6.90554">
        <ele>1204.5999755859</ele>
        <time>2010-06-27T05:29:36Z</time>
      </trkpt>
      <trkpt lat="45.94946" lon="6.90554">
        <ele>1206</ele>
        <time>2010-06-27T05:29:40Z</time>
      </trkpt>
      <trkpt lat="45.94962" lon="6.90566">
        <ele>1207.5999755859</ele>
        <time>2010-06-27T05:29:49Z</time>
      </trkpt>
      <trkpt lat="45.9497" lon="6.90584">
        <ele>1208.4000244141</ele>
        <time>2010-06-27T05:29:59Z</time>
      </trkpt>
      <trkpt lat="45.94974" lon="6.90587">
        <ele>1208.4000244141</ele>
        <time>2010-06-27T05:30:01Z</time>
      </trkpt>
      <trkpt lat="45.94974" lon="6.9059">
        <ele>1208.4000244141</ele>
        <time>2010-06-27T05:30:02Z</time>
      </trkpt>
      <trkpt lat="45.94974" lon="6.90609">
        <ele>1208.4000244141</ele>
        <time>2010-06-27T05:30:10Z</time>
      </trkpt>
      <trkpt lat="45.94978" lon="6.9061">
        <ele>1208.4000244141</ele>
        <time>2010-06-27T05:30:12Z</time>
      </trkpt>
      <trkpt lat="45.94981" lon="6.90612">
        <ele>1208.5999755859</ele>
        <time>2010-06-27T05:30:13Z</time>
      </trkpt>
      <trkpt lat="45.94985" lon="6.90629">
        <ele>1209.5999755859</ele>
        <time>2010-06-27T05:30:20Z</time>
      </trkpt>
      <trkpt lat="45.94986" lon="6.90632">
        <ele>1209.8000488281</ele>
        <time>2010-06-27T05:30:21Z</time>
      </trkpt>
      <trkpt lat="45.94986" lon="6.90638">
        <ele>1210.1999511719</ele>
        <time>2010-06-27T05:30:23Z</time>
      </trkpt>
      <trkpt lat="45.94991" lon="6.90669">
        <ele>1215.1999511719</ele>
        <time>2010-06-27T05:30:36Z</time>
      </trkpt>
      <trkpt lat="45.94994" lon="6.9067">
        <ele>1215.5999755859</ele>
        <time>2010-06-27T05:30:37Z</time>
      </trkpt>
      <trkpt lat="45.94996" lon="6.90672">
        <ele>1215.8000488281</ele>
        <time>2010-06-27T05:30:38Z</time>
      </trkpt>
      <trkpt lat="45.94999" lon="6.90682">
        <ele>1217.8000488281</ele>
        <time>2010-06-27T05:30:45Z</time>
      </trkpt>
      <trkpt lat="45.94999" lon="6.90685">
        <ele>1218.1999511719</ele>
        <time>2010-06-27T05:30:47Z</time>
      </trkpt>
      <trkpt lat="45.95001" lon="6.90696">
        <ele>1218.4000244141</ele>
        <time>2010-06-27T05:30:52Z</time>
      </trkpt>
      <trkpt lat="45.94992" lon="6.90709">
        <ele>1220</ele>
        <time>2010-06-27T05:31:00Z</time>
      </trkpt>
      <trkpt lat="45.94987" lon="6.90714">
        <ele>1220.5999755859</ele>
        <time>2010-06-27T05:31:04Z</time>
      </trkpt>
      <trkpt lat="45.94987" lon="6.90716">
        <ele>1221</ele>
        <time>2010-06-27T05:31:05Z</time>
      </trkpt>
      <trkpt lat="45.94989" lon="6.90725">
        <ele>1223.1999511719</ele>
        <time>2010-06-27T05:31:10Z</time>
      </trkpt>
      <trkpt lat="45.94991" lon="6.90728">
        <ele>1224</ele>
        <time>2010-06-27T05:31:12Z</time>
      </trkpt>
      <trkpt lat="45.94995" lon="6.90731">
        <ele>1226</ele>
        <time>2010-06-27T05:31:17Z</time>
      </trkpt>
      <trkpt lat="45.94995" lon="6.9073">
        <ele>1226.4000244141</ele>
        <time>2010-06-27T05:31:18Z</time>
      </trkpt>
      <trkpt lat="45.94999" lon="6.90728">
        <ele>1227.8000488281</ele>
        <time>2010-06-27T05:31:21Z</time>
      </trkpt>
      <trkpt lat="45.95004" lon="6.9072">
        <ele>1229</ele>
        <time>2010-06-27T05:31:24Z</time>
      </trkpt>
      <trkpt lat="45.95008" lon="6.90713">
        <ele>1230.5999755859</ele>
        <time>2010-06-27T05:31:28Z</time>
      </trkpt>
      <trkpt lat="45.95011" lon="6.90706">
        <ele>1232</ele>
        <time>2010-06-27T05:31:31Z</time>
      </trkpt>
      <trkpt lat="45.95013" lon="6.90704">
        <ele>1232.1999511719</ele>
        <time>2010-06-27T05:31:32Z</time>
      </trkpt>
      <trkpt lat="45.95021" lon="6.90683">
        <ele>1236</ele>
        <time>2010-06-27T05:31:41Z</time>
      </trkpt>
      <trkpt lat="45.95023" lon="6.90679">
        <ele>1236.5999755859</ele>
        <time>2010-06-27T05:31:43Z</time>
      </trkpt>
      <trkpt lat="45.95031" lon="6.90661">
        <ele>1238.1999511719</ele>
        <time>2010-06-27T05:31:50Z</time>
      </trkpt>
      <trkpt lat="45.95033" lon="6.90656">
        <ele>1238.4000244141</ele>
        <time>2010-06-27T05:31:52Z</time>
      </trkpt>
      <trkpt lat="45.9504" lon="6.90635">
        <ele>1239.4000244141</ele>
        <time>2010-06-27T05:31:58Z</time>
      </trkpt>
      <trkpt lat="45.9505" lon="6.90613">
        <ele>1240.4000244141</ele>
        <time>2010-06-27T05:32:04Z</time>
      </trkpt>
      <trkpt lat="45.9506" lon="6.90589">
        <ele>1241.4000244141</ele>
        <time>2010-06-27T05:32:09Z</time>
      </trkpt>
      <trkpt lat="45.95071" lon="6.90565">
        <ele>1243.4000244141</ele>
        <time>2010-06-27T05:32:15Z</time>
      </trkpt>
      <trkpt lat="45.95083" lon="6.90544">
        <ele>1246</ele>
        <time>2010-06-27T05:32:22Z</time>
      </trkpt>
      <trkpt lat="45.95101" lon="6.90532">
        <ele>1245.8000488281</ele>
        <time>2010-06-27T05:32:29Z</time>
      </trkpt>
      <trkpt lat="45.95122" lon="6.90521">
        <ele>1245.5999755859</ele>
        <time>2010-06-27T05:32:36Z</time>
      </trkpt>
      <trkpt lat="45.95142" lon="6.90519">
        <ele>1245.4000244141</ele>
        <time>2010-06-27T05:32:41Z</time>
      </trkpt>
      <trkpt lat="45.95161" lon="6.90513">
        <ele>1245</ele>
        <time>2010-06-27T05:32:47Z</time>
      </trkpt>
      <trkpt lat="45.95179" lon="6.90516">
        <ele>1244.4000244141</ele>
        <time>2010-06-27T05:32:55Z</time>
      </trkpt>
      <trkpt lat="45.95199" lon="6.9051">
        <ele>1243.8000488281</ele>
        <time>2010-06-27T05:33:04Z</time>
      </trkpt>
      <trkpt lat="45.95217" lon="6.90501">
        <ele>1243.5999755859</ele>
        <time>2010-06-27T05:33:12Z</time>
      </trkpt>
      <trkpt lat="45.95236" lon="6.90498">
        <ele>1243.4000244141</ele>
        <time>2010-06-27T05:33:20Z</time>
      </trkpt>
      <trkpt lat="45.95254" lon="6.90489">
        <ele>1244</ele>
        <time>2010-06-27T05:33:29Z</time>
      </trkpt>
      <trkpt lat="45.95274" lon="6.90487">
        <ele>1245.8000488281</ele>
        <time>2010-06-27T05:33:38Z</time>
      </trkpt>
      <trkpt lat="45.95295" lon="6.90483">
        <ele>1247.5999755859</ele>
        <time>2010-06-27T05:33:45Z</time>
      </trkpt>
      <trkpt lat="45.95315" lon="6.90482">
        <ele>1249.1999511719</ele>
        <time>2010-06-27T05:33:52Z</time>
      </trkpt>
      <trkpt lat="45.95333" lon="6.9049">
        <ele>1250.5999755859</ele>
        <time>2010-06-27T05:34:00Z</time>
      </trkpt>
      <trkpt lat="45.95346" lon="6.90494">
        <ele>1251.5999755859</ele>
        <time>2010-06-27T05:34:07Z</time>
      </trkpt>
      <trkpt lat="45.95352" lon="6.90499">
        <ele>1252.4000244141</ele>
        <time>2010-06-27T05:34:10Z</time>
      </trkpt>
      <trkpt lat="45.95367" lon="6.90507">
        <ele>1253.5999755859</ele>
        <time>2010-06-27T05:34:17Z</time>
      </trkpt>
      <trkpt lat="45.95369" lon="6.90509">
        <ele>1253.8000488281</ele>
        <time>2010-06-27T05:34:18Z</time>
      </trkpt>
      <trkpt lat="45.95384" lon="6.90521">
        <ele>1255.4000244141</ele>
        <time>2010-06-27T05:34:24Z</time>
      </trkpt>
      <trkpt lat="45.95386" lon="6.90523">
        <ele>1255.5999755859</ele>
        <time>2010-06-27T05:34:25Z</time>
      </trkpt>
      <trkpt lat="45.95403" lon="6.90532">
        <ele>1256</ele>
        <time>2010-06-27T05:34:31Z</time>
      </trkpt>
      <trkpt lat="45.95421" lon="6.90541">
        <ele>1256</ele>
        <time>2010-06-27T05:34:37Z</time>
      </trkpt>
      <trkpt lat="45.9544" lon="6.90545">
        <ele>1255.8000488281</ele>
        <time>2010-06-27T05:34:43Z</time>
      </trkpt>
      <trkpt lat="45.9546" lon="6.9054">
        <ele>1255.5999755859</ele>
        <time>2010-06-27T05:34:50Z</time>
      </trkpt>
      <trkpt lat="45.95479" lon="6.90536">
        <ele>1255.4000244141</ele>
        <time>2010-06-27T05:34:56Z</time>
      </trkpt>
      <trkpt lat="45.95498" lon="6.90545">
        <ele>1254.8000488281</ele>
        <time>2010-06-27T05:35:02Z</time>
      </trkpt>
      <trkpt lat="45.95516" lon="6.90556">
        <ele>1254</ele>
        <time>2010-06-27T05:35:08Z</time>
      </trkpt>
      <trkpt lat="45.95535" lon="6.90568">
        <ele>1253.1999511719</ele>
        <time>2010-06-27T05:35:14Z</time>
      </trkpt>
      <trkpt lat="45.95554" lon="6.90569">
        <ele>1251.8000488281</ele>
        <time>2010-06-27T05:35:22Z</time>
      </trkpt>
      <trkpt lat="45.95572" lon="6.90571">
        <ele>1250.4000244141</ele>
        <time>2010-06-27T05:35:30Z</time>
      </trkpt>
      <trkpt lat="45.95591" lon="6.90565">
        <ele>1248.8000488281</ele>
        <time>2010-06-27T05:35:39Z</time>
      </trkpt>
      <trkpt lat="45.9561" lon="6.90564">
        <ele>1247.8000488281</ele>
        <time>2010-06-27T05:35:45Z</time>
      </trkpt>
      <trkpt lat="45.95626" lon="6.90578">
        <ele>1246.8000488281</ele>
        <time>2010-06-27T05:35:51Z</time>
      </trkpt>
      <trkpt lat="45.95641" lon="6.90592">
        <ele>1245.1999511719</ele>
        <time>2010-06-27T05:36:00Z</time>
      </trkpt>
      <trkpt lat="45.95659" lon="6.90592">
        <ele>1243.4000244141</ele>
        <time>2010-06-27T05:36:08Z</time>
      </trkpt>
      <trkpt lat="45.95678" lon="6.90599">
        <ele>1241.1999511719</ele>
        <time>2010-06-27T05:36:18Z</time>
      </trkpt>
      <trkpt lat="45.95699" lon="6.90605">
        <ele>1240.1999511719</ele>
        <time>2010-06-27T05:36:25Z</time>
      </trkpt>
      <trkpt lat="45.95704" lon="6.90615">
        <ele>1239.8000488281</ele>
        <time>2010-06-27T05:36:28Z</time>
      </trkpt>
      <trkpt lat="45.95707" lon="6.90628">
        <ele>1239.5999755859</ele>
        <time>2010-06-27T05:36:31Z</time>
      </trkpt>
      <trkpt lat="45.95715" lon="6.90631">
        <ele>1239.1999511719</ele>
        <time>2010-06-27T05:36:34Z</time>
      </trkpt>
      <trkpt lat="45.95725" lon="6.90632">
        <ele>1239</ele>
        <time>2010-06-27T05:36:37Z</time>
      </trkpt>
      <trkpt lat="45.95731" lon="6.90654">
        <ele>1238</ele>
        <time>2010-06-27T05:36:44Z</time>
      </trkpt>
      <trkpt lat="45.95731" lon="6.90682">
        <ele>1236.4000244141</ele>
        <time>2010-06-27T05:36:51Z</time>
      </trkpt>
      <trkpt lat="45.95742" lon="6.90706">
        <ele>1235.1999511719</ele>
        <time>2010-06-27T05:36:57Z</time>
      </trkpt>
      <trkpt lat="45.95753" lon="6.9073">
        <ele>1233.8000488281</ele>
        <time>2010-06-27T05:37:04Z</time>
      </trkpt>
      <trkpt lat="45.95765" lon="6.90752">
        <ele>1232.8000488281</ele>
        <time>2010-06-27T05:37:11Z</time>
      </trkpt>
      <trkpt lat="45.95778" lon="6.90775">
        <ele>1231.8000488281</ele>
        <time>2010-06-27T05:37:18Z</time>
      </trkpt>
      <trkpt lat="45.95789" lon="6.90799">
        <ele>1231.4000244141</ele>
        <time>2010-06-27T05:37:25Z</time>
      </trkpt>
      <trkpt lat="45.95802" lon="6.90822">
        <ele>1231</ele>
        <time>2010-06-27T05:37:32Z</time>
      </trkpt>
      <trkpt lat="45.95814" lon="6.90845">
        <ele>1230.8000488281</ele>
        <time>2010-06-27T05:37:39Z</time>
      </trkpt>
      <trkpt lat="45.95826" lon="6.90867">
        <ele>1230.5999755859</ele>
        <time>2010-06-27T05:37:46Z</time>
      </trkpt>
      <trkpt lat="45.95839" lon="6.90886">
        <ele>1230.5999755859</ele>
        <time>2010-06-27T05:37:52Z</time>
      </trkpt>
      <trkpt lat="45.95854" lon="6.90904">
        <ele>1230.4000244141</ele>
        <time>2010-06-27T05:37:59Z</time>
      </trkpt>
      <trkpt lat="45.9587" lon="6.90923">
        <ele>1230.5999755859</ele>
        <time>2010-06-27T05:38:06Z</time>
      </trkpt>
      <trkpt lat="45.95885" lon="6.90941">
        <ele>1230.4000244141</ele>
        <time>2010-06-27T05:38:13Z</time>
      </trkpt>
      <trkpt lat="45.959" lon="6.90959">
        <ele>1230.5999755859</ele>
        <time>2010-06-27T05:38:21Z</time>
      </trkpt>
      <trkpt lat="45.95915" lon="6.90978">
        <ele>1231</ele>
        <time>2010-06-27T05:38:28Z</time>
      </trkpt>
      <trkpt lat="45.95932" lon="6.90993">
        <ele>1231.8000488281</ele>
        <time>2010-06-27T05:38:36Z</time>
      </trkpt>
      <trkpt lat="45.9595" lon="6.91007">
        <ele>1232.1999511719</ele>
        <time>2010-06-27T05:38:44Z</time>
      </trkpt>
      <trkpt lat="45.95967" lon="6.91018">
        <ele>1233.1999511719</ele>
        <time>2010-06-27T05:38:52Z</time>
      </trkpt>
      <trkpt lat="45.95981" lon="6.91035">
        <ele>1234.8000488281</ele>
        <time>2010-06-27T05:39:01Z</time>
      </trkpt>
      <trkpt lat="45.95985" lon="6.91042">
        <ele>1235.5999755859</ele>
        <time>2010-06-27T05:39:05Z</time>
      </trkpt>
      <trkpt lat="45.95985" lon="6.91044">
        <ele>1235.8000488281</ele>
        <time>2010-06-27T05:39:06Z</time>
      </trkpt>
      <trkpt lat="45.95993" lon="6.91056">
        <ele>1237</ele>
        <time>2010-06-27T05:39:10Z</time>
      </trkpt>
      <trkpt lat="45.96005" lon="6.91077">
        <ele>1240</ele>
        <time>2010-06-27T05:39:17Z</time>
      </trkpt>
      <trkpt lat="45.96008" lon="6.91082">
        <ele>1241.5999755859</ele>
        <time>2010-06-27T05:39:20Z</time>
      </trkpt>
      <trkpt lat="45.96019" lon="6.91092">
        <ele>1244.5999755859</ele>
        <time>2010-06-27T05:39:27Z</time>
      </trkpt>
      <trkpt lat="45.96034" lon="6.9111">
        <ele>1246.8000488281</ele>
        <time>2010-06-27T05:39:36Z</time>
      </trkpt>
      <trkpt lat="45.9605" lon="6.91124">
        <ele>1247.5999755859</ele>
        <time>2010-06-27T05:39:43Z</time>
      </trkpt>
      <trkpt lat="45.96064" lon="6.91142">
        <ele>1248.8000488281</ele>
        <time>2010-06-27T05:39:51Z</time>
      </trkpt>
      <trkpt lat="45.96079" lon="6.91159">
        <ele>1250</ele>
        <time>2010-06-27T05:39:58Z</time>
      </trkpt>
      <trkpt lat="45.96095" lon="6.91176">
        <ele>1251.5999755859</ele>
        <time>2010-06-27T05:40:06Z</time>
      </trkpt>
      <trkpt lat="45.96112" lon="6.9119">
        <ele>1252.8000488281</ele>
        <time>2010-06-27T05:40:13Z</time>
      </trkpt>
      <trkpt lat="45.96129" lon="6.91206">
        <ele>1253.8000488281</ele>
        <time>2010-06-27T05:40:20Z</time>
      </trkpt>
      <trkpt lat="45.96145" lon="6.91219">
        <ele>1254.8000488281</ele>
        <time>2010-06-27T05:40:27Z</time>
      </trkpt>
      <trkpt lat="45.96162" lon="6.91232">
        <ele>1255.8000488281</ele>
        <time>2010-06-27T05:40:34Z</time>
      </trkpt>
      <trkpt lat="45.96169" lon="6.91237">
        <ele>1256</ele>
        <time>2010-06-27T05:40:37Z</time>
      </trkpt>
      <trkpt lat="45.96177" lon="6.91243">
        <ele>1256.8000488281</ele>
        <time>2010-06-27T05:40:41Z</time>
      </trkpt>
      <trkpt lat="45.96179" lon="6.91244">
        <ele>1257</ele>
        <time>2010-06-27T05:40:42Z</time>
      </trkpt>
      <trkpt lat="45.96198" lon="6.91248">
        <ele>1258.5999755859</ele>
        <time>2010-06-27T05:40:50Z</time>
      </trkpt>
      <trkpt lat="45.96214" lon="6.91252">
        <ele>1261.5999755859</ele>
        <time>2010-06-27T05:41:01Z</time>
      </trkpt>
      <trkpt lat="45.96217" lon="6.91255">
        <ele>1262</ele>
        <time>2010-06-27T05:41:03Z</time>
      </trkpt>
      <trkpt lat="45.9622" lon="6.9126">
        <ele>1262.4000244141</ele>
        <time>2010-06-27T05:41:05Z</time>
      </trkpt>
      <trkpt lat="45.96229" lon="6.91271">
        <ele>1263.8000488281</ele>
        <time>2010-06-27T05:41:10Z</time>
      </trkpt>
      <trkpt lat="45.96233" lon="6.91274">
        <ele>1264.1999511719</ele>
        <time>2010-06-27T05:41:12Z</time>
      </trkpt>
      <trkpt lat="45.96237" lon="6.91278">
        <ele>1264.4000244141</ele>
        <time>2010-06-27T05:41:14Z</time>
      </trkpt>
      <trkpt lat="45.96249" lon="6.91289">
        <ele>1265.4000244141</ele>
        <time>2010-06-27T05:41:18Z</time>
      </trkpt>
      <trkpt lat="45.96257" lon="6.91293">
        <ele>1266</ele>
        <time>2010-06-27T05:41:20Z</time>
      </trkpt>
      <trkpt lat="45.96265" lon="6.91302">
        <ele>1267.8000488281</ele>
        <time>2010-06-27T05:41:24Z</time>
      </trkpt>
      <trkpt lat="45.96278" lon="6.91319">
        <ele>1269.4000244141</ele>
        <time>2010-06-27T05:41:32Z</time>
      </trkpt>
      <trkpt lat="45.96284" lon="6.91329">
        <ele>1270.5999755859</ele>
        <time>2010-06-27T05:41:36Z</time>
      </trkpt>
      <trkpt lat="45.96289" lon="6.91335">
        <ele>1271.1999511719</ele>
        <time>2010-06-27T05:41:39Z</time>
      </trkpt>
      <trkpt lat="45.96291" lon="6.91337">
        <ele>1271.1999511719</ele>
        <time>2010-06-27T05:41:40Z</time>
      </trkpt>
      <trkpt lat="45.96307" lon="6.91352">
        <ele>1273.5999755859</ele>
        <time>2010-06-27T05:41:47Z</time>
      </trkpt>
      <trkpt lat="45.96324" lon="6.91366">
        <ele>1275.8000488281</ele>
        <time>2010-06-27T05:41:53Z</time>
      </trkpt>
      <trkpt lat="45.96332" lon="6.91377">
        <ele>1278.5999755859</ele>
        <time>2010-06-27T05:42:01Z</time>
      </trkpt>
      <trkpt lat="45.96335" lon="6.91381">
        <ele>1279</ele>
        <time>2010-06-27T05:42:03Z</time>
      </trkpt>
      <trkpt lat="45.96338" lon="6.91389">
        <ele>1280.5999755859</ele>
        <time>2010-06-27T05:42:07Z</time>
      </trkpt>
      <trkpt lat="45.96341" lon="6.91398">
        <ele>1282.1999511719</ele>
        <time>2010-06-27T05:42:11Z</time>
      </trkpt>
      <trkpt lat="45.96344" lon="6.91413">
        <ele>1284.8000488281</ele>
        <time>2010-06-27T05:42:17Z</time>
      </trkpt>
      <trkpt lat="45.96349" lon="6.91426">
        <ele>1286.4000244141</ele>
        <time>2010-06-27T05:42:22Z</time>
      </trkpt>
      <trkpt lat="45.96352" lon="6.91431">
        <ele>1286.8000488281</ele>
        <time>2010-06-27T05:42:24Z</time>
      </trkpt>
      <trkpt lat="45.96357" lon="6.91436">
        <ele>1287.5999755859</ele>
        <time>2010-06-27T05:42:26Z</time>
      </trkpt>
      <trkpt lat="45.96371" lon="6.91454">
        <ele>1290.5999755859</ele>
        <time>2010-06-27T05:42:34Z</time>
      </trkpt>
      <trkpt lat="45.96384" lon="6.91475">
        <ele>1294</ele>
        <time>2010-06-27T05:42:41Z</time>
      </trkpt>
      <trkpt lat="45.96386" lon="6.91481">
        <ele>1294.5999755859</ele>
        <time>2010-06-27T05:42:43Z</time>
      </trkpt>
      <trkpt lat="45.96391" lon="6.91493">
        <ele>1295.5999755859</ele>
        <time>2010-06-27T05:42:48Z</time>
      </trkpt>
      <trkpt lat="45.96394" lon="6.91499">
        <ele>1296.1999511719</ele>
        <time>2010-06-27T05:42:50Z</time>
      </trkpt>
      <trkpt lat="45.96406" lon="6.91518">
        <ele>1296.8000488281</ele>
        <time>2010-06-27T05:42:58Z</time>
      </trkpt>
      <trkpt lat="45.96422" lon="6.91529">
        <ele>1297.4000244141</ele>
        <time>2010-06-27T05:43:03Z</time>
      </trkpt>
      <trkpt lat="45.96436" lon="6.91535">
        <ele>1300.4000244141</ele>
        <time>2010-06-27T05:43:09Z</time>
      </trkpt>
      <trkpt lat="45.96437" lon="6.91538">
        <ele>1301</ele>
        <time>2010-06-27T05:43:11Z</time>
      </trkpt>
      <trkpt lat="45.96438" lon="6.91541">
        <ele>1301.1999511719</ele>
        <time>2010-06-27T05:43:12Z</time>
      </trkpt>
      <trkpt lat="45.96438" lon="6.9155">
        <ele>1302</ele>
        <time>2010-06-27T05:43:15Z</time>
      </trkpt>
      <trkpt lat="45.9644" lon="6.91558">
        <ele>1302.5999755859</ele>
        <time>2010-06-27T05:43:18Z</time>
      </trkpt>
      <trkpt lat="45.96442" lon="6.91567">
        <ele>1303</ele>
        <time>2010-06-27T05:43:22Z</time>
      </trkpt>
      <trkpt lat="45.96442" lon="6.91569">
        <ele>1303.5999755859</ele>
        <time>2010-06-27T05:43:24Z</time>
      </trkpt>
      <trkpt lat="45.96454" lon="6.91592">
        <ele>1305.5999755859</ele>
        <time>2010-06-27T05:43:33Z</time>
      </trkpt>
      <trkpt lat="45.9646" lon="6.91592">
        <ele>1307</ele>
        <time>2010-06-27T05:43:36Z</time>
      </trkpt>
      <trkpt lat="45.96464" lon="6.91592">
        <ele>1307.1999511719</ele>
        <time>2010-06-27T05:43:37Z</time>
      </trkpt>
      <trkpt lat="45.96474" lon="6.91596">
        <ele>1309.1999511719</ele>
        <time>2010-06-27T05:43:41Z</time>
      </trkpt>
      <trkpt lat="45.96479" lon="6.91601">
        <ele>1310.4000244141</ele>
        <time>2010-06-27T05:43:43Z</time>
      </trkpt>
      <trkpt lat="45.96491" lon="6.9161">
        <ele>1314</ele>
        <time>2010-06-27T05:43:49Z</time>
      </trkpt>
      <trkpt lat="45.96497" lon="6.9162">
        <ele>1316.8000488281</ele>
        <time>2010-06-27T05:43:55Z</time>
      </trkpt>
      <trkpt lat="45.96505" lon="6.91628">
        <ele>1316.5999755859</ele>
        <time>2010-06-27T05:43:58Z</time>
      </trkpt>
      <trkpt lat="45.9652" lon="6.91645">
        <ele>1316.8000488281</ele>
        <time>2010-06-27T05:44:05Z</time>
      </trkpt>
      <trkpt lat="45.96534" lon="6.91657">
        <ele>1316.8000488281</ele>
        <time>2010-06-27T05:44:10Z</time>
      </trkpt>
      <trkpt lat="45.96536" lon="6.9166">
        <ele>1316.8000488281</ele>
        <time>2010-06-27T05:44:11Z</time>
      </trkpt>
      <trkpt lat="45.96552" lon="6.91676">
        <ele>1316.5999755859</ele>
        <time>2010-06-27T05:44:19Z</time>
      </trkpt>
      <trkpt lat="45.96559" lon="6.91686">
        <ele>1316.8000488281</ele>
        <time>2010-06-27T05:44:23Z</time>
      </trkpt>
      <trkpt lat="45.96567" lon="6.91694">
        <ele>1316.8000488281</ele>
        <time>2010-06-27T05:44:28Z</time>
      </trkpt>
      <trkpt lat="45.96575" lon="6.91701">
        <ele>1317.5999755859</ele>
        <time>2010-06-27T05:44:33Z</time>
      </trkpt>
      <trkpt lat="45.96585" lon="6.91709">
        <ele>1318.4000244141</ele>
        <time>2010-06-27T05:44:37Z</time>
      </trkpt>
      <trkpt lat="45.96588" lon="6.91712">
        <ele>1318.4000244141</ele>
        <time>2010-06-27T05:44:38Z</time>
      </trkpt>
      <trkpt lat="45.96599" lon="6.91725">
        <ele>1319.4000244141</ele>
        <time>2010-06-27T05:44:44Z</time>
      </trkpt>
      <trkpt lat="45.966" lon="6.91726">
        <ele>1319.4000244141</ele>
        <time>2010-06-27T05:44:45Z</time>
      </trkpt>
      <trkpt lat="45.96601" lon="6.91728">
        <ele>1319.5999755859</ele>
        <time>2010-06-27T05:44:46Z</time>
      </trkpt>
      <trkpt lat="45.96614" lon="6.91748">
        <ele>1320.1999511719</ele>
        <time>2010-06-27T05:44:52Z</time>
      </trkpt>
      <trkpt lat="45.9663" lon="6.91769">
        <ele>1321.1999511719</ele>
        <time>2010-06-27T05:44:58Z</time>
      </trkpt>
      <trkpt lat="45.9664" lon="6.91784">
        <ele>1321.4000244141</ele>
        <time>2010-06-27T05:45:02Z</time>
      </trkpt>
      <trkpt lat="45.96643" lon="6.9179">
        <ele>1321.4000244141</ele>
        <time>2010-06-27T05:45:04Z</time>
      </trkpt>
      <trkpt lat="45.96649" lon="6.91798">
        <ele>1321.4000244141</ele>
        <time>2010-06-27T05:45:06Z</time>
      </trkpt>
      <trkpt lat="45.96659" lon="6.91808">
        <ele>1322.8000488281</ele>
        <time>2010-06-27T05:45:10Z</time>
      </trkpt>
      <trkpt lat="45.96664" lon="6.9181">
        <ele>1323.1999511719</ele>
        <time>2010-06-27T05:45:12Z</time>
      </trkpt>
      <trkpt lat="45.96672" lon="6.91804">
        <ele>1323.4000244141</ele>
        <time>2010-06-27T05:45:16Z</time>
      </trkpt>
      <trkpt lat="45.96676" lon="6.91803">
        <ele>1323.4000244141</ele>
        <time>2010-06-27T05:45:19Z</time>
      </trkpt>
      <trkpt lat="45.96687" lon="6.91828">
        <ele>1322.8000488281</ele>
        <time>2010-06-27T05:45:25Z</time>
      </trkpt>
      <trkpt lat="45.96688" lon="6.91842">
        <ele>1322.4000244141</ele>
        <time>2010-06-27T05:45:28Z</time>
      </trkpt>
      <trkpt lat="45.96688" lon="6.9185">
        <ele>1322.1999511719</ele>
        <time>2010-06-27T05:45:31Z</time>
      </trkpt>
      <trkpt lat="45.96692" lon="6.91851">
        <ele>1322</ele>
        <time>2010-06-27T05:45:32Z</time>
      </trkpt>
      <trkpt lat="45.9671" lon="6.91856">
        <ele>1321.8000488281</ele>
        <time>2010-06-27T05:45:37Z</time>
      </trkpt>
      <trkpt lat="45.96728" lon="6.9186">
        <ele>1321.8000488281</ele>
        <time>2010-06-27T05:45:42Z</time>
      </trkpt>
      <trkpt lat="45.9674" lon="6.91877">
        <ele>1321.8000488281</ele>
        <time>2010-06-27T05:45:48Z</time>
      </trkpt>
      <trkpt lat="45.96741" lon="6.91879">
        <ele>1321.8000488281</ele>
        <time>2010-06-27T05:45:49Z</time>
      </trkpt>
      <trkpt lat="45.96749" lon="6.91885">
        <ele>1321.5999755859</ele>
        <time>2010-06-27T05:45:52Z</time>
      </trkpt>
      <trkpt lat="45.96758" lon="6.91891">
        <ele>1321.5999755859</ele>
        <time>2010-06-27T05:45:55Z</time>
      </trkpt>
      <trkpt lat="45.96772" lon="6.91909">
        <ele>1321.5999755859</ele>
        <time>2010-06-27T05:46:01Z</time>
      </trkpt>
      <trkpt lat="45.96777" lon="6.91914">
        <ele>1321.5999755859</ele>
        <time>2010-06-27T05:46:02Z</time>
      </trkpt>
      <trkpt lat="45.96788" lon="6.91923">
        <ele>1322</ele>
        <time>2010-06-27T05:46:05Z</time>
      </trkpt>
      <trkpt lat="45.96801" lon="6.91932">
        <ele>1322.4000244141</ele>
        <time>2010-06-27T05:46:12Z</time>
      </trkpt>
      <trkpt lat="45.96805" lon="6.91939">
        <ele>1322.1999511719</ele>
        <time>2010-06-27T05:46:14Z</time>
      </trkpt>
      <trkpt lat="45.96806" lon="6.91941">
        <ele>1322</ele>
        <time>2010-06-27T05:46:15Z</time>
      </trkpt>
      <trkpt lat="45.9682" lon="6.91952">
        <ele>1321.4000244141</ele>
        <time>2010-06-27T05:46:19Z</time>
      </trkpt>
      <trkpt lat="45.96837" lon="6.91965">
        <ele>1320.4000244141</ele>
        <time>2010-06-27T05:46:25Z</time>
      </trkpt>
      <trkpt lat="45.96844" lon="6.91975">
        <ele>1319.8000488281</ele>
        <time>2010-06-27T05:46:29Z</time>
      </trkpt>
      <trkpt lat="45.96852" lon="6.91986">
        <ele>1319.1999511719</ele>
        <time>2010-06-27T05:46:32Z</time>
      </trkpt>
      <trkpt lat="45.96865" lon="6.92002">
        <ele>1318</ele>
        <time>2010-06-27T05:46:38Z</time>
      </trkpt>
      <trkpt lat="45.9688" lon="6.92015">
        <ele>1316.8000488281</ele>
        <time>2010-06-27T05:46:43Z</time>
      </trkpt>
      <trkpt lat="45.96883" lon="6.92017">
        <ele>1316.4000244141</ele>
        <time>2010-06-27T05:46:44Z</time>
      </trkpt>
      <trkpt lat="45.96902" lon="6.9203">
        <ele>1315.5999755859</ele>
        <time>2010-06-27T05:46:49Z</time>
      </trkpt>
      <trkpt lat="45.96919" lon="6.92042">
        <ele>1314.4000244141</ele>
        <time>2010-06-27T05:46:55Z</time>
      </trkpt>
      <trkpt lat="45.96935" lon="6.92059">
        <ele>1313</ele>
        <time>2010-06-27T05:47:01Z</time>
      </trkpt>
      <trkpt lat="45.96949" lon="6.92078">
        <ele>1311.1999511719</ele>
        <time>2010-06-27T05:47:08Z</time>
      </trkpt>
      <trkpt lat="45.96964" lon="6.92098">
        <ele>1310</ele>
        <time>2010-06-27T05:47:14Z</time>
      </trkpt>
      <trkpt lat="45.96973" lon="6.92112">
        <ele>1309</ele>
        <time>2010-06-27T05:47:20Z</time>
      </trkpt>
      <trkpt lat="45.96978" lon="6.92115">
        <ele>1308.5999755859</ele>
        <time>2010-06-27T05:47:22Z</time>
      </trkpt>
      <trkpt lat="45.96991" lon="6.9213">
        <ele>1307.1999511719</ele>
        <time>2010-06-27T05:47:28Z</time>
      </trkpt>
      <trkpt lat="45.96994" lon="6.9213">
        <ele>1307.1999511719</ele>
        <time>2010-06-27T05:47:29Z</time>
      </trkpt>
      <trkpt lat="45.97012" lon="6.92141">
        <ele>1306.1999511719</ele>
        <time>2010-06-27T05:47:35Z</time>
      </trkpt>
      <trkpt lat="45.97028" lon="6.92154">
        <ele>1305</ele>
        <time>2010-06-27T05:47:41Z</time>
      </trkpt>
      <trkpt lat="45.97043" lon="6.9217">
        <ele>1304</ele>
        <time>2010-06-27T05:47:46Z</time>
      </trkpt>
      <trkpt lat="45.97055" lon="6.92189">
        <ele>1302.4000244141</ele>
        <time>2010-06-27T05:47:53Z</time>
      </trkpt>
      <trkpt lat="45.97058" lon="6.9219">
        <ele>1302.1999511719</ele>
        <time>2010-06-27T05:47:54Z</time>
      </trkpt>
      <trkpt lat="45.97058" lon="6.92196">
        <ele>1301.4000244141</ele>
        <time>2010-06-27T05:47:57Z</time>
      </trkpt>
      <trkpt lat="45.97058" lon="6.92207">
        <ele>1300.4000244141</ele>
        <time>2010-06-27T05:48:01Z</time>
      </trkpt>
      <trkpt lat="45.97062" lon="6.92218">
        <ele>1299.4000244141</ele>
        <time>2010-06-27T05:48:05Z</time>
      </trkpt>
      <trkpt lat="45.97064" lon="6.9222">
        <ele>1299.1999511719</ele>
        <time>2010-06-27T05:48:06Z</time>
      </trkpt>
      <trkpt lat="45.97069" lon="6.92243">
        <ele>1297.8000488281</ele>
        <time>2010-06-27T05:48:14Z</time>
      </trkpt>
      <trkpt lat="45.97071" lon="6.9225">
        <ele>1297.4000244141</ele>
        <time>2010-06-27T05:48:16Z</time>
      </trkpt>
      <trkpt lat="45.97072" lon="6.92258">
        <ele>1297</ele>
        <time>2010-06-27T05:48:19Z</time>
      </trkpt>
      <trkpt lat="45.97076" lon="6.92269">
        <ele>1297</ele>
        <time>2010-06-27T05:48:23Z</time>
      </trkpt>
      <trkpt lat="45.97077" lon="6.92272">
        <ele>1297</ele>
        <time>2010-06-27T05:48:24Z</time>
      </trkpt>
      <trkpt lat="45.97086" lon="6.92293">
        <ele>1297.8000488281</ele>
        <time>2010-06-27T05:48:32Z</time>
      </trkpt>
      <trkpt lat="45.97087" lon="6.92295">
        <ele>1298.1999511719</ele>
        <time>2010-06-27T05:48:33Z</time>
      </trkpt>
      <trkpt lat="45.97093" lon="6.92306">
        <ele>1299</ele>
        <time>2010-06-27T05:48:39Z</time>
      </trkpt>
      <trkpt lat="45.97101" lon="6.92315">
        <ele>1299.1999511719</ele>
        <time>2010-06-27T05:48:45Z</time>
      </trkpt>
      <trkpt lat="45.97102" lon="6.92315">
        <ele>1299.4000244141</ele>
        <time>2010-06-27T05:48:46Z</time>
      </trkpt>
      <trkpt lat="45.97112" lon="6.92327">
        <ele>1299.1999511719</ele>
        <time>2010-06-27T05:48:52Z</time>
      </trkpt>
      <trkpt lat="45.97124" lon="6.92335">
        <ele>1299</ele>
        <time>2010-06-27T05:48:57Z</time>
      </trkpt>
      <trkpt lat="45.97141" lon="6.92344">
        <ele>1298.5999755859</ele>
        <time>2010-06-27T05:49:03Z</time>
      </trkpt>
      <trkpt lat="45.97158" lon="6.9236">
        <ele>1298</ele>
        <time>2010-06-27T05:49:08Z</time>
      </trkpt>
      <trkpt lat="45.97167" lon="6.92371">
        <ele>1297.1999511719</ele>
        <time>2010-06-27T05:49:13Z</time>
      </trkpt>
      <trkpt lat="45.97173" lon="6.92379">
        <ele>1296.4000244141</ele>
        <time>2010-06-27T05:49:17Z</time>
      </trkpt>
      <trkpt lat="45.97174" lon="6.92382">
        <ele>1296.1999511719</ele>
        <time>2010-06-27T05:49:18Z</time>
      </trkpt>
      <trkpt lat="45.97179" lon="6.9239">
        <ele>1295.5999755859</ele>
        <time>2010-06-27T05:49:21Z</time>
      </trkpt>
      <trkpt lat="45.9719" lon="6.92397">
        <ele>1295.1999511719</ele>
        <time>2010-06-27T05:49:24Z</time>
      </trkpt>
      <trkpt lat="45.9721" lon="6.92411">
        <ele>1294.8000488281</ele>
        <time>2010-06-27T05:49:30Z</time>
      </trkpt>
      <trkpt lat="45.97217" lon="6.92422">
        <ele>1295</ele>
        <time>2010-06-27T05:49:34Z</time>
      </trkpt>
      <trkpt lat="45.97218" lon="6.92433">
        <ele>1295.4000244141</ele>
        <time>2010-06-27T05:49:36Z</time>
      </trkpt>
      <trkpt lat="45.97226" lon="6.92442">
        <ele>1296.4000244141</ele>
        <time>2010-06-27T05:49:40Z</time>
      </trkpt>
      <trkpt lat="45.97236" lon="6.92449">
        <ele>1296.1999511719</ele>
        <time>2010-06-27T05:49:44Z</time>
      </trkpt>
      <trkpt lat="45.97243" lon="6.92454">
        <ele>1295.5999755859</ele>
        <time>2010-06-27T05:49:50Z</time>
      </trkpt>
      <trkpt lat="45.97248" lon="6.9247">
        <ele>1294.8000488281</ele>
        <time>2010-06-27T05:49:54Z</time>
      </trkpt>
      <trkpt lat="45.97252" lon="6.92478">
        <ele>1294.4000244141</ele>
        <time>2010-06-27T05:49:56Z</time>
      </trkpt>
      <trkpt lat="45.97263" lon="6.92489">
        <ele>1293.8000488281</ele>
        <time>2010-06-27T05:50:00Z</time>
      </trkpt>
      <trkpt lat="45.97274" lon="6.92495">
        <ele>1293.5999755859</ele>
        <time>2010-06-27T05:50:03Z</time>
      </trkpt>
      <trkpt lat="45.9728" lon="6.92502">
        <ele>1293.1999511719</ele>
        <time>2010-06-27T05:50:05Z</time>
      </trkpt>
      <trkpt lat="45.97296" lon="6.92517">
        <ele>1292.4000244141</ele>
        <time>2010-06-27T05:50:10Z</time>
      </trkpt>
      <trkpt lat="45.97313" lon="6.92532">
        <ele>1292</ele>
        <time>2010-06-27T05:50:16Z</time>
      </trkpt>
      <trkpt lat="45.97327" lon="6.9255">
        <ele>1291</ele>
        <time>2010-06-27T05:50:24Z</time>
      </trkpt>
      <trkpt lat="45.97327" lon="6.92553">
        <ele>1290.8000488281</ele>
        <time>2010-06-27T05:50:25Z</time>
      </trkpt>
      <trkpt lat="45.97328" lon="6.9256">
        <ele>1290.5999755859</ele>
        <time>2010-06-27T05:50:27Z</time>
      </trkpt>
      <trkpt lat="45.9733" lon="6.92575">
        <ele>1290.1999511719</ele>
        <time>2010-06-27T05:50:32Z</time>
      </trkpt>
      <trkpt lat="45.97336" lon="6.92591">
        <ele>1289.8000488281</ele>
        <time>2010-06-27T05:50:37Z</time>
      </trkpt>
      <trkpt lat="45.9734" lon="6.92599">
        <ele>1290</ele>
        <time>2010-06-27T05:50:40Z</time>
      </trkpt>
      <trkpt lat="45.97345" lon="6.92624">
        <ele>1294.4000244141</ele>
        <time>2010-06-27T05:50:50Z</time>
      </trkpt>
      <trkpt lat="45.97348" lon="6.92629">
        <ele>1295.8000488281</ele>
        <time>2010-06-27T05:50:53Z</time>
      </trkpt>
      <trkpt lat="45.97348" lon="6.92631">
        <ele>1296.1999511719</ele>
        <time>2010-06-27T05:50:54Z</time>
      </trkpt>
      <trkpt lat="45.9735" lon="6.92642">
        <ele>1299.1999511719</ele>
        <time>2010-06-27T05:51:03Z</time>
      </trkpt>
      <trkpt lat="45.97353" lon="6.92645">
        <ele>1300.4000244141</ele>
        <time>2010-06-27T05:51:07Z</time>
      </trkpt>
      <trkpt lat="45.97355" lon="6.92646">
        <ele>1300.4000244141</ele>
        <time>2010-06-27T05:51:08Z</time>
      </trkpt>
      <trkpt lat="45.97362" lon="6.92668">
        <ele>1299.5999755859</ele>
        <time>2010-06-27T05:51:19Z</time>
      </trkpt>
      <trkpt lat="45.97363" lon="6.9267">
        <ele>1299.4000244141</ele>
        <time>2010-06-27T05:51:20Z</time>
      </trkpt>
      <trkpt lat="45.97367" lon="6.92677">
        <ele>1299</ele>
        <time>2010-06-27T05:51:26Z</time>
      </trkpt>
      <trkpt lat="45.97372" lon="6.92693">
        <ele>1298.8000488281</ele>
        <time>2010-06-27T05:51:33Z</time>
      </trkpt>
      <trkpt lat="45.97373" lon="6.92695">
        <ele>1298.8000488281</ele>
        <time>2010-06-27T05:51:35Z</time>
      </trkpt>
      <trkpt lat="45.97374" lon="6.92699">
        <ele>1298.8000488281</ele>
        <time>2010-06-27T05:51:38Z</time>
      </trkpt>
      <trkpt lat="45.97374" lon="6.9271">
        <ele>1299.4000244141</ele>
        <time>2010-06-27T05:51:44Z</time>
      </trkpt>
      <trkpt lat="45.97373" lon="6.92712">
        <ele>1300</ele>
        <time>2010-06-27T05:51:46Z</time>
      </trkpt>
      <trkpt lat="45.97374" lon="6.92718">
        <ele>1300.8000488281</ele>
        <time>2010-06-27T05:51:50Z</time>
      </trkpt>
      <trkpt lat="45.97375" lon="6.9272">
        <ele>1300.8000488281</ele>
        <time>2010-06-27T05:51:51Z</time>
      </trkpt>
      <trkpt lat="45.97379" lon="6.92726">
        <ele>1300.8000488281</ele>
        <time>2010-06-27T05:51:55Z</time>
      </trkpt>
      <trkpt lat="45.97389" lon="6.92738">
        <ele>1301</ele>
        <time>2010-06-27T05:52:03Z</time>
      </trkpt>
      <trkpt lat="45.97404" lon="6.92755">
        <ele>1301</ele>
        <time>2010-06-27T05:52:13Z</time>
      </trkpt>
      <trkpt lat="45.97421" lon="6.92764">
        <ele>1300.5999755859</ele>
        <time>2010-06-27T05:52:19Z</time>
      </trkpt>
      <trkpt lat="45.9744" lon="6.92772">
        <ele>1300.4000244141</ele>
        <time>2010-06-27T05:52:25Z</time>
      </trkpt>
      <trkpt lat="45.97458" lon="6.92777">
        <ele>1300</ele>
        <time>2010-06-27T05:52:30Z</time>
      </trkpt>
      <trkpt lat="45.97476" lon="6.92785">
        <ele>1299.1999511719</ele>
        <time>2010-06-27T05:52:36Z</time>
      </trkpt>
      <trkpt lat="45.97491" lon="6.928">
        <ele>1298.1999511719</ele>
        <time>2010-06-27T05:52:43Z</time>
      </trkpt>
      <trkpt lat="45.97509" lon="6.92814">
        <ele>1296.8000488281</ele>
        <time>2010-06-27T05:52:51Z</time>
      </trkpt>
      <trkpt lat="45.97526" lon="6.92826">
        <ele>1295.5999755859</ele>
        <time>2010-06-27T05:52:57Z</time>
      </trkpt>
      <trkpt lat="45.97544" lon="6.92829">
        <ele>1294</ele>
        <time>2010-06-27T05:53:03Z</time>
      </trkpt>
      <trkpt lat="45.97565" lon="6.92832">
        <ele>1292.4000244141</ele>
        <time>2010-06-27T05:53:09Z</time>
      </trkpt>
      <trkpt lat="45.97582" lon="6.92845">
        <ele>1291.4000244141</ele>
        <time>2010-06-27T05:53:14Z</time>
      </trkpt>
      <trkpt lat="45.97597" lon="6.92861">
        <ele>1290.5999755859</ele>
        <time>2010-06-27T05:53:21Z</time>
      </trkpt>
      <trkpt lat="45.97615" lon="6.92863">
        <ele>1289.8000488281</ele>
        <time>2010-06-27T05:53:27Z</time>
      </trkpt>
      <trkpt lat="45.97634" lon="6.92865">
        <ele>1289</ele>
        <time>2010-06-27T05:53:35Z</time>
      </trkpt>
      <trkpt lat="45.97653" lon="6.92854">
        <ele>1288</ele>
        <time>2010-06-27T05:53:42Z</time>
      </trkpt>
      <trkpt lat="45.97672" lon="6.9285">
        <ele>1287.5999755859</ele>
        <time>2010-06-27T05:53:47Z</time>
      </trkpt>
      <trkpt lat="45.97688" lon="6.92855">
        <ele>1287.1999511719</ele>
        <time>2010-06-27T05:53:56Z</time>
      </trkpt>
      <trkpt lat="45.97707" lon="6.92869">
        <ele>1286.5999755859</ele>
        <time>2010-06-27T05:54:01Z</time>
      </trkpt>
      <trkpt lat="45.97716" lon="6.92877">
        <ele>1286</ele>
        <time>2010-06-27T05:54:04Z</time>
      </trkpt>
      <trkpt lat="45.97725" lon="6.92885">
        <ele>1285.4000244141</ele>
        <time>2010-06-27T05:54:07Z</time>
      </trkpt>
      <trkpt lat="45.97738" lon="6.92903">
        <ele>1284.4000244141</ele>
        <time>2010-06-27T05:54:13Z</time>
      </trkpt>
      <trkpt lat="45.97751" lon="6.92926">
        <ele>1283.4000244141</ele>
        <time>2010-06-27T05:54:20Z</time>
      </trkpt>
      <trkpt lat="45.97757" lon="6.92936">
        <ele>1283</ele>
        <time>2010-06-27T05:54:23Z</time>
      </trkpt>
      <trkpt lat="45.97763" lon="6.92946">
        <ele>1282.8000488281</ele>
        <time>2010-06-27T05:54:26Z</time>
      </trkpt>
      <trkpt lat="45.97775" lon="6.92965">
        <ele>1282.5999755859</ele>
        <time>2010-06-27T05:54:32Z</time>
      </trkpt>
      <trkpt lat="45.97784" lon="6.92988">
        <ele>1282.1999511719</ele>
        <time>2010-06-27T05:54:39Z</time>
      </trkpt>
      <trkpt lat="45.97798" lon="6.93004">
        <ele>1282.4000244141</ele>
        <time>2010-06-27T05:54:47Z</time>
      </trkpt>
      <trkpt lat="45.97816" lon="6.93015">
        <ele>1282.4000244141</ele>
        <time>2010-06-27T05:54:54Z</time>
      </trkpt>
      <trkpt lat="45.97821" lon="6.93023">
        <ele>1282.4000244141</ele>
        <time>2010-06-27T05:54:58Z</time>
      </trkpt>
      <trkpt lat="45.97832" lon="6.93024">
        <ele>1282.1999511719</ele>
        <time>2010-06-27T05:55:01Z</time>
      </trkpt>
      <trkpt lat="45.97836" lon="6.93026">
        <ele>1282</ele>
        <time>2010-06-27T05:55:02Z</time>
      </trkpt>
      <trkpt lat="45.9785" lon="6.93036">
        <ele>1281.8000488281</ele>
        <time>2010-06-27T05:55:07Z</time>
      </trkpt>
      <trkpt lat="45.97868" lon="6.93049">
        <ele>1281.4000244141</ele>
        <time>2010-06-27T05:55:14Z</time>
      </trkpt>
      <trkpt lat="45.97874" lon="6.93065">
        <ele>1281.4000244141</ele>
        <time>2010-06-27T05:55:19Z</time>
      </trkpt>
      <trkpt lat="45.97875" lon="6.93073">
        <ele>1281.1999511719</ele>
        <time>2010-06-27T05:55:21Z</time>
      </trkpt>
      <trkpt lat="45.97877" lon="6.93079">
        <ele>1281.1999511719</ele>
        <time>2010-06-27T05:55:23Z</time>
      </trkpt>
      <trkpt lat="45.97877" lon="6.93082">
        <ele>1281.1999511719</ele>
        <time>2010-06-27T05:55:24Z</time>
      </trkpt>
      <trkpt lat="45.97877" lon="6.93087">
        <ele>1281.1999511719</ele>
        <time>2010-06-27T05:55:26Z</time>
      </trkpt>
      <trkpt lat="45.97881" lon="6.93098">
        <ele>1281.1999511719</ele>
        <time>2010-06-27T05:55:29Z</time>
      </trkpt>
      <trkpt lat="45.97889" lon="6.93116">
        <ele>1281.5999755859</ele>
        <time>2010-06-27T05:55:34Z</time>
      </trkpt>
      <trkpt lat="45.97891" lon="6.9312">
        <ele>1281.5999755859</ele>
        <time>2010-06-27T05:55:35Z</time>
      </trkpt>
      <trkpt lat="45.97903" lon="6.93142">
        <ele>1282.1999511719</ele>
        <time>2010-06-27T05:55:42Z</time>
      </trkpt>
      <trkpt lat="45.97921" lon="6.93154">
        <ele>1282.5999755859</ele>
        <time>2010-06-27T05:55:49Z</time>
      </trkpt>
      <trkpt lat="45.97924" lon="6.93156">
        <ele>1282.8000488281</ele>
        <time>2010-06-27T05:55:50Z</time>
      </trkpt>
      <trkpt lat="45.97938" lon="6.93168">
        <ele>1284</ele>
        <time>2010-06-27T05:55:55Z</time>
      </trkpt>
      <trkpt lat="45.97942" lon="6.93174">
        <ele>1284.4000244141</ele>
        <time>2010-06-27T05:55:57Z</time>
      </trkpt>
      <trkpt lat="45.9795" lon="6.93189">
        <ele>1285.4000244141</ele>
        <time>2010-06-27T05:56:02Z</time>
      </trkpt>
      <trkpt lat="45.97963" lon="6.93211">
        <ele>1286.4000244141</ele>
        <time>2010-06-27T05:56:09Z</time>
      </trkpt>
      <trkpt lat="45.97971" lon="6.93237">
        <ele>1288.1999511719</ele>
        <time>2010-06-27T05:56:17Z</time>
      </trkpt>
      <trkpt lat="45.97982" lon="6.93257">
        <ele>1289.4000244141</ele>
        <time>2010-06-27T05:56:26Z</time>
      </trkpt>
      <trkpt lat="45.97996" lon="6.93254">
        <ele>1290</ele>
        <time>2010-06-27T05:56:31Z</time>
      </trkpt>
      <trkpt lat="45.98" lon="6.93253">
        <ele>1290.4000244141</ele>
        <time>2010-06-27T05:56:33Z</time>
      </trkpt>
      <trkpt lat="45.98018" lon="6.93244">
        <ele>1291.1999511719</ele>
        <time>2010-06-27T05:56:41Z</time>
      </trkpt>
      <trkpt lat="45.9804" lon="6.93246">
        <ele>1291</ele>
        <time>2010-06-27T05:56:47Z</time>
      </trkpt>
      <trkpt lat="45.98056" lon="6.93257">
        <ele>1290.8000488281</ele>
        <time>2010-06-27T05:56:52Z</time>
      </trkpt>
      <trkpt lat="45.98074" lon="6.93266">
        <ele>1290.4000244141</ele>
        <time>2010-06-27T05:56:58Z</time>
      </trkpt>
      <trkpt lat="45.98094" lon="6.93269">
        <ele>1290.1999511719</ele>
        <time>2010-06-27T05:57:04Z</time>
      </trkpt>
      <trkpt lat="45.98111" lon="6.9328">
        <ele>1289.8000488281</ele>
        <time>2010-06-27T05:57:10Z</time>
      </trkpt>
      <trkpt lat="45.9813" lon="6.93283">
        <ele>1289.5999755859</ele>
        <time>2010-06-27T05:57:15Z</time>
      </trkpt>
      <trkpt lat="45.9815" lon="6.93283">
        <ele>1289.5999755859</ele>
        <time>2010-06-27T05:57:19Z</time>
      </trkpt>
      <trkpt lat="45.98158" lon="6.93282">
        <ele>1289.5999755859</ele>
        <time>2010-06-27T05:57:21Z</time>
      </trkpt>
      <trkpt lat="45.98168" lon="6.93275">
        <ele>1289.4000244141</ele>
        <time>2010-06-27T05:57:25Z</time>
      </trkpt>
      <trkpt lat="45.98171" lon="6.93272">
        <ele>1289.4000244141</ele>
        <time>2010-06-27T05:57:26Z</time>
      </trkpt>
      <trkpt lat="45.98188" lon="6.93262">
        <ele>1289</ele>
        <time>2010-06-27T05:57:30Z</time>
      </trkpt>
      <trkpt lat="45.98202" lon="6.93244">
        <ele>1288.4000244141</ele>
        <time>2010-06-27T05:57:37Z</time>
      </trkpt>
      <trkpt lat="45.98219" lon="6.93236">
        <ele>1288.1999511719</ele>
        <time>2010-06-27T05:57:43Z</time>
      </trkpt>
      <trkpt lat="45.98237" lon="6.93245">
        <ele>1288</ele>
        <time>2010-06-27T05:57:50Z</time>
      </trkpt>
      <trkpt lat="45.98254" lon="6.93263">
        <ele>1288.1999511719</ele>
        <time>2010-06-27T05:57:57Z</time>
      </trkpt>
      <trkpt lat="45.98273" lon="6.93271">
        <ele>1288.4000244141</ele>
        <time>2010-06-27T05:58:03Z</time>
      </trkpt>
      <trkpt lat="45.98293" lon="6.93283">
        <ele>1288.4000244141</ele>
        <time>2010-06-27T05:58:09Z</time>
      </trkpt>
      <trkpt lat="45.9831" lon="6.93294">
        <ele>1288.1999511719</ele>
        <time>2010-06-27T05:58:15Z</time>
      </trkpt>
      <trkpt lat="45.98327" lon="6.93307">
        <ele>1288</ele>
        <time>2010-06-27T05:58:21Z</time>
      </trkpt>
      <trkpt lat="45.98345" lon="6.93323">
        <ele>1287.5999755859</ele>
        <time>2010-06-27T05:58:28Z</time>
      </trkpt>
      <trkpt lat="45.98362" lon="6.93334">
        <ele>1287.1999511719</ele>
        <time>2010-06-27T05:58:34Z</time>
      </trkpt>
      <trkpt lat="45.98381" lon="6.93333">
        <ele>1286.5999755859</ele>
        <time>2010-06-27T05:58:41Z</time>
      </trkpt>
      <trkpt lat="45.9839" lon="6.93309">
        <ele>1285.8000488281</ele>
        <time>2010-06-27T05:58:47Z</time>
      </trkpt>
      <trkpt lat="45.98401" lon="6.93286">
        <ele>1284.8000488281</ele>
        <time>2010-06-27T05:58:53Z</time>
      </trkpt>
      <trkpt lat="45.98409" lon="6.93263">
        <ele>1284</ele>
        <time>2010-06-27T05:58:59Z</time>
      </trkpt>
      <trkpt lat="45.98419" lon="6.93237">
        <ele>1283</ele>
        <time>2010-06-27T05:59:05Z</time>
      </trkpt>
      <trkpt lat="45.98425" lon="6.93212">
        <ele>1282.1999511719</ele>
        <time>2010-06-27T05:59:11Z</time>
      </trkpt>
      <trkpt lat="45.9843" lon="6.93187">
        <ele>1281.5999755859</ele>
        <time>2010-06-27T05:59:17Z</time>
      </trkpt>
      <trkpt lat="45.98435" lon="6.93161">
        <ele>1281.1999511719</ele>
        <time>2010-06-27T05:59:23Z</time>
      </trkpt>
      <trkpt lat="45.9844" lon="6.93134">
        <ele>1280.8000488281</ele>
        <time>2010-06-27T05:59:30Z</time>
      </trkpt>
      <trkpt lat="45.98442" lon="6.93108">
        <ele>1280.5999755859</ele>
        <time>2010-06-27T05:59:36Z</time>
      </trkpt>
      <trkpt lat="45.98441" lon="6.93082">
        <ele>1280.1999511719</ele>
        <time>2010-06-27T05:59:42Z</time>
      </trkpt>
      <trkpt lat="45.98441" lon="6.93053">
        <ele>1280.1999511719</ele>
        <time>2010-06-27T05:59:49Z</time>
      </trkpt>
      <trkpt lat="45.98441" lon="6.93026">
        <ele>1280.1999511719</ele>
        <time>2010-06-27T05:59:55Z</time>
      </trkpt>
      <trkpt lat="45.98439" lon="6.92996">
        <ele>1280</ele>
        <time>2010-06-27T06:00:02Z</time>
      </trkpt>
      <trkpt lat="45.9843" lon="6.92968">
        <ele>1279.5999755859</ele>
        <time>2010-06-27T06:00:09Z</time>
      </trkpt>
      <trkpt lat="45.98431" lon="6.92942">
        <ele>1279.1999511719</ele>
        <time>2010-06-27T06:00:16Z</time>
      </trkpt>
      <trkpt lat="45.98443" lon="6.9292">
        <ele>1278.5999755859</ele>
        <time>2010-06-27T06:00:23Z</time>
      </trkpt>
      <trkpt lat="45.98465" lon="6.92909">
        <ele>1278.5999755859</ele>
        <time>2010-06-27T06:00:29Z</time>
      </trkpt>
      <trkpt lat="45.98484" lon="6.92902">
        <ele>1279.4000244141</ele>
        <time>2010-06-27T06:00:34Z</time>
      </trkpt>
      <trkpt lat="45.98503" lon="6.92901">
        <ele>1280.4000244141</ele>
        <time>2010-06-27T06:00:43Z</time>
      </trkpt>
      <trkpt lat="45.98517" lon="6.92921">
        <ele>1280.4000244141</ele>
        <time>2010-06-27T06:00:50Z</time>
      </trkpt>
      <trkpt lat="45.98534" lon="6.92933">
        <ele>1280.5999755859</ele>
        <time>2010-06-27T06:00:57Z</time>
      </trkpt>
      <trkpt lat="45.9855" lon="6.92949">
        <ele>1281</ele>
        <time>2010-06-27T06:01:05Z</time>
      </trkpt>
      <trkpt lat="45.98568" lon="6.92955">
        <ele>1280.8000488281</ele>
        <time>2010-06-27T06:01:11Z</time>
      </trkpt>
      <trkpt lat="45.98588" lon="6.92955">
        <ele>1280.5999755859</ele>
        <time>2010-06-27T06:01:18Z</time>
      </trkpt>
      <trkpt lat="45.98606" lon="6.92958">
        <ele>1280.1999511719</ele>
        <time>2010-06-27T06:01:24Z</time>
      </trkpt>
      <trkpt lat="45.98626" lon="6.92966">
        <ele>1279.8000488281</ele>
        <time>2010-06-27T06:01:31Z</time>
      </trkpt>
      <trkpt lat="45.98646" lon="6.92968">
        <ele>1279.4000244141</ele>
        <time>2010-06-27T06:01:38Z</time>
      </trkpt>
      <trkpt lat="45.98664" lon="6.92966">
        <ele>1279.4000244141</ele>
        <time>2010-06-27T06:01:44Z</time>
      </trkpt>
      <trkpt lat="45.98684" lon="6.92968">
        <ele>1279.1999511719</ele>
        <time>2010-06-27T06:01:50Z</time>
      </trkpt>
      <trkpt lat="45.98704" lon="6.92971">
        <ele>1278.8000488281</ele>
        <time>2010-06-27T06:01:56Z</time>
      </trkpt>
      <trkpt lat="45.98724" lon="6.92972">
        <ele>1279.8000488281</ele>
        <time>2010-06-27T06:02:07Z</time>
      </trkpt>
      <trkpt lat="45.98742" lon="6.92962">
        <ele>1280.5999755859</ele>
        <time>2010-06-27T06:02:15Z</time>
      </trkpt>
      <trkpt lat="45.98761" lon="6.92951">
        <ele>1281.5999755859</ele>
        <time>2010-06-27T06:02:22Z</time>
      </trkpt>
      <trkpt lat="45.98782" lon="6.92948">
        <ele>1281.8000488281</ele>
        <time>2010-06-27T06:02:29Z</time>
      </trkpt>
      <trkpt lat="45.988" lon="6.92942">
        <ele>1282.4000244141</ele>
        <time>2010-06-27T06:02:35Z</time>
      </trkpt>
      <trkpt lat="45.98817" lon="6.9294">
        <ele>1282.1999511719</ele>
        <time>2010-06-27T06:02:41Z</time>
      </trkpt>
      <trkpt lat="45.98836" lon="6.92936">
        <ele>1282.4000244141</ele>
        <time>2010-06-27T06:02:47Z</time>
      </trkpt>
      <trkpt lat="45.98848" lon="6.92935">
        <ele>1283.8000488281</ele>
        <time>2010-06-27T06:02:54Z</time>
      </trkpt>
      <trkpt lat="45.98847" lon="6.92941">
        <ele>1284.4000244141</ele>
        <time>2010-06-27T06:02:56Z</time>
      </trkpt>
      <trkpt lat="45.98842" lon="6.92953">
        <ele>1287.4000244141</ele>
        <time>2010-06-27T06:03:02Z</time>
      </trkpt>
      <trkpt lat="45.98834" lon="6.92961">
        <ele>1288.8000488281</ele>
        <time>2010-06-27T06:03:05Z</time>
      </trkpt>
      <trkpt lat="45.98826" lon="6.92976">
        <ele>1291</ele>
        <time>2010-06-27T06:03:10Z</time>
      </trkpt>
      <trkpt lat="45.98824" lon="6.92982">
        <ele>1292</ele>
        <time>2010-06-27T06:03:12Z</time>
      </trkpt>
      <trkpt lat="45.98821" lon="6.92986">
        <ele>1292.4000244141</ele>
        <time>2010-06-27T06:03:14Z</time>
      </trkpt>
      <trkpt lat="45.98807" lon="6.92996">
        <ele>1294.4000244141</ele>
        <time>2010-06-27T06:03:17Z</time>
      </trkpt>
      <trkpt lat="45.98794" lon="6.93019">
        <ele>1298</ele>
        <time>2010-06-27T06:03:25Z</time>
      </trkpt>
      <trkpt lat="45.98792" lon="6.93023">
        <ele>1298.8000488281</ele>
        <time>2010-06-27T06:03:27Z</time>
      </trkpt>
      <trkpt lat="45.98793" lon="6.93024">
        <ele>1302.5999755859</ele>
        <time>2010-06-27T06:03:40Z</time>
      </trkpt>
      <trkpt lat="45.98791" lon="6.93034">
        <ele>1303.1999511719</ele>
        <time>2010-06-27T06:03:44Z</time>
      </trkpt>
      <trkpt lat="45.98787" lon="6.93044">
        <ele>1303.5999755859</ele>
        <time>2010-06-27T06:03:47Z</time>
      </trkpt>
      <trkpt lat="45.98787" lon="6.93049">
        <ele>1303.8000488281</ele>
        <time>2010-06-27T06:03:49Z</time>
      </trkpt>
      <trkpt lat="45.9879" lon="6.93058">
        <ele>1304</ele>
        <time>2010-06-27T06:03:55Z</time>
      </trkpt>
      <trkpt lat="45.9879" lon="6.93059">
        <ele>1304</ele>
        <time>2010-06-27T06:03:56Z</time>
      </trkpt>
      <trkpt lat="45.98791" lon="6.93062">
        <ele>1304</ele>
        <time>2010-06-27T06:03:58Z</time>
      </trkpt>
      <trkpt lat="45.9879" lon="6.93067">
        <ele>1304</ele>
        <time>2010-06-27T06:04:00Z</time>
      </trkpt>
      <trkpt lat="45.98791" lon="6.93069">
        <ele>1304</ele>
        <time>2010-06-27T06:04:02Z</time>
      </trkpt>
      <trkpt lat="45.98793" lon="6.93066">
        <ele>1304</ele>
        <time>2010-06-27T06:04:04Z</time>
      </trkpt>
      <trkpt lat="45.988" lon="6.93057">
        <ele>1304</ele>
        <time>2010-06-27T06:04:11Z</time>
      </trkpt>
      <trkpt lat="45.98802" lon="6.93047">
        <ele>1304.1999511719</ele>
        <time>2010-06-27T06:04:15Z</time>
      </trkpt>
      <trkpt lat="45.98803" lon="6.93044">
        <ele>1304.4000244141</ele>
        <time>2010-06-27T06:04:16Z</time>
      </trkpt>
      <trkpt lat="45.98816" lon="6.93026">
        <ele>1305.4000244141</ele>
        <time>2010-06-27T06:04:26Z</time>
      </trkpt>
      <trkpt lat="45.98816" lon="6.93024">
        <ele>1305.5999755859</ele>
        <time>2010-06-27T06:04:27Z</time>
      </trkpt>
      <trkpt lat="45.98829" lon="6.93017">
        <ele>1308</ele>
        <time>2010-06-27T06:04:38Z</time>
      </trkpt>
      <trkpt lat="45.98832" lon="6.93017">
        <ele>1308.8000488281</ele>
        <time>2010-06-27T06:04:41Z</time>
      </trkpt>
      <trkpt lat="45.98833" lon="6.93026">
        <ele>1309.8000488281</ele>
        <time>2010-06-27T06:04:45Z</time>
      </trkpt>
      <trkpt lat="45.98829" lon="6.93045">
        <ele>1312</ele>
        <time>2010-06-27T06:04:54Z</time>
      </trkpt>
      <trkpt lat="45.98827" lon="6.93049">
        <ele>1312.4000244141</ele>
        <time>2010-06-27T06:04:56Z</time>
      </trkpt>
      <trkpt lat="45.98832" lon="6.93064">
        <ele>1314.1999511719</ele>
        <time>2010-06-27T06:05:04Z</time>
      </trkpt>
      <trkpt lat="45.98833" lon="6.93066">
        <ele>1314.4000244141</ele>
        <time>2010-06-27T06:05:05Z</time>
      </trkpt>
      <trkpt lat="45.98832" lon="6.93069">
        <ele>1314.5999755859</ele>
        <time>2010-06-27T06:05:06Z</time>
      </trkpt>
      <trkpt lat="45.98835" lon="6.93087">
        <ele>1316.8000488281</ele>
        <time>2010-06-27T06:05:17Z</time>
      </trkpt>
      <trkpt lat="45.98835" lon="6.93093">
        <ele>1317.4000244141</ele>
        <time>2010-06-27T06:05:20Z</time>
      </trkpt>
      <trkpt lat="45.98832" lon="6.93097">
        <ele>1318</ele>
        <time>2010-06-27T06:05:22Z</time>
      </trkpt>
      <trkpt lat="45.98833" lon="6.93098">
        <ele>1318.5999755859</ele>
        <time>2010-06-27T06:05:24Z</time>
      </trkpt>
      <trkpt lat="45.98835" lon="6.93121">
        <ele>1322.4000244141</ele>
        <time>2010-06-27T06:05:41Z</time>
      </trkpt>
      <trkpt lat="45.98835" lon="6.93123">
        <ele>1322.4000244141</ele>
        <time>2010-06-27T06:05:42Z</time>
      </trkpt>
      <trkpt lat="45.98831" lon="6.93146">
        <ele>1322.1999511719</ele>
        <time>2010-06-27T06:05:51Z</time>
      </trkpt>
      <trkpt lat="45.98827" lon="6.93154">
        <ele>1322.5999755859</ele>
        <time>2010-06-27T06:05:55Z</time>
      </trkpt>
      <trkpt lat="45.9882" lon="6.93157">
        <ele>1325.1999511719</ele>
        <time>2010-06-27T06:06:03Z</time>
      </trkpt>
      <trkpt lat="45.9882" lon="6.93155">
        <ele>1330</ele>
        <time>2010-06-27T06:06:12Z</time>
      </trkpt>
      <trkpt lat="45.98826" lon="6.93149">
        <ele>1333.4000244141</ele>
        <time>2010-06-27T06:06:19Z</time>
      </trkpt>
      <trkpt lat="45.98828" lon="6.93147">
        <ele>1334.4000244141</ele>
        <time>2010-06-27T06:06:21Z</time>
      </trkpt>
      <trkpt lat="45.98831" lon="6.93142">
        <ele>1336</ele>
        <time>2010-06-27T06:06:24Z</time>
      </trkpt>
      <trkpt lat="45.98833" lon="6.93138">
        <ele>1337.5999755859</ele>
        <time>2010-06-27T06:06:27Z</time>
      </trkpt>
      <trkpt lat="45.98841" lon="6.93131">
        <ele>1340</ele>
        <time>2010-06-27T06:06:32Z</time>
      </trkpt>
      <trkpt lat="45.98841" lon="6.93129">
        <ele>1340.5999755859</ele>
        <time>2010-06-27T06:06:33Z</time>
      </trkpt>
      <trkpt lat="45.98849" lon="6.93116">
        <ele>1343.8000488281</ele>
        <time>2010-06-27T06:06:39Z</time>
      </trkpt>
      <trkpt lat="45.98856" lon="6.93108">
        <ele>1346.5999755859</ele>
        <time>2010-06-27T06:06:45Z</time>
      </trkpt>
      <trkpt lat="45.98866" lon="6.93104">
        <ele>1349.5999755859</ele>
        <time>2010-06-27T06:06:54Z</time>
      </trkpt>
      <trkpt lat="45.98871" lon="6.93093">
        <ele>1351.4000244141</ele>
        <time>2010-06-27T06:07:00Z</time>
      </trkpt>
      <trkpt lat="45.98876" lon="6.93083">
        <ele>1353.8000488281</ele>
        <time>2010-06-27T06:07:07Z</time>
      </trkpt>
      <trkpt lat="45.98878" lon="6.93076">
        <ele>1355.5999755859</ele>
        <time>2010-06-27T06:07:11Z</time>
      </trkpt>
      <trkpt lat="45.98878" lon="6.9307">
        <ele>1357.5999755859</ele>
        <time>2010-06-27T06:07:15Z</time>
      </trkpt>
      <trkpt lat="45.98881" lon="6.93066">
        <ele>1359</ele>
        <time>2010-06-27T06:07:19Z</time>
      </trkpt>
      <trkpt lat="45.98883" lon="6.93064">
        <ele>1359.4000244141</ele>
        <time>2010-06-27T06:07:20Z</time>
      </trkpt>
      <trkpt lat="45.98891" lon="6.93073">
        <ele>1361.5999755859</ele>
        <time>2010-06-27T06:07:26Z</time>
      </trkpt>
      <trkpt lat="45.98893" lon="6.93077">
        <ele>1361.5999755859</ele>
        <time>2010-06-27T06:07:27Z</time>
      </trkpt>
      <trkpt lat="45.98899" lon="6.93095">
        <ele>1364.5999755859</ele>
        <time>2010-06-27T06:07:37Z</time>
      </trkpt>
      <trkpt lat="45.98903" lon="6.93092">
        <ele>1365.4000244141</ele>
        <time>2010-06-27T06:07:39Z</time>
      </trkpt>
      <trkpt lat="45.98908" lon="6.93084">
        <ele>1366.5999755859</ele>
        <time>2010-06-27T06:07:42Z</time>
      </trkpt>
      <trkpt lat="45.98913" lon="6.93077">
        <ele>1368.8000488281</ele>
        <time>2010-06-27T06:07:47Z</time>
      </trkpt>
      <trkpt lat="45.98914" lon="6.9307">
        <ele>1369.5999755859</ele>
        <time>2010-06-27T06:07:50Z</time>
      </trkpt>
      <trkpt lat="45.98918" lon="6.9307">
        <ele>1370.8000488281</ele>
        <time>2010-06-27T06:07:54Z</time>
      </trkpt>
      <trkpt lat="45.98922" lon="6.93075">
        <ele>1371.8000488281</ele>
        <time>2010-06-27T06:07:57Z</time>
      </trkpt>
      <trkpt lat="45.98923" lon="6.93085">
        <ele>1372.8000488281</ele>
        <time>2010-06-27T06:08:02Z</time>
      </trkpt>
      <trkpt lat="45.98924" lon="6.93099">
        <ele>1374.5999755859</ele>
        <time>2010-06-27T06:08:11Z</time>
      </trkpt>
      <trkpt lat="45.98924" lon="6.93112">
        <ele>1375.1999511719</ele>
        <time>2010-06-27T06:08:17Z</time>
      </trkpt>
      <trkpt lat="45.98923" lon="6.93114">
        <ele>1375.1999511719</ele>
        <time>2010-06-27T06:08:18Z</time>
      </trkpt>
      <trkpt lat="45.98913" lon="6.93133">
        <ele>1376.4000244141</ele>
        <time>2010-06-27T06:08:24Z</time>
      </trkpt>
      <trkpt lat="45.98899" lon="6.93155">
        <ele>1378.5999755859</ele>
        <time>2010-06-27T06:08:33Z</time>
      </trkpt>
      <trkpt lat="45.9889" lon="6.93174">
        <ele>1380.1999511719</ele>
        <time>2010-06-27T06:08:39Z</time>
      </trkpt>
      <trkpt lat="45.98889" lon="6.93176">
        <ele>1380.4000244141</ele>
        <time>2010-06-27T06:08:40Z</time>
      </trkpt>
      <trkpt lat="45.98896" lon="6.93198">
        <ele>1381.8000488281</ele>
        <time>2010-06-27T06:08:50Z</time>
      </trkpt>
      <trkpt lat="45.98897" lon="6.93198">
        <ele>1382.1999511719</ele>
        <time>2010-06-27T06:08:51Z</time>
      </trkpt>
      <trkpt lat="45.98898" lon="6.93199">
        <ele>1382.4000244141</ele>
        <time>2010-06-27T06:08:52Z</time>
      </trkpt>
      <trkpt lat="45.98902" lon="6.93202">
        <ele>1383</ele>
        <time>2010-06-27T06:08:56Z</time>
      </trkpt>
      <trkpt lat="45.9891" lon="6.93215">
        <ele>1384.5999755859</ele>
        <time>2010-06-27T06:09:02Z</time>
      </trkpt>
      <trkpt lat="45.98924" lon="6.93231">
        <ele>1386.4000244141</ele>
        <time>2010-06-27T06:09:09Z</time>
      </trkpt>
      <trkpt lat="45.98941" lon="6.93243">
        <ele>1388</ele>
        <time>2010-06-27T06:09:16Z</time>
      </trkpt>
      <trkpt lat="45.98949" lon="6.93266">
        <ele>1389</ele>
        <time>2010-06-27T06:09:22Z</time>
      </trkpt>
      <trkpt lat="45.98959" lon="6.93289">
        <ele>1390.1999511719</ele>
        <time>2010-06-27T06:09:28Z</time>
      </trkpt>
      <trkpt lat="45.98968" lon="6.93315">
        <ele>1391.8000488281</ele>
        <time>2010-06-27T06:09:35Z</time>
      </trkpt>
      <trkpt lat="45.98982" lon="6.93333">
        <ele>1392.8000488281</ele>
        <time>2010-06-27T06:09:42Z</time>
      </trkpt>
      <trkpt lat="45.98999" lon="6.93347">
        <ele>1393.8000488281</ele>
        <time>2010-06-27T06:09:49Z</time>
      </trkpt>
      <trkpt lat="45.99015" lon="6.93362">
        <ele>1394.8000488281</ele>
        <time>2010-06-27T06:09:57Z</time>
      </trkpt>
      <trkpt lat="45.99027" lon="6.93384">
        <ele>1396.4000244141</ele>
        <time>2010-06-27T06:10:05Z</time>
      </trkpt>
      <trkpt lat="45.99042" lon="6.93402">
        <ele>1398.1999511719</ele>
        <time>2010-06-27T06:10:12Z</time>
      </trkpt>
      <trkpt lat="45.99057" lon="6.93417">
        <ele>1399.8000488281</ele>
        <time>2010-06-27T06:10:19Z</time>
      </trkpt>
      <trkpt lat="45.99075" lon="6.93431">
        <ele>1401.5999755859</ele>
        <time>2010-06-27T06:10:28Z</time>
      </trkpt>
      <trkpt lat="45.99091" lon="6.93443">
        <ele>1402.4000244141</ele>
        <time>2010-06-27T06:10:34Z</time>
      </trkpt>
      <trkpt lat="45.99105" lon="6.93462">
        <ele>1403.8000488281</ele>
        <time>2010-06-27T06:10:42Z</time>
      </trkpt>
      <trkpt lat="45.99121" lon="6.93479">
        <ele>1405.8000488281</ele>
        <time>2010-06-27T06:10:50Z</time>
      </trkpt>
      <trkpt lat="45.99137" lon="6.93497">
        <ele>1408.1999511719</ele>
        <time>2010-06-27T06:10:59Z</time>
      </trkpt>
      <trkpt lat="45.99152" lon="6.9351">
        <ele>1410.4000244141</ele>
        <time>2010-06-27T06:11:07Z</time>
      </trkpt>
      <trkpt lat="45.99171" lon="6.93507">
        <ele>1412.8000488281</ele>
        <time>2010-06-27T06:11:15Z</time>
      </trkpt>
      <trkpt lat="45.99188" lon="6.93498">
        <ele>1415.5999755859</ele>
        <time>2010-06-27T06:11:24Z</time>
      </trkpt>
      <trkpt lat="45.99207" lon="6.93509">
        <ele>1417.5999755859</ele>
        <time>2010-06-27T06:11:33Z</time>
      </trkpt>
      <trkpt lat="45.99208" lon="6.93509">
        <ele>1417.8000488281</ele>
        <time>2010-06-27T06:11:34Z</time>
      </trkpt>
      <trkpt lat="45.99217" lon="6.9351">
        <ele>1418.4000244141</ele>
        <time>2010-06-27T06:11:40Z</time>
      </trkpt>
      <trkpt lat="45.99223" lon="6.93509">
        <ele>1418.8000488281</ele>
        <time>2010-06-27T06:11:43Z</time>
      </trkpt>
      <trkpt lat="45.99226" lon="6.93511">
        <ele>1418.8000488281</ele>
        <time>2010-06-27T06:11:45Z</time>
      </trkpt>
      <trkpt lat="45.99241" lon="6.93526">
        <ele>1420</ele>
        <time>2010-06-27T06:11:53Z</time>
      </trkpt>
      <trkpt lat="45.99243" lon="6.9353">
        <ele>1420</ele>
        <time>2010-06-27T06:11:55Z</time>
      </trkpt>
      <trkpt lat="45.99245" lon="6.93531">
        <ele>1420.4000244141</ele>
        <time>2010-06-27T06:11:56Z</time>
      </trkpt>
      <trkpt lat="45.99256" lon="6.93542">
        <ele>1421.4000244141</ele>
        <time>2010-06-27T06:12:03Z</time>
      </trkpt>
      <trkpt lat="45.99267" lon="6.93555">
        <ele>1423</ele>
        <time>2010-06-27T06:12:10Z</time>
      </trkpt>
      <trkpt lat="45.99272" lon="6.93554">
        <ele>1423.5999755859</ele>
        <time>2010-06-27T06:12:13Z</time>
      </trkpt>
      <trkpt lat="45.99291" lon="6.93557">
        <ele>1425.8000488281</ele>
        <time>2010-06-27T06:12:21Z</time>
      </trkpt>
      <trkpt lat="45.9931" lon="6.93562">
        <ele>1428.1999511719</ele>
        <time>2010-06-27T06:12:28Z</time>
      </trkpt>
      <trkpt lat="45.99327" lon="6.93571">
        <ele>1431.8000488281</ele>
        <time>2010-06-27T06:12:35Z</time>
      </trkpt>
      <trkpt lat="45.99345" lon="6.93582">
        <ele>1434.5999755859</ele>
        <time>2010-06-27T06:12:44Z</time>
      </trkpt>
      <trkpt lat="45.99366" lon="6.93589">
        <ele>1436.4000244141</ele>
        <time>2010-06-27T06:12:50Z</time>
      </trkpt>
      <trkpt lat="45.99377" lon="6.93597">
        <ele>1437.1999511719</ele>
        <time>2010-06-27T06:12:54Z</time>
      </trkpt>
      <trkpt lat="45.99383" lon="6.93599">
        <ele>1437.5999755859</ele>
        <time>2010-06-27T06:12:56Z</time>
      </trkpt>
      <trkpt lat="45.99402" lon="6.93603">
        <ele>1440.1999511719</ele>
        <time>2010-06-27T06:13:00Z</time>
      </trkpt>
      <trkpt lat="45.99417" lon="6.93619">
        <ele>1442.5999755859</ele>
        <time>2010-06-27T06:13:06Z</time>
      </trkpt>
      <trkpt lat="45.99434" lon="6.93638">
        <ele>1445</ele>
        <time>2010-06-27T06:13:13Z</time>
      </trkpt>
      <trkpt lat="45.9945" lon="6.9365">
        <ele>1446.4000244141</ele>
        <time>2010-06-27T06:13:18Z</time>
      </trkpt>
      <trkpt lat="45.99467" lon="6.93664">
        <ele>1447.5999755859</ele>
        <time>2010-06-27T06:13:24Z</time>
      </trkpt>
      <trkpt lat="45.99486" lon="6.93676">
        <ele>1448.8000488281</ele>
        <time>2010-06-27T06:13:31Z</time>
      </trkpt>
      <trkpt lat="45.99505" lon="6.93686">
        <ele>1449.1999511719</ele>
        <time>2010-06-27T06:13:37Z</time>
      </trkpt>
      <trkpt lat="45.99523" lon="6.93697">
        <ele>1449.5999755859</ele>
        <time>2010-06-27T06:13:43Z</time>
      </trkpt>
      <trkpt lat="45.99539" lon="6.93712">
        <ele>1449.4000244141</ele>
        <time>2010-06-27T06:13:50Z</time>
      </trkpt>
      <trkpt lat="45.99556" lon="6.93722">
        <ele>1449.1999511719</ele>
        <time>2010-06-27T06:13:56Z</time>
      </trkpt>
      <trkpt lat="45.99574" lon="6.93735">
        <ele>1448.8000488281</ele>
        <time>2010-06-27T06:14:03Z</time>
      </trkpt>
      <trkpt lat="45.9958" lon="6.93734">
        <ele>1449.4000244141</ele>
        <time>2010-06-27T06:14:04Z</time>
      </trkpt>
      <trkpt lat="45.99592" lon="6.93738">
        <ele>1448.4000244141</ele>
        <time>2010-06-27T06:14:10Z</time>
      </trkpt>
      <trkpt lat="45.99606" lon="6.9376">
        <ele>1447</ele>
        <time>2010-06-27T06:14:18Z</time>
      </trkpt>
      <trkpt lat="45.99626" lon="6.93769">
        <ele>1445.8000488281</ele>
        <time>2010-06-27T06:14:24Z</time>
      </trkpt>
      <trkpt lat="45.99644" lon="6.93779">
        <ele>1444.4000244141</ele>
        <time>2010-06-27T06:14:31Z</time>
      </trkpt>
      <trkpt lat="45.99662" lon="6.9379">
        <ele>1442</ele>
        <time>2010-06-27T06:14:40Z</time>
      </trkpt>
      <trkpt lat="45.99679" lon="6.93802">
        <ele>1440.5999755859</ele>
        <time>2010-06-27T06:14:46Z</time>
      </trkpt>
      <trkpt lat="45.99688" lon="6.93804">
        <ele>1439.8000488281</ele>
        <time>2010-06-27T06:14:49Z</time>
      </trkpt>
      <trkpt lat="45.99689" lon="6.9379">
        <ele>1439</ele>
        <time>2010-06-27T06:14:53Z</time>
      </trkpt>
      <trkpt lat="45.99681" lon="6.93781">
        <ele>1438.4000244141</ele>
        <time>2010-06-27T06:14:56Z</time>
      </trkpt>
      <trkpt lat="45.99673" lon="6.93769">
        <ele>1437.4000244141</ele>
        <time>2010-06-27T06:15:00Z</time>
      </trkpt>
      <trkpt lat="45.99661" lon="6.9375">
        <ele>1436</ele>
        <time>2010-06-27T06:15:06Z</time>
      </trkpt>
      <trkpt lat="45.99643" lon="6.93739">
        <ele>1434.4000244141</ele>
        <time>2010-06-27T06:15:12Z</time>
      </trkpt>
      <trkpt lat="45.99628" lon="6.93717">
        <ele>1433</ele>
        <time>2010-06-27T06:15:18Z</time>
      </trkpt>
      <trkpt lat="45.99618" lon="6.93697">
        <ele>1431.4000244141</ele>
        <time>2010-06-27T06:15:23Z</time>
      </trkpt>
      <trkpt lat="45.99607" lon="6.93673">
        <ele>1429.5999755859</ele>
        <time>2010-06-27T06:15:29Z</time>
      </trkpt>
      <trkpt lat="45.99594" lon="6.9365">
        <ele>1427.5999755859</ele>
        <time>2010-06-27T06:15:36Z</time>
      </trkpt>
      <trkpt lat="45.9958" lon="6.93635">
        <ele>1426.1999511719</ele>
        <time>2010-06-27T06:15:41Z</time>
      </trkpt>
      <trkpt lat="45.99564" lon="6.93619">
        <ele>1424.5999755859</ele>
        <time>2010-06-27T06:15:46Z</time>
      </trkpt>
      <trkpt lat="45.9955" lon="6.93596">
        <ele>1423</ele>
        <time>2010-06-27T06:15:52Z</time>
      </trkpt>
      <trkpt lat="45.99535" lon="6.93575">
        <ele>1421.4000244141</ele>
        <time>2010-06-27T06:15:58Z</time>
      </trkpt>
      <trkpt lat="45.9952" lon="6.93558">
        <ele>1420</ele>
        <time>2010-06-27T06:16:04Z</time>
      </trkpt>
      <trkpt lat="45.9951" lon="6.93534">
        <ele>1418.8000488281</ele>
        <time>2010-06-27T06:16:10Z</time>
      </trkpt>
      <trkpt lat="45.99505" lon="6.93511">
        <ele>1417</ele>
        <time>2010-06-27T06:16:16Z</time>
      </trkpt>
      <trkpt lat="45.9952" lon="6.93496">
        <ele>1414.5999755859</ele>
        <time>2010-06-27T06:16:23Z</time>
      </trkpt>
      <trkpt lat="45.99527" lon="6.93492">
        <ele>1414.1999511719</ele>
        <time>2010-06-27T06:16:25Z</time>
      </trkpt>
      <trkpt lat="45.99538" lon="6.93486">
        <ele>1413</ele>
        <time>2010-06-27T06:16:29Z</time>
      </trkpt>
      <trkpt lat="45.99558" lon="6.9348">
        <ele>1410</ele>
        <time>2010-06-27T06:16:37Z</time>
      </trkpt>
      <trkpt lat="45.99578" lon="6.93472">
        <ele>1407.5999755859</ele>
        <time>2010-06-27T06:16:44Z</time>
      </trkpt>
      <trkpt lat="45.99596" lon="6.93468">
        <ele>1405.5999755859</ele>
        <time>2010-06-27T06:16:50Z</time>
      </trkpt>
      <trkpt lat="45.99615" lon="6.93471">
        <ele>1403.8000488281</ele>
        <time>2010-06-27T06:16:56Z</time>
      </trkpt>
      <trkpt lat="45.99633" lon="6.93474">
        <ele>1402.1999511719</ele>
        <time>2010-06-27T06:17:02Z</time>
      </trkpt>
      <trkpt lat="45.99653" lon="6.93466">
        <ele>1400.5999755859</ele>
        <time>2010-06-27T06:17:09Z</time>
      </trkpt>
      <trkpt lat="45.99669" lon="6.93454">
        <ele>1399.1999511719</ele>
        <time>2010-06-27T06:17:15Z</time>
      </trkpt>
      <trkpt lat="45.99685" lon="6.93438">
        <ele>1397.8000488281</ele>
        <time>2010-06-27T06:17:21Z</time>
      </trkpt>
      <trkpt lat="45.99701" lon="6.93422">
        <ele>1396.8000488281</ele>
        <time>2010-06-27T06:17:27Z</time>
      </trkpt>
      <trkpt lat="45.99715" lon="6.93405">
        <ele>1395.8000488281</ele>
        <time>2010-06-27T06:17:34Z</time>
      </trkpt>
      <trkpt lat="45.99732" lon="6.93387">
        <ele>1395.1999511719</ele>
        <time>2010-06-27T06:17:41Z</time>
      </trkpt>
      <trkpt lat="45.99749" lon="6.93376">
        <ele>1394.8000488281</ele>
        <time>2010-06-27T06:17:48Z</time>
      </trkpt>
      <trkpt lat="45.99761" lon="6.93371">
        <ele>1394.8000488281</ele>
        <time>2010-06-27T06:17:54Z</time>
      </trkpt>
      <trkpt lat="45.99767" lon="6.93364">
        <ele>1394.8000488281</ele>
        <time>2010-06-27T06:17:58Z</time>
      </trkpt>
      <trkpt lat="45.99765" lon="6.93356">
        <ele>1394.8000488281</ele>
        <time>2010-06-27T06:18:01Z</time>
      </trkpt>
      <trkpt lat="45.99758" lon="6.93342">
        <ele>1394.5999755859</ele>
        <time>2010-06-27T06:18:05Z</time>
      </trkpt>
      <trkpt lat="45.99751" lon="6.93332">
        <ele>1394.4000244141</ele>
        <time>2010-06-27T06:18:08Z</time>
      </trkpt>
      <trkpt lat="45.99745" lon="6.93322">
        <ele>1394.5999755859</ele>
        <time>2010-06-27T06:18:11Z</time>
      </trkpt>
      <trkpt lat="45.99738" lon="6.93295">
        <ele>1394.1999511719</ele>
        <time>2010-06-27T06:18:18Z</time>
      </trkpt>
      <trkpt lat="45.99732" lon="6.93268">
        <ele>1393.8000488281</ele>
        <time>2010-06-27T06:18:25Z</time>
      </trkpt>
      <trkpt lat="45.99732" lon="6.93265">
        <ele>1393.8000488281</ele>
        <time>2010-06-27T06:18:26Z</time>
      </trkpt>
      <trkpt lat="45.99725" lon="6.93245">
        <ele>1393.1999511719</ele>
        <time>2010-06-27T06:18:33Z</time>
      </trkpt>
      <trkpt lat="45.99717" lon="6.93235">
        <ele>1393.1999511719</ele>
        <time>2010-06-27T06:18:37Z</time>
      </trkpt>
      <trkpt lat="45.99712" lon="6.93223">
        <ele>1393</ele>
        <time>2010-06-27T06:18:41Z</time>
      </trkpt>
      <trkpt lat="45.99699" lon="6.9321">
        <ele>1394.4000244141</ele>
        <time>2010-06-27T06:18:48Z</time>
      </trkpt>
      <trkpt lat="45.99697" lon="6.93208">
        <ele>1394.5999755859</ele>
        <time>2010-06-27T06:18:49Z</time>
      </trkpt>
      <trkpt lat="45.9968" lon="6.93196">
        <ele>1397.5999755859</ele>
        <time>2010-06-27T06:18:55Z</time>
      </trkpt>
      <trkpt lat="45.9967" lon="6.93173">
        <ele>1399.8000488281</ele>
        <time>2010-06-27T06:19:02Z</time>
      </trkpt>
      <trkpt lat="45.99664" lon="6.93146">
        <ele>1399.4000244141</ele>
        <time>2010-06-27T06:19:11Z</time>
      </trkpt>
      <trkpt lat="45.99652" lon="6.93126">
        <ele>1400</ele>
        <time>2010-06-27T06:19:19Z</time>
      </trkpt>
      <trkpt lat="45.99644" lon="6.93102">
        <ele>1399.5999755859</ele>
        <time>2010-06-27T06:19:26Z</time>
      </trkpt>
      <trkpt lat="45.99633" lon="6.93081">
        <ele>1399.1999511719</ele>
        <time>2010-06-27T06:19:33Z</time>
      </trkpt>
      <trkpt lat="45.99623" lon="6.93057">
        <ele>1399.8000488281</ele>
        <time>2010-06-27T06:19:41Z</time>
      </trkpt>
      <trkpt lat="45.99621" lon="6.9305">
        <ele>1399.5999755859</ele>
        <time>2010-06-27T06:19:44Z</time>
      </trkpt>
      <trkpt lat="45.99615" lon="6.93033">
        <ele>1399.4000244141</ele>
        <time>2010-06-27T06:19:49Z</time>
      </trkpt>
      <trkpt lat="45.99606" lon="6.93008">
        <ele>1399.8000488281</ele>
        <time>2010-06-27T06:20:00Z</time>
      </trkpt>
      <trkpt lat="45.99605" lon="6.93007">
        <ele>1399.8000488281</ele>
        <time>2010-06-27T06:20:01Z</time>
      </trkpt>
      <trkpt lat="45.99588" lon="6.92995">
        <ele>1404.8000488281</ele>
        <time>2010-06-27T06:20:10Z</time>
      </trkpt>
      <trkpt lat="45.9958" lon="6.92969">
        <ele>1407.5999755859</ele>
        <time>2010-06-27T06:20:19Z</time>
      </trkpt>
      <trkpt lat="45.99573" lon="6.92944">
        <ele>1408.5999755859</ele>
        <time>2010-06-27T06:20:26Z</time>
      </trkpt>
      <trkpt lat="45.9957" lon="6.92918">
        <ele>1410</ele>
        <time>2010-06-27T06:20:34Z</time>
      </trkpt>
      <trkpt lat="45.99574" lon="6.92906">
        <ele>1410.5999755859</ele>
        <time>2010-06-27T06:20:39Z</time>
      </trkpt>
      <trkpt lat="45.99582" lon="6.92896">
        <ele>1410.5999755859</ele>
        <time>2010-06-27T06:20:43Z</time>
      </trkpt>
      <trkpt lat="45.99594" lon="6.92875">
        <ele>1410.5999755859</ele>
        <time>2010-06-27T06:20:51Z</time>
      </trkpt>
      <trkpt lat="45.99606" lon="6.92852">
        <ele>1410.8000488281</ele>
        <time>2010-06-27T06:20:58Z</time>
      </trkpt>
      <trkpt lat="45.99615" lon="6.92829">
        <ele>1411</ele>
        <time>2010-06-27T06:21:05Z</time>
      </trkpt>
      <trkpt lat="45.9962" lon="6.92816">
        <ele>1411.1999511719</ele>
        <time>2010-06-27T06:21:09Z</time>
      </trkpt>
      <trkpt lat="45.99629" lon="6.92812">
        <ele>1411.4000244141</ele>
        <time>2010-06-27T06:21:12Z</time>
      </trkpt>
      <trkpt lat="45.99646" lon="6.92801">
        <ele>1411.4000244141</ele>
        <time>2010-06-27T06:21:19Z</time>
      </trkpt>
      <trkpt lat="45.99651" lon="6.92797">
        <ele>1411.5999755859</ele>
        <time>2010-06-27T06:21:21Z</time>
      </trkpt>
      <trkpt lat="45.99657" lon="6.92787">
        <ele>1412</ele>
        <time>2010-06-27T06:21:25Z</time>
      </trkpt>
      <trkpt lat="45.99657" lon="6.92779">
        <ele>1412</ele>
        <time>2010-06-27T06:21:27Z</time>
      </trkpt>
      <trkpt lat="45.9966" lon="6.92765">
        <ele>1412.4000244141</ele>
        <time>2010-06-27T06:21:31Z</time>
      </trkpt>
      <trkpt lat="45.99664" lon="6.92753">
        <ele>1412.5999755859</ele>
        <time>2010-06-27T06:21:36Z</time>
      </trkpt>
      <trkpt lat="45.99671" lon="6.92738">
        <ele>1412.8000488281</ele>
        <time>2010-06-27T06:21:44Z</time>
      </trkpt>
      <trkpt lat="45.99673" lon="6.9273">
        <ele>1413</ele>
        <time>2010-06-27T06:21:47Z</time>
      </trkpt>
      <trkpt lat="45.99672" lon="6.92719">
        <ele>1413.5999755859</ele>
        <time>2010-06-27T06:21:51Z</time>
      </trkpt>
      <trkpt lat="45.9967" lon="6.92704">
        <ele>1415.4000244141</ele>
        <time>2010-06-27T06:21:57Z</time>
      </trkpt>
      <trkpt lat="45.99668" lon="6.92695">
        <ele>1416.8000488281</ele>
        <time>2010-06-27T06:22:01Z</time>
      </trkpt>
      <trkpt lat="45.99671" lon="6.92681">
        <ele>1418</ele>
        <time>2010-06-27T06:22:07Z</time>
      </trkpt>
      <trkpt lat="45.99673" lon="6.92678">
        <ele>1418.4000244141</ele>
        <time>2010-06-27T06:22:08Z</time>
      </trkpt>
      <trkpt lat="45.99684" lon="6.92662">
        <ele>1419.4000244141</ele>
        <time>2010-06-27T06:22:14Z</time>
      </trkpt>
      <trkpt lat="45.99699" lon="6.92648">
        <ele>1420.4000244141</ele>
        <time>2010-06-27T06:22:21Z</time>
      </trkpt>
      <trkpt lat="45.99717" lon="6.92641">
        <ele>1421.8000488281</ele>
        <time>2010-06-27T06:22:28Z</time>
      </trkpt>
      <trkpt lat="45.99735" lon="6.92628">
        <ele>1423</ele>
        <time>2010-06-27T06:22:36Z</time>
      </trkpt>
      <trkpt lat="45.99751" lon="6.92614">
        <ele>1424.4000244141</ele>
        <time>2010-06-27T06:22:43Z</time>
      </trkpt>
      <trkpt lat="45.99765" lon="6.92598">
        <ele>1426</ele>
        <time>2010-06-27T06:22:50Z</time>
      </trkpt>
      <trkpt lat="45.9978" lon="6.9258">
        <ele>1427.4000244141</ele>
        <time>2010-06-27T06:22:58Z</time>
      </trkpt>
      <trkpt lat="45.99793" lon="6.92559">
        <ele>1429.1999511719</ele>
        <time>2010-06-27T06:23:06Z</time>
      </trkpt>
      <trkpt lat="45.99805" lon="6.9254">
        <ele>1430.8000488281</ele>
        <time>2010-06-27T06:23:13Z</time>
      </trkpt>
      <trkpt lat="45.99815" lon="6.92517">
        <ele>1432.4000244141</ele>
        <time>2010-06-27T06:23:20Z</time>
      </trkpt>
      <trkpt lat="45.99828" lon="6.92496">
        <ele>1434.4000244141</ele>
        <time>2010-06-27T06:23:29Z</time>
      </trkpt>
      <trkpt lat="45.99838" lon="6.92472">
        <ele>1436.5999755859</ele>
        <time>2010-06-27T06:23:38Z</time>
      </trkpt>
      <trkpt lat="45.99847" lon="6.9245">
        <ele>1437.8000488281</ele>
        <time>2010-06-27T06:23:45Z</time>
      </trkpt>
      <trkpt lat="45.99864" lon="6.92439">
        <ele>1438.5999755859</ele>
        <time>2010-06-27T06:23:51Z</time>
      </trkpt>
      <trkpt lat="45.99884" lon="6.92433">
        <ele>1439.4000244141</ele>
        <time>2010-06-27T06:23:58Z</time>
      </trkpt>
      <trkpt lat="45.99904" lon="6.92429">
        <ele>1440.1999511719</ele>
        <time>2010-06-27T06:24:05Z</time>
      </trkpt>
      <trkpt lat="45.99924" lon="6.92426">
        <ele>1440.5999755859</ele>
        <time>2010-06-27T06:24:12Z</time>
      </trkpt>
      <trkpt lat="45.99934" lon="6.92422">
        <ele>1440.8000488281</ele>
        <time>2010-06-27T06:24:16Z</time>
      </trkpt>
      <trkpt lat="45.99941" lon="6.92416">
        <ele>1441.1999511719</ele>
        <time>2010-06-27T06:24:20Z</time>
      </trkpt>
      <trkpt lat="45.9996" lon="6.92411">
        <ele>1442</ele>
        <time>2010-06-27T06:24:27Z</time>
      </trkpt>
      <trkpt lat="45.9998" lon="6.92413">
        <ele>1442.8000488281</ele>
        <time>2010-06-27T06:24:34Z</time>
      </trkpt>
      <trkpt lat="45.99998" lon="6.92417">
        <ele>1443.1999511719</ele>
        <time>2010-06-27T06:24:41Z</time>
      </trkpt>
      <trkpt lat="46.00017" lon="6.92421">
        <ele>1443.8000488281</ele>
        <time>2010-06-27T06:24:48Z</time>
      </trkpt>
      <trkpt lat="46.00037" lon="6.92421">
        <ele>1444.4000244141</ele>
        <time>2010-06-27T06:24:56Z</time>
      </trkpt>
      <trkpt lat="46.00056" lon="6.92417">
        <ele>1445.1999511719</ele>
        <time>2010-06-27T06:25:05Z</time>
      </trkpt>
      <trkpt lat="46.00074" lon="6.92412">
        <ele>1446.5999755859</ele>
        <time>2010-06-27T06:25:15Z</time>
      </trkpt>
      <trkpt lat="46.00093" lon="6.92405">
        <ele>1448.8000488281</ele>
        <time>2010-06-27T06:25:24Z</time>
      </trkpt>
      <trkpt lat="46.00111" lon="6.924">
        <ele>1450.4000244141</ele>
        <time>2010-06-27T06:25:31Z</time>
      </trkpt>
      <trkpt lat="46.00132" lon="6.92396">
        <ele>1451.4000244141</ele>
        <time>2010-06-27T06:25:38Z</time>
      </trkpt>
      <trkpt lat="46.00153" lon="6.92393">
        <ele>1452</ele>
        <time>2010-06-27T06:25:45Z</time>
      </trkpt>
      <trkpt lat="46.00173" lon="6.92389">
        <ele>1452.4000244141</ele>
        <time>2010-06-27T06:25:53Z</time>
      </trkpt>
      <trkpt lat="46.00191" lon="6.92382">
        <ele>1453</ele>
        <time>2010-06-27T06:26:00Z</time>
      </trkpt>
      <trkpt lat="46.00211" lon="6.92379">
        <ele>1453.8000488281</ele>
        <time>2010-06-27T06:26:08Z</time>
      </trkpt>
      <trkpt lat="46.0023" lon="6.92374">
        <ele>1455.4000244141</ele>
        <time>2010-06-27T06:26:16Z</time>
      </trkpt>
      <trkpt lat="46.00247" lon="6.92371">
        <ele>1456.8000488281</ele>
        <time>2010-06-27T06:26:24Z</time>
      </trkpt>
      <trkpt lat="46.00267" lon="6.92371">
        <ele>1458.1999511719</ele>
        <time>2010-06-27T06:26:32Z</time>
      </trkpt>
      <trkpt lat="46.00287" lon="6.92374">
        <ele>1459.4000244141</ele>
        <time>2010-06-27T06:26:40Z</time>
      </trkpt>
      <trkpt lat="46.00306" lon="6.92375">
        <ele>1460.5999755859</ele>
        <time>2010-06-27T06:26:47Z</time>
      </trkpt>
      <trkpt lat="46.00324" lon="6.92372">
        <ele>1462</ele>
        <time>2010-06-27T06:26:54Z</time>
      </trkpt>
      <trkpt lat="46.00343" lon="6.92369">
        <ele>1463.4000244141</ele>
        <time>2010-06-27T06:27:01Z</time>
      </trkpt>
      <trkpt lat="46.00362" lon="6.92368">
        <ele>1464.4000244141</ele>
        <time>2010-06-27T06:27:08Z</time>
      </trkpt>
      <trkpt lat="46.00382" lon="6.92369">
        <ele>1465.4000244141</ele>
        <time>2010-06-27T06:27:15Z</time>
      </trkpt>
      <trkpt lat="46.00401" lon="6.92374">
        <ele>1466.1999511719</ele>
        <time>2010-06-27T06:27:22Z</time>
      </trkpt>
      <trkpt lat="46.00417" lon="6.92386">
        <ele>1466.4000244141</ele>
        <time>2010-06-27T06:27:28Z</time>
      </trkpt>
      <trkpt lat="46.00434" lon="6.92401">
        <ele>1467.1999511719</ele>
        <time>2010-06-27T06:27:34Z</time>
      </trkpt>
      <trkpt lat="46.0045" lon="6.92415">
        <ele>1467.4000244141</ele>
        <time>2010-06-27T06:27:40Z</time>
      </trkpt>
      <trkpt lat="46.00466" lon="6.92428">
        <ele>1467.4000244141</ele>
        <time>2010-06-27T06:27:46Z</time>
      </trkpt>
      <trkpt lat="46.00484" lon="6.92438">
        <ele>1467.1999511719</ele>
        <time>2010-06-27T06:27:52Z</time>
      </trkpt>
      <trkpt lat="46.00504" lon="6.92448">
        <ele>1467.1999511719</ele>
        <time>2010-06-27T06:27:58Z</time>
      </trkpt>
      <trkpt lat="46.00521" lon="6.92456">
        <ele>1466.8000488281</ele>
        <time>2010-06-27T06:28:04Z</time>
      </trkpt>
      <trkpt lat="46.00541" lon="6.9246">
        <ele>1466.5999755859</ele>
        <time>2010-06-27T06:28:10Z</time>
      </trkpt>
      <trkpt lat="46.00558" lon="6.92449">
        <ele>1466.1999511719</ele>
        <time>2010-06-27T06:28:16Z</time>
      </trkpt>
      <trkpt lat="46.0057" lon="6.92426">
        <ele>1466</ele>
        <time>2010-06-27T06:28:22Z</time>
      </trkpt>
      <trkpt lat="46.00579" lon="6.92401">
        <ele>1465.4000244141</ele>
        <time>2010-06-27T06:28:28Z</time>
      </trkpt>
      <trkpt lat="46.00589" lon="6.92376">
        <ele>1465</ele>
        <time>2010-06-27T06:28:34Z</time>
      </trkpt>
      <trkpt lat="46.00601" lon="6.92353">
        <ele>1464.5999755859</ele>
        <time>2010-06-27T06:28:40Z</time>
      </trkpt>
      <trkpt lat="46.00618" lon="6.92338">
        <ele>1464</ele>
        <time>2010-06-27T06:28:46Z</time>
      </trkpt>
      <trkpt lat="46.00637" lon="6.92329">
        <ele>1463.4000244141</ele>
        <time>2010-06-27T06:28:52Z</time>
      </trkpt>
      <trkpt lat="46.00657" lon="6.92329">
        <ele>1462.5999755859</ele>
        <time>2010-06-27T06:28:59Z</time>
      </trkpt>
      <trkpt lat="46.00661" lon="6.92329">
        <ele>1462.4000244141</ele>
        <time>2010-06-27T06:29:01Z</time>
      </trkpt>
      <trkpt lat="46.00676" lon="6.92337">
        <ele>1461.4000244141</ele>
        <time>2010-06-27T06:29:07Z</time>
      </trkpt>
      <trkpt lat="46.00682" lon="6.92341">
        <ele>1460.8000488281</ele>
        <time>2010-06-27T06:29:10Z</time>
      </trkpt>
      <trkpt lat="46.00685" lon="6.92342">
        <ele>1460.5999755859</ele>
        <time>2010-06-27T06:29:11Z</time>
      </trkpt>
      <trkpt lat="46.00694" lon="6.92341">
        <ele>1460.1999511719</ele>
        <time>2010-06-27T06:29:14Z</time>
      </trkpt>
      <trkpt lat="46.00697" lon="6.92341">
        <ele>1460</ele>
        <time>2010-06-27T06:29:15Z</time>
      </trkpt>
      <trkpt lat="46.00712" lon="6.92342">
        <ele>1459</ele>
        <time>2010-06-27T06:29:20Z</time>
      </trkpt>
      <trkpt lat="46.00729" lon="6.92357">
        <ele>1458</ele>
        <time>2010-06-27T06:29:26Z</time>
      </trkpt>
      <trkpt lat="46.00745" lon="6.92374">
        <ele>1456.8000488281</ele>
        <time>2010-06-27T06:29:32Z</time>
      </trkpt>
      <trkpt lat="46.00762" lon="6.92389">
        <ele>1455.5999755859</ele>
        <time>2010-06-27T06:29:38Z</time>
      </trkpt>
      <trkpt lat="46.0078" lon="6.92401">
        <ele>1454.4000244141</ele>
        <time>2010-06-27T06:29:44Z</time>
      </trkpt>
      <trkpt lat="46.00799" lon="6.92409">
        <ele>1453.1999511719</ele>
        <time>2010-06-27T06:29:50Z</time>
      </trkpt>
      <trkpt lat="46.00819" lon="6.92417">
        <ele>1452</ele>
        <time>2010-06-27T06:29:56Z</time>
      </trkpt>
      <trkpt lat="46.00837" lon="6.92423">
        <ele>1451.1999511719</ele>
        <time>2010-06-27T06:30:01Z</time>
      </trkpt>
      <trkpt lat="46.00856" lon="6.92432">
        <ele>1450</ele>
        <time>2010-06-27T06:30:07Z</time>
      </trkpt>
      <trkpt lat="46.00874" lon="6.92447">
        <ele>1448.8000488281</ele>
        <time>2010-06-27T06:30:13Z</time>
      </trkpt>
      <trkpt lat="46.00894" lon="6.92452">
        <ele>1447.5999755859</ele>
        <time>2010-06-27T06:30:19Z</time>
      </trkpt>
      <trkpt lat="46.00913" lon="6.92451">
        <ele>1446.4000244141</ele>
        <time>2010-06-27T06:30:25Z</time>
      </trkpt>
      <trkpt lat="46.00932" lon="6.92449">
        <ele>1445</ele>
        <time>2010-06-27T06:30:31Z</time>
      </trkpt>
      <trkpt lat="46.00952" lon="6.92445">
        <ele>1443.5999755859</ele>
        <time>2010-06-27T06:30:37Z</time>
      </trkpt>
      <trkpt lat="46.00971" lon="6.92436">
        <ele>1442.1999511719</ele>
        <time>2010-06-27T06:30:43Z</time>
      </trkpt>
      <trkpt lat="46.0099" lon="6.9243">
        <ele>1441</ele>
        <time>2010-06-27T06:30:49Z</time>
      </trkpt>
      <trkpt lat="46.0101" lon="6.92426">
        <ele>1439.8000488281</ele>
        <time>2010-06-27T06:30:55Z</time>
      </trkpt>
      <trkpt lat="46.01031" lon="6.92423">
        <ele>1438.5999755859</ele>
        <time>2010-06-27T06:31:01Z</time>
      </trkpt>
      <trkpt lat="46.0105" lon="6.92427">
        <ele>1437.4000244141</ele>
        <time>2010-06-27T06:31:07Z</time>
      </trkpt>
      <trkpt lat="46.01068" lon="6.92438">
        <ele>1436</ele>
        <time>2010-06-27T06:31:13Z</time>
      </trkpt>
      <trkpt lat="46.01086" lon="6.92449">
        <ele>1434.8000488281</ele>
        <time>2010-06-27T06:31:19Z</time>
      </trkpt>
      <trkpt lat="46.01107" lon="6.92449">
        <ele>1433.4000244141</ele>
        <time>2010-06-27T06:31:25Z</time>
      </trkpt>
      <trkpt lat="46.01127" lon="6.92442">
        <ele>1432</ele>
        <time>2010-06-27T06:31:31Z</time>
      </trkpt>
      <trkpt lat="46.01146" lon="6.92431">
        <ele>1430.8000488281</ele>
        <time>2010-06-27T06:31:37Z</time>
      </trkpt>
      <trkpt lat="46.01166" lon="6.92428">
        <ele>1429.4000244141</ele>
        <time>2010-06-27T06:31:43Z</time>
      </trkpt>
      <trkpt lat="46.01186" lon="6.9243">
        <ele>1428</ele>
        <time>2010-06-27T06:31:49Z</time>
      </trkpt>
      <trkpt lat="46.01204" lon="6.9242">
        <ele>1426.5999755859</ele>
        <time>2010-06-27T06:31:55Z</time>
      </trkpt>
      <trkpt lat="46.0122" lon="6.92404">
        <ele>1425</ele>
        <time>2010-06-27T06:32:01Z</time>
      </trkpt>
      <trkpt lat="46.01234" lon="6.92387">
        <ele>1423.4000244141</ele>
        <time>2010-06-27T06:32:07Z</time>
      </trkpt>
      <trkpt lat="46.01249" lon="6.92367">
        <ele>1422</ele>
        <time>2010-06-27T06:32:13Z</time>
      </trkpt>
      <trkpt lat="46.01263" lon="6.92346">
        <ele>1420.5999755859</ele>
        <time>2010-06-27T06:32:19Z</time>
      </trkpt>
      <trkpt lat="46.01275" lon="6.92324">
        <ele>1419</ele>
        <time>2010-06-27T06:32:25Z</time>
      </trkpt>
      <trkpt lat="46.01287" lon="6.92302">
        <ele>1417.5999755859</ele>
        <time>2010-06-27T06:32:31Z</time>
      </trkpt>
      <trkpt lat="46.01305" lon="6.92292">
        <ele>1416</ele>
        <time>2010-06-27T06:32:37Z</time>
      </trkpt>
      <trkpt lat="46.01321" lon="6.92278">
        <ele>1414.5999755859</ele>
        <time>2010-06-27T06:32:43Z</time>
      </trkpt>
      <trkpt lat="46.01339" lon="6.92266">
        <ele>1413.1999511719</ele>
        <time>2010-06-27T06:32:49Z</time>
      </trkpt>
      <trkpt lat="46.01357" lon="6.92254">
        <ele>1411.8000488281</ele>
        <time>2010-06-27T06:32:55Z</time>
      </trkpt>
      <trkpt lat="46.01375" lon="6.92243">
        <ele>1410.4000244141</ele>
        <time>2010-06-27T06:33:01Z</time>
      </trkpt>
      <trkpt lat="46.01392" lon="6.92229">
        <ele>1409</ele>
        <time>2010-06-27T06:33:07Z</time>
      </trkpt>
      <trkpt lat="46.01408" lon="6.92213">
        <ele>1407.5999755859</ele>
        <time>2010-06-27T06:33:13Z</time>
      </trkpt>
      <trkpt lat="46.01419" lon="6.92201">
        <ele>1406.4000244141</ele>
        <time>2010-06-27T06:33:18Z</time>
      </trkpt>
      <trkpt lat="46.01424" lon="6.92199">
        <ele>1406</ele>
        <time>2010-06-27T06:33:20Z</time>
      </trkpt>
      <trkpt lat="46.01443" lon="6.92198">
        <ele>1404.4000244141</ele>
        <time>2010-06-27T06:33:26Z</time>
      </trkpt>
      <trkpt lat="46.01463" lon="6.92198">
        <ele>1402.8000488281</ele>
        <time>2010-06-27T06:33:33Z</time>
      </trkpt>
      <trkpt lat="46.01482" lon="6.92201">
        <ele>1401.1999511719</ele>
        <time>2010-06-27T06:33:41Z</time>
      </trkpt>
      <trkpt lat="46.015" lon="6.92193">
        <ele>1400.1999511719</ele>
        <time>2010-06-27T06:33:48Z</time>
      </trkpt>
      <trkpt lat="46.0152" lon="6.92181">
        <ele>1399.4000244141</ele>
        <time>2010-06-27T06:33:54Z</time>
      </trkpt>
      <trkpt lat="46.01537" lon="6.92166">
        <ele>1398</ele>
        <time>2010-06-27T06:34:01Z</time>
      </trkpt>
      <trkpt lat="46.01545" lon="6.92159">
        <ele>1397.5999755859</ele>
        <time>2010-06-27T06:34:04Z</time>
      </trkpt>
      <trkpt lat="46.01551" lon="6.92148">
        <ele>1397</ele>
        <time>2010-06-27T06:34:07Z</time>
      </trkpt>
      <trkpt lat="46.01567" lon="6.92132">
        <ele>1395.8000488281</ele>
        <time>2010-06-27T06:34:13Z</time>
      </trkpt>
      <trkpt lat="46.01577" lon="6.9212">
        <ele>1395.1999511719</ele>
        <time>2010-06-27T06:34:17Z</time>
      </trkpt>
      <trkpt lat="46.01582" lon="6.92113">
        <ele>1394.8000488281</ele>
        <time>2010-06-27T06:34:19Z</time>
      </trkpt>
      <trkpt lat="46.01597" lon="6.92098">
        <ele>1393.8000488281</ele>
        <time>2010-06-27T06:34:25Z</time>
      </trkpt>
      <trkpt lat="46.01616" lon="6.92086">
        <ele>1392.5999755859</ele>
        <time>2010-06-27T06:34:31Z</time>
      </trkpt>
      <trkpt lat="46.01635" lon="6.92075">
        <ele>1391.4000244141</ele>
        <time>2010-06-27T06:34:37Z</time>
      </trkpt>
      <trkpt lat="46.01654" lon="6.92068">
        <ele>1390.4000244141</ele>
        <time>2010-06-27T06:34:43Z</time>
      </trkpt>
      <trkpt lat="46.01674" lon="6.92066">
        <ele>1389</ele>
        <time>2010-06-27T06:34:50Z</time>
      </trkpt>
      <trkpt lat="46.01691" lon="6.92076">
        <ele>1388.4000244141</ele>
        <time>2010-06-27T06:34:55Z</time>
      </trkpt>
      <trkpt lat="46.01707" lon="6.92088">
        <ele>1387.8000488281</ele>
        <time>2010-06-27T06:35:00Z</time>
      </trkpt>
      <trkpt lat="46.01727" lon="6.92089">
        <ele>1387</ele>
        <time>2010-06-27T06:35:06Z</time>
      </trkpt>
      <trkpt lat="46.01746" lon="6.92091">
        <ele>1386.1999511719</ele>
        <time>2010-06-27T06:35:12Z</time>
      </trkpt>
      <trkpt lat="46.01766" lon="6.92097">
        <ele>1385.1999511719</ele>
        <time>2010-06-27T06:35:19Z</time>
      </trkpt>
      <trkpt lat="46.01785" lon="6.92096">
        <ele>1383.8000488281</ele>
        <time>2010-06-27T06:35:25Z</time>
      </trkpt>
      <trkpt lat="46.01802" lon="6.92096">
        <ele>1382.1999511719</ele>
        <time>2010-06-27T06:35:31Z</time>
      </trkpt>
      <trkpt lat="46.01821" lon="6.92093">
        <ele>1380.5999755859</ele>
        <time>2010-06-27T06:35:37Z</time>
      </trkpt>
      <trkpt lat="46.01839" lon="6.9209">
        <ele>1378.8000488281</ele>
        <time>2010-06-27T06:35:43Z</time>
      </trkpt>
      <trkpt lat="46.01859" lon="6.92092">
        <ele>1377.1999511719</ele>
        <time>2010-06-27T06:35:49Z</time>
      </trkpt>
      <trkpt lat="46.01879" lon="6.92095">
        <ele>1376</ele>
        <time>2010-06-27T06:35:55Z</time>
      </trkpt>
      <trkpt lat="46.01897" lon="6.92095">
        <ele>1375.5999755859</ele>
        <time>2010-06-27T06:36:00Z</time>
      </trkpt>
      <trkpt lat="46.01915" lon="6.92109">
        <ele>1374.8000488281</ele>
        <time>2010-06-27T06:36:06Z</time>
      </trkpt>
      <trkpt lat="46.01928" lon="6.92128">
        <ele>1373.8000488281</ele>
        <time>2010-06-27T06:36:12Z</time>
      </trkpt>
      <trkpt lat="46.01947" lon="6.92143">
        <ele>1373.1999511719</ele>
        <time>2010-06-27T06:36:18Z</time>
      </trkpt>
      <trkpt lat="46.01961" lon="6.9216">
        <ele>1372.4000244141</ele>
        <time>2010-06-27T06:36:24Z</time>
      </trkpt>
      <trkpt lat="46.01972" lon="6.92183">
        <ele>1371.1999511719</ele>
        <time>2010-06-27T06:36:30Z</time>
      </trkpt>
      <trkpt lat="46.01978" lon="6.92189">
        <ele>1370.8000488281</ele>
        <time>2010-06-27T06:36:32Z</time>
      </trkpt>
      <trkpt lat="46.0199" lon="6.92194">
        <ele>1369.8000488281</ele>
        <time>2010-06-27T06:36:36Z</time>
      </trkpt>
      <trkpt lat="46.0201" lon="6.92197">
        <ele>1368.5999755859</ele>
        <time>2010-06-27T06:36:42Z</time>
      </trkpt>
      <trkpt lat="46.02029" lon="6.922">
        <ele>1367.1999511719</ele>
        <time>2010-06-27T06:36:48Z</time>
      </trkpt>
      <trkpt lat="46.02048" lon="6.92208">
        <ele>1366</ele>
        <time>2010-06-27T06:36:54Z</time>
      </trkpt>
      <trkpt lat="46.02065" lon="6.92216">
        <ele>1364.8000488281</ele>
        <time>2010-06-27T06:37:00Z</time>
      </trkpt>
      <trkpt lat="46.02083" lon="6.92226">
        <ele>1363.1999511719</ele>
        <time>2010-06-27T06:37:06Z</time>
      </trkpt>
      <trkpt lat="46.02103" lon="6.92237">
        <ele>1361.8000488281</ele>
        <time>2010-06-27T06:37:12Z</time>
      </trkpt>
      <trkpt lat="46.02122" lon="6.9225">
        <ele>1360.5999755859</ele>
        <time>2010-06-27T06:37:18Z</time>
      </trkpt>
      <trkpt lat="46.02137" lon="6.92266">
        <ele>1359.1999511719</ele>
        <time>2010-06-27T06:37:24Z</time>
      </trkpt>
      <trkpt lat="46.02155" lon="6.92281">
        <ele>1357.8000488281</ele>
        <time>2010-06-27T06:37:30Z</time>
      </trkpt>
      <trkpt lat="46.02173" lon="6.92296">
        <ele>1356.8000488281</ele>
        <time>2010-06-27T06:37:36Z</time>
      </trkpt>
      <trkpt lat="46.02189" lon="6.92312">
        <ele>1355.4000244141</ele>
        <time>2010-06-27T06:37:42Z</time>
      </trkpt>
      <trkpt lat="46.02205" lon="6.9233">
        <ele>1354</ele>
        <time>2010-06-27T06:37:48Z</time>
      </trkpt>
      <trkpt lat="46.02222" lon="6.92345">
        <ele>1352.5999755859</ele>
        <time>2010-06-27T06:37:54Z</time>
      </trkpt>
      <trkpt lat="46.0224" lon="6.92358">
        <ele>1351.1999511719</ele>
        <time>2010-06-27T06:38:00Z</time>
      </trkpt>
      <trkpt lat="46.02256" lon="6.92371">
        <ele>1349.8000488281</ele>
        <time>2010-06-27T06:38:05Z</time>
      </trkpt>
      <trkpt lat="46.02271" lon="6.92386">
        <ele>1348.5999755859</ele>
        <time>2010-06-27T06:38:10Z</time>
      </trkpt>
      <trkpt lat="46.02288" lon="6.92401">
        <ele>1347</ele>
        <time>2010-06-27T06:38:16Z</time>
      </trkpt>
      <trkpt lat="46.02304" lon="6.92417">
        <ele>1345.5999755859</ele>
        <time>2010-06-27T06:38:22Z</time>
      </trkpt>
      <trkpt lat="46.02321" lon="6.92433">
        <ele>1343.8000488281</ele>
        <time>2010-06-27T06:38:28Z</time>
      </trkpt>
      <trkpt lat="46.0234" lon="6.92448">
        <ele>1342.4000244141</ele>
        <time>2010-06-27T06:38:34Z</time>
      </trkpt>
      <trkpt lat="46.02359" lon="6.92461">
        <ele>1341</ele>
        <time>2010-06-27T06:38:40Z</time>
      </trkpt>
      <trkpt lat="46.02374" lon="6.92463">
        <ele>1339.8000488281</ele>
        <time>2010-06-27T06:38:45Z</time>
      </trkpt>
      <trkpt lat="46.02377" lon="6.9247">
        <ele>1339.4000244141</ele>
        <time>2010-06-27T06:38:47Z</time>
      </trkpt>
      <trkpt lat="46.02381" lon="6.92477">
        <ele>1339</ele>
        <time>2010-06-27T06:38:49Z</time>
      </trkpt>
      <trkpt lat="46.02392" lon="6.92487">
        <ele>1338</ele>
        <time>2010-06-27T06:38:53Z</time>
      </trkpt>
      <trkpt lat="46.02409" lon="6.92501">
        <ele>1336.8000488281</ele>
        <time>2010-06-27T06:38:59Z</time>
      </trkpt>
      <trkpt lat="46.02427" lon="6.92516">
        <ele>1335.1999511719</ele>
        <time>2010-06-27T06:39:06Z</time>
      </trkpt>
      <trkpt lat="46.02428" lon="6.9252">
        <ele>1335</ele>
        <time>2010-06-27T06:39:07Z</time>
      </trkpt>
      <trkpt lat="46.02433" lon="6.92542">
        <ele>1334</ele>
        <time>2010-06-27T06:39:12Z</time>
      </trkpt>
      <trkpt lat="46.02433" lon="6.92546">
        <ele>1333.8000488281</ele>
        <time>2010-06-27T06:39:13Z</time>
      </trkpt>
      <trkpt lat="46.02437" lon="6.92568">
        <ele>1332.8000488281</ele>
        <time>2010-06-27T06:39:18Z</time>
      </trkpt>
      <trkpt lat="46.02444" lon="6.92592">
        <ele>1331.5999755859</ele>
        <time>2010-06-27T06:39:24Z</time>
      </trkpt>
      <trkpt lat="46.02454" lon="6.92618">
        <ele>1330.4000244141</ele>
        <time>2010-06-27T06:39:31Z</time>
      </trkpt>
      <trkpt lat="46.02462" lon="6.92642">
        <ele>1329.4000244141</ele>
        <time>2010-06-27T06:39:37Z</time>
      </trkpt>
      <trkpt lat="46.0247" lon="6.92667">
        <ele>1328.5999755859</ele>
        <time>2010-06-27T06:39:43Z</time>
      </trkpt>
      <trkpt lat="46.02482" lon="6.9269">
        <ele>1328</ele>
        <time>2010-06-27T06:39:49Z</time>
      </trkpt>
      <trkpt lat="46.02492" lon="6.92714">
        <ele>1327</ele>
        <time>2010-06-27T06:39:55Z</time>
      </trkpt>
      <trkpt lat="46.02507" lon="6.9273">
        <ele>1326.1999511719</ele>
        <time>2010-06-27T06:40:01Z</time>
      </trkpt>
      <trkpt lat="46.02525" lon="6.92739">
        <ele>1325.4000244141</ele>
        <time>2010-06-27T06:40:07Z</time>
      </trkpt>
      <trkpt lat="46.02545" lon="6.92748">
        <ele>1324.4000244141</ele>
        <time>2010-06-27T06:40:14Z</time>
      </trkpt>
      <trkpt lat="46.02562" lon="6.92756">
        <ele>1323.8000488281</ele>
        <time>2010-06-27T06:40:20Z</time>
      </trkpt>
      <trkpt lat="46.02579" lon="6.92767">
        <ele>1323</ele>
        <time>2010-06-27T06:40:26Z</time>
      </trkpt>
      <trkpt lat="46.02598" lon="6.92771">
        <ele>1322.5999755859</ele>
        <time>2010-06-27T06:40:32Z</time>
      </trkpt>
      <trkpt lat="46.02618" lon="6.92772">
        <ele>1322.1999511719</ele>
        <time>2010-06-27T06:40:38Z</time>
      </trkpt>
      <trkpt lat="46.02637" lon="6.92779">
        <ele>1321.8000488281</ele>
        <time>2010-06-27T06:40:44Z</time>
      </trkpt>
      <trkpt lat="46.02654" lon="6.9279">
        <ele>1321.4000244141</ele>
        <time>2010-06-27T06:40:50Z</time>
      </trkpt>
      <trkpt lat="46.0267" lon="6.92802">
        <ele>1321.1999511719</ele>
        <time>2010-06-27T06:40:56Z</time>
      </trkpt>
      <trkpt lat="46.02687" lon="6.92815">
        <ele>1320.8000488281</ele>
        <time>2010-06-27T06:41:02Z</time>
      </trkpt>
      <trkpt lat="46.02705" lon="6.92822">
        <ele>1320.5999755859</ele>
        <time>2010-06-27T06:41:08Z</time>
      </trkpt>
      <trkpt lat="46.02723" lon="6.92828">
        <ele>1320.1999511719</ele>
        <time>2010-06-27T06:41:14Z</time>
      </trkpt>
      <trkpt lat="46.02742" lon="6.92835">
        <ele>1320</ele>
        <time>2010-06-27T06:41:20Z</time>
      </trkpt>
      <trkpt lat="46.02762" lon="6.92834">
        <ele>1319.5999755859</ele>
        <time>2010-06-27T06:41:26Z</time>
      </trkpt>
      <trkpt lat="46.02782" lon="6.92832">
        <ele>1319</ele>
        <time>2010-06-27T06:41:32Z</time>
      </trkpt>
      <trkpt lat="46.02785" lon="6.9283">
        <ele>1319</ele>
        <time>2010-06-27T06:41:33Z</time>
      </trkpt>
      <trkpt lat="46.02798" lon="6.92823">
        <ele>1318.5999755859</ele>
        <time>2010-06-27T06:41:37Z</time>
      </trkpt>
      <trkpt lat="46.028" lon="6.92823">
        <ele>1318.5999755859</ele>
        <time>2010-06-27T06:41:38Z</time>
      </trkpt>
      <trkpt lat="46.02819" lon="6.92833">
        <ele>1317.8000488281</ele>
        <time>2010-06-27T06:41:44Z</time>
      </trkpt>
      <trkpt lat="46.02835" lon="6.92849">
        <ele>1317</ele>
        <time>2010-06-27T06:41:50Z</time>
      </trkpt>
      <trkpt lat="46.02851" lon="6.92866">
        <ele>1316</ele>
        <time>2010-06-27T06:41:56Z</time>
      </trkpt>
      <trkpt lat="46.02866" lon="6.92884">
        <ele>1315</ele>
        <time>2010-06-27T06:42:02Z</time>
      </trkpt>
      <trkpt lat="46.02879" lon="6.92902">
        <ele>1313.8000488281</ele>
        <time>2010-06-27T06:42:07Z</time>
      </trkpt>
      <trkpt lat="46.02892" lon="6.92922">
        <ele>1312.5999755859</ele>
        <time>2010-06-27T06:42:12Z</time>
      </trkpt>
      <trkpt lat="46.02906" lon="6.92943">
        <ele>1311</ele>
        <time>2010-06-27T06:42:18Z</time>
      </trkpt>
      <trkpt lat="46.02919" lon="6.92962">
        <ele>1309.8000488281</ele>
        <time>2010-06-27T06:42:23Z</time>
      </trkpt>
      <trkpt lat="46.02933" lon="6.92984">
        <ele>1308</ele>
        <time>2010-06-27T06:42:29Z</time>
      </trkpt>
      <trkpt lat="46.02947" lon="6.93004">
        <ele>1306.1999511719</ele>
        <time>2010-06-27T06:42:35Z</time>
      </trkpt>
      <trkpt lat="46.02962" lon="6.93023">
        <ele>1304.5999755859</ele>
        <time>2010-06-27T06:42:41Z</time>
      </trkpt>
      <trkpt lat="46.0298" lon="6.93041">
        <ele>1303.1999511719</ele>
        <time>2010-06-27T06:42:47Z</time>
      </trkpt>
      <trkpt lat="46.02995" lon="6.9306">
        <ele>1301.8000488281</ele>
        <time>2010-06-27T06:42:53Z</time>
      </trkpt>
      <trkpt lat="46.03008" lon="6.9308">
        <ele>1300.4000244141</ele>
        <time>2010-06-27T06:42:59Z</time>
      </trkpt>
      <trkpt lat="46.03018" lon="6.93106">
        <ele>1299</ele>
        <time>2010-06-27T06:43:05Z</time>
      </trkpt>
      <trkpt lat="46.03024" lon="6.93132">
        <ele>1298</ele>
        <time>2010-06-27T06:43:11Z</time>
      </trkpt>
      <trkpt lat="46.03031" lon="6.93158">
        <ele>1296.8000488281</ele>
        <time>2010-06-27T06:43:17Z</time>
      </trkpt>
      <trkpt lat="46.03048" lon="6.93173">
        <ele>1295.8000488281</ele>
        <time>2010-06-27T06:43:23Z</time>
      </trkpt>
      <trkpt lat="46.03066" lon="6.93184">
        <ele>1294.8000488281</ele>
        <time>2010-06-27T06:43:29Z</time>
      </trkpt>
      <trkpt lat="46.03082" lon="6.93192">
        <ele>1293</ele>
        <time>2010-06-27T06:43:40Z</time>
      </trkpt>
      <trkpt lat="46.03084" lon="6.93193">
        <ele>1292.5999755859</ele>
        <time>2010-06-27T06:43:42Z</time>
      </trkpt>
      <trkpt lat="46.0309" lon="6.93197">
        <ele>1291.4000244141</ele>
        <time>2010-06-27T06:43:49Z</time>
      </trkpt>
      <trkpt lat="46.03094" lon="6.932">
        <ele>1291</ele>
        <time>2010-06-27T06:43:52Z</time>
      </trkpt>
      <trkpt lat="46.031" lon="6.93207">
        <ele>1290.5999755859</ele>
        <time>2010-06-27T06:43:55Z</time>
      </trkpt>
      <trkpt lat="46.03113" lon="6.93226">
        <ele>1289.5999755859</ele>
        <time>2010-06-27T06:44:01Z</time>
      </trkpt>
      <trkpt lat="46.03129" lon="6.93242">
        <ele>1288.8000488281</ele>
        <time>2010-06-27T06:44:07Z</time>
      </trkpt>
      <trkpt lat="46.03145" lon="6.93258">
        <ele>1288.1999511719</ele>
        <time>2010-06-27T06:44:13Z</time>
      </trkpt>
      <trkpt lat="46.03159" lon="6.93274">
        <ele>1287.5999755859</ele>
        <time>2010-06-27T06:44:19Z</time>
      </trkpt>
      <trkpt lat="46.03174" lon="6.93291">
        <ele>1287</ele>
        <time>2010-06-27T06:44:25Z</time>
      </trkpt>
      <trkpt lat="46.03189" lon="6.93309">
        <ele>1286.5999755859</ele>
        <time>2010-06-27T06:44:31Z</time>
      </trkpt>
      <trkpt lat="46.03202" lon="6.9333">
        <ele>1285.8000488281</ele>
        <time>2010-06-27T06:44:37Z</time>
      </trkpt>
      <trkpt lat="46.03214" lon="6.93354">
        <ele>1284.8000488281</ele>
        <time>2010-06-27T06:44:44Z</time>
      </trkpt>
      <trkpt lat="46.03227" lon="6.93371">
        <ele>1283.8000488281</ele>
        <time>2010-06-27T06:44:51Z</time>
      </trkpt>
      <trkpt lat="46.03219" lon="6.93383">
        <ele>1282.4000244141</ele>
        <time>2010-06-27T06:45:00Z</time>
      </trkpt>
      <trkpt lat="46.03214" lon="6.93387">
        <ele>1281.1999511719</ele>
        <time>2010-06-27T06:45:14Z</time>
      </trkpt>
      <trkpt lat="46.03207" lon="6.93392">
        <ele>1280.5999755859</ele>
        <time>2010-06-27T06:45:23Z</time>
      </trkpt>
      <trkpt lat="46.03204" lon="6.93395">
        <ele>1280.4000244141</ele>
        <time>2010-06-27T06:45:27Z</time>
      </trkpt>
      <trkpt lat="46.03197" lon="6.93397">
        <ele>1280.1999511719</ele>
        <time>2010-06-27T06:45:32Z</time>
      </trkpt>
      <trkpt lat="46.0318" lon="6.93401">
        <ele>1280.8000488281</ele>
        <time>2010-06-27T06:45:47Z</time>
      </trkpt>
      <trkpt lat="46.03179" lon="6.934">
        <ele>1281</ele>
        <time>2010-06-27T06:45:48Z</time>
      </trkpt>
      <trkpt lat="46.03162" lon="6.93404">
        <ele>1285.4000244141</ele>
        <time>2010-06-27T06:46:05Z</time>
      </trkpt>
      <trkpt lat="46.03154" lon="6.93407">
        <ele>1287.1999511719</ele>
        <time>2010-06-27T06:46:12Z</time>
      </trkpt>
      <trkpt lat="46.03146" lon="6.93408">
        <ele>1290.1999511719</ele>
        <time>2010-06-27T06:46:20Z</time>
      </trkpt>
      <trkpt lat="46.03144" lon="6.93409">
        <ele>1290.5999755859</ele>
        <time>2010-06-27T06:46:22Z</time>
      </trkpt>
      <trkpt lat="46.03133" lon="6.93421">
        <ele>1295.1999511719</ele>
        <time>2010-06-27T06:46:34Z</time>
      </trkpt>
      <trkpt lat="46.03131" lon="6.93415">
        <ele>1295.8000488281</ele>
        <time>2010-06-27T06:46:38Z</time>
      </trkpt>
      <trkpt lat="46.0313" lon="6.93409">
        <ele>1297</ele>
        <time>2010-06-27T06:46:42Z</time>
      </trkpt>
      <trkpt lat="46.03127" lon="6.93402">
        <ele>1298.5999755859</ele>
        <time>2010-06-27T06:46:47Z</time>
      </trkpt>
      <trkpt lat="46.03126" lon="6.93405">
        <ele>1299.4000244141</ele>
        <time>2010-06-27T06:46:51Z</time>
      </trkpt>
      <trkpt lat="46.03123" lon="6.93412">
        <ele>1300.4000244141</ele>
        <time>2010-06-27T06:46:56Z</time>
      </trkpt>
      <trkpt lat="46.0312" lon="6.93417">
        <ele>1301.4000244141</ele>
        <time>2010-06-27T06:47:00Z</time>
      </trkpt>
      <trkpt lat="46.03115" lon="6.93428">
        <ele>1304.4000244141</ele>
        <time>2010-06-27T06:47:09Z</time>
      </trkpt>
      <trkpt lat="46.03112" lon="6.93431">
        <ele>1306.5999755859</ele>
        <time>2010-06-27T06:47:15Z</time>
      </trkpt>
      <trkpt lat="46.03105" lon="6.93443">
        <ele>1311</ele>
        <time>2010-06-27T06:47:31Z</time>
      </trkpt>
      <trkpt lat="46.03102" lon="6.93436">
        <ele>1313.5999755859</ele>
        <time>2010-06-27T06:47:40Z</time>
      </trkpt>
      <trkpt lat="46.03095" lon="6.93427">
        <ele>1315.5999755859</ele>
        <time>2010-06-27T06:47:46Z</time>
      </trkpt>
      <trkpt lat="46.03089" lon="6.93434">
        <ele>1318</ele>
        <time>2010-06-27T06:47:54Z</time>
      </trkpt>
      <trkpt lat="46.03087" lon="6.93438">
        <ele>1318.8000488281</ele>
        <time>2010-06-27T06:47:57Z</time>
      </trkpt>
      <trkpt lat="46.03083" lon="6.93447">
        <ele>1320.5999755859</ele>
        <time>2010-06-27T06:48:04Z</time>
      </trkpt>
      <trkpt lat="46.03079" lon="6.93454">
        <ele>1323.1999511719</ele>
        <time>2010-06-27T06:48:11Z</time>
      </trkpt>
      <trkpt lat="46.03078" lon="6.93455">
        <ele>1323.5999755859</ele>
        <time>2010-06-27T06:48:12Z</time>
      </trkpt>
      <trkpt lat="46.03075" lon="6.93465">
        <ele>1327</ele>
        <time>2010-06-27T06:48:21Z</time>
      </trkpt>
      <trkpt lat="46.03074" lon="6.93467">
        <ele>1328</ele>
        <time>2010-06-27T06:48:24Z</time>
      </trkpt>
      <trkpt lat="46.03073" lon="6.93471">
        <ele>1329</ele>
        <time>2010-06-27T06:48:27Z</time>
      </trkpt>
      <trkpt lat="46.03069" lon="6.93473">
        <ele>1332.4000244141</ele>
        <time>2010-06-27T06:48:36Z</time>
      </trkpt>
      <trkpt lat="46.03068" lon="6.93474">
        <ele>1332.8000488281</ele>
        <time>2010-06-27T06:48:37Z</time>
      </trkpt>
      <trkpt lat="46.03066" lon="6.93478">
        <ele>1333.5999755859</ele>
        <time>2010-06-27T06:48:40Z</time>
      </trkpt>
      <trkpt lat="46.03062" lon="6.93489">
        <ele>1337.5999755859</ele>
        <time>2010-06-27T06:48:48Z</time>
      </trkpt>
      <trkpt lat="46.03062" lon="6.9349">
        <ele>1338</ele>
        <time>2010-06-27T06:48:49Z</time>
      </trkpt>
      <trkpt lat="46.03065" lon="6.93495">
        <ele>1340</ele>
        <time>2010-06-27T06:48:54Z</time>
      </trkpt>
      <trkpt lat="46.03067" lon="6.93507">
        <ele>1343</ele>
        <time>2010-06-27T06:49:03Z</time>
      </trkpt>
      <trkpt lat="46.03066" lon="6.93508">
        <ele>1343.4000244141</ele>
        <time>2010-06-27T06:49:04Z</time>
      </trkpt>
      <trkpt lat="46.03062" lon="6.93513">
        <ele>1345.1999511719</ele>
        <time>2010-06-27T06:49:10Z</time>
      </trkpt>
      <trkpt lat="46.0306" lon="6.93519">
        <ele>1346.8000488281</ele>
        <time>2010-06-27T06:49:15Z</time>
      </trkpt>
      <trkpt lat="46.03059" lon="6.9352">
        <ele>1347.4000244141</ele>
        <time>2010-06-27T06:49:18Z</time>
      </trkpt>
      <trkpt lat="46.03062" lon="6.93538">
        <ele>1350</ele>
        <time>2010-06-27T06:49:31Z</time>
      </trkpt>
      <trkpt lat="46.03063" lon="6.93543">
        <ele>1350.4000244141</ele>
        <time>2010-06-27T06:49:34Z</time>
      </trkpt>
      <trkpt lat="46.03067" lon="6.93548">
        <ele>1351</ele>
        <time>2010-06-27T06:49:39Z</time>
      </trkpt>
      <trkpt lat="46.03068" lon="6.93549">
        <ele>1351</ele>
        <time>2010-06-27T06:49:40Z</time>
      </trkpt>
      <trkpt lat="46.0307" lon="6.93566">
        <ele>1350.8000488281</ele>
        <time>2010-06-27T06:49:49Z</time>
      </trkpt>
      <trkpt lat="46.0307" lon="6.93568">
        <ele>1351</ele>
        <time>2010-06-27T06:49:50Z</time>
      </trkpt>
      <trkpt lat="46.03072" lon="6.93571">
        <ele>1351.4000244141</ele>
        <time>2010-06-27T06:49:52Z</time>
      </trkpt>
      <trkpt lat="46.03085" lon="6.93582">
        <ele>1353.5999755859</ele>
        <time>2010-06-27T06:49:59Z</time>
      </trkpt>
      <trkpt lat="46.03087" lon="6.93583">
        <ele>1353.8000488281</ele>
        <time>2010-06-27T06:50:00Z</time>
      </trkpt>
      <trkpt lat="46.03089" lon="6.93585">
        <ele>1354.1999511719</ele>
        <time>2010-06-27T06:50:01Z</time>
      </trkpt>
      <trkpt lat="46.03099" lon="6.93598">
        <ele>1356.4000244141</ele>
        <time>2010-06-27T06:50:08Z</time>
      </trkpt>
      <trkpt lat="46.03118" lon="6.93605">
        <ele>1359.8000488281</ele>
        <time>2010-06-27T06:50:17Z</time>
      </trkpt>
      <trkpt lat="46.0313" lon="6.93625">
        <ele>1363.1999511719</ele>
        <time>2010-06-27T06:50:28Z</time>
      </trkpt>
      <trkpt lat="46.03131" lon="6.93628">
        <ele>1364</ele>
        <time>2010-06-27T06:50:30Z</time>
      </trkpt>
      <trkpt lat="46.03133" lon="6.93629">
        <ele>1364.5999755859</ele>
        <time>2010-06-27T06:50:32Z</time>
      </trkpt>
      <trkpt lat="46.03137" lon="6.9363">
        <ele>1366.1999511719</ele>
        <time>2010-06-27T06:50:36Z</time>
      </trkpt>
      <trkpt lat="46.03136" lon="6.93634">
        <ele>1367.1999511719</ele>
        <time>2010-06-27T06:50:40Z</time>
      </trkpt>
      <trkpt lat="46.03131" lon="6.93636">
        <ele>1369</ele>
        <time>2010-06-27T06:50:44Z</time>
      </trkpt>
      <trkpt lat="46.03133" lon="6.93646">
        <ele>1371.4000244141</ele>
        <time>2010-06-27T06:50:51Z</time>
      </trkpt>
      <trkpt lat="46.03141" lon="6.93648">
        <ele>1374</ele>
        <time>2010-06-27T06:50:59Z</time>
      </trkpt>
      <trkpt lat="46.03144" lon="6.93649">
        <ele>1375</ele>
        <time>2010-06-27T06:51:02Z</time>
      </trkpt>
      <trkpt lat="46.03147" lon="6.93651">
        <ele>1375.5999755859</ele>
        <time>2010-06-27T06:51:04Z</time>
      </trkpt>
      <trkpt lat="46.03157" lon="6.93662">
        <ele>1378.8000488281</ele>
        <time>2010-06-27T06:51:14Z</time>
      </trkpt>
      <trkpt lat="46.03157" lon="6.93667">
        <ele>1379.4000244141</ele>
        <time>2010-06-27T06:51:17Z</time>
      </trkpt>
      <trkpt lat="46.03157" lon="6.93668">
        <ele>1379.4000244141</ele>
        <time>2010-06-27T06:51:18Z</time>
      </trkpt>
      <trkpt lat="46.03156" lon="6.93684">
        <ele>1382.1999511719</ele>
        <time>2010-06-27T06:51:30Z</time>
      </trkpt>
      <trkpt lat="46.03157" lon="6.93686">
        <ele>1383.4000244141</ele>
        <time>2010-06-27T06:51:32Z</time>
      </trkpt>
      <trkpt lat="46.03158" lon="6.93691">
        <ele>1384.5999755859</ele>
        <time>2010-06-27T06:51:35Z</time>
      </trkpt>
      <trkpt lat="46.03159" lon="6.93692">
        <ele>1384.8000488281</ele>
        <time>2010-06-27T06:51:36Z</time>
      </trkpt>
      <trkpt lat="46.03162" lon="6.93706">
        <ele>1387.5999755859</ele>
        <time>2010-06-27T06:51:44Z</time>
      </trkpt>
      <trkpt lat="46.03163" lon="6.93708">
        <ele>1387.5999755859</ele>
        <time>2010-06-27T06:51:46Z</time>
      </trkpt>
      <trkpt lat="46.03165" lon="6.93714">
        <ele>1388.1999511719</ele>
        <time>2010-06-27T06:51:51Z</time>
      </trkpt>
      <trkpt lat="46.03168" lon="6.93715">
        <ele>1389</ele>
        <time>2010-06-27T06:51:53Z</time>
      </trkpt>
      <trkpt lat="46.03169" lon="6.93716">
        <ele>1389.1999511719</ele>
        <time>2010-06-27T06:51:54Z</time>
      </trkpt>
      <trkpt lat="46.03176" lon="6.93715">
        <ele>1391</ele>
        <time>2010-06-27T06:51:57Z</time>
      </trkpt>
      <trkpt lat="46.03185" lon="6.93731">
        <ele>1394.5999755859</ele>
        <time>2010-06-27T06:52:07Z</time>
      </trkpt>
      <trkpt lat="46.03192" lon="6.93738">
        <ele>1396.5999755859</ele>
        <time>2010-06-27T06:52:12Z</time>
      </trkpt>
      <trkpt lat="46.03199" lon="6.93739">
        <ele>1400.5999755859</ele>
        <time>2010-06-27T06:52:17Z</time>
      </trkpt>
      <trkpt lat="46.03201" lon="6.93744">
        <ele>1402.8000488281</ele>
        <time>2010-06-27T06:52:21Z</time>
      </trkpt>
      <trkpt lat="46.03208" lon="6.93752">
        <ele>1406.4000244141</ele>
        <time>2010-06-27T06:52:27Z</time>
      </trkpt>
      <trkpt lat="46.03215" lon="6.93762">
        <ele>1409.5999755859</ele>
        <time>2010-06-27T06:52:34Z</time>
      </trkpt>
      <trkpt lat="46.03216" lon="6.93767">
        <ele>1411</ele>
        <time>2010-06-27T06:52:38Z</time>
      </trkpt>
      <trkpt lat="46.03218" lon="6.93769">
        <ele>1411.4000244141</ele>
        <time>2010-06-27T06:52:40Z</time>
      </trkpt>
      <trkpt lat="46.03221" lon="6.93774">
        <ele>1412.4000244141</ele>
        <time>2010-06-27T06:52:44Z</time>
      </trkpt>
      <trkpt lat="46.03224" lon="6.93785">
        <ele>1413.8000488281</ele>
        <time>2010-06-27T06:52:50Z</time>
      </trkpt>
      <trkpt lat="46.03225" lon="6.93788">
        <ele>1414</ele>
        <time>2010-06-27T06:52:52Z</time>
      </trkpt>
      <trkpt lat="46.03228" lon="6.93789">
        <ele>1414.4000244141</ele>
        <time>2010-06-27T06:52:55Z</time>
      </trkpt>
      <trkpt lat="46.03234" lon="6.93794">
        <ele>1415.4000244141</ele>
        <time>2010-06-27T06:53:01Z</time>
      </trkpt>
      <trkpt lat="46.03236" lon="6.93794">
        <ele>1416.1999511719</ele>
        <time>2010-06-27T06:53:03Z</time>
      </trkpt>
      <trkpt lat="46.03242" lon="6.93795">
        <ele>1417.8000488281</ele>
        <time>2010-06-27T06:53:09Z</time>
      </trkpt>
      <trkpt lat="46.03252" lon="6.93804">
        <ele>1420.8000488281</ele>
        <time>2010-06-27T06:53:20Z</time>
      </trkpt>
      <trkpt lat="46.03258" lon="6.9381">
        <ele>1422</ele>
        <time>2010-06-27T06:53:25Z</time>
      </trkpt>
      <trkpt lat="46.0326" lon="6.93817">
        <ele>1422.8000488281</ele>
        <time>2010-06-27T06:53:30Z</time>
      </trkpt>
      <trkpt lat="46.03264" lon="6.93823">
        <ele>1423.5999755859</ele>
        <time>2010-06-27T06:53:35Z</time>
      </trkpt>
      <trkpt lat="46.03266" lon="6.93825">
        <ele>1423.4000244141</ele>
        <time>2010-06-27T06:53:37Z</time>
      </trkpt>
      <trkpt lat="46.03271" lon="6.93829">
        <ele>1424</ele>
        <time>2010-06-27T06:53:41Z</time>
      </trkpt>
      <trkpt lat="46.03272" lon="6.9383">
        <ele>1425.1999511719</ele>
        <time>2010-06-27T06:53:43Z</time>
      </trkpt>
      <trkpt lat="46.03285" lon="6.93849">
        <ele>1429.8000488281</ele>
        <time>2010-06-27T06:54:00Z</time>
      </trkpt>
      <trkpt lat="46.03293" lon="6.93853">
        <ele>1433</ele>
        <time>2010-06-27T06:54:05Z</time>
      </trkpt>
      <trkpt lat="46.03293" lon="6.93854">
        <ele>1433.8000488281</ele>
        <time>2010-06-27T06:54:06Z</time>
      </trkpt>
      <trkpt lat="46.03296" lon="6.93854">
        <ele>1435.4000244141</ele>
        <time>2010-06-27T06:54:08Z</time>
      </trkpt>
      <trkpt lat="46.03304" lon="6.93855">
        <ele>1444.4000244141</ele>
        <time>2010-06-27T06:54:18Z</time>
      </trkpt>
      <trkpt lat="46.03308" lon="6.93861">
        <ele>1449</ele>
        <time>2010-06-27T06:54:25Z</time>
      </trkpt>
      <trkpt lat="46.03312" lon="6.93869">
        <ele>1450.5999755859</ele>
        <time>2010-06-27T06:54:30Z</time>
      </trkpt>
      <trkpt lat="46.03315" lon="6.93874">
        <ele>1450.4000244141</ele>
        <time>2010-06-27T06:54:37Z</time>
      </trkpt>
      <trkpt lat="46.03316" lon="6.93874">
        <ele>1450.1999511719</ele>
        <time>2010-06-27T06:54:40Z</time>
      </trkpt>
      <trkpt lat="46.03321" lon="6.93874">
        <ele>1451.4000244141</ele>
        <time>2010-06-27T06:54:45Z</time>
      </trkpt>
      <trkpt lat="46.03332" lon="6.93885">
        <ele>1455.1999511719</ele>
        <time>2010-06-27T06:54:55Z</time>
      </trkpt>
      <trkpt lat="46.03338" lon="6.93888">
        <ele>1457.8000488281</ele>
        <time>2010-06-27T06:54:59Z</time>
      </trkpt>
      <trkpt lat="46.0335" lon="6.93896">
        <ele>1463</ele>
        <time>2010-06-27T06:55:09Z</time>
      </trkpt>
      <trkpt lat="46.03362" lon="6.9391">
        <ele>1467.1999511719</ele>
        <time>2010-06-27T06:55:20Z</time>
      </trkpt>
      <trkpt lat="46.03365" lon="6.93912">
        <ele>1468.8000488281</ele>
        <time>2010-06-27T06:55:25Z</time>
      </trkpt>
      <trkpt lat="46.03371" lon="6.93921">
        <ele>1469.1999511719</ele>
        <time>2010-06-27T06:55:32Z</time>
      </trkpt>
      <trkpt lat="46.03376" lon="6.93929">
        <ele>1469.4000244141</ele>
        <time>2010-06-27T06:55:39Z</time>
      </trkpt>
      <trkpt lat="46.0338" lon="6.93928">
        <ele>1470.4000244141</ele>
        <time>2010-06-27T06:55:45Z</time>
      </trkpt>
      <trkpt lat="46.03383" lon="6.93929">
        <ele>1470.8000488281</ele>
        <time>2010-06-27T06:55:47Z</time>
      </trkpt>
      <trkpt lat="46.03382" lon="6.93939">
        <ele>1473.4000244141</ele>
        <time>2010-06-27T06:55:57Z</time>
      </trkpt>
      <trkpt lat="46.03383" lon="6.9394">
        <ele>1473.4000244141</ele>
        <time>2010-06-27T06:55:58Z</time>
      </trkpt>
      <trkpt lat="46.03385" lon="6.93947">
        <ele>1475</ele>
        <time>2010-06-27T06:56:08Z</time>
      </trkpt>
      <trkpt lat="46.0339" lon="6.93953">
        <ele>1477.5999755859</ele>
        <time>2010-06-27T06:56:19Z</time>
      </trkpt>
      <trkpt lat="46.03387" lon="6.93956">
        <ele>1477.8000488281</ele>
        <time>2010-06-27T06:56:22Z</time>
      </trkpt>
      <trkpt lat="46.03379" lon="6.93957">
        <ele>1477.5999755859</ele>
        <time>2010-06-27T06:56:30Z</time>
      </trkpt>
      <trkpt lat="46.03379" lon="6.9396">
        <ele>1477.8000488281</ele>
        <time>2010-06-27T06:56:34Z</time>
      </trkpt>
      <trkpt lat="46.03384" lon="6.93973">
        <ele>1478</ele>
        <time>2010-06-27T06:56:44Z</time>
      </trkpt>
      <trkpt lat="46.03387" lon="6.93976">
        <ele>1478</ele>
        <time>2010-06-27T06:56:48Z</time>
      </trkpt>
      <trkpt lat="46.03389" lon="6.93977">
        <ele>1479</ele>
        <time>2010-06-27T06:56:52Z</time>
      </trkpt>
      <trkpt lat="46.03392" lon="6.93978">
        <ele>1479.5999755859</ele>
        <time>2010-06-27T06:56:55Z</time>
      </trkpt>
      <trkpt lat="46.03405" lon="6.9398">
        <ele>1483.1999511719</ele>
        <time>2010-06-27T06:57:06Z</time>
      </trkpt>
      <trkpt lat="46.03406" lon="6.93981">
        <ele>1483.5999755859</ele>
        <time>2010-06-27T06:57:07Z</time>
      </trkpt>
      <trkpt lat="46.03407" lon="6.93983">
        <ele>1484.8000488281</ele>
        <time>2010-06-27T06:57:09Z</time>
      </trkpt>
      <trkpt lat="46.03409" lon="6.93983">
        <ele>1485.1999511719</ele>
        <time>2010-06-27T06:57:10Z</time>
      </trkpt>
      <trkpt lat="46.0342" lon="6.93991">
        <ele>1490</ele>
        <time>2010-06-27T06:57:20Z</time>
      </trkpt>
      <trkpt lat="46.03421" lon="6.93991">
        <ele>1490.5999755859</ele>
        <time>2010-06-27T06:57:21Z</time>
      </trkpt>
      <trkpt lat="46.03426" lon="6.93993">
        <ele>1492</ele>
        <time>2010-06-27T06:57:24Z</time>
      </trkpt>
      <trkpt lat="46.03439" lon="6.9401">
        <ele>1494.4000244141</ele>
        <time>2010-06-27T06:57:33Z</time>
      </trkpt>
      <trkpt lat="46.03444" lon="6.94021">
        <ele>1495.4000244141</ele>
        <time>2010-06-27T06:57:41Z</time>
      </trkpt>
      <trkpt lat="46.03448" lon="6.94026">
        <ele>1496</ele>
        <time>2010-06-27T06:57:47Z</time>
      </trkpt>
      <trkpt lat="46.03449" lon="6.94027">
        <ele>1496.1999511719</ele>
        <time>2010-06-27T06:57:49Z</time>
      </trkpt>
      <trkpt lat="46.03451" lon="6.94031">
        <ele>1496.4000244141</ele>
        <time>2010-06-27T06:57:52Z</time>
      </trkpt>
      <trkpt lat="46.03458" lon="6.94038">
        <ele>1498.1999511719</ele>
        <time>2010-06-27T06:58:01Z</time>
      </trkpt>
      <trkpt lat="46.03464" lon="6.94041">
        <ele>1499.4000244141</ele>
        <time>2010-06-27T06:58:06Z</time>
      </trkpt>
      <trkpt lat="46.03466" lon="6.94043">
        <ele>1499.8000488281</ele>
        <time>2010-06-27T06:58:08Z</time>
      </trkpt>
      <trkpt lat="46.03468" lon="6.94045">
        <ele>1500.1999511719</ele>
        <time>2010-06-27T06:58:10Z</time>
      </trkpt>
      <trkpt lat="46.03473" lon="6.94054">
        <ele>1501.5999755859</ele>
        <time>2010-06-27T06:58:19Z</time>
      </trkpt>
      <trkpt lat="46.03476" lon="6.94058">
        <ele>1502.5999755859</ele>
        <time>2010-06-27T06:58:23Z</time>
      </trkpt>
      <trkpt lat="46.03479" lon="6.94064">
        <ele>1504</ele>
        <time>2010-06-27T06:58:28Z</time>
      </trkpt>
      <trkpt lat="46.03479" lon="6.94065">
        <ele>1504.1999511719</ele>
        <time>2010-06-27T06:58:29Z</time>
      </trkpt>
      <trkpt lat="46.03481" lon="6.94069">
        <ele>1505.5999755859</ele>
        <time>2010-06-27T06:58:34Z</time>
      </trkpt>
      <trkpt lat="46.03493" lon="6.94069">
        <ele>1510.4000244141</ele>
        <time>2010-06-27T06:58:50Z</time>
      </trkpt>
      <trkpt lat="46.03495" lon="6.94068">
        <ele>1510.8000488281</ele>
        <time>2010-06-27T06:58:51Z</time>
      </trkpt>
      <trkpt lat="46.03498" lon="6.94071">
        <ele>1512.8000488281</ele>
        <time>2010-06-27T06:58:55Z</time>
      </trkpt>
      <trkpt lat="46.03499" lon="6.94071">
        <ele>1513.1999511719</ele>
        <time>2010-06-27T06:58:56Z</time>
      </trkpt>
      <trkpt lat="46.03504" lon="6.94074">
        <ele>1515.1999511719</ele>
        <time>2010-06-27T06:59:01Z</time>
      </trkpt>
      <trkpt lat="46.03503" lon="6.94081">
        <ele>1517</ele>
        <time>2010-06-27T06:59:05Z</time>
      </trkpt>
      <trkpt lat="46.035" lon="6.94083">
        <ele>1517.8000488281</ele>
        <time>2010-06-27T06:59:07Z</time>
      </trkpt>
      <trkpt lat="46.03498" lon="6.94089">
        <ele>1519</ele>
        <time>2010-06-27T06:59:11Z</time>
      </trkpt>
      <trkpt lat="46.03497" lon="6.94091">
        <ele>1519.4000244141</ele>
        <time>2010-06-27T06:59:12Z</time>
      </trkpt>
      <trkpt lat="46.03495" lon="6.94094">
        <ele>1520</ele>
        <time>2010-06-27T06:59:14Z</time>
      </trkpt>
      <trkpt lat="46.03495" lon="6.94103">
        <ele>1521.1999511719</ele>
        <time>2010-06-27T06:59:21Z</time>
      </trkpt>
      <trkpt lat="46.03495" lon="6.94107">
        <ele>1521.4000244141</ele>
        <time>2010-06-27T06:59:22Z</time>
      </trkpt>
      <trkpt lat="46.03496" lon="6.94108">
        <ele>1521.8000488281</ele>
        <time>2010-06-27T06:59:23Z</time>
      </trkpt>
      <trkpt lat="46.03497" lon="6.94115">
        <ele>1522.5999755859</ele>
        <time>2010-06-27T06:59:27Z</time>
      </trkpt>
      <trkpt lat="46.0349" lon="6.94123">
        <ele>1529.5999755859</ele>
        <time>2010-06-27T06:59:41Z</time>
      </trkpt>
      <trkpt lat="46.03489" lon="6.94125">
        <ele>1531.1999511719</ele>
        <time>2010-06-27T06:59:43Z</time>
      </trkpt>
      <trkpt lat="46.0349" lon="6.94127">
        <ele>1532.4000244141</ele>
        <time>2010-06-27T06:59:45Z</time>
      </trkpt>
      <trkpt lat="46.03505" lon="6.94137">
        <ele>1539.8000488281</ele>
        <time>2010-06-27T06:59:58Z</time>
      </trkpt>
      <trkpt lat="46.03505" lon="6.94139">
        <ele>1540.1999511719</ele>
        <time>2010-06-27T06:59:59Z</time>
      </trkpt>
      <trkpt lat="46.03509" lon="6.94144">
        <ele>1542.8000488281</ele>
        <time>2010-06-27T07:00:07Z</time>
      </trkpt>
      <trkpt lat="46.03512" lon="6.94151">
        <ele>1543.5999755859</ele>
        <time>2010-06-27T07:00:13Z</time>
      </trkpt>
      <trkpt lat="46.03513" lon="6.94152">
        <ele>1543.4000244141</ele>
        <time>2010-06-27T07:00:14Z</time>
      </trkpt>
      <trkpt lat="46.03513" lon="6.94156">
        <ele>1543.5999755859</ele>
        <time>2010-06-27T07:00:17Z</time>
      </trkpt>
      <trkpt lat="46.03517" lon="6.94164">
        <ele>1545.5999755859</ele>
        <time>2010-06-27T07:00:24Z</time>
      </trkpt>
      <trkpt lat="46.03519" lon="6.94164">
        <ele>1546.4000244141</ele>
        <time>2010-06-27T07:00:27Z</time>
      </trkpt>
      <trkpt lat="46.0352" lon="6.94164">
        <ele>1546.5999755859</ele>
        <time>2010-06-27T07:00:28Z</time>
      </trkpt>
      <trkpt lat="46.03529" lon="6.94181">
        <ele>1547.5999755859</ele>
        <time>2010-06-27T07:00:36Z</time>
      </trkpt>
      <trkpt lat="46.03532" lon="6.94187">
        <ele>1548</ele>
        <time>2010-06-27T07:00:39Z</time>
      </trkpt>
      <trkpt lat="46.03535" lon="6.94195">
        <ele>1549.4000244141</ele>
        <time>2010-06-27T07:00:44Z</time>
      </trkpt>
      <trkpt lat="46.03539" lon="6.94199">
        <ele>1553</ele>
        <time>2010-06-27T07:00:50Z</time>
      </trkpt>
      <trkpt lat="46.03542" lon="6.942">
        <ele>1557</ele>
        <time>2010-06-27T07:00:55Z</time>
      </trkpt>
      <trkpt lat="46.03543" lon="6.94201">
        <ele>1557.5999755859</ele>
        <time>2010-06-27T07:00:56Z</time>
      </trkpt>
      <trkpt lat="46.03549" lon="6.94208">
        <ele>1561.5999755859</ele>
        <time>2010-06-27T07:01:02Z</time>
      </trkpt>
      <trkpt lat="46.0355" lon="6.94209">
        <ele>1562.1999511719</ele>
        <time>2010-06-27T07:01:03Z</time>
      </trkpt>
      <trkpt lat="46.03553" lon="6.94222">
        <ele>1564.8000488281</ele>
        <time>2010-06-27T07:01:10Z</time>
      </trkpt>
      <trkpt lat="46.03557" lon="6.94222">
        <ele>1566.4000244141</ele>
        <time>2010-06-27T07:01:16Z</time>
      </trkpt>
      <trkpt lat="46.03562" lon="6.94225">
        <ele>1568.5999755859</ele>
        <time>2010-06-27T07:01:21Z</time>
      </trkpt>
      <trkpt lat="46.03567" lon="6.94231">
        <ele>1570.8000488281</ele>
        <time>2010-06-27T07:01:27Z</time>
      </trkpt>
      <trkpt lat="46.03571" lon="6.94236">
        <ele>1573</ele>
        <time>2010-06-27T07:01:32Z</time>
      </trkpt>
      <trkpt lat="46.03572" lon="6.94238">
        <ele>1573.8000488281</ele>
        <time>2010-06-27T07:01:34Z</time>
      </trkpt>
      <trkpt lat="46.03579" lon="6.94245">
        <ele>1583.1999511719</ele>
        <time>2010-06-27T07:01:50Z</time>
      </trkpt>
      <trkpt lat="46.03581" lon="6.94249">
        <ele>1583.8000488281</ele>
        <time>2010-06-27T07:01:53Z</time>
      </trkpt>
      <trkpt lat="46.03583" lon="6.94253">
        <ele>1584.1999511719</ele>
        <time>2010-06-27T07:01:55Z</time>
      </trkpt>
      <trkpt lat="46.03587" lon="6.94257">
        <ele>1584.4000244141</ele>
        <time>2010-06-27T07:01:57Z</time>
      </trkpt>
      <trkpt lat="46.03593" lon="6.94277">
        <ele>1586</ele>
        <time>2010-06-27T07:02:08Z</time>
      </trkpt>
      <trkpt lat="46.03595" lon="6.94282">
        <ele>1586.1999511719</ele>
        <time>2010-06-27T07:02:12Z</time>
      </trkpt>
      <trkpt lat="46.03596" lon="6.94286">
        <ele>1586.1999511719</ele>
        <time>2010-06-27T07:02:15Z</time>
      </trkpt>
      <trkpt lat="46.036" lon="6.94289">
        <ele>1587</ele>
        <time>2010-06-27T07:02:19Z</time>
      </trkpt>
      <trkpt lat="46.036" lon="6.94289">
        <ele>1587</ele>
        <time>2010-06-27T07:02:21Z</time>
      </trkpt>
      <trkpt lat="46.03607" lon="6.94296">
        <ele>1587.8000488281</ele>
        <time>2010-06-27T07:02:28Z</time>
      </trkpt>
      <trkpt lat="46.03607" lon="6.94297">
        <ele>1588</ele>
        <time>2010-06-27T07:02:29Z</time>
      </trkpt>
      <trkpt lat="46.03608" lon="6.94298">
        <ele>1588.1999511719</ele>
        <time>2010-06-27T07:02:30Z</time>
      </trkpt>
      <trkpt lat="46.0361" lon="6.94302">
        <ele>1588.5999755859</ele>
        <time>2010-06-27T07:02:35Z</time>
      </trkpt>
      <trkpt lat="46.03611" lon="6.94307">
        <ele>1589.8000488281</ele>
        <time>2010-06-27T07:02:42Z</time>
      </trkpt>
      <trkpt lat="46.03601" lon="6.9431">
        <ele>1591.8000488281</ele>
        <time>2010-06-27T07:02:47Z</time>
      </trkpt>
      <trkpt lat="46.03585" lon="6.94308">
        <ele>1595.8000488281</ele>
        <time>2010-06-27T07:02:56Z</time>
      </trkpt>
      <trkpt lat="46.03584" lon="6.94305">
        <ele>1596.5999755859</ele>
        <time>2010-06-27T07:02:57Z</time>
      </trkpt>
      <trkpt lat="46.03579" lon="6.943">
        <ele>1599.8000488281</ele>
        <time>2010-06-27T07:03:01Z</time>
      </trkpt>
      <trkpt lat="46.03572" lon="6.94293">
        <ele>1606.5999755859</ele>
        <time>2010-06-27T07:03:11Z</time>
      </trkpt>
      <trkpt lat="46.0357" lon="6.94293">
        <ele>1607.8000488281</ele>
        <time>2010-06-27T07:03:13Z</time>
      </trkpt>
      <trkpt lat="46.03569" lon="6.94294">
        <ele>1608.1999511719</ele>
        <time>2010-06-27T07:03:14Z</time>
      </trkpt>
      <trkpt lat="46.03551" lon="6.94302">
        <ele>1613</ele>
        <time>2010-06-27T07:03:29Z</time>
      </trkpt>
      <trkpt lat="46.03551" lon="6.94305">
        <ele>1613</ele>
        <time>2010-06-27T07:03:31Z</time>
      </trkpt>
      <trkpt lat="46.03545" lon="6.94309">
        <ele>1613</ele>
        <time>2010-06-27T07:03:38Z</time>
      </trkpt>
      <trkpt lat="46.03542" lon="6.94311">
        <ele>1613</ele>
        <time>2010-06-27T07:03:42Z</time>
      </trkpt>
      <trkpt lat="46.03546" lon="6.94315">
        <ele>1613</ele>
        <time>2010-06-27T07:03:47Z</time>
      </trkpt>
      <trkpt lat="46.03547" lon="6.94319">
        <ele>1613.1999511719</ele>
        <time>2010-06-27T07:03:50Z</time>
      </trkpt>
      <trkpt lat="46.03549" lon="6.9432">
        <ele>1613.5999755859</ele>
        <time>2010-06-27T07:03:52Z</time>
      </trkpt>
      <trkpt lat="46.03552" lon="6.94326">
        <ele>1615.4000244141</ele>
        <time>2010-06-27T07:03:59Z</time>
      </trkpt>
      <trkpt lat="46.03553" lon="6.94327">
        <ele>1615.4000244141</ele>
        <time>2010-06-27T07:04:01Z</time>
      </trkpt>
      <trkpt lat="46.03559" lon="6.94335">
        <ele>1617</ele>
        <time>2010-06-27T07:04:08Z</time>
      </trkpt>
      <trkpt lat="46.03561" lon="6.94337">
        <ele>1617.8000488281</ele>
        <time>2010-06-27T07:04:12Z</time>
      </trkpt>
      <trkpt lat="46.03565" lon="6.94344">
        <ele>1618.8000488281</ele>
        <time>2010-06-27T07:04:18Z</time>
      </trkpt>
      <trkpt lat="46.03569" lon="6.94355">
        <ele>1620.4000244141</ele>
        <time>2010-06-27T07:04:26Z</time>
      </trkpt>
      <trkpt lat="46.03571" lon="6.94361">
        <ele>1622.5999755859</ele>
        <time>2010-06-27T07:04:33Z</time>
      </trkpt>
      <trkpt lat="46.03573" lon="6.94363">
        <ele>1623</ele>
        <time>2010-06-27T07:04:35Z</time>
      </trkpt>
      <trkpt lat="46.03575" lon="6.94366">
        <ele>1624.4000244141</ele>
        <time>2010-06-27T07:04:41Z</time>
      </trkpt>
      <trkpt lat="46.0358" lon="6.94374">
        <ele>1625.4000244141</ele>
        <time>2010-06-27T07:04:45Z</time>
      </trkpt>
      <trkpt lat="46.03584" lon="6.94381">
        <ele>1625.5999755859</ele>
        <time>2010-06-27T07:04:48Z</time>
      </trkpt>
      <trkpt lat="46.03592" lon="6.94394">
        <ele>1626.4000244141</ele>
        <time>2010-06-27T07:04:54Z</time>
      </trkpt>
      <trkpt lat="46.03596" lon="6.94402">
        <ele>1627.1999511719</ele>
        <time>2010-06-27T07:04:58Z</time>
      </trkpt>
      <trkpt lat="46.03597" lon="6.94403">
        <ele>1627.4000244141</ele>
        <time>2010-06-27T07:04:59Z</time>
      </trkpt>
      <trkpt lat="46.03606" lon="6.94421">
        <ele>1629.4000244141</ele>
        <time>2010-06-27T07:05:11Z</time>
      </trkpt>
      <trkpt lat="46.03607" lon="6.94422">
        <ele>1629.8000488281</ele>
        <time>2010-06-27T07:05:12Z</time>
      </trkpt>
      <trkpt lat="46.03608" lon="6.94423">
        <ele>1631.1999511719</ele>
        <time>2010-06-27T07:05:15Z</time>
      </trkpt>
      <trkpt lat="46.03613" lon="6.94428">
        <ele>1633</ele>
        <time>2010-06-27T07:05:21Z</time>
      </trkpt>
      <trkpt lat="46.03619" lon="6.94442">
        <ele>1637</ele>
        <time>2010-06-27T07:05:31Z</time>
      </trkpt>
      <trkpt lat="46.0362" lon="6.94443">
        <ele>1637.1999511719</ele>
        <time>2010-06-27T07:05:32Z</time>
      </trkpt>
      <trkpt lat="46.03621" lon="6.94445">
        <ele>1637.8000488281</ele>
        <time>2010-06-27T07:05:34Z</time>
      </trkpt>
      <trkpt lat="46.03624" lon="6.94451">
        <ele>1639.4000244141</ele>
        <time>2010-06-27T07:05:41Z</time>
      </trkpt>
      <trkpt lat="46.03627" lon="6.94456">
        <ele>1640.8000488281</ele>
        <time>2010-06-27T07:05:45Z</time>
      </trkpt>
      <trkpt lat="46.03628" lon="6.94461">
        <ele>1642</ele>
        <time>2010-06-27T07:05:49Z</time>
      </trkpt>
      <trkpt lat="46.0363" lon="6.94464">
        <ele>1643</ele>
        <time>2010-06-27T07:05:52Z</time>
      </trkpt>
      <trkpt lat="46.03632" lon="6.94466">
        <ele>1643.8000488281</ele>
        <time>2010-06-27T07:05:54Z</time>
      </trkpt>
      <trkpt lat="46.03643" lon="6.94483">
        <ele>1649</ele>
        <time>2010-06-27T07:06:10Z</time>
      </trkpt>
      <trkpt lat="46.03659" lon="6.94499">
        <ele>1652.4000244141</ele>
        <time>2010-06-27T07:06:24Z</time>
      </trkpt>
      <trkpt lat="46.03666" lon="6.94513">
        <ele>1654.4000244141</ele>
        <time>2010-06-27T07:06:31Z</time>
      </trkpt>
      <trkpt lat="46.03667" lon="6.94513">
        <ele>1654.8000488281</ele>
        <time>2010-06-27T07:06:32Z</time>
      </trkpt>
      <trkpt lat="46.03672" lon="6.94515">
        <ele>1655.4000244141</ele>
        <time>2010-06-27T07:06:34Z</time>
      </trkpt>
      <trkpt lat="46.03683" lon="6.94523">
        <ele>1657</ele>
        <time>2010-06-27T07:06:39Z</time>
      </trkpt>
      <trkpt lat="46.0369" lon="6.94528">
        <ele>1657.8000488281</ele>
        <time>2010-06-27T07:06:42Z</time>
      </trkpt>
      <trkpt lat="46.03709" lon="6.94535">
        <ele>1660.5999755859</ele>
        <time>2010-06-27T07:06:49Z</time>
      </trkpt>
      <trkpt lat="46.03729" lon="6.94539">
        <ele>1663.1999511719</ele>
        <time>2010-06-27T07:06:56Z</time>
      </trkpt>
      <trkpt lat="46.03748" lon="6.94551">
        <ele>1665</ele>
        <time>2010-06-27T07:07:04Z</time>
      </trkpt>
      <trkpt lat="46.03765" lon="6.94565">
        <ele>1667.4000244141</ele>
        <time>2010-06-27T07:07:13Z</time>
      </trkpt>
      <trkpt lat="46.03783" lon="6.94578">
        <ele>1669</ele>
        <time>2010-06-27T07:07:21Z</time>
      </trkpt>
      <trkpt lat="46.03788" lon="6.94586">
        <ele>1669.5999755859</ele>
        <time>2010-06-27T07:07:25Z</time>
      </trkpt>
      <trkpt lat="46.03796" lon="6.94593">
        <ele>1670.5999755859</ele>
        <time>2010-06-27T07:07:29Z</time>
      </trkpt>
      <trkpt lat="46.03798" lon="6.94595">
        <ele>1670.5999755859</ele>
        <time>2010-06-27T07:07:30Z</time>
      </trkpt>
      <trkpt lat="46.03811" lon="6.94608">
        <ele>1671.5999755859</ele>
        <time>2010-06-27T07:07:37Z</time>
      </trkpt>
      <trkpt lat="46.03819" lon="6.94613">
        <ele>1672.4000244141</ele>
        <time>2010-06-27T07:07:41Z</time>
      </trkpt>
      <trkpt lat="46.03827" lon="6.94622">
        <ele>1673.8000488281</ele>
        <time>2010-06-27T07:07:48Z</time>
      </trkpt>
      <trkpt lat="46.03827" lon="6.94624">
        <ele>1674.1999511719</ele>
        <time>2010-06-27T07:07:49Z</time>
      </trkpt>
      <trkpt lat="46.03832" lon="6.94632">
        <ele>1676</ele>
        <time>2010-06-27T07:07:56Z</time>
      </trkpt>
      <trkpt lat="46.03835" lon="6.94639">
        <ele>1676.8000488281</ele>
        <time>2010-06-27T07:08:01Z</time>
      </trkpt>
      <trkpt lat="46.03837" lon="6.94644">
        <ele>1677.1999511719</ele>
        <time>2010-06-27T07:08:04Z</time>
      </trkpt>
      <trkpt lat="46.03838" lon="6.94646">
        <ele>1677.4000244141</ele>
        <time>2010-06-27T07:08:05Z</time>
      </trkpt>
      <trkpt lat="46.03841" lon="6.94657">
        <ele>1677.4000244141</ele>
        <time>2010-06-27T07:08:11Z</time>
      </trkpt>
      <trkpt lat="46.03842" lon="6.94668">
        <ele>1677.5999755859</ele>
        <time>2010-06-27T07:08:14Z</time>
      </trkpt>
      <trkpt lat="46.03843" lon="6.94671">
        <ele>1677.5999755859</ele>
        <time>2010-06-27T07:08:16Z</time>
      </trkpt>
      <trkpt lat="46.03854" lon="6.94692">
        <ele>1677.5999755859</ele>
        <time>2010-06-27T07:08:22Z</time>
      </trkpt>
      <trkpt lat="46.03864" lon="6.94716">
        <ele>1678.1999511719</ele>
        <time>2010-06-27T07:08:29Z</time>
      </trkpt>
      <trkpt lat="46.03875" lon="6.9474">
        <ele>1679.8000488281</ele>
        <time>2010-06-27T07:08:37Z</time>
      </trkpt>
      <trkpt lat="46.03877" lon="6.94746">
        <ele>1680.1999511719</ele>
        <time>2010-06-27T07:08:39Z</time>
      </trkpt>
      <trkpt lat="46.03886" lon="6.94765">
        <ele>1681.1999511719</ele>
        <time>2010-06-27T07:08:44Z</time>
      </trkpt>
      <trkpt lat="46.03897" lon="6.94779">
        <ele>1682.4000244141</ele>
        <time>2010-06-27T07:08:49Z</time>
      </trkpt>
      <trkpt lat="46.03899" lon="6.94783">
        <ele>1682.5999755859</ele>
        <time>2010-06-27T07:08:50Z</time>
      </trkpt>
      <trkpt lat="46.03902" lon="6.94799">
        <ele>1683.5999755859</ele>
        <time>2010-06-27T07:08:55Z</time>
      </trkpt>
      <trkpt lat="46.03905" lon="6.94804">
        <ele>1684.5999755859</ele>
        <time>2010-06-27T07:09:00Z</time>
      </trkpt>
      <trkpt lat="46.03906" lon="6.9481">
        <ele>1685.4000244141</ele>
        <time>2010-06-27T07:09:03Z</time>
      </trkpt>
      <trkpt lat="46.03907" lon="6.94814">
        <ele>1686.1999511719</ele>
        <time>2010-06-27T07:09:06Z</time>
      </trkpt>
      <trkpt lat="46.03909" lon="6.94817">
        <ele>1687</ele>
        <time>2010-06-27T07:09:08Z</time>
      </trkpt>
      <trkpt lat="46.03911" lon="6.9483">
        <ele>1689</ele>
        <time>2010-06-27T07:09:16Z</time>
      </trkpt>
      <trkpt lat="46.03909" lon="6.94832">
        <ele>1689.5999755859</ele>
        <time>2010-06-27T07:09:18Z</time>
      </trkpt>
      <trkpt lat="46.03907" lon="6.94835">
        <ele>1689.8000488281</ele>
        <time>2010-06-27T07:09:19Z</time>
      </trkpt>
      <trkpt lat="46.03906" lon="6.94839">
        <ele>1691</ele>
        <time>2010-06-27T07:09:21Z</time>
      </trkpt>
      <trkpt lat="46.03908" lon="6.94844">
        <ele>1693</ele>
        <time>2010-06-27T07:09:27Z</time>
      </trkpt>
      <trkpt lat="46.03917" lon="6.94855">
        <ele>1696.8000488281</ele>
        <time>2010-06-27T07:09:38Z</time>
      </trkpt>
      <trkpt lat="46.03919" lon="6.94859">
        <ele>1698.1999511719</ele>
        <time>2010-06-27T07:09:43Z</time>
      </trkpt>
      <trkpt lat="46.0392" lon="6.9486">
        <ele>1698.4000244141</ele>
        <time>2010-06-27T07:09:44Z</time>
      </trkpt>
      <trkpt lat="46.03922" lon="6.94866">
        <ele>1699.5999755859</ele>
        <time>2010-06-27T07:09:48Z</time>
      </trkpt>
      <trkpt lat="46.03921" lon="6.94871">
        <ele>1700.4000244141</ele>
        <time>2010-06-27T07:09:52Z</time>
      </trkpt>
      <trkpt lat="46.03915" lon="6.94869">
        <ele>1701.4000244141</ele>
        <time>2010-06-27T07:09:56Z</time>
      </trkpt>
      <trkpt lat="46.03912" lon="6.94869">
        <ele>1703</ele>
        <time>2010-06-27T07:10:01Z</time>
      </trkpt>
      <trkpt lat="46.03912" lon="6.94871">
        <ele>1703.4000244141</ele>
        <time>2010-06-27T07:10:02Z</time>
      </trkpt>
      <trkpt lat="46.03912" lon="6.94882">
        <ele>1705.8000488281</ele>
        <time>2010-06-27T07:10:09Z</time>
      </trkpt>
      <trkpt lat="46.0391" lon="6.94883">
        <ele>1706.1999511719</ele>
        <time>2010-06-27T07:10:10Z</time>
      </trkpt>
      <trkpt lat="46.03908" lon="6.94884">
        <ele>1706.8000488281</ele>
        <time>2010-06-27T07:10:12Z</time>
      </trkpt>
      <trkpt lat="46.03905" lon="6.94883">
        <ele>1707.8000488281</ele>
        <time>2010-06-27T07:10:14Z</time>
      </trkpt>
      <trkpt lat="46.03891" lon="6.94878">
        <ele>1712</ele>
        <time>2010-06-27T07:10:21Z</time>
      </trkpt>
      <trkpt lat="46.03872" lon="6.94876">
        <ele>1715.4000244141</ele>
        <time>2010-06-27T07:10:31Z</time>
      </trkpt>
      <trkpt lat="46.0387" lon="6.94876">
        <ele>1716</ele>
        <time>2010-06-27T07:10:32Z</time>
      </trkpt>
      <trkpt lat="46.03853" lon="6.94874">
        <ele>1719</ele>
        <time>2010-06-27T07:10:39Z</time>
      </trkpt>
      <trkpt lat="46.03835" lon="6.94876">
        <ele>1723</ele>
        <time>2010-06-27T07:10:49Z</time>
      </trkpt>
      <trkpt lat="46.03816" lon="6.94873">
        <ele>1727.4000244141</ele>
        <time>2010-06-27T07:11:02Z</time>
      </trkpt>
      <trkpt lat="46.03797" lon="6.94867">
        <ele>1731.5999755859</ele>
        <time>2010-06-27T07:11:16Z</time>
      </trkpt>
      <trkpt lat="46.03791" lon="6.94865">
        <ele>1732.5999755859</ele>
        <time>2010-06-27T07:11:20Z</time>
      </trkpt>
      <trkpt lat="46.03786" lon="6.94865">
        <ele>1733.5999755859</ele>
        <time>2010-06-27T07:11:24Z</time>
      </trkpt>
      <trkpt lat="46.03778" lon="6.94865">
        <ele>1735</ele>
        <time>2010-06-27T07:11:29Z</time>
      </trkpt>
      <trkpt lat="46.03776" lon="6.94865">
        <ele>1735.4000244141</ele>
        <time>2010-06-27T07:11:30Z</time>
      </trkpt>
      <trkpt lat="46.03761" lon="6.9486">
        <ele>1737.8000488281</ele>
        <time>2010-06-27T07:11:40Z</time>
      </trkpt>
      <trkpt lat="46.03756" lon="6.94861">
        <ele>1738.4000244141</ele>
        <time>2010-06-27T07:11:42Z</time>
      </trkpt>
      <trkpt lat="46.03743" lon="6.94862">
        <ele>1740</ele>
        <time>2010-06-27T07:11:47Z</time>
      </trkpt>
      <trkpt lat="46.03724" lon="6.94854">
        <ele>1742.4000244141</ele>
        <time>2010-06-27T07:11:56Z</time>
      </trkpt>
      <trkpt lat="46.03708" lon="6.94836">
        <ele>1745.8000488281</ele>
        <time>2010-06-27T07:12:04Z</time>
      </trkpt>
      <trkpt lat="46.03694" lon="6.94826">
        <ele>1748.1999511719</ele>
        <time>2010-06-27T07:12:12Z</time>
      </trkpt>
      <trkpt lat="46.0369" lon="6.94826">
        <ele>1748.8000488281</ele>
        <time>2010-06-27T07:12:14Z</time>
      </trkpt>
      <trkpt lat="46.03685" lon="6.94825">
        <ele>1749.4000244141</ele>
        <time>2010-06-27T07:12:16Z</time>
      </trkpt>
      <trkpt lat="46.03672" lon="6.94828">
        <ele>1750.8000488281</ele>
        <time>2010-06-27T07:12:22Z</time>
      </trkpt>
      <trkpt lat="46.0367" lon="6.94829">
        <ele>1751</ele>
        <time>2010-06-27T07:12:23Z</time>
      </trkpt>
      <trkpt lat="46.03652" lon="6.94824">
        <ele>1752.5999755859</ele>
        <time>2010-06-27T07:12:31Z</time>
      </trkpt>
      <trkpt lat="46.03639" lon="6.94801">
        <ele>1756.1999511719</ele>
        <time>2010-06-27T07:12:39Z</time>
      </trkpt>
      <trkpt lat="46.03635" lon="6.94793">
        <ele>1757.4000244141</ele>
        <time>2010-06-27T07:12:42Z</time>
      </trkpt>
      <trkpt lat="46.03627" lon="6.94785">
        <ele>1758.4000244141</ele>
        <time>2010-06-27T07:12:46Z</time>
      </trkpt>
      <trkpt lat="46.03625" lon="6.94784">
        <ele>1758.8000488281</ele>
        <time>2010-06-27T07:12:47Z</time>
      </trkpt>
      <trkpt lat="46.03617" lon="6.94775">
        <ele>1759.8000488281</ele>
        <time>2010-06-27T07:12:52Z</time>
      </trkpt>
      <trkpt lat="46.03611" lon="6.94769">
        <ele>1760.1999511719</ele>
        <time>2010-06-27T07:12:57Z</time>
      </trkpt>
      <trkpt lat="46.03609" lon="6.94767">
        <ele>1760.5999755859</ele>
        <time>2010-06-27T07:12:59Z</time>
      </trkpt>
      <trkpt lat="46.03604" lon="6.94767">
        <ele>1760.8000488281</ele>
        <time>2010-06-27T07:13:03Z</time>
      </trkpt>
      <trkpt lat="46.0359" lon="6.94763">
        <ele>1761.8000488281</ele>
        <time>2010-06-27T07:13:16Z</time>
      </trkpt>
      <trkpt lat="46.03582" lon="6.94759">
        <ele>1762.4000244141</ele>
        <time>2010-06-27T07:13:23Z</time>
      </trkpt>
      <trkpt lat="46.03573" lon="6.94753">
        <ele>1764.8000488281</ele>
        <time>2010-06-27T07:13:33Z</time>
      </trkpt>
      <trkpt lat="46.03566" lon="6.94743">
        <ele>1767.4000244141</ele>
        <time>2010-06-27T07:13:41Z</time>
      </trkpt>
      <trkpt lat="46.03565" lon="6.94732">
        <ele>1770</ele>
        <time>2010-06-27T07:13:48Z</time>
      </trkpt>
      <trkpt lat="46.03567" lon="6.94707">
        <ele>1773.5999755859</ele>
        <time>2010-06-27T07:14:05Z</time>
      </trkpt>
      <trkpt lat="46.0356" lon="6.94698">
        <ele>1774.8000488281</ele>
        <time>2010-06-27T07:14:13Z</time>
      </trkpt>
      <trkpt lat="46.03551" lon="6.94702">
        <ele>1776.4000244141</ele>
        <time>2010-06-27T07:14:20Z</time>
      </trkpt>
      <trkpt lat="46.03546" lon="6.94709">
        <ele>1777.1999511719</ele>
        <time>2010-06-27T07:14:24Z</time>
      </trkpt>
      <trkpt lat="46.03545" lon="6.9471">
        <ele>1777.4000244141</ele>
        <time>2010-06-27T07:14:25Z</time>
      </trkpt>
      <trkpt lat="46.03534" lon="6.94713">
        <ele>1779.4000244141</ele>
        <time>2010-06-27T07:14:33Z</time>
      </trkpt>
      <trkpt lat="46.03518" lon="6.94704">
        <ele>1783.1999511719</ele>
        <time>2010-06-27T07:14:44Z</time>
      </trkpt>
      <trkpt lat="46.03502" lon="6.94699">
        <ele>1785.4000244141</ele>
        <time>2010-06-27T07:14:51Z</time>
      </trkpt>
      <trkpt lat="46.035" lon="6.94697">
        <ele>1785.5999755859</ele>
        <time>2010-06-27T07:14:52Z</time>
      </trkpt>
      <trkpt lat="46.03485" lon="6.94681">
        <ele>1787.8000488281</ele>
        <time>2010-06-27T07:15:00Z</time>
      </trkpt>
      <trkpt lat="46.03473" lon="6.94662">
        <ele>1789.5999755859</ele>
        <time>2010-06-27T07:15:07Z</time>
      </trkpt>
      <trkpt lat="46.03458" lon="6.94643">
        <ele>1791.4000244141</ele>
        <time>2010-06-27T07:15:15Z</time>
      </trkpt>
      <trkpt lat="46.03443" lon="6.94626">
        <ele>1792.5999755859</ele>
        <time>2010-06-27T07:15:21Z</time>
      </trkpt>
      <trkpt lat="46.03429" lon="6.94606">
        <ele>1794.4000244141</ele>
        <time>2010-06-27T07:15:30Z</time>
      </trkpt>
      <trkpt lat="46.03417" lon="6.94585">
        <ele>1796</ele>
        <time>2010-06-27T07:15:38Z</time>
      </trkpt>
      <trkpt lat="46.03401" lon="6.94573">
        <ele>1797.5999755859</ele>
        <time>2010-06-27T07:15:46Z</time>
      </trkpt>
      <trkpt lat="46.03398" lon="6.94569">
        <ele>1798</ele>
        <time>2010-06-27T07:15:48Z</time>
      </trkpt>
      <trkpt lat="46.03384" lon="6.94561">
        <ele>1799.4000244141</ele>
        <time>2010-06-27T07:15:55Z</time>
      </trkpt>
      <trkpt lat="46.03365" lon="6.94563">
        <ele>1800.8000488281</ele>
        <time>2010-06-27T07:16:03Z</time>
      </trkpt>
      <trkpt lat="46.03347" lon="6.94561">
        <ele>1802.5999755859</ele>
        <time>2010-06-27T07:16:12Z</time>
      </trkpt>
      <trkpt lat="46.03328" lon="6.94552">
        <ele>1804.8000488281</ele>
        <time>2010-06-27T07:16:21Z</time>
      </trkpt>
      <trkpt lat="46.03314" lon="6.94552">
        <ele>1806.8000488281</ele>
        <time>2010-06-27T07:16:29Z</time>
      </trkpt>
      <trkpt lat="46.03315" lon="6.94558">
        <ele>1808</ele>
        <time>2010-06-27T07:16:34Z</time>
      </trkpt>
      <trkpt lat="46.03317" lon="6.94562">
        <ele>1808.4000244141</ele>
        <time>2010-06-27T07:16:37Z</time>
      </trkpt>
      <trkpt lat="46.03324" lon="6.94574">
        <ele>1809.1999511719</ele>
        <time>2010-06-27T07:16:44Z</time>
      </trkpt>
      <trkpt lat="46.03325" lon="6.94581">
        <ele>1809.5999755859</ele>
        <time>2010-06-27T07:16:47Z</time>
      </trkpt>
      <trkpt lat="46.0333" lon="6.94592">
        <ele>1810.1999511719</ele>
        <time>2010-06-27T07:16:51Z</time>
      </trkpt>
      <trkpt lat="46.03336" lon="6.94605">
        <ele>1810.8000488281</ele>
        <time>2010-06-27T07:16:56Z</time>
      </trkpt>
      <trkpt lat="46.03339" lon="6.94617">
        <ele>1811.4000244141</ele>
        <time>2010-06-27T07:17:00Z</time>
      </trkpt>
      <trkpt lat="46.03334" lon="6.9463">
        <ele>1812.1999511719</ele>
        <time>2010-06-27T07:17:06Z</time>
      </trkpt>
      <trkpt lat="46.03331" lon="6.9463">
        <ele>1813</ele>
        <time>2010-06-27T07:17:09Z</time>
      </trkpt>
      <trkpt lat="46.03316" lon="6.94625">
        <ele>1815.8000488281</ele>
        <time>2010-06-27T07:17:20Z</time>
      </trkpt>
      <trkpt lat="46.03299" lon="6.94622">
        <ele>1819.4000244141</ele>
        <time>2010-06-27T07:17:33Z</time>
      </trkpt>
      <trkpt lat="46.03281" lon="6.94626">
        <ele>1822.4000244141</ele>
        <time>2010-06-27T07:17:44Z</time>
      </trkpt>
      <trkpt lat="46.03279" lon="6.94627">
        <ele>1822.8000488281</ele>
        <time>2010-06-27T07:17:45Z</time>
      </trkpt>
      <trkpt lat="46.03262" lon="6.94628">
        <ele>1825</ele>
        <time>2010-06-27T07:17:52Z</time>
      </trkpt>
      <trkpt lat="46.03244" lon="6.94632">
        <ele>1827.1999511719</ele>
        <time>2010-06-27T07:18:00Z</time>
      </trkpt>
      <trkpt lat="46.03226" lon="6.94646">
        <ele>1830</ele>
        <time>2010-06-27T07:18:09Z</time>
      </trkpt>
      <trkpt lat="46.03209" lon="6.94658">
        <ele>1832.1999511719</ele>
        <time>2010-06-27T07:18:17Z</time>
      </trkpt>
      <trkpt lat="46.03191" lon="6.94672">
        <ele>1834.1999511719</ele>
        <time>2010-06-27T07:18:25Z</time>
      </trkpt>
      <trkpt lat="46.03172" lon="6.94684">
        <ele>1836.1999511719</ele>
        <time>2010-06-27T07:18:33Z</time>
      </trkpt>
      <trkpt lat="46.03154" lon="6.9469">
        <ele>1838.4000244141</ele>
        <time>2010-06-27T07:18:41Z</time>
      </trkpt>
      <trkpt lat="46.03148" lon="6.94692">
        <ele>1839</ele>
        <time>2010-06-27T07:18:44Z</time>
      </trkpt>
      <trkpt lat="46.03135" lon="6.94697">
        <ele>1840.5999755859</ele>
        <time>2010-06-27T07:18:51Z</time>
      </trkpt>
      <trkpt lat="46.03117" lon="6.94707">
        <ele>1842.1999511719</ele>
        <time>2010-06-27T07:18:59Z</time>
      </trkpt>
      <trkpt lat="46.03099" lon="6.94715">
        <ele>1843.8000488281</ele>
        <time>2010-06-27T07:19:07Z</time>
      </trkpt>
      <trkpt lat="46.03081" lon="6.94719">
        <ele>1845.5999755859</ele>
        <time>2010-06-27T07:19:16Z</time>
      </trkpt>
      <trkpt lat="46.03079" lon="6.9472">
        <ele>1845.8000488281</ele>
        <time>2010-06-27T07:19:17Z</time>
      </trkpt>
      <trkpt lat="46.03062" lon="6.94722">
        <ele>1847.4000244141</ele>
        <time>2010-06-27T07:19:25Z</time>
      </trkpt>
      <trkpt lat="46.03056" lon="6.94718">
        <ele>1848</ele>
        <time>2010-06-27T07:19:28Z</time>
      </trkpt>
      <trkpt lat="46.03055" lon="6.94701">
        <ele>1849.1999511719</ele>
        <time>2010-06-27T07:19:33Z</time>
      </trkpt>
      <trkpt lat="46.03053" lon="6.94673">
        <ele>1851</ele>
        <time>2010-06-27T07:19:41Z</time>
      </trkpt>
      <trkpt lat="46.03038" lon="6.94657">
        <ele>1852.8000488281</ele>
        <time>2010-06-27T07:19:49Z</time>
      </trkpt>
      <trkpt lat="46.03022" lon="6.94642">
        <ele>1854.5999755859</ele>
        <time>2010-06-27T07:19:58Z</time>
      </trkpt>
      <trkpt lat="46.03018" lon="6.94641">
        <ele>1855</ele>
        <time>2010-06-27T07:20:00Z</time>
      </trkpt>
      <trkpt lat="46.03004" lon="6.94638">
        <ele>1857</ele>
        <time>2010-06-27T07:20:09Z</time>
      </trkpt>
      <trkpt lat="46.02988" lon="6.94629">
        <ele>1860</ele>
        <time>2010-06-27T07:20:24Z</time>
      </trkpt>
      <trkpt lat="46.02987" lon="6.9463">
        <ele>1860.1999511719</ele>
        <time>2010-06-27T07:20:25Z</time>
      </trkpt>
      <trkpt lat="46.02989" lon="6.9465">
        <ele>1861.4000244141</ele>
        <time>2010-06-27T07:20:37Z</time>
      </trkpt>
      <trkpt lat="46.0299" lon="6.94654">
        <ele>1861.5999755859</ele>
        <time>2010-06-27T07:20:39Z</time>
      </trkpt>
      <trkpt lat="46.03" lon="6.94678">
        <ele>1862.8000488281</ele>
        <time>2010-06-27T07:20:50Z</time>
      </trkpt>
      <trkpt lat="46.0301" lon="6.94701">
        <ele>1863.5999755859</ele>
        <time>2010-06-27T07:20:58Z</time>
      </trkpt>
      <trkpt lat="46.03011" lon="6.94708">
        <ele>1863.8000488281</ele>
        <time>2010-06-27T07:21:00Z</time>
      </trkpt>
      <trkpt lat="46.03013" lon="6.9472">
        <ele>1864.1999511719</ele>
        <time>2010-06-27T07:21:04Z</time>
      </trkpt>
      <trkpt lat="46.03012" lon="6.94727">
        <ele>1864.5999755859</ele>
        <time>2010-06-27T07:21:06Z</time>
      </trkpt>
      <trkpt lat="46.03011" lon="6.94734">
        <ele>1864.8000488281</ele>
        <time>2010-06-27T07:21:08Z</time>
      </trkpt>
      <trkpt lat="46.0301" lon="6.94754">
        <ele>1865.8000488281</ele>
        <time>2010-06-27T07:21:14Z</time>
      </trkpt>
      <trkpt lat="46.03013" lon="6.9478">
        <ele>1868.1999511719</ele>
        <time>2010-06-27T07:21:24Z</time>
      </trkpt>
      <trkpt lat="46.0303" lon="6.94785">
        <ele>1871.8000488281</ele>
        <time>2010-06-27T07:21:32Z</time>
      </trkpt>
      <trkpt lat="46.03049" lon="6.94785">
        <ele>1875.8000488281</ele>
        <time>2010-06-27T07:21:40Z</time>
      </trkpt>
      <trkpt lat="46.03067" lon="6.94786">
        <ele>1880.1999511719</ele>
        <time>2010-06-27T07:21:48Z</time>
      </trkpt>
      <trkpt lat="46.03087" lon="6.94785">
        <ele>1885</ele>
        <time>2010-06-27T07:21:57Z</time>
      </trkpt>
      <trkpt lat="46.03106" lon="6.94792">
        <ele>1885.1999511719</ele>
        <time>2010-06-27T07:22:05Z</time>
      </trkpt>
      <trkpt lat="46.0312" lon="6.94808">
        <ele>1885.5999755859</ele>
        <time>2010-06-27T07:22:13Z</time>
      </trkpt>
      <trkpt lat="46.03122" lon="6.94819">
        <ele>1885.5999755859</ele>
        <time>2010-06-27T07:22:18Z</time>
      </trkpt>
      <trkpt lat="46.03123" lon="6.94827">
        <ele>1885.5999755859</ele>
        <time>2010-06-27T07:22:22Z</time>
      </trkpt>
      <trkpt lat="46.03125" lon="6.94833">
        <ele>1885.5999755859</ele>
        <time>2010-06-27T07:22:25Z</time>
      </trkpt>
      <trkpt lat="46.03127" lon="6.94837">
        <ele>1885.5999755859</ele>
        <time>2010-06-27T07:22:27Z</time>
      </trkpt>
      <trkpt lat="46.03127" lon="6.94841">
        <ele>1885.8000488281</ele>
        <time>2010-06-27T07:22:29Z</time>
      </trkpt>
      <trkpt lat="46.03134" lon="6.94855">
        <ele>1886.8000488281</ele>
        <time>2010-06-27T07:22:38Z</time>
      </trkpt>
      <trkpt lat="46.03117" lon="6.94856">
        <ele>1891.5999755859</ele>
        <time>2010-06-27T07:22:52Z</time>
      </trkpt>
      <trkpt lat="46.03116" lon="6.94855">
        <ele>1892</ele>
        <time>2010-06-27T07:22:53Z</time>
      </trkpt>
      <trkpt lat="46.03112" lon="6.94852">
        <ele>1893.1999511719</ele>
        <time>2010-06-27T07:22:56Z</time>
      </trkpt>
      <trkpt lat="46.03101" lon="6.94843">
        <ele>1897.4000244141</ele>
        <time>2010-06-27T07:23:07Z</time>
      </trkpt>
      <trkpt lat="46.03087" lon="6.94839">
        <ele>1900.4000244141</ele>
        <time>2010-06-27T07:23:19Z</time>
      </trkpt>
      <trkpt lat="46.03083" lon="6.9484">
        <ele>1901</ele>
        <time>2010-06-27T07:23:22Z</time>
      </trkpt>
      <trkpt lat="46.03065" lon="6.94843">
        <ele>1904.4000244141</ele>
        <time>2010-06-27T07:23:36Z</time>
      </trkpt>
      <trkpt lat="46.03049" lon="6.94851">
        <ele>1908</ele>
        <time>2010-06-27T07:23:50Z</time>
      </trkpt>
      <trkpt lat="46.03049" lon="6.94855">
        <ele>1908.5999755859</ele>
        <time>2010-06-27T07:23:53Z</time>
      </trkpt>
      <trkpt lat="46.03062" lon="6.94861">
        <ele>1910.5999755859</ele>
        <time>2010-06-27T07:24:03Z</time>
      </trkpt>
      <trkpt lat="46.03064" lon="6.94862">
        <ele>1910.8000488281</ele>
        <time>2010-06-27T07:24:04Z</time>
      </trkpt>
      <trkpt lat="46.03071" lon="6.94875">
        <ele>1912.8000488281</ele>
        <time>2010-06-27T07:24:13Z</time>
      </trkpt>
      <trkpt lat="46.0307" lon="6.94883">
        <ele>1913.5999755859</ele>
        <time>2010-06-27T07:24:17Z</time>
      </trkpt>
      <trkpt lat="46.0307" lon="6.94884">
        <ele>1913.8000488281</ele>
        <time>2010-06-27T07:24:18Z</time>
      </trkpt>
      <trkpt lat="46.03066" lon="6.94893">
        <ele>1914.5999755859</ele>
        <time>2010-06-27T07:24:23Z</time>
      </trkpt>
      <trkpt lat="46.0306" lon="6.94906">
        <ele>1916.1999511719</ele>
        <time>2010-06-27T07:24:31Z</time>
      </trkpt>
      <trkpt lat="46.03053" lon="6.94922">
        <ele>1918.4000244141</ele>
        <time>2010-06-27T07:24:42Z</time>
      </trkpt>
      <trkpt lat="46.03053" lon="6.94929">
        <ele>1919.1999511719</ele>
        <time>2010-06-27T07:24:46Z</time>
      </trkpt>
      <trkpt lat="46.0305" lon="6.94945">
        <ele>1921.1999511719</ele>
        <time>2010-06-27T07:24:55Z</time>
      </trkpt>
      <trkpt lat="46.03046" lon="6.94953">
        <ele>1922.1999511719</ele>
        <time>2010-06-27T07:25:00Z</time>
      </trkpt>
      <trkpt lat="46.0303" lon="6.94965">
        <ele>1925.5999755859</ele>
        <time>2010-06-27T07:25:15Z</time>
      </trkpt>
      <trkpt lat="46.03012" lon="6.94972">
        <ele>1929</ele>
        <time>2010-06-27T07:25:28Z</time>
      </trkpt>
      <trkpt lat="46.03006" lon="6.94972">
        <ele>1930.5999755859</ele>
        <time>2010-06-27T07:25:33Z</time>
      </trkpt>
      <trkpt lat="46.02994" lon="6.94969">
        <ele>1932.8000488281</ele>
        <time>2010-06-27T07:25:41Z</time>
      </trkpt>
      <trkpt lat="46.02975" lon="6.94964">
        <ele>1934.5999755859</ele>
        <time>2010-06-27T07:25:49Z</time>
      </trkpt>
      <trkpt lat="46.02957" lon="6.94961">
        <ele>1936.1999511719</ele>
        <time>2010-06-27T07:25:56Z</time>
      </trkpt>
      <trkpt lat="46.02937" lon="6.94959">
        <ele>1937.5999755859</ele>
        <time>2010-06-27T07:26:04Z</time>
      </trkpt>
      <trkpt lat="46.02918" lon="6.94957">
        <ele>1939.1999511719</ele>
        <time>2010-06-27T07:26:12Z</time>
      </trkpt>
      <trkpt lat="46.02907" lon="6.94954">
        <ele>1940.5999755859</ele>
        <time>2010-06-27T07:26:21Z</time>
      </trkpt>
      <trkpt lat="46.02899" lon="6.94957">
        <ele>1941.1999511719</ele>
        <time>2010-06-27T07:26:25Z</time>
      </trkpt>
      <trkpt lat="46.0288" lon="6.94963">
        <ele>1942.1999511719</ele>
        <time>2010-06-27T07:26:32Z</time>
      </trkpt>
      <trkpt lat="46.02862" lon="6.94967">
        <ele>1943.4000244141</ele>
        <time>2010-06-27T07:26:40Z</time>
      </trkpt>
      <trkpt lat="46.02843" lon="6.94971">
        <ele>1944.5999755859</ele>
        <time>2010-06-27T07:26:48Z</time>
      </trkpt>
      <trkpt lat="46.02824" lon="6.94982">
        <ele>1946</ele>
        <time>2010-06-27T07:26:56Z</time>
      </trkpt>
      <trkpt lat="46.02808" lon="6.94993">
        <ele>1947.8000488281</ele>
        <time>2010-06-27T07:27:04Z</time>
      </trkpt>
      <trkpt lat="46.02789" lon="6.95">
        <ele>1949.4000244141</ele>
        <time>2010-06-27T07:27:12Z</time>
      </trkpt>
      <trkpt lat="46.02771" lon="6.95004">
        <ele>1951.1999511719</ele>
        <time>2010-06-27T07:27:20Z</time>
      </trkpt>
      <trkpt lat="46.02753" lon="6.95012">
        <ele>1953.4000244141</ele>
        <time>2010-06-27T07:27:29Z</time>
      </trkpt>
      <trkpt lat="46.02736" lon="6.95025">
        <ele>1955.8000488281</ele>
        <time>2010-06-27T07:27:38Z</time>
      </trkpt>
      <trkpt lat="46.02719" lon="6.95035">
        <ele>1959</ele>
        <time>2010-06-27T07:27:50Z</time>
      </trkpt>
      <trkpt lat="46.02702" lon="6.95045">
        <ele>1961.8000488281</ele>
        <time>2010-06-27T07:28:02Z</time>
      </trkpt>
      <trkpt lat="46.02685" lon="6.95053">
        <ele>1964.4000244141</ele>
        <time>2010-06-27T07:28:17Z</time>
      </trkpt>
      <trkpt lat="46.02667" lon="6.9506">
        <ele>1966.5999755859</ele>
        <time>2010-06-27T07:28:31Z</time>
      </trkpt>
      <trkpt lat="46.02649" lon="6.95059">
        <ele>1969</ele>
        <time>2010-06-27T07:28:44Z</time>
      </trkpt>
      <trkpt lat="46.02631" lon="6.95056">
        <ele>1970.8000488281</ele>
        <time>2010-06-27T07:28:57Z</time>
      </trkpt>
      <trkpt lat="46.02612" lon="6.95052">
        <ele>1972.1999511719</ele>
        <time>2010-06-27T07:29:10Z</time>
      </trkpt>
      <trkpt lat="46.02593" lon="6.95057">
        <ele>1974</ele>
        <time>2010-06-27T07:29:22Z</time>
      </trkpt>
      <trkpt lat="46.02575" lon="6.95063">
        <ele>1976</ele>
        <time>2010-06-27T07:29:34Z</time>
      </trkpt>
      <trkpt lat="46.02559" lon="6.95074">
        <ele>1979.1999511719</ele>
        <time>2010-06-27T07:29:49Z</time>
      </trkpt>
      <trkpt lat="46.02551" lon="6.9508">
        <ele>1981</ele>
        <time>2010-06-27T07:29:56Z</time>
      </trkpt>
      <trkpt lat="46.02542" lon="6.95087">
        <ele>1983</ele>
        <time>2010-06-27T07:30:03Z</time>
      </trkpt>
      <trkpt lat="46.02533" lon="6.95095">
        <ele>1985</ele>
        <time>2010-06-27T07:30:11Z</time>
      </trkpt>
      <trkpt lat="46.02525" lon="6.95097">
        <ele>1986.4000244141</ele>
        <time>2010-06-27T07:30:17Z</time>
      </trkpt>
      <trkpt lat="46.02507" lon="6.95105">
        <ele>1989.8000488281</ele>
        <time>2010-06-27T07:30:31Z</time>
      </trkpt>
      <trkpt lat="46.02491" lon="6.95113">
        <ele>1993</ele>
        <time>2010-06-27T07:30:44Z</time>
      </trkpt>
      <trkpt lat="46.02477" lon="6.95127">
        <ele>1996.4000244141</ele>
        <time>2010-06-27T07:30:56Z</time>
      </trkpt>
      <trkpt lat="46.02475" lon="6.95128">
        <ele>1996.5999755859</ele>
        <time>2010-06-27T07:30:57Z</time>
      </trkpt>
      <trkpt lat="46.02458" lon="6.95119">
        <ele>2000.4000244141</ele>
        <time>2010-06-27T07:31:12Z</time>
      </trkpt>
      <trkpt lat="46.02455" lon="6.95116">
        <ele>2001</ele>
        <time>2010-06-27T07:31:15Z</time>
      </trkpt>
      <trkpt lat="46.02446" lon="6.95101">
        <ele>2003</ele>
        <time>2010-06-27T07:31:35Z</time>
      </trkpt>
      <trkpt lat="46.02436" lon="6.95078">
        <ele>2004.1999511719</ele>
        <time>2010-06-27T07:31:44Z</time>
      </trkpt>
      <trkpt lat="46.02426" lon="6.95058">
        <ele>2005.8000488281</ele>
        <time>2010-06-27T07:31:52Z</time>
      </trkpt>
      <trkpt lat="46.0242" lon="6.9504">
        <ele>2009.1999511719</ele>
        <time>2010-06-27T07:32:19Z</time>
      </trkpt>
      <trkpt lat="46.02419" lon="6.95036">
        <ele>2009.4000244141</ele>
        <time>2010-06-27T07:32:21Z</time>
      </trkpt>
      <trkpt lat="46.02414" lon="6.9501">
        <ele>2010.1999511719</ele>
        <time>2010-06-27T07:32:43Z</time>
      </trkpt>
      <trkpt lat="46.02403" lon="6.94986">
        <ele>2011</ele>
        <time>2010-06-27T07:32:52Z</time>
      </trkpt>
      <trkpt lat="46.02391" lon="6.94965">
        <ele>2012.8000488281</ele>
        <time>2010-06-27T07:33:04Z</time>
      </trkpt>
      <trkpt lat="46.02378" lon="6.94947">
        <ele>2016</ele>
        <time>2010-06-27T07:33:16Z</time>
      </trkpt>
      <trkpt lat="46.02365" lon="6.94927">
        <ele>2020</ele>
        <time>2010-06-27T07:33:30Z</time>
      </trkpt>
      <trkpt lat="46.02357" lon="6.94902">
        <ele>2023.4000244141</ele>
        <time>2010-06-27T07:33:43Z</time>
      </trkpt>
      <trkpt lat="46.02349" lon="6.94879">
        <ele>2026.4000244141</ele>
        <time>2010-06-27T07:33:57Z</time>
      </trkpt>
      <trkpt lat="46.02349" lon="6.94874">
        <ele>2026.8000488281</ele>
        <time>2010-06-27T07:33:59Z</time>
      </trkpt>
      <trkpt lat="46.02356" lon="6.94856">
        <ele>2028</ele>
        <time>2010-06-27T07:34:06Z</time>
      </trkpt>
      <trkpt lat="46.02369" lon="6.94835">
        <ele>2029.5999755859</ele>
        <time>2010-06-27T07:34:14Z</time>
      </trkpt>
      <trkpt lat="46.0237" lon="6.94823">
        <ele>2030.5999755859</ele>
        <time>2010-06-27T07:34:18Z</time>
      </trkpt>
      <trkpt lat="46.02362" lon="6.94815">
        <ele>2031.4000244141</ele>
        <time>2010-06-27T07:34:23Z</time>
      </trkpt>
      <trkpt lat="46.02358" lon="6.94809">
        <ele>2032</ele>
        <time>2010-06-27T07:34:26Z</time>
      </trkpt>
      <trkpt lat="46.02352" lon="6.94797">
        <ele>2034</ele>
        <time>2010-06-27T07:34:34Z</time>
      </trkpt>
      <trkpt lat="46.02353" lon="6.94795">
        <ele>2034.4000244141</ele>
        <time>2010-06-27T07:34:35Z</time>
      </trkpt>
      <trkpt lat="46.02356" lon="6.94792">
        <ele>2035</ele>
        <time>2010-06-27T07:34:38Z</time>
      </trkpt>
      <trkpt lat="46.02354" lon="6.94786">
        <ele>2036</ele>
        <time>2010-06-27T07:34:42Z</time>
      </trkpt>
      <trkpt lat="46.0235" lon="6.94779">
        <ele>2037.4000244141</ele>
        <time>2010-06-27T07:34:47Z</time>
      </trkpt>
      <trkpt lat="46.02348" lon="6.94775">
        <ele>2038.1999511719</ele>
        <time>2010-06-27T07:34:50Z</time>
      </trkpt>
      <trkpt lat="46.02332" lon="6.94761">
        <ele>2042.5999755859</ele>
        <time>2010-06-27T07:35:06Z</time>
      </trkpt>
      <trkpt lat="46.02322" lon="6.94741">
        <ele>2045.5999755859</ele>
        <time>2010-06-27T07:35:20Z</time>
      </trkpt>
      <trkpt lat="46.02323" lon="6.9474">
        <ele>2045.8000488281</ele>
        <time>2010-06-27T07:35:21Z</time>
      </trkpt>
      <trkpt lat="46.02329" lon="6.94738">
        <ele>2046.5999755859</ele>
        <time>2010-06-27T07:35:26Z</time>
      </trkpt>
      <trkpt lat="46.02337" lon="6.94733">
        <ele>2047.8000488281</ele>
        <time>2010-06-27T07:35:34Z</time>
      </trkpt>
      <trkpt lat="46.0234" lon="6.9473">
        <ele>2048.3999023438</ele>
        <time>2010-06-27T07:35:38Z</time>
      </trkpt>
      <trkpt lat="46.02354" lon="6.94714">
        <ele>2052</ele>
        <time>2010-06-27T07:35:54Z</time>
      </trkpt>
      <trkpt lat="46.02366" lon="6.94702">
        <ele>2054.1999511719</ele>
        <time>2010-06-27T07:36:05Z</time>
      </trkpt>
      <trkpt lat="46.02369" lon="6.94697">
        <ele>2054.8000488281</ele>
        <time>2010-06-27T07:36:09Z</time>
      </trkpt>
      <trkpt lat="46.02367" lon="6.94686">
        <ele>2056.1999511719</ele>
        <time>2010-06-27T07:36:16Z</time>
      </trkpt>
      <trkpt lat="46.02366" lon="6.94685">
        <ele>2056.6000976562</ele>
        <time>2010-06-27T07:36:17Z</time>
      </trkpt>
      <trkpt lat="46.02362" lon="6.94681">
        <ele>2057.6000976562</ele>
        <time>2010-06-27T07:36:22Z</time>
      </trkpt>
      <trkpt lat="46.0236" lon="6.94679">
        <ele>2058.1999511719</ele>
        <time>2010-06-27T07:36:25Z</time>
      </trkpt>
      <trkpt lat="46.02359" lon="6.94678">
        <ele>2058.6000976562</ele>
        <time>2010-06-27T07:36:26Z</time>
      </trkpt>
      <trkpt lat="46.02341" lon="6.94671">
        <ele>2061.8000488281</ele>
        <time>2010-06-27T07:36:43Z</time>
      </trkpt>
      <trkpt lat="46.02326" lon="6.94658">
        <ele>2065.8000488281</ele>
        <time>2010-06-27T07:37:00Z</time>
      </trkpt>
      <trkpt lat="46.02322" lon="6.94653">
        <ele>2067.1999511719</ele>
        <time>2010-06-27T07:37:05Z</time>
      </trkpt>
      <trkpt lat="46.02329" lon="6.94647">
        <ele>2069.3999023438</ele>
        <time>2010-06-27T07:37:13Z</time>
      </trkpt>
      <trkpt lat="46.02333" lon="6.94646">
        <ele>2070</ele>
        <time>2010-06-27T07:37:17Z</time>
      </trkpt>
      <trkpt lat="46.02344" lon="6.94639">
        <ele>2071.8000488281</ele>
        <time>2010-06-27T07:37:26Z</time>
      </trkpt>
      <trkpt lat="46.02346" lon="6.9463">
        <ele>2072.3999023438</ele>
        <time>2010-06-27T07:37:30Z</time>
      </trkpt>
      <trkpt lat="46.02352" lon="6.94608">
        <ele>2074.8000488281</ele>
        <time>2010-06-27T07:37:40Z</time>
      </trkpt>
      <trkpt lat="46.02351" lon="6.94586">
        <ele>2077</ele>
        <time>2010-06-27T07:37:48Z</time>
      </trkpt>
      <trkpt lat="46.02351" lon="6.94582">
        <ele>2077.3999023438</ele>
        <time>2010-06-27T07:37:49Z</time>
      </trkpt>
      <trkpt lat="46.02352" lon="6.94579">
        <ele>2077.8000488281</ele>
        <time>2010-06-27T07:37:50Z</time>
      </trkpt>
      <trkpt lat="46.02354" lon="6.94573">
        <ele>2079</ele>
        <time>2010-06-27T07:37:54Z</time>
      </trkpt>
      <trkpt lat="46.02354" lon="6.94573">
        <ele>2079.3999023438</ele>
        <time>2010-06-27T07:37:55Z</time>
      </trkpt>
      <trkpt lat="46.02353" lon="6.94569">
        <ele>2080.8000488281</ele>
        <time>2010-06-27T07:37:59Z</time>
      </trkpt>
      <trkpt lat="46.02348" lon="6.94562">
        <ele>2085.1999511719</ele>
        <time>2010-06-27T07:38:13Z</time>
      </trkpt>
      <trkpt lat="46.02341" lon="6.94564">
        <ele>2087.6000976562</ele>
        <time>2010-06-27T07:38:24Z</time>
      </trkpt>
      <trkpt lat="46.02334" lon="6.94557">
        <ele>2089.1999511719</ele>
        <time>2010-06-27T07:38:32Z</time>
      </trkpt>
      <trkpt lat="46.02326" lon="6.94555">
        <ele>2090.8000488281</ele>
        <time>2010-06-27T07:38:40Z</time>
      </trkpt>
      <trkpt lat="46.02324" lon="6.94548">
        <ele>2092</ele>
        <time>2010-06-27T07:38:45Z</time>
      </trkpt>
      <trkpt lat="46.02319" lon="6.94544">
        <ele>2093.1999511719</ele>
        <time>2010-06-27T07:38:50Z</time>
      </trkpt>
      <trkpt lat="46.02317" lon="6.94542">
        <ele>2093.8000488281</ele>
        <time>2010-06-27T07:38:52Z</time>
      </trkpt>
      <trkpt lat="46.02302" lon="6.94536">
        <ele>2097.1999511719</ele>
        <time>2010-06-27T07:39:07Z</time>
      </trkpt>
      <trkpt lat="46.02298" lon="6.94534">
        <ele>2098.1999511719</ele>
        <time>2010-06-27T07:39:11Z</time>
      </trkpt>
      <trkpt lat="46.02295" lon="6.94531">
        <ele>2099.1999511719</ele>
        <time>2010-06-27T07:39:15Z</time>
      </trkpt>
      <trkpt lat="46.02291" lon="6.94528">
        <ele>2100.8000488281</ele>
        <time>2010-06-27T07:39:21Z</time>
      </trkpt>
      <trkpt lat="46.02286" lon="6.94526">
        <ele>2102.1999511719</ele>
        <time>2010-06-27T07:39:26Z</time>
      </trkpt>
      <trkpt lat="46.02278" lon="6.94521">
        <ele>2105</ele>
        <time>2010-06-27T07:39:35Z</time>
      </trkpt>
      <trkpt lat="46.02274" lon="6.94519">
        <ele>2106.1999511719</ele>
        <time>2010-06-27T07:39:40Z</time>
      </trkpt>
      <trkpt lat="46.02273" lon="6.94518">
        <ele>2106.3999023438</ele>
        <time>2010-06-27T07:39:41Z</time>
      </trkpt>
      <trkpt lat="46.02271" lon="6.94516">
        <ele>2107.6000976562</ele>
        <time>2010-06-27T07:39:45Z</time>
      </trkpt>
      <trkpt lat="46.0227" lon="6.94515">
        <ele>2108.1999511719</ele>
        <time>2010-06-27T07:39:47Z</time>
      </trkpt>
      <trkpt lat="46.02265" lon="6.94507">
        <ele>2110</ele>
        <time>2010-06-27T07:39:53Z</time>
      </trkpt>
      <trkpt lat="46.02255" lon="6.9451">
        <ele>2112.3999023438</ele>
        <time>2010-06-27T07:40:03Z</time>
      </trkpt>
      <trkpt lat="46.02246" lon="6.94498">
        <ele>2115.1999511719</ele>
        <time>2010-06-27T07:40:17Z</time>
      </trkpt>
      <trkpt lat="46.02243" lon="6.94496">
        <ele>2115.8000488281</ele>
        <time>2010-06-27T07:40:20Z</time>
      </trkpt>
      <trkpt lat="46.02239" lon="6.94495">
        <ele>2116.1999511719</ele>
        <time>2010-06-27T07:40:23Z</time>
      </trkpt>
      <trkpt lat="46.02232" lon="6.94489">
        <ele>2116.8000488281</ele>
        <time>2010-06-27T07:40:27Z</time>
      </trkpt>
      <trkpt lat="46.02228" lon="6.94486">
        <ele>2117</ele>
        <time>2010-06-27T07:40:29Z</time>
      </trkpt>
      <trkpt lat="46.02224" lon="6.94485">
        <ele>2117</ele>
        <time>2010-06-27T07:40:31Z</time>
      </trkpt>
      <trkpt lat="46.02217" lon="6.94486">
        <ele>2117.3999023438</ele>
        <time>2010-06-27T07:40:35Z</time>
      </trkpt>
      <trkpt lat="46.02209" lon="6.94481">
        <ele>2118</ele>
        <time>2010-06-27T07:40:39Z</time>
      </trkpt>
      <trkpt lat="46.02199" lon="6.94472">
        <ele>2119.1999511719</ele>
        <time>2010-06-27T07:40:45Z</time>
      </trkpt>
      <trkpt lat="46.02194" lon="6.94467">
        <ele>2119.8000488281</ele>
        <time>2010-06-27T07:40:48Z</time>
      </trkpt>
      <trkpt lat="46.0219" lon="6.94465">
        <ele>2120.1999511719</ele>
        <time>2010-06-27T07:40:50Z</time>
      </trkpt>
      <trkpt lat="46.02184" lon="6.94463">
        <ele>2120.6000976562</ele>
        <time>2010-06-27T07:40:53Z</time>
      </trkpt>
      <trkpt lat="46.0218" lon="6.94451">
        <ele>2121.1999511719</ele>
        <time>2010-06-27T07:40:57Z</time>
      </trkpt>
      <trkpt lat="46.02176" lon="6.94446">
        <ele>2121.6000976562</ele>
        <time>2010-06-27T07:41:00Z</time>
      </trkpt>
      <trkpt lat="46.02168" lon="6.94444">
        <ele>2122.3999023438</ele>
        <time>2010-06-27T07:41:06Z</time>
      </trkpt>
      <trkpt lat="46.02162" lon="6.94443">
        <ele>2122.8000488281</ele>
        <time>2010-06-27T07:41:10Z</time>
      </trkpt>
      <trkpt lat="46.02158" lon="6.94441">
        <ele>2123.1999511719</ele>
        <time>2010-06-27T07:41:14Z</time>
      </trkpt>
      <trkpt lat="46.02155" lon="6.94436">
        <ele>2123.8000488281</ele>
        <time>2010-06-27T07:41:19Z</time>
      </trkpt>
      <trkpt lat="46.02155" lon="6.94435">
        <ele>2124</ele>
        <time>2010-06-27T07:41:21Z</time>
      </trkpt>
      <trkpt lat="46.02147" lon="6.94429">
        <ele>2124.3999023438</ele>
        <time>2010-06-27T07:41:28Z</time>
      </trkpt>
      <trkpt lat="46.02146" lon="6.94428">
        <ele>2124.6000976562</ele>
        <time>2010-06-27T07:41:30Z</time>
      </trkpt>
      <trkpt lat="46.02144" lon="6.94427">
        <ele>2124.8000488281</ele>
        <time>2010-06-27T07:41:33Z</time>
      </trkpt>
      <trkpt lat="46.02142" lon="6.94423">
        <ele>2125.1999511719</ele>
        <time>2010-06-27T07:41:37Z</time>
      </trkpt>
      <trkpt lat="46.02142" lon="6.94423">
        <ele>2125.3999023438</ele>
        <time>2010-06-27T07:41:38Z</time>
      </trkpt>
      <trkpt lat="46.02134" lon="6.94412">
        <ele>2128</ele>
        <time>2010-06-27T07:41:52Z</time>
      </trkpt>
      <trkpt lat="46.02124" lon="6.94407">
        <ele>2130.8000488281</ele>
        <time>2010-06-27T07:42:05Z</time>
      </trkpt>
      <trkpt lat="46.02118" lon="6.94402">
        <ele>2132.3999023438</ele>
        <time>2010-06-27T07:42:12Z</time>
      </trkpt>
      <trkpt lat="46.02105" lon="6.94382">
        <ele>2135.1999511719</ele>
        <time>2010-06-27T07:42:24Z</time>
      </trkpt>
      <trkpt lat="46.02103" lon="6.94379">
        <ele>2136</ele>
        <time>2010-06-27T07:42:27Z</time>
      </trkpt>
      <trkpt lat="46.02102" lon="6.94378">
        <ele>2136.1999511719</ele>
        <time>2010-06-27T07:42:28Z</time>
      </trkpt>
      <trkpt lat="46.0209" lon="6.9437">
        <ele>2137.8000488281</ele>
        <time>2010-06-27T07:42:37Z</time>
      </trkpt>
      <trkpt lat="46.02086" lon="6.94368">
        <ele>2138.6000976562</ele>
        <time>2010-06-27T07:42:41Z</time>
      </trkpt>
      <trkpt lat="46.02074" lon="6.94358">
        <ele>2139.6000976562</ele>
        <time>2010-06-27T07:42:47Z</time>
      </trkpt>
      <trkpt lat="46.02072" lon="6.94356">
        <ele>2139.8000488281</ele>
        <time>2010-06-27T07:42:48Z</time>
      </trkpt>
      <trkpt lat="46.02057" lon="6.94348">
        <ele>2140.3999023438</ele>
        <time>2010-06-27T07:42:55Z</time>
      </trkpt>
      <trkpt lat="46.02054" lon="6.94344">
        <ele>2140.3999023438</ele>
        <time>2010-06-27T07:42:57Z</time>
      </trkpt>
      <trkpt lat="46.02047" lon="6.94339">
        <ele>2140.8000488281</ele>
        <time>2010-06-27T07:43:01Z</time>
      </trkpt>
      <trkpt lat="46.02044" lon="6.9434">
        <ele>2140.8000488281</ele>
        <time>2010-06-27T07:43:03Z</time>
      </trkpt>
      <trkpt lat="46.0204" lon="6.94339">
        <ele>2141</ele>
        <time>2010-06-27T07:43:07Z</time>
      </trkpt>
      <trkpt lat="46.02039" lon="6.94339">
        <ele>2141.1999511719</ele>
        <time>2010-06-27T07:43:08Z</time>
      </trkpt>
      <trkpt lat="46.02034" lon="6.94335">
        <ele>2141.6000976562</ele>
        <time>2010-06-27T07:43:13Z</time>
      </trkpt>
      <trkpt lat="46.02029" lon="6.94324">
        <ele>2143</ele>
        <time>2010-06-27T07:43:24Z</time>
      </trkpt>
      <trkpt lat="46.02029" lon="6.94323">
        <ele>2143.1999511719</ele>
        <time>2010-06-27T07:43:25Z</time>
      </trkpt>
      <trkpt lat="46.02024" lon="6.94314">
        <ele>2144.6000976562</ele>
        <time>2010-06-27T07:43:32Z</time>
      </trkpt>
      <trkpt lat="46.02024" lon="6.94312">
        <ele>2144.8000488281</ele>
        <time>2010-06-27T07:43:34Z</time>
      </trkpt>
      <trkpt lat="46.02024" lon="6.94307">
        <ele>2145.6000976562</ele>
        <time>2010-06-27T07:43:39Z</time>
      </trkpt>
      <trkpt lat="46.0202" lon="6.943">
        <ele>2147.1999511719</ele>
        <time>2010-06-27T07:43:47Z</time>
      </trkpt>
      <trkpt lat="46.02019" lon="6.94298">
        <ele>2147.6000976562</ele>
        <time>2010-06-27T07:43:49Z</time>
      </trkpt>
      <trkpt lat="46.02014" lon="6.94299">
        <ele>2148.3999023438</ele>
        <time>2010-06-27T07:43:54Z</time>
      </trkpt>
      <trkpt lat="46.02003" lon="6.94294">
        <ele>2149.3999023438</ele>
        <time>2010-06-27T07:44:01Z</time>
      </trkpt>
      <trkpt lat="46.02002" lon="6.94293">
        <ele>2149.6000976562</ele>
        <time>2010-06-27T07:44:03Z</time>
      </trkpt>
      <trkpt lat="46.02005" lon="6.94279">
        <ele>2151.3999023438</ele>
        <time>2010-06-27T07:44:15Z</time>
      </trkpt>
      <trkpt lat="46.02005" lon="6.94278">
        <ele>2151.3999023438</ele>
        <time>2010-06-27T07:44:16Z</time>
      </trkpt>
      <trkpt lat="46.02003" lon="6.94275">
        <ele>2152</ele>
        <time>2010-06-27T07:44:19Z</time>
      </trkpt>
      <trkpt lat="46.01994" lon="6.94271">
        <ele>2152.8000488281</ele>
        <time>2010-06-27T07:44:25Z</time>
      </trkpt>
      <trkpt lat="46.01991" lon="6.94263">
        <ele>2153.3999023438</ele>
        <time>2010-06-27T07:44:29Z</time>
      </trkpt>
      <trkpt lat="46.01991" lon="6.94261">
        <ele>2153.6000976562</ele>
        <time>2010-06-27T07:44:30Z</time>
      </trkpt>
      <trkpt lat="46.01991" lon="6.94259">
        <ele>2153.8000488281</ele>
        <time>2010-06-27T07:44:31Z</time>
      </trkpt>
      <trkpt lat="46.01979" lon="6.94241">
        <ele>2155</ele>
        <time>2010-06-27T07:44:40Z</time>
      </trkpt>
      <trkpt lat="46.01972" lon="6.94237">
        <ele>2156</ele>
        <time>2010-06-27T07:44:45Z</time>
      </trkpt>
      <trkpt lat="46.01965" lon="6.94225">
        <ele>2158</ele>
        <time>2010-06-27T07:44:54Z</time>
      </trkpt>
      <trkpt lat="46.01949" lon="6.94213">
        <ele>2161.3999023438</ele>
        <time>2010-06-27T07:45:07Z</time>
      </trkpt>
      <trkpt lat="46.01947" lon="6.94208">
        <ele>2162.1999511719</ele>
        <time>2010-06-27T07:45:10Z</time>
      </trkpt>
      <trkpt lat="46.01935" lon="6.94199">
        <ele>2165.3999023438</ele>
        <time>2010-06-27T07:45:24Z</time>
      </trkpt>
      <trkpt lat="46.01928" lon="6.94197">
        <ele>2166.1999511719</ele>
        <time>2010-06-27T07:45:29Z</time>
      </trkpt>
      <trkpt lat="46.01919" lon="6.94189">
        <ele>2167.6000976562</ele>
        <time>2010-06-27T07:45:37Z</time>
      </trkpt>
      <trkpt lat="46.01917" lon="6.94187">
        <ele>2168</ele>
        <time>2010-06-27T07:45:39Z</time>
      </trkpt>
      <trkpt lat="46.01915" lon="6.94186">
        <ele>2168.8000488281</ele>
        <time>2010-06-27T07:45:43Z</time>
      </trkpt>
      <trkpt lat="46.01912" lon="6.94188">
        <ele>2169.6000976562</ele>
        <time>2010-06-27T07:45:47Z</time>
      </trkpt>
      <trkpt lat="46.01905" lon="6.94178">
        <ele>2172.3999023438</ele>
        <time>2010-06-27T07:45:59Z</time>
      </trkpt>
      <trkpt lat="46.01902" lon="6.94181">
        <ele>2173</ele>
        <time>2010-06-27T07:46:02Z</time>
      </trkpt>
      <trkpt lat="46.01897" lon="6.94179">
        <ele>2174.1999511719</ele>
        <time>2010-06-27T07:46:08Z</time>
      </trkpt>
      <trkpt lat="46.01895" lon="6.94179">
        <ele>2174.3999023438</ele>
        <time>2010-06-27T07:46:09Z</time>
      </trkpt>
      <trkpt lat="46.01889" lon="6.94174">
        <ele>2175.8000488281</ele>
        <time>2010-06-27T07:46:16Z</time>
      </trkpt>
      <trkpt lat="46.01878" lon="6.94175">
        <ele>2178.8000488281</ele>
        <time>2010-06-27T07:46:34Z</time>
      </trkpt>
      <trkpt lat="46.01878" lon="6.94171">
        <ele>2179.6000976562</ele>
        <time>2010-06-27T07:46:38Z</time>
      </trkpt>
      <trkpt lat="46.01867" lon="6.94162">
        <ele>2183.3999023438</ele>
        <time>2010-06-27T07:46:54Z</time>
      </trkpt>
      <trkpt lat="46.01862" lon="6.9416">
        <ele>2184.3999023438</ele>
        <time>2010-06-27T07:46:59Z</time>
      </trkpt>
      <trkpt lat="46.01846" lon="6.94151">
        <ele>2187.1999511719</ele>
        <time>2010-06-27T07:47:13Z</time>
      </trkpt>
      <trkpt lat="46.01843" lon="6.94147">
        <ele>2188.1999511719</ele>
        <time>2010-06-27T07:47:17Z</time>
      </trkpt>
      <trkpt lat="46.01838" lon="6.9414">
        <ele>2190.3999023438</ele>
        <time>2010-06-27T07:47:25Z</time>
      </trkpt>
      <trkpt lat="46.01836" lon="6.94136">
        <ele>2191.1999511719</ele>
        <time>2010-06-27T07:47:28Z</time>
      </trkpt>
      <trkpt lat="46.01833" lon="6.94134">
        <ele>2192</ele>
        <time>2010-06-27T07:47:31Z</time>
      </trkpt>
      <trkpt lat="46.0183" lon="6.94131">
        <ele>2192.8000488281</ele>
        <time>2010-06-27T07:47:34Z</time>
      </trkpt>
      <trkpt lat="46.01826" lon="6.94115">
        <ele>2196.6000976562</ele>
        <time>2010-06-27T07:47:50Z</time>
      </trkpt>
      <trkpt lat="46.01826" lon="6.94113">
        <ele>2196.8000488281</ele>
        <time>2010-06-27T07:47:51Z</time>
      </trkpt>
      <trkpt lat="46.01826" lon="6.9411">
        <ele>2197.3999023438</ele>
        <time>2010-06-27T07:47:53Z</time>
      </trkpt>
      <trkpt lat="46.01822" lon="6.94101">
        <ele>2198.3999023438</ele>
        <time>2010-06-27T07:47:58Z</time>
      </trkpt>
      <trkpt lat="46.01819" lon="6.94095">
        <ele>2198.8000488281</ele>
        <time>2010-06-27T07:48:01Z</time>
      </trkpt>
      <trkpt lat="46.0182" lon="6.94092">
        <ele>2199</ele>
        <time>2010-06-27T07:48:02Z</time>
      </trkpt>
      <trkpt lat="46.01821" lon="6.94073">
        <ele>2199.8000488281</ele>
        <time>2010-06-27T07:48:08Z</time>
      </trkpt>
      <trkpt lat="46.01822" lon="6.94065">
        <ele>2200</ele>
        <time>2010-06-27T07:48:10Z</time>
      </trkpt>
      <trkpt lat="46.01817" lon="6.94038">
        <ele>2201.3999023438</ele>
        <time>2010-06-27T07:48:18Z</time>
      </trkpt>
      <trkpt lat="46.01816" lon="6.9403">
        <ele>2202</ele>
        <time>2010-06-27T07:48:21Z</time>
      </trkpt>
      <trkpt lat="46.01805" lon="6.94022">
        <ele>2202.8000488281</ele>
        <time>2010-06-27T07:48:27Z</time>
      </trkpt>
      <trkpt lat="46.01802" lon="6.94018">
        <ele>2202.8000488281</ele>
        <time>2010-06-27T07:48:29Z</time>
      </trkpt>
      <trkpt lat="46.01797" lon="6.94003">
        <ele>2203.3999023438</ele>
        <time>2010-06-27T07:48:34Z</time>
      </trkpt>
      <trkpt lat="46.01795" lon="6.93998">
        <ele>2203.6000976562</ele>
        <time>2010-06-27T07:48:36Z</time>
      </trkpt>
      <trkpt lat="46.01787" lon="6.93986">
        <ele>2203.8000488281</ele>
        <time>2010-06-27T07:48:42Z</time>
      </trkpt>
      <trkpt lat="46.01785" lon="6.93983">
        <ele>2203.8000488281</ele>
        <time>2010-06-27T07:48:46Z</time>
      </trkpt>
      <trkpt lat="46.01785" lon="6.93977">
        <ele>2203.1999511719</ele>
        <time>2010-06-27T07:49:12Z</time>
      </trkpt>
      <trkpt lat="46.01784" lon="6.93976">
        <ele>2203.1999511719</ele>
        <time>2010-06-27T07:49:13Z</time>
      </trkpt>
      <trkpt lat="46.01768" lon="6.9397">
        <ele>2202.6000976562</ele>
        <time>2010-06-27T07:49:25Z</time>
      </trkpt>
      <trkpt lat="46.01766" lon="6.93969">
        <ele>2201.1999511719</ele>
        <time>2010-06-27T07:49:56Z</time>
      </trkpt>
      <trkpt lat="46.01756" lon="6.93964">
        <ele>2200.3999023438</ele>
        <time>2010-06-27T07:50:04Z</time>
      </trkpt>
      <trkpt lat="46.01745" lon="6.93959">
        <ele>2199.6000976562</ele>
        <time>2010-06-27T07:50:12Z</time>
      </trkpt>
      <trkpt lat="46.01741" lon="6.93958">
        <ele>2199</ele>
        <time>2010-06-27T07:50:16Z</time>
      </trkpt>
      <trkpt lat="46.01741" lon="6.93958">
        <ele>2198.8000488281</ele>
        <time>2010-06-27T07:50:17Z</time>
      </trkpt>
      <trkpt lat="46.01739" lon="6.93958">
        <ele>2198.6000976562</ele>
        <time>2010-06-27T07:50:18Z</time>
      </trkpt>
      <trkpt lat="46.01736" lon="6.9396">
        <ele>2198.1999511719</ele>
        <time>2010-06-27T07:50:21Z</time>
      </trkpt>
      <trkpt lat="46.01723" lon="6.93956">
        <ele>2196.3999023438</ele>
        <time>2010-06-27T07:50:30Z</time>
      </trkpt>
      <trkpt lat="46.0172" lon="6.93953">
        <ele>2195.8000488281</ele>
        <time>2010-06-27T07:50:33Z</time>
      </trkpt>
      <trkpt lat="46.01713" lon="6.93947">
        <ele>2194.6000976562</ele>
        <time>2010-06-27T07:50:38Z</time>
      </trkpt>
      <trkpt lat="46.01708" lon="6.93946">
        <ele>2193.8000488281</ele>
        <time>2010-06-27T07:50:41Z</time>
      </trkpt>
      <trkpt lat="46.01706" lon="6.93938">
        <ele>2192.3999023438</ele>
        <time>2010-06-27T07:50:46Z</time>
      </trkpt>
      <trkpt lat="46.01706" lon="6.93935">
        <ele>2192</ele>
        <time>2010-06-27T07:50:48Z</time>
      </trkpt>
      <trkpt lat="46.01699" lon="6.93934">
        <ele>2190.3999023438</ele>
        <time>2010-06-27T07:50:53Z</time>
      </trkpt>
      <trkpt lat="46.01695" lon="6.93931">
        <ele>2189.8000488281</ele>
        <time>2010-06-27T07:50:55Z</time>
      </trkpt>
      <trkpt lat="46.01683" lon="6.93925">
        <ele>2188.3999023438</ele>
        <time>2010-06-27T07:51:00Z</time>
      </trkpt>
      <trkpt lat="46.01665" lon="6.93914">
        <ele>2186.6000976562</ele>
        <time>2010-06-27T07:51:07Z</time>
      </trkpt>
      <trkpt lat="46.01654" lon="6.9391">
        <ele>2185.3999023438</ele>
        <time>2010-06-27T07:51:11Z</time>
      </trkpt>
      <trkpt lat="46.01646" lon="6.93909">
        <ele>2184.6000976562</ele>
        <time>2010-06-27T07:51:14Z</time>
      </trkpt>
      <trkpt lat="46.01636" lon="6.93911">
        <ele>2183.1999511719</ele>
        <time>2010-06-27T07:51:19Z</time>
      </trkpt>
      <trkpt lat="46.01628" lon="6.93907">
        <ele>2181.6000976562</ele>
        <time>2010-06-27T07:51:24Z</time>
      </trkpt>
      <trkpt lat="46.01616" lon="6.939">
        <ele>2179.1999511719</ele>
        <time>2010-06-27T07:51:32Z</time>
      </trkpt>
      <trkpt lat="46.01612" lon="6.93899">
        <ele>2178.6000976562</ele>
        <time>2010-06-27T07:51:34Z</time>
      </trkpt>
      <trkpt lat="46.01595" lon="6.9389">
        <ele>2176.3999023438</ele>
        <time>2010-06-27T07:51:41Z</time>
      </trkpt>
      <trkpt lat="46.01586" lon="6.93887">
        <ele>2174.8000488281</ele>
        <time>2010-06-27T07:51:46Z</time>
      </trkpt>
      <trkpt lat="46.01585" lon="6.93888">
        <ele>2174.1999511719</ele>
        <time>2010-06-27T07:51:48Z</time>
      </trkpt>
      <trkpt lat="46.01584" lon="6.93886">
        <ele>2173.3999023438</ele>
        <time>2010-06-27T07:51:50Z</time>
      </trkpt>
      <trkpt lat="46.01577" lon="6.93883">
        <ele>2172.1999511719</ele>
        <time>2010-06-27T07:51:54Z</time>
      </trkpt>
      <trkpt lat="46.01573" lon="6.93878">
        <ele>2171.1999511719</ele>
        <time>2010-06-27T07:51:57Z</time>
      </trkpt>
      <trkpt lat="46.01571" lon="6.93878">
        <ele>2170.8000488281</ele>
        <time>2010-06-27T07:51:58Z</time>
      </trkpt>
      <trkpt lat="46.01561" lon="6.93875">
        <ele>2168.3999023438</ele>
        <time>2010-06-27T07:52:05Z</time>
      </trkpt>
      <trkpt lat="46.0156" lon="6.93874">
        <ele>2168.1999511719</ele>
        <time>2010-06-27T07:52:06Z</time>
      </trkpt>
      <trkpt lat="46.01557" lon="6.93873">
        <ele>2167.3999023438</ele>
        <time>2010-06-27T07:52:08Z</time>
      </trkpt>
      <trkpt lat="46.01543" lon="6.93875">
        <ele>2165.1999511719</ele>
        <time>2010-06-27T07:52:14Z</time>
      </trkpt>
      <trkpt lat="46.0153" lon="6.93856">
        <ele>2162.8000488281</ele>
        <time>2010-06-27T07:52:21Z</time>
      </trkpt>
      <trkpt lat="46.0152" lon="6.93842">
        <ele>2160.8000488281</ele>
        <time>2010-06-27T07:52:27Z</time>
      </trkpt>
      <trkpt lat="46.01515" lon="6.9384">
        <ele>2160.3999023438</ele>
        <time>2010-06-27T07:52:29Z</time>
      </trkpt>
      <trkpt lat="46.01508" lon="6.93835">
        <ele>2159.3999023438</ele>
        <time>2010-06-27T07:52:32Z</time>
      </trkpt>
      <trkpt lat="46.01498" lon="6.93829">
        <ele>2158.1999511719</ele>
        <time>2010-06-27T07:52:36Z</time>
      </trkpt>
      <trkpt lat="46.01482" lon="6.93814">
        <ele>2155.8000488281</ele>
        <time>2010-06-27T07:52:44Z</time>
      </trkpt>
      <trkpt lat="46.01467" lon="6.938">
        <ele>2153.3999023438</ele>
        <time>2010-06-27T07:52:52Z</time>
      </trkpt>
      <trkpt lat="46.01449" lon="6.93789">
        <ele>2150.3999023438</ele>
        <time>2010-06-27T07:53:02Z</time>
      </trkpt>
      <trkpt lat="46.01445" lon="6.93787">
        <ele>2149.3999023438</ele>
        <time>2010-06-27T07:53:05Z</time>
      </trkpt>
      <trkpt lat="46.01435" lon="6.93777">
        <ele>2146.8000488281</ele>
        <time>2010-06-27T07:53:13Z</time>
      </trkpt>
      <trkpt lat="46.01419" lon="6.93781">
        <ele>2143.6000976562</ele>
        <time>2010-06-27T07:53:22Z</time>
      </trkpt>
      <trkpt lat="46.01415" lon="6.9378">
        <ele>2143</ele>
        <time>2010-06-27T07:53:24Z</time>
      </trkpt>
      <trkpt lat="46.01411" lon="6.9378">
        <ele>2142.1999511719</ele>
        <time>2010-06-27T07:53:26Z</time>
      </trkpt>
      <trkpt lat="46.014" lon="6.93774">
        <ele>2140</ele>
        <time>2010-06-27T07:53:32Z</time>
      </trkpt>
      <trkpt lat="46.01389" lon="6.93764">
        <ele>2137.6000976562</ele>
        <time>2010-06-27T07:53:39Z</time>
      </trkpt>
      <trkpt lat="46.01385" lon="6.93757">
        <ele>2136</ele>
        <time>2010-06-27T07:53:43Z</time>
      </trkpt>
      <trkpt lat="46.01378" lon="6.93749">
        <ele>2134.1999511719</ele>
        <time>2010-06-27T07:53:48Z</time>
      </trkpt>
      <trkpt lat="46.01371" lon="6.93741">
        <ele>2132.6000976562</ele>
        <time>2010-06-27T07:53:52Z</time>
      </trkpt>
      <trkpt lat="46.01365" lon="6.93737">
        <ele>2131.3999023438</ele>
        <time>2010-06-27T07:53:55Z</time>
      </trkpt>
      <trkpt lat="46.01355" lon="6.93725">
        <ele>2129.6000976562</ele>
        <time>2010-06-27T07:54:00Z</time>
      </trkpt>
      <trkpt lat="46.01337" lon="6.93719">
        <ele>2126.6000976562</ele>
        <time>2010-06-27T07:54:08Z</time>
      </trkpt>
      <trkpt lat="46.01331" lon="6.93717">
        <ele>2125.6000976562</ele>
        <time>2010-06-27T07:54:11Z</time>
      </trkpt>
      <trkpt lat="46.01319" lon="6.93715">
        <ele>2123.3999023438</ele>
        <time>2010-06-27T07:54:17Z</time>
      </trkpt>
      <trkpt lat="46.01303" lon="6.937">
        <ele>2120.3999023438</ele>
        <time>2010-06-27T07:54:25Z</time>
      </trkpt>
      <trkpt lat="46.01287" lon="6.93688">
        <ele>2117.3999023438</ele>
        <time>2010-06-27T07:54:33Z</time>
      </trkpt>
      <trkpt lat="46.01273" lon="6.93672">
        <ele>2115</ele>
        <time>2010-06-27T07:54:40Z</time>
      </trkpt>
      <trkpt lat="46.01261" lon="6.93652">
        <ele>2112.1999511719</ele>
        <time>2010-06-27T07:54:48Z</time>
      </trkpt>
      <trkpt lat="46.01259" lon="6.93651">
        <ele>2111.8000488281</ele>
        <time>2010-06-27T07:54:49Z</time>
      </trkpt>
      <trkpt lat="46.01244" lon="6.93641">
        <ele>2109.6000976562</ele>
        <time>2010-06-27T07:54:55Z</time>
      </trkpt>
      <trkpt lat="46.01237" lon="6.9363">
        <ele>2107.8000488281</ele>
        <time>2010-06-27T07:55:00Z</time>
      </trkpt>
      <trkpt lat="46.01228" lon="6.93626">
        <ele>2106.3999023438</ele>
        <time>2010-06-27T07:55:04Z</time>
      </trkpt>
      <trkpt lat="46.01215" lon="6.93607">
        <ele>2104</ele>
        <time>2010-06-27T07:55:11Z</time>
      </trkpt>
      <trkpt lat="46.01196" lon="6.93599">
        <ele>2101</ele>
        <time>2010-06-27T07:55:20Z</time>
      </trkpt>
      <trkpt lat="46.01177" lon="6.93592">
        <ele>2097.8000488281</ele>
        <time>2010-06-27T07:55:30Z</time>
      </trkpt>
      <trkpt lat="46.0116" lon="6.93582">
        <ele>2095</ele>
        <time>2010-06-27T07:55:39Z</time>
      </trkpt>
      <trkpt lat="46.01155" lon="6.9358">
        <ele>2094</ele>
        <time>2010-06-27T07:55:42Z</time>
      </trkpt>
      <trkpt lat="46.01152" lon="6.93567">
        <ele>2091.1999511719</ele>
        <time>2010-06-27T07:55:50Z</time>
      </trkpt>
      <trkpt lat="46.01141" lon="6.93557">
        <ele>2087</ele>
        <time>2010-06-27T07:56:02Z</time>
      </trkpt>
      <trkpt lat="46.01139" lon="6.93555">
        <ele>2086.8000488281</ele>
        <time>2010-06-27T07:56:03Z</time>
      </trkpt>
      <trkpt lat="46.01138" lon="6.93545">
        <ele>2085</ele>
        <time>2010-06-27T07:56:08Z</time>
      </trkpt>
      <trkpt lat="46.0113" lon="6.9354">
        <ele>2083.6000976562</ele>
        <time>2010-06-27T07:56:12Z</time>
      </trkpt>
      <trkpt lat="46.01114" lon="6.93525">
        <ele>2080.8000488281</ele>
        <time>2010-06-27T07:56:20Z</time>
      </trkpt>
      <trkpt lat="46.0111" lon="6.93521">
        <ele>2080.1999511719</ele>
        <time>2010-06-27T07:56:22Z</time>
      </trkpt>
      <trkpt lat="46.01105" lon="6.93515">
        <ele>2079</ele>
        <time>2010-06-27T07:56:25Z</time>
      </trkpt>
      <trkpt lat="46.01098" lon="6.93513">
        <ele>2078</ele>
        <time>2010-06-27T07:56:28Z</time>
      </trkpt>
      <trkpt lat="46.01081" lon="6.93504">
        <ele>2075</ele>
        <time>2010-06-27T07:56:36Z</time>
      </trkpt>
      <trkpt lat="46.01062" lon="6.93499">
        <ele>2072.3999023438</ele>
        <time>2010-06-27T07:56:44Z</time>
      </trkpt>
      <trkpt lat="46.01046" lon="6.93491">
        <ele>2069.6000976562</ele>
        <time>2010-06-27T07:56:53Z</time>
      </trkpt>
      <trkpt lat="46.01042" lon="6.93489">
        <ele>2069</ele>
        <time>2010-06-27T07:56:55Z</time>
      </trkpt>
      <trkpt lat="46.0104" lon="6.93488">
        <ele>2068.8000488281</ele>
        <time>2010-06-27T07:56:56Z</time>
      </trkpt>
      <trkpt lat="46.01033" lon="6.93482">
        <ele>2067.6000976562</ele>
        <time>2010-06-27T07:57:00Z</time>
      </trkpt>
      <trkpt lat="46.0103" lon="6.93482">
        <ele>2067.3999023438</ele>
        <time>2010-06-27T07:57:01Z</time>
      </trkpt>
      <trkpt lat="46.01024" lon="6.93481">
        <ele>2066.3999023438</ele>
        <time>2010-06-27T07:57:04Z</time>
      </trkpt>
      <trkpt lat="46.01013" lon="6.93473">
        <ele>2064.8000488281</ele>
        <time>2010-06-27T07:57:10Z</time>
      </trkpt>
      <trkpt lat="46.01" lon="6.9346">
        <ele>2062.6000976562</ele>
        <time>2010-06-27T07:57:17Z</time>
      </trkpt>
      <trkpt lat="46.00999" lon="6.93458">
        <ele>2062.3999023438</ele>
        <time>2010-06-27T07:57:18Z</time>
      </trkpt>
      <trkpt lat="46.00984" lon="6.93444">
        <ele>2058.6000976562</ele>
        <time>2010-06-27T07:57:30Z</time>
      </trkpt>
      <trkpt lat="46.00968" lon="6.93431">
        <ele>2056</ele>
        <time>2010-06-27T07:57:38Z</time>
      </trkpt>
      <trkpt lat="46.00953" lon="6.9342">
        <ele>2053.1999511719</ele>
        <time>2010-06-27T07:57:46Z</time>
      </trkpt>
      <trkpt lat="46.00952" lon="6.93419">
        <ele>2053</ele>
        <time>2010-06-27T07:57:47Z</time>
      </trkpt>
      <trkpt lat="46.00937" lon="6.93414">
        <ele>2050.1999511719</ele>
        <time>2010-06-27T07:57:55Z</time>
      </trkpt>
      <trkpt lat="46.00934" lon="6.93416">
        <ele>2049.3999023438</ele>
        <time>2010-06-27T07:57:57Z</time>
      </trkpt>
      <trkpt lat="46.00926" lon="6.93403">
        <ele>2046.5999755859</ele>
        <time>2010-06-27T07:58:05Z</time>
      </trkpt>
      <trkpt lat="46.00923" lon="6.93401">
        <ele>2045.8000488281</ele>
        <time>2010-06-27T07:58:07Z</time>
      </trkpt>
      <trkpt lat="46.00905" lon="6.93391">
        <ele>2042.4000244141</ele>
        <time>2010-06-27T07:58:16Z</time>
      </trkpt>
      <trkpt lat="46.009" lon="6.93385">
        <ele>2041.4000244141</ele>
        <time>2010-06-27T07:58:19Z</time>
      </trkpt>
      <trkpt lat="46.00894" lon="6.93371">
        <ele>2039.8000488281</ele>
        <time>2010-06-27T07:58:23Z</time>
      </trkpt>
      <trkpt lat="46.0089" lon="6.93362">
        <ele>2038.5999755859</ele>
        <time>2010-06-27T07:58:26Z</time>
      </trkpt>
      <trkpt lat="46.00886" lon="6.93354">
        <ele>2037.5999755859</ele>
        <time>2010-06-27T07:58:29Z</time>
      </trkpt>
      <trkpt lat="46.00882" lon="6.9335">
        <ele>2036.4000244141</ele>
        <time>2010-06-27T07:58:32Z</time>
      </trkpt>
      <trkpt lat="46.00868" lon="6.9334">
        <ele>2031.8000488281</ele>
        <time>2010-06-27T07:58:44Z</time>
      </trkpt>
      <trkpt lat="46.0086" lon="6.93332">
        <ele>2029.4000244141</ele>
        <time>2010-06-27T07:58:50Z</time>
      </trkpt>
      <trkpt lat="46.00854" lon="6.93325">
        <ele>2028</ele>
        <time>2010-06-27T07:58:54Z</time>
      </trkpt>
      <trkpt lat="46.00852" lon="6.93322">
        <ele>2027.1999511719</ele>
        <time>2010-06-27T07:58:56Z</time>
      </trkpt>
      <trkpt lat="46.00843" lon="6.93307">
        <ele>2023</ele>
        <time>2010-06-27T07:59:06Z</time>
      </trkpt>
      <trkpt lat="46.00837" lon="6.93304">
        <ele>2021</ele>
        <time>2010-06-27T07:59:11Z</time>
      </trkpt>
      <trkpt lat="46.00836" lon="6.93303">
        <ele>2020.5999755859</ele>
        <time>2010-06-27T07:59:12Z</time>
      </trkpt>
      <trkpt lat="46.00831" lon="6.93299">
        <ele>2016.8000488281</ele>
        <time>2010-06-27T07:59:21Z</time>
      </trkpt>
      <trkpt lat="46.00822" lon="6.93281">
        <ele>2012.5999755859</ele>
        <time>2010-06-27T07:59:31Z</time>
      </trkpt>
      <trkpt lat="46.00821" lon="6.9328">
        <ele>2012.1999511719</ele>
        <time>2010-06-27T07:59:32Z</time>
      </trkpt>
      <trkpt lat="46.0082" lon="6.93281">
        <ele>2011.8000488281</ele>
        <time>2010-06-27T07:59:33Z</time>
      </trkpt>
      <trkpt lat="46.0081" lon="6.9327">
        <ele>2008.5999755859</ele>
        <time>2010-06-27T07:59:41Z</time>
      </trkpt>
      <trkpt lat="46.00809" lon="6.93268">
        <ele>2008.1999511719</ele>
        <time>2010-06-27T07:59:42Z</time>
      </trkpt>
      <trkpt lat="46.00809" lon="6.93265">
        <ele>2007.5999755859</ele>
        <time>2010-06-27T07:59:43Z</time>
      </trkpt>
      <trkpt lat="46.008" lon="6.93255">
        <ele>2001.4000244141</ele>
        <time>2010-06-27T07:59:58Z</time>
      </trkpt>
      <trkpt lat="46.008" lon="6.9325">
        <ele>2000</ele>
        <time>2010-06-27T08:00:01Z</time>
      </trkpt>
      <trkpt lat="46.00801" lon="6.93246">
        <ele>1999.1999511719</ele>
        <time>2010-06-27T08:00:03Z</time>
      </trkpt>
      <trkpt lat="46.00802" lon="6.93243">
        <ele>1998</ele>
        <time>2010-06-27T08:00:06Z</time>
      </trkpt>
      <trkpt lat="46.00799" lon="6.93241">
        <ele>1997</ele>
        <time>2010-06-27T08:00:08Z</time>
      </trkpt>
      <trkpt lat="46.00795" lon="6.93243">
        <ele>1995.8000488281</ele>
        <time>2010-06-27T08:00:11Z</time>
      </trkpt>
      <trkpt lat="46.00788" lon="6.93246">
        <ele>1994.1999511719</ele>
        <time>2010-06-27T08:00:15Z</time>
      </trkpt>
      <trkpt lat="46.00784" lon="6.93234">
        <ele>1990.8000488281</ele>
        <time>2010-06-27T08:00:23Z</time>
      </trkpt>
      <trkpt lat="46.0078" lon="6.93224">
        <ele>1988.1999511719</ele>
        <time>2010-06-27T08:00:29Z</time>
      </trkpt>
      <trkpt lat="46.00779" lon="6.93222">
        <ele>1987.8000488281</ele>
        <time>2010-06-27T08:00:30Z</time>
      </trkpt>
      <trkpt lat="46.00774" lon="6.93214">
        <ele>1985.5999755859</ele>
        <time>2010-06-27T08:00:35Z</time>
      </trkpt>
      <trkpt lat="46.00758" lon="6.93203">
        <ele>1981.5999755859</ele>
        <time>2010-06-27T08:00:44Z</time>
      </trkpt>
      <trkpt lat="46.00741" lon="6.93193">
        <ele>1978.1999511719</ele>
        <time>2010-06-27T08:00:52Z</time>
      </trkpt>
      <trkpt lat="46.00736" lon="6.93191">
        <ele>1977.4000244141</ele>
        <time>2010-06-27T08:00:54Z</time>
      </trkpt>
      <trkpt lat="46.00723" lon="6.93185">
        <ele>1975</ele>
        <time>2010-06-27T08:01:00Z</time>
      </trkpt>
      <trkpt lat="46.00707" lon="6.93176">
        <ele>1970.5999755859</ele>
        <time>2010-06-27T08:01:11Z</time>
      </trkpt>
      <trkpt lat="46.00703" lon="6.93167">
        <ele>1969</ele>
        <time>2010-06-27T08:01:15Z</time>
      </trkpt>
      <trkpt lat="46.00702" lon="6.93165">
        <ele>1968.5999755859</ele>
        <time>2010-06-27T08:01:16Z</time>
      </trkpt>
      <trkpt lat="46.00695" lon="6.93157">
        <ele>1966.5999755859</ele>
        <time>2010-06-27T08:01:21Z</time>
      </trkpt>
      <trkpt lat="46.00695" lon="6.93155">
        <ele>1966</ele>
        <time>2010-06-27T08:01:22Z</time>
      </trkpt>
      <trkpt lat="46.00694" lon="6.93149">
        <ele>1964</ele>
        <time>2010-06-27T08:01:27Z</time>
      </trkpt>
      <trkpt lat="46.00693" lon="6.93147">
        <ele>1963.1999511719</ele>
        <time>2010-06-27T08:01:29Z</time>
      </trkpt>
      <trkpt lat="46.00691" lon="6.93139">
        <ele>1960.1999511719</ele>
        <time>2010-06-27T08:01:36Z</time>
      </trkpt>
      <trkpt lat="46.0069" lon="6.93133">
        <ele>1959</ele>
        <time>2010-06-27T08:01:39Z</time>
      </trkpt>
      <trkpt lat="46.00689" lon="6.93128">
        <ele>1957.8000488281</ele>
        <time>2010-06-27T08:01:42Z</time>
      </trkpt>
      <trkpt lat="46.0069" lon="6.9312">
        <ele>1956.1999511719</ele>
        <time>2010-06-27T08:01:46Z</time>
      </trkpt>
      <trkpt lat="46.00685" lon="6.93113">
        <ele>1953.4000244141</ele>
        <time>2010-06-27T08:01:53Z</time>
      </trkpt>
      <trkpt lat="46.00674" lon="6.93094">
        <ele>1946.5999755859</ele>
        <time>2010-06-27T08:02:09Z</time>
      </trkpt>
      <trkpt lat="46.00673" lon="6.93092">
        <ele>1945.5999755859</ele>
        <time>2010-06-27T08:02:11Z</time>
      </trkpt>
      <trkpt lat="46.00668" lon="6.93091">
        <ele>1943.1999511719</ele>
        <time>2010-06-27T08:02:16Z</time>
      </trkpt>
      <trkpt lat="46.0067" lon="6.93081">
        <ele>1941.4000244141</ele>
        <time>2010-06-27T08:02:20Z</time>
      </trkpt>
      <trkpt lat="46.00672" lon="6.93076">
        <ele>1940.4000244141</ele>
        <time>2010-06-27T08:02:22Z</time>
      </trkpt>
      <trkpt lat="46.00671" lon="6.93073">
        <ele>1939.5999755859</ele>
        <time>2010-06-27T08:02:24Z</time>
      </trkpt>
      <trkpt lat="46.00663" lon="6.93071">
        <ele>1937.1999511719</ele>
        <time>2010-06-27T08:02:29Z</time>
      </trkpt>
      <trkpt lat="46.00656" lon="6.93069">
        <ele>1935.8000488281</ele>
        <time>2010-06-27T08:02:32Z</time>
      </trkpt>
      <trkpt lat="46.00648" lon="6.93066">
        <ele>1933.8000488281</ele>
        <time>2010-06-27T08:02:36Z</time>
      </trkpt>
      <trkpt lat="46.00641" lon="6.93062">
        <ele>1931.4000244141</ele>
        <time>2010-06-27T08:02:41Z</time>
      </trkpt>
      <trkpt lat="46.00637" lon="6.93063">
        <ele>1930</ele>
        <time>2010-06-27T08:02:44Z</time>
      </trkpt>
      <trkpt lat="46.00626" lon="6.93054">
        <ele>1922.8000488281</ele>
        <time>2010-06-27T08:02:59Z</time>
      </trkpt>
      <trkpt lat="46.00626" lon="6.93053">
        <ele>1922.4000244141</ele>
        <time>2010-06-27T08:03:00Z</time>
      </trkpt>
      <trkpt lat="46.00623" lon="6.93059">
        <ele>1918.5999755859</ele>
        <time>2010-06-27T08:03:08Z</time>
      </trkpt>
      <trkpt lat="46.00617" lon="6.9305">
        <ele>1915</ele>
        <time>2010-06-27T08:03:16Z</time>
      </trkpt>
      <trkpt lat="46.00608" lon="6.93046">
        <ele>1912</ele>
        <time>2010-06-27T08:03:23Z</time>
      </trkpt>
      <trkpt lat="46.00607" lon="6.93046">
        <ele>1911.5999755859</ele>
        <time>2010-06-27T08:03:24Z</time>
      </trkpt>
      <trkpt lat="46.00601" lon="6.93046">
        <ele>1909.5999755859</ele>
        <time>2010-06-27T08:03:29Z</time>
      </trkpt>
      <trkpt lat="46.00592" lon="6.93057">
        <ele>1907.4000244141</ele>
        <time>2010-06-27T08:03:34Z</time>
      </trkpt>
      <trkpt lat="46.00587" lon="6.93061">
        <ele>1905.8000488281</ele>
        <time>2010-06-27T08:03:38Z</time>
      </trkpt>
      <trkpt lat="46.00586" lon="6.93062">
        <ele>1905.4000244141</ele>
        <time>2010-06-27T08:03:39Z</time>
      </trkpt>
      <trkpt lat="46.00579" lon="6.93061">
        <ele>1901.8000488281</ele>
        <time>2010-06-27T08:03:48Z</time>
      </trkpt>
      <trkpt lat="46.00578" lon="6.93058">
        <ele>1900.5999755859</ele>
        <time>2010-06-27T08:03:51Z</time>
      </trkpt>
      <trkpt lat="46.00572" lon="6.93057">
        <ele>1899.1999511719</ele>
        <time>2010-06-27T08:03:54Z</time>
      </trkpt>
      <trkpt lat="46.00567" lon="6.93062">
        <ele>1897</ele>
        <time>2010-06-27T08:03:59Z</time>
      </trkpt>
      <trkpt lat="46.00566" lon="6.93063">
        <ele>1896.5999755859</ele>
        <time>2010-06-27T08:04:00Z</time>
      </trkpt>
      <trkpt lat="46.00557" lon="6.93073">
        <ele>1894.5999755859</ele>
        <time>2010-06-27T08:04:04Z</time>
      </trkpt>
      <trkpt lat="46.00553" lon="6.93085">
        <ele>1893.1999511719</ele>
        <time>2010-06-27T08:04:07Z</time>
      </trkpt>
      <trkpt lat="46.0055" lon="6.93096">
        <ele>1891.5999755859</ele>
        <time>2010-06-27T08:04:10Z</time>
      </trkpt>
      <trkpt lat="46.00547" lon="6.93113">
        <ele>1889.1999511719</ele>
        <time>2010-06-27T08:04:15Z</time>
      </trkpt>
      <trkpt lat="46.00541" lon="6.93109">
        <ele>1886.8000488281</ele>
        <time>2010-06-27T08:04:20Z</time>
      </trkpt>
      <trkpt lat="46.0053" lon="6.931">
        <ele>1883.8000488281</ele>
        <time>2010-06-27T08:04:26Z</time>
      </trkpt>
      <trkpt lat="46.00529" lon="6.93089">
        <ele>1882.4000244141</ele>
        <time>2010-06-27T08:04:29Z</time>
      </trkpt>
      <trkpt lat="46.00527" lon="6.93084">
        <ele>1881.4000244141</ele>
        <time>2010-06-27T08:04:31Z</time>
      </trkpt>
      <trkpt lat="46.00517" lon="6.93083">
        <ele>1877.4000244141</ele>
        <time>2010-06-27T08:04:39Z</time>
      </trkpt>
      <trkpt lat="46.00518" lon="6.93109">
        <ele>1874</ele>
        <time>2010-06-27T08:04:46Z</time>
      </trkpt>
      <trkpt lat="46.00525" lon="6.93133">
        <ele>1870.5999755859</ele>
        <time>2010-06-27T08:04:53Z</time>
      </trkpt>
      <trkpt lat="46.00533" lon="6.9314">
        <ele>1869.4000244141</ele>
        <time>2010-06-27T08:04:56Z</time>
      </trkpt>
      <trkpt lat="46.00535" lon="6.93152">
        <ele>1868</ele>
        <time>2010-06-27T08:04:59Z</time>
      </trkpt>
      <trkpt lat="46.00537" lon="6.9316">
        <ele>1867</ele>
        <time>2010-06-27T08:05:01Z</time>
      </trkpt>
      <trkpt lat="46.00539" lon="6.93177">
        <ele>1864.8000488281</ele>
        <time>2010-06-27T08:05:06Z</time>
      </trkpt>
      <trkpt lat="46.00545" lon="6.932">
        <ele>1862.1999511719</ele>
        <time>2010-06-27T08:05:12Z</time>
      </trkpt>
      <trkpt lat="46.00547" lon="6.93203">
        <ele>1861.5999755859</ele>
        <time>2010-06-27T08:05:13Z</time>
      </trkpt>
      <trkpt lat="46.00552" lon="6.93231">
        <ele>1858.4000244141</ele>
        <time>2010-06-27T08:05:20Z</time>
      </trkpt>
      <trkpt lat="46.00554" lon="6.93246">
        <ele>1854.8000488281</ele>
        <time>2010-06-27T08:05:28Z</time>
      </trkpt>
      <trkpt lat="46.00553" lon="6.93243">
        <ele>1854.4000244141</ele>
        <time>2010-06-27T08:05:29Z</time>
      </trkpt>
      <trkpt lat="46.00546" lon="6.93235">
        <ele>1852</ele>
        <time>2010-06-27T08:05:34Z</time>
      </trkpt>
      <trkpt lat="46.00547" lon="6.93249">
        <ele>1849.5999755859</ele>
        <time>2010-06-27T08:05:39Z</time>
      </trkpt>
      <trkpt lat="46.00555" lon="6.93269">
        <ele>1846.5999755859</ele>
        <time>2010-06-27T08:05:45Z</time>
      </trkpt>
      <trkpt lat="46.00555" lon="6.93272">
        <ele>1846.1999511719</ele>
        <time>2010-06-27T08:05:46Z</time>
      </trkpt>
      <trkpt lat="46.00558" lon="6.93283">
        <ele>1844.1999511719</ele>
        <time>2010-06-27T08:05:50Z</time>
      </trkpt>
      <trkpt lat="46.00549" lon="6.93278">
        <ele>1841.8000488281</ele>
        <time>2010-06-27T08:05:55Z</time>
      </trkpt>
      <trkpt lat="46.00536" lon="6.93266">
        <ele>1837.5999755859</ele>
        <time>2010-06-27T08:06:03Z</time>
      </trkpt>
      <trkpt lat="46.00536" lon="6.93271">
        <ele>1836.5999755859</ele>
        <time>2010-06-27T08:06:05Z</time>
      </trkpt>
      <trkpt lat="46.00541" lon="6.93296">
        <ele>1831.8000488281</ele>
        <time>2010-06-27T08:06:14Z</time>
      </trkpt>
      <trkpt lat="46.00549" lon="6.93322">
        <ele>1827.4000244141</ele>
        <time>2010-06-27T08:06:22Z</time>
      </trkpt>
      <trkpt lat="46.00552" lon="6.93349">
        <ele>1823.8000488281</ele>
        <time>2010-06-27T08:06:29Z</time>
      </trkpt>
      <trkpt lat="46.00552" lon="6.93352">
        <ele>1823.1999511719</ele>
        <time>2010-06-27T08:06:30Z</time>
      </trkpt>
      <trkpt lat="46.00539" lon="6.93347">
        <ele>1819.4000244141</ele>
        <time>2010-06-27T08:06:37Z</time>
      </trkpt>
      <trkpt lat="46.00537" lon="6.93343">
        <ele>1818.8000488281</ele>
        <time>2010-06-27T08:06:38Z</time>
      </trkpt>
      <trkpt lat="46.00524" lon="6.93327">
        <ele>1814.5999755859</ele>
        <time>2010-06-27T08:06:46Z</time>
      </trkpt>
      <trkpt lat="46.00521" lon="6.93325">
        <ele>1813.4000244141</ele>
        <time>2010-06-27T08:06:48Z</time>
      </trkpt>
      <trkpt lat="46.00516" lon="6.93334">
        <ele>1809.8000488281</ele>
        <time>2010-06-27T08:06:55Z</time>
      </trkpt>
      <trkpt lat="46.00508" lon="6.93315">
        <ele>1806.4000244141</ele>
        <time>2010-06-27T08:07:01Z</time>
      </trkpt>
      <trkpt lat="46.00506" lon="6.93312">
        <ele>1805.8000488281</ele>
        <time>2010-06-27T08:07:02Z</time>
      </trkpt>
      <trkpt lat="46.00492" lon="6.93295">
        <ele>1802.1999511719</ele>
        <time>2010-06-27T08:07:09Z</time>
      </trkpt>
      <trkpt lat="46.00477" lon="6.93274">
        <ele>1798.4000244141</ele>
        <time>2010-06-27T08:07:16Z</time>
      </trkpt>
      <trkpt lat="46.0046" lon="6.93261">
        <ele>1794.5999755859</ele>
        <time>2010-06-27T08:07:23Z</time>
      </trkpt>
      <trkpt lat="46.00455" lon="6.93254">
        <ele>1792.5999755859</ele>
        <time>2010-06-27T08:07:27Z</time>
      </trkpt>
      <trkpt lat="46.00457" lon="6.93268">
        <ele>1790.4000244141</ele>
        <time>2010-06-27T08:07:31Z</time>
      </trkpt>
      <trkpt lat="46.00463" lon="6.93287">
        <ele>1787.4000244141</ele>
        <time>2010-06-27T08:07:37Z</time>
      </trkpt>
      <trkpt lat="46.0046" lon="6.93288">
        <ele>1786.4000244141</ele>
        <time>2010-06-27T08:07:39Z</time>
      </trkpt>
      <trkpt lat="46.00455" lon="6.93281">
        <ele>1784.8000488281</ele>
        <time>2010-06-27T08:07:42Z</time>
      </trkpt>
      <trkpt lat="46.00445" lon="6.93271">
        <ele>1782.8000488281</ele>
        <time>2010-06-27T08:07:46Z</time>
      </trkpt>
      <trkpt lat="46.00436" lon="6.93259">
        <ele>1779.5999755859</ele>
        <time>2010-06-27T08:07:52Z</time>
      </trkpt>
      <trkpt lat="46.00436" lon="6.93266">
        <ele>1778</ele>
        <time>2010-06-27T08:07:55Z</time>
      </trkpt>
      <trkpt lat="46.00431" lon="6.93263">
        <ele>1775.8000488281</ele>
        <time>2010-06-27T08:07:59Z</time>
      </trkpt>
      <trkpt lat="46.00421" lon="6.93252">
        <ele>1773.1999511719</ele>
        <time>2010-06-27T08:08:04Z</time>
      </trkpt>
      <trkpt lat="46.00406" lon="6.93234">
        <ele>1769</ele>
        <time>2010-06-27T08:08:12Z</time>
      </trkpt>
      <trkpt lat="46.00402" lon="6.93231">
        <ele>1768</ele>
        <time>2010-06-27T08:08:14Z</time>
      </trkpt>
      <trkpt lat="46.00388" lon="6.93221">
        <ele>1763.5999755859</ele>
        <time>2010-06-27T08:08:22Z</time>
      </trkpt>
      <trkpt lat="46.00378" lon="6.93218">
        <ele>1760.8000488281</ele>
        <time>2010-06-27T08:08:27Z</time>
      </trkpt>
      <trkpt lat="46.0037" lon="6.93216">
        <ele>1758.4000244141</ele>
        <time>2010-06-27T08:08:31Z</time>
      </trkpt>
      <trkpt lat="46.00351" lon="6.9321">
        <ele>1753.8000488281</ele>
        <time>2010-06-27T08:08:39Z</time>
      </trkpt>
      <trkpt lat="46.0034" lon="6.93207">
        <ele>1750.8000488281</ele>
        <time>2010-06-27T08:08:44Z</time>
      </trkpt>
      <trkpt lat="46.00333" lon="6.93201">
        <ele>1748.4000244141</ele>
        <time>2010-06-27T08:08:48Z</time>
      </trkpt>
      <trkpt lat="46.00325" lon="6.93199">
        <ele>1746</ele>
        <time>2010-06-27T08:08:52Z</time>
      </trkpt>
      <trkpt lat="46.00317" lon="6.93191">
        <ele>1743</ele>
        <time>2010-06-27T08:08:57Z</time>
      </trkpt>
      <trkpt lat="46.00311" lon="6.93184">
        <ele>1741.4000244141</ele>
        <time>2010-06-27T08:09:00Z</time>
      </trkpt>
      <trkpt lat="46.00301" lon="6.93182">
        <ele>1739</ele>
        <time>2010-06-27T08:09:04Z</time>
      </trkpt>
      <trkpt lat="46.00284" lon="6.93168">
        <ele>1735.1999511719</ele>
        <time>2010-06-27T08:09:11Z</time>
      </trkpt>
      <trkpt lat="46.00268" lon="6.93168">
        <ele>1730.4000244141</ele>
        <time>2010-06-27T08:09:20Z</time>
      </trkpt>
      <trkpt lat="46.00265" lon="6.93168">
        <ele>1729.4000244141</ele>
        <time>2010-06-27T08:09:22Z</time>
      </trkpt>
      <trkpt lat="46.00256" lon="6.93167">
        <ele>1727.1999511719</ele>
        <time>2010-06-27T08:09:26Z</time>
      </trkpt>
      <trkpt lat="46.00247" lon="6.9316">
        <ele>1724.4000244141</ele>
        <time>2010-06-27T08:09:31Z</time>
      </trkpt>
      <trkpt lat="46.00229" lon="6.9315">
        <ele>1720.1999511719</ele>
        <time>2010-06-27T08:09:39Z</time>
      </trkpt>
      <trkpt lat="46.00219" lon="6.93151">
        <ele>1718.1999511719</ele>
        <time>2010-06-27T08:09:43Z</time>
      </trkpt>
      <trkpt lat="46.00217" lon="6.93151">
        <ele>1717</ele>
        <time>2010-06-27T08:09:45Z</time>
      </trkpt>
      <trkpt lat="46.00217" lon="6.93162">
        <ele>1714.5999755859</ele>
        <time>2010-06-27T08:09:49Z</time>
      </trkpt>
      <trkpt lat="46.00219" lon="6.93165">
        <ele>1714</ele>
        <time>2010-06-27T08:09:50Z</time>
      </trkpt>
      <trkpt lat="46.00219" lon="6.93168">
        <ele>1713.4000244141</ele>
        <time>2010-06-27T08:09:51Z</time>
      </trkpt>
      <trkpt lat="46.00224" lon="6.93184">
        <ele>1710.5999755859</ele>
        <time>2010-06-27T08:09:56Z</time>
      </trkpt>
      <trkpt lat="46.00226" lon="6.93186">
        <ele>1709.8000488281</ele>
        <time>2010-06-27T08:09:57Z</time>
      </trkpt>
      <trkpt lat="46.00232" lon="6.93194">
        <ele>1707.4000244141</ele>
        <time>2010-06-27T08:10:01Z</time>
      </trkpt>
      <trkpt lat="46.00237" lon="6.93204">
        <ele>1705.1999511719</ele>
        <time>2010-06-27T08:10:05Z</time>
      </trkpt>
      <trkpt lat="46.00238" lon="6.93207">
        <ele>1704.5999755859</ele>
        <time>2010-06-27T08:10:06Z</time>
      </trkpt>
      <trkpt lat="46.00238" lon="6.9321">
        <ele>1704</ele>
        <time>2010-06-27T08:10:07Z</time>
      </trkpt>
      <trkpt lat="46.00248" lon="6.93228">
        <ele>1701.1999511719</ele>
        <time>2010-06-27T08:10:13Z</time>
      </trkpt>
      <trkpt lat="46.00249" lon="6.93231">
        <ele>1700.8000488281</ele>
        <time>2010-06-27T08:10:14Z</time>
      </trkpt>
      <trkpt lat="46.00253" lon="6.93242">
        <ele>1699</ele>
        <time>2010-06-27T08:10:18Z</time>
      </trkpt>
      <trkpt lat="46.00254" lon="6.93253">
        <ele>1696.8000488281</ele>
        <time>2010-06-27T08:10:22Z</time>
      </trkpt>
      <trkpt lat="46.00258" lon="6.93279">
        <ele>1693</ele>
        <time>2010-06-27T08:10:29Z</time>
      </trkpt>
      <trkpt lat="46.00258" lon="6.93307">
        <ele>1689.4000244141</ele>
        <time>2010-06-27T08:10:36Z</time>
      </trkpt>
      <trkpt lat="46.00259" lon="6.93319">
        <ele>1687.4000244141</ele>
        <time>2010-06-27T08:10:40Z</time>
      </trkpt>
      <trkpt lat="46.00254" lon="6.93328">
        <ele>1686.1999511719</ele>
        <time>2010-06-27T08:10:43Z</time>
      </trkpt>
      <trkpt lat="46.00244" lon="6.93351">
        <ele>1683</ele>
        <time>2010-06-27T08:10:50Z</time>
      </trkpt>
      <trkpt lat="46.00244" lon="6.93373">
        <ele>1680</ele>
        <time>2010-06-27T08:10:57Z</time>
      </trkpt>
      <trkpt lat="46.00246" lon="6.93379">
        <ele>1679</ele>
        <time>2010-06-27T08:10:59Z</time>
      </trkpt>
      <trkpt lat="46.00248" lon="6.93386">
        <ele>1678</ele>
        <time>2010-06-27T08:11:01Z</time>
      </trkpt>
      <trkpt lat="46.00253" lon="6.93404">
        <ele>1675.8000488281</ele>
        <time>2010-06-27T08:11:06Z</time>
      </trkpt>
      <trkpt lat="46.00261" lon="6.93429">
        <ele>1672.4000244141</ele>
        <time>2010-06-27T08:11:14Z</time>
      </trkpt>
      <trkpt lat="46.00261" lon="6.93432">
        <ele>1672</ele>
        <time>2010-06-27T08:11:15Z</time>
      </trkpt>
      <trkpt lat="46.00255" lon="6.93445">
        <ele>1668.1999511719</ele>
        <time>2010-06-27T08:11:25Z</time>
      </trkpt>
      <trkpt lat="46.00256" lon="6.93456">
        <ele>1666.5999755859</ele>
        <time>2010-06-27T08:11:29Z</time>
      </trkpt>
      <trkpt lat="46.0025" lon="6.93449">
        <ele>1664.8000488281</ele>
        <time>2010-06-27T08:11:34Z</time>
      </trkpt>
      <trkpt lat="46.00249" lon="6.93452">
        <ele>1664.4000244141</ele>
        <time>2010-06-27T08:11:35Z</time>
      </trkpt>
      <trkpt lat="46.00246" lon="6.93464">
        <ele>1662.1999511719</ele>
        <time>2010-06-27T08:11:40Z</time>
      </trkpt>
      <trkpt lat="46.00237" lon="6.93462">
        <ele>1660.8000488281</ele>
        <time>2010-06-27T08:11:44Z</time>
      </trkpt>
      <trkpt lat="46.00217" lon="6.93458">
        <ele>1657.5999755859</ele>
        <time>2010-06-27T08:11:51Z</time>
      </trkpt>
      <trkpt lat="46.00205" lon="6.93445">
        <ele>1652.1999511719</ele>
        <time>2010-06-27T08:12:03Z</time>
      </trkpt>
      <trkpt lat="46.00203" lon="6.93446">
        <ele>1651.5999755859</ele>
        <time>2010-06-27T08:12:04Z</time>
      </trkpt>
      <trkpt lat="46.002" lon="6.93445">
        <ele>1650.1999511719</ele>
        <time>2010-06-27T08:12:07Z</time>
      </trkpt>
      <trkpt lat="46.00199" lon="6.93447">
        <ele>1649.1999511719</ele>
        <time>2010-06-27T08:12:09Z</time>
      </trkpt>
      <trkpt lat="46.00193" lon="6.9345">
        <ele>1645.4000244141</ele>
        <time>2010-06-27T08:12:17Z</time>
      </trkpt>
      <trkpt lat="46.00201" lon="6.93476">
        <ele>1640.8000488281</ele>
        <time>2010-06-27T08:12:26Z</time>
      </trkpt>
      <trkpt lat="46.00199" lon="6.93485">
        <ele>1636.1999511719</ele>
        <time>2010-06-27T08:12:36Z</time>
      </trkpt>
      <trkpt lat="46.00199" lon="6.93486">
        <ele>1635.8000488281</ele>
        <time>2010-06-27T08:12:37Z</time>
      </trkpt>
      <trkpt lat="46.00199" lon="6.93489">
        <ele>1634.8000488281</ele>
        <time>2010-06-27T08:12:39Z</time>
      </trkpt>
      <trkpt lat="46.00194" lon="6.93487">
        <ele>1632.4000244141</ele>
        <time>2010-06-27T08:12:44Z</time>
      </trkpt>
      <trkpt lat="46.00194" lon="6.9349">
        <ele>1631.8000488281</ele>
        <time>2010-06-27T08:12:45Z</time>
      </trkpt>
      <trkpt lat="46.00196" lon="6.935">
        <ele>1630.4000244141</ele>
        <time>2010-06-27T08:12:48Z</time>
      </trkpt>
      <trkpt lat="46.00196" lon="6.93504">
        <ele>1629.8000488281</ele>
        <time>2010-06-27T08:12:49Z</time>
      </trkpt>
      <trkpt lat="46.00199" lon="6.93515">
        <ele>1626</ele>
        <time>2010-06-27T08:12:57Z</time>
      </trkpt>
      <trkpt lat="46.00198" lon="6.93516">
        <ele>1624.1999511719</ele>
        <time>2010-06-27T08:13:01Z</time>
      </trkpt>
      <trkpt lat="46.00199" lon="6.93518">
        <ele>1623.5999755859</ele>
        <time>2010-06-27T08:13:02Z</time>
      </trkpt>
      <trkpt lat="46.00203" lon="6.93526">
        <ele>1622.1999511719</ele>
        <time>2010-06-27T08:13:05Z</time>
      </trkpt>
      <trkpt lat="46.00208" lon="6.93544">
        <ele>1619.8000488281</ele>
        <time>2010-06-27T08:13:10Z</time>
      </trkpt>
      <trkpt lat="46.0021" lon="6.93553">
        <ele>1618.4000244141</ele>
        <time>2010-06-27T08:13:13Z</time>
      </trkpt>
      <trkpt lat="46.00209" lon="6.93553">
        <ele>1617.4000244141</ele>
        <time>2010-06-27T08:13:15Z</time>
      </trkpt>
      <trkpt lat="46.00203" lon="6.93544">
        <ele>1615.5999755859</ele>
        <time>2010-06-27T08:13:19Z</time>
      </trkpt>
      <trkpt lat="46.00184" lon="6.93544">
        <ele>1612.4000244141</ele>
        <time>2010-06-27T08:13:26Z</time>
      </trkpt>
      <trkpt lat="46.0018" lon="6.93547">
        <ele>1610.4000244141</ele>
        <time>2010-06-27T08:13:30Z</time>
      </trkpt>
      <trkpt lat="46.0019" lon="6.93559">
        <ele>1607.4000244141</ele>
        <time>2010-06-27T08:13:36Z</time>
      </trkpt>
      <trkpt lat="46.00194" lon="6.93568">
        <ele>1604.8000488281</ele>
        <time>2010-06-27T08:13:41Z</time>
      </trkpt>
      <trkpt lat="46.00186" lon="6.93567">
        <ele>1603</ele>
        <time>2010-06-27T08:13:45Z</time>
      </trkpt>
      <trkpt lat="46.00186" lon="6.93568">
        <ele>1602.4000244141</ele>
        <time>2010-06-27T08:13:46Z</time>
      </trkpt>
      <trkpt lat="46.00186" lon="6.9357">
        <ele>1602</ele>
        <time>2010-06-27T08:13:47Z</time>
      </trkpt>
      <trkpt lat="46.00172" lon="6.93578">
        <ele>1597.1999511719</ele>
        <time>2010-06-27T08:13:57Z</time>
      </trkpt>
      <trkpt lat="46.00173" lon="6.93579">
        <ele>1596.8000488281</ele>
        <time>2010-06-27T08:13:58Z</time>
      </trkpt>
      <trkpt lat="46.00173" lon="6.93581">
        <ele>1596.4000244141</ele>
        <time>2010-06-27T08:13:59Z</time>
      </trkpt>
      <trkpt lat="46.00175" lon="6.93595">
        <ele>1591.8000488281</ele>
        <time>2010-06-27T08:14:09Z</time>
      </trkpt>
      <trkpt lat="46.00179" lon="6.93602">
        <ele>1590.5999755859</ele>
        <time>2010-06-27T08:14:12Z</time>
      </trkpt>
      <trkpt lat="46.00186" lon="6.93614">
        <ele>1589</ele>
        <time>2010-06-27T08:14:16Z</time>
      </trkpt>
      <trkpt lat="46.00195" lon="6.9364">
        <ele>1584.5999755859</ele>
        <time>2010-06-27T08:14:25Z</time>
      </trkpt>
      <trkpt lat="46.00204" lon="6.93662">
        <ele>1579.8000488281</ele>
        <time>2010-06-27T08:14:33Z</time>
      </trkpt>
      <trkpt lat="46.00213" lon="6.93684">
        <ele>1575.8000488281</ele>
        <time>2010-06-27T08:14:40Z</time>
      </trkpt>
      <trkpt lat="46.0022" lon="6.93708">
        <ele>1571.5999755859</ele>
        <time>2010-06-27T08:14:47Z</time>
      </trkpt>
      <trkpt lat="46.00227" lon="6.93732">
        <ele>1568</ele>
        <time>2010-06-27T08:14:53Z</time>
      </trkpt>
      <trkpt lat="46.00235" lon="6.9376">
        <ele>1564</ele>
        <time>2010-06-27T08:15:00Z</time>
      </trkpt>
      <trkpt lat="46.0024" lon="6.93788">
        <ele>1560</ele>
        <time>2010-06-27T08:15:07Z</time>
      </trkpt>
      <trkpt lat="46.00242" lon="6.93815">
        <ele>1556.5999755859</ele>
        <time>2010-06-27T08:15:13Z</time>
      </trkpt>
      <trkpt lat="46.00243" lon="6.93843">
        <ele>1553.1999511719</ele>
        <time>2010-06-27T08:15:19Z</time>
      </trkpt>
      <trkpt lat="46.00245" lon="6.93873">
        <ele>1549.5999755859</ele>
        <time>2010-06-27T08:15:26Z</time>
      </trkpt>
      <trkpt lat="46.00254" lon="6.93898">
        <ele>1546</ele>
        <time>2010-06-27T08:15:33Z</time>
      </trkpt>
      <trkpt lat="46.00265" lon="6.93919">
        <ele>1543.1999511719</ele>
        <time>2010-06-27T08:15:39Z</time>
      </trkpt>
      <trkpt lat="46.00273" lon="6.93943">
        <ele>1540.5999755859</ele>
        <time>2010-06-27T08:15:45Z</time>
      </trkpt>
      <trkpt lat="46.00283" lon="6.93967">
        <ele>1537.5999755859</ele>
        <time>2010-06-27T08:15:52Z</time>
      </trkpt>
      <trkpt lat="46.00289" lon="6.93987">
        <ele>1535</ele>
        <time>2010-06-27T08:15:58Z</time>
      </trkpt>
      <trkpt lat="46.00291" lon="6.93993">
        <ele>1534.1999511719</ele>
        <time>2010-06-27T08:16:00Z</time>
      </trkpt>
      <trkpt lat="46.00294" lon="6.94003">
        <ele>1533</ele>
        <time>2010-06-27T08:16:03Z</time>
      </trkpt>
      <trkpt lat="46.00294" lon="6.94017">
        <ele>1531.5999755859</ele>
        <time>2010-06-27T08:16:07Z</time>
      </trkpt>
      <trkpt lat="46.00296" lon="6.94028">
        <ele>1530.8000488281</ele>
        <time>2010-06-27T08:16:10Z</time>
      </trkpt>
      <trkpt lat="46.003" lon="6.94045">
        <ele>1529.5999755859</ele>
        <time>2010-06-27T08:16:14Z</time>
      </trkpt>
      <trkpt lat="46.00309" lon="6.94055">
        <ele>1528</ele>
        <time>2010-06-27T08:16:19Z</time>
      </trkpt>
      <trkpt lat="46.00314" lon="6.94063">
        <ele>1527</ele>
        <time>2010-06-27T08:16:22Z</time>
      </trkpt>
      <trkpt lat="46.00315" lon="6.94066">
        <ele>1526.8000488281</ele>
        <time>2010-06-27T08:16:23Z</time>
      </trkpt>
      <trkpt lat="46.00319" lon="6.9408">
        <ele>1525</ele>
        <time>2010-06-27T08:16:28Z</time>
      </trkpt>
      <trkpt lat="46.00325" lon="6.94085">
        <ele>1524.1999511719</ele>
        <time>2010-06-27T08:16:31Z</time>
      </trkpt>
      <trkpt lat="46.00333" lon="6.94108">
        <ele>1521.8000488281</ele>
        <time>2010-06-27T08:16:40Z</time>
      </trkpt>
      <trkpt lat="46.00334" lon="6.94111">
        <ele>1521.5999755859</ele>
        <time>2010-06-27T08:16:41Z</time>
      </trkpt>
      <trkpt lat="46.00335" lon="6.94131">
        <ele>1520</ele>
        <time>2010-06-27T08:16:49Z</time>
      </trkpt>
      <trkpt lat="46.00336" lon="6.94139">
        <ele>1519.5999755859</ele>
        <time>2010-06-27T08:16:52Z</time>
      </trkpt>
      <trkpt lat="46.00342" lon="6.94163">
        <ele>1518.1999511719</ele>
        <time>2010-06-27T08:16:59Z</time>
      </trkpt>
      <trkpt lat="46.00342" lon="6.94167">
        <ele>1518</ele>
        <time>2010-06-27T08:17:00Z</time>
      </trkpt>
      <trkpt lat="46.00342" lon="6.94192">
        <ele>1516.5999755859</ele>
        <time>2010-06-27T08:17:07Z</time>
      </trkpt>
      <trkpt lat="46.00343" lon="6.94211">
        <ele>1515.5999755859</ele>
        <time>2010-06-27T08:17:12Z</time>
      </trkpt>
      <trkpt lat="46.00345" lon="6.94218">
        <ele>1515.1999511719</ele>
        <time>2010-06-27T08:17:14Z</time>
      </trkpt>
      <trkpt lat="46.00351" lon="6.94245">
        <ele>1513.5999755859</ele>
        <time>2010-06-27T08:17:22Z</time>
      </trkpt>
      <trkpt lat="46.00362" lon="6.94269">
        <ele>1512.4000244141</ele>
        <time>2010-06-27T08:17:30Z</time>
      </trkpt>
      <trkpt lat="46.00368" lon="6.94283">
        <ele>1511.8000488281</ele>
        <time>2010-06-27T08:17:34Z</time>
      </trkpt>
      <trkpt lat="46.00372" lon="6.94292">
        <ele>1511.5999755859</ele>
        <time>2010-06-27T08:17:36Z</time>
      </trkpt>
      <trkpt lat="46.00381" lon="6.94302">
        <ele>1511.1999511719</ele>
        <time>2010-06-27T08:17:40Z</time>
      </trkpt>
      <trkpt lat="46.00388" lon="6.94309">
        <ele>1510.5999755859</ele>
        <time>2010-06-27T08:17:44Z</time>
      </trkpt>
      <trkpt lat="46.00399" lon="6.94327">
        <ele>1509.5999755859</ele>
        <time>2010-06-27T08:17:53Z</time>
      </trkpt>
      <trkpt lat="46.00398" lon="6.94339">
        <ele>1509.1999511719</ele>
        <time>2010-06-27T08:17:56Z</time>
      </trkpt>
      <trkpt lat="46.00401" lon="6.94355">
        <ele>1508.4000244141</ele>
        <time>2010-06-27T08:18:00Z</time>
      </trkpt>
      <trkpt lat="46.00403" lon="6.94381">
        <ele>1507</ele>
        <time>2010-06-27T08:18:07Z</time>
      </trkpt>
      <trkpt lat="46.00397" lon="6.94408">
        <ele>1505.4000244141</ele>
        <time>2010-06-27T08:18:14Z</time>
      </trkpt>
      <trkpt lat="46.00386" lon="6.9443">
        <ele>1504</ele>
        <time>2010-06-27T08:18:20Z</time>
      </trkpt>
      <trkpt lat="46.00386" lon="6.94434">
        <ele>1503.5999755859</ele>
        <time>2010-06-27T08:18:22Z</time>
      </trkpt>
      <trkpt lat="46.00389" lon="6.94458">
        <ele>1501.8000488281</ele>
        <time>2010-06-27T08:18:29Z</time>
      </trkpt>
      <trkpt lat="46.00394" lon="6.94484">
        <ele>1500.1999511719</ele>
        <time>2010-06-27T08:18:36Z</time>
      </trkpt>
      <trkpt lat="46.00393" lon="6.94513">
        <ele>1498.8000488281</ele>
        <time>2010-06-27T08:18:43Z</time>
      </trkpt>
      <trkpt lat="46.00386" lon="6.94539">
        <ele>1497.4000244141</ele>
        <time>2010-06-27T08:18:50Z</time>
      </trkpt>
      <trkpt lat="46.00384" lon="6.94554">
        <ele>1496.1999511719</ele>
        <time>2010-06-27T08:18:55Z</time>
      </trkpt>
      <trkpt lat="46.00383" lon="6.94561">
        <ele>1495.4000244141</ele>
        <time>2010-06-27T08:19:00Z</time>
      </trkpt>
      <trkpt lat="46.00382" lon="6.94581">
        <ele>1494</ele>
        <time>2010-06-27T08:19:07Z</time>
      </trkpt>
      <trkpt lat="46.00382" lon="6.94584">
        <ele>1493.8000488281</ele>
        <time>2010-06-27T08:19:08Z</time>
      </trkpt>
      <trkpt lat="46.00389" lon="6.9461">
        <ele>1492.1999511719</ele>
        <time>2010-06-27T08:19:16Z</time>
      </trkpt>
      <trkpt lat="46.00394" lon="6.94637">
        <ele>1491</ele>
        <time>2010-06-27T08:19:24Z</time>
      </trkpt>
      <trkpt lat="46.00391" lon="6.94664">
        <ele>1490</ele>
        <time>2010-06-27T08:19:32Z</time>
      </trkpt>
      <trkpt lat="46.00381" lon="6.94674">
        <ele>1489.5999755859</ele>
        <time>2010-06-27T08:19:37Z</time>
      </trkpt>
      <trkpt lat="46.00378" lon="6.94683">
        <ele>1489.4000244141</ele>
        <time>2010-06-27T08:19:42Z</time>
      </trkpt>
      <trkpt lat="46.0037" lon="6.94686">
        <ele>1489.1999511719</ele>
        <time>2010-06-27T08:19:45Z</time>
      </trkpt>
      <trkpt lat="46.00367" lon="6.94685">
        <ele>1489.1999511719</ele>
        <time>2010-06-27T08:19:46Z</time>
      </trkpt>
      <trkpt lat="46.00362" lon="6.9468">
        <ele>1489</ele>
        <time>2010-06-27T08:19:48Z</time>
      </trkpt>
      <trkpt lat="46.00352" lon="6.94664">
        <ele>1488.5999755859</ele>
        <time>2010-06-27T08:19:53Z</time>
      </trkpt>
      <trkpt lat="46.0035" lon="6.9466">
        <ele>1488.5999755859</ele>
        <time>2010-06-27T08:19:54Z</time>
      </trkpt>
      <trkpt lat="46.00338" lon="6.94638">
        <ele>1488</ele>
        <time>2010-06-27T08:20:00Z</time>
      </trkpt>
      <trkpt lat="46.0032" lon="6.94629">
        <ele>1487.4000244141</ele>
        <time>2010-06-27T08:20:07Z</time>
      </trkpt>
      <trkpt lat="46.00305" lon="6.9464">
        <ele>1486.8000488281</ele>
        <time>2010-06-27T08:20:12Z</time>
      </trkpt>
      <trkpt lat="46.00288" lon="6.94655">
        <ele>1486.4000244141</ele>
        <time>2010-06-27T08:20:19Z</time>
      </trkpt>
      <trkpt lat="46.00268" lon="6.94659">
        <ele>1485.8000488281</ele>
        <time>2010-06-27T08:20:26Z</time>
      </trkpt>
      <trkpt lat="46.00266" lon="6.94657">
        <ele>1485.5999755859</ele>
        <time>2010-06-27T08:20:27Z</time>
      </trkpt>
      <trkpt lat="46.00258" lon="6.94636">
        <ele>1485.1999511719</ele>
        <time>2010-06-27T08:20:32Z</time>
      </trkpt>
      <trkpt lat="46.00246" lon="6.94612">
        <ele>1484.4000244141</ele>
        <time>2010-06-27T08:20:38Z</time>
      </trkpt>
      <trkpt lat="46.00234" lon="6.94593">
        <ele>1483.5999755859</ele>
        <time>2010-06-27T08:20:44Z</time>
      </trkpt>
      <trkpt lat="46.00226" lon="6.94594">
        <ele>1483</ele>
        <time>2010-06-27T08:20:47Z</time>
      </trkpt>
      <trkpt lat="46.00218" lon="6.94607">
        <ele>1482.5999755859</ele>
        <time>2010-06-27T08:20:51Z</time>
      </trkpt>
      <trkpt lat="46.00204" lon="6.94626">
        <ele>1481.8000488281</ele>
        <time>2010-06-27T08:20:57Z</time>
      </trkpt>
      <trkpt lat="46.00191" lon="6.94649">
        <ele>1481.1999511719</ele>
        <time>2010-06-27T08:21:04Z</time>
      </trkpt>
      <trkpt lat="46.00178" lon="6.94672">
        <ele>1480.5999755859</ele>
        <time>2010-06-27T08:21:11Z</time>
      </trkpt>
      <trkpt lat="46.0017" lon="6.94697">
        <ele>1480.4000244141</ele>
        <time>2010-06-27T08:21:18Z</time>
      </trkpt>
      <trkpt lat="46.00161" lon="6.94721">
        <ele>1480.4000244141</ele>
        <time>2010-06-27T08:21:26Z</time>
      </trkpt>
      <trkpt lat="46.00149" lon="6.94741">
        <ele>1480.4000244141</ele>
        <time>2010-06-27T08:21:33Z</time>
      </trkpt>
      <trkpt lat="46.00133" lon="6.94761">
        <ele>1480.8000488281</ele>
        <time>2010-06-27T08:21:41Z</time>
      </trkpt>
      <trkpt lat="46.0012" lon="6.94781">
        <ele>1480.8000488281</ele>
        <time>2010-06-27T08:21:48Z</time>
      </trkpt>
      <trkpt lat="46.00108" lon="6.94803">
        <ele>1481.1999511719</ele>
        <time>2010-06-27T08:21:55Z</time>
      </trkpt>
      <trkpt lat="46.00095" lon="6.94824">
        <ele>1481.1999511719</ele>
        <time>2010-06-27T08:22:02Z</time>
      </trkpt>
      <trkpt lat="46.00085" lon="6.94846">
        <ele>1481.5999755859</ele>
        <time>2010-06-27T08:22:09Z</time>
      </trkpt>
      <trkpt lat="46.00074" lon="6.94871">
        <ele>1481.8000488281</ele>
        <time>2010-06-27T08:22:16Z</time>
      </trkpt>
      <trkpt lat="46.00065" lon="6.94897">
        <ele>1482</ele>
        <time>2010-06-27T08:22:23Z</time>
      </trkpt>
      <trkpt lat="46.00049" lon="6.94907">
        <ele>1482</ele>
        <time>2010-06-27T08:22:29Z</time>
      </trkpt>
      <trkpt lat="46.0003" lon="6.94908">
        <ele>1481.8000488281</ele>
        <time>2010-06-27T08:22:35Z</time>
      </trkpt>
      <trkpt lat="46.00023" lon="6.94923">
        <ele>1481.5999755859</ele>
        <time>2010-06-27T08:22:39Z</time>
      </trkpt>
      <trkpt lat="46.00019" lon="6.9493">
        <ele>1481.4000244141</ele>
        <time>2010-06-27T08:22:41Z</time>
      </trkpt>
      <trkpt lat="46.00009" lon="6.9493">
        <ele>1481</ele>
        <time>2010-06-27T08:22:45Z</time>
      </trkpt>
      <trkpt lat="46.00008" lon="6.9492">
        <ele>1480.8000488281</ele>
        <time>2010-06-27T08:22:47Z</time>
      </trkpt>
      <trkpt lat="46.00008" lon="6.94891">
        <ele>1480</ele>
        <time>2010-06-27T08:22:53Z</time>
      </trkpt>
      <trkpt lat="46.0001" lon="6.94861">
        <ele>1479</ele>
        <time>2010-06-27T08:22:59Z</time>
      </trkpt>
      <trkpt lat="46.00015" lon="6.94834">
        <ele>1477.8000488281</ele>
        <time>2010-06-27T08:23:05Z</time>
      </trkpt>
      <trkpt lat="46.00014" lon="6.94825">
        <ele>1477.4000244141</ele>
        <time>2010-06-27T08:23:07Z</time>
      </trkpt>
      <trkpt lat="46.0001" lon="6.94807">
        <ele>1476.5999755859</ele>
        <time>2010-06-27T08:23:11Z</time>
      </trkpt>
      <trkpt lat="46.00007" lon="6.94781">
        <ele>1475.4000244141</ele>
        <time>2010-06-27T08:23:17Z</time>
      </trkpt>
      <trkpt lat="46.0001" lon="6.94755">
        <ele>1474</ele>
        <time>2010-06-27T08:23:23Z</time>
      </trkpt>
      <trkpt lat="46" lon="6.94732">
        <ele>1472.4000244141</ele>
        <time>2010-06-27T08:23:29Z</time>
      </trkpt>
      <trkpt lat="45.9999" lon="6.94709">
        <ele>1471</ele>
        <time>2010-06-27T08:23:35Z</time>
      </trkpt>
      <trkpt lat="45.99986" lon="6.94681">
        <ele>1469.4000244141</ele>
        <time>2010-06-27T08:23:41Z</time>
      </trkpt>
      <trkpt lat="45.99984" lon="6.94655">
        <ele>1468</ele>
        <time>2010-06-27T08:23:47Z</time>
      </trkpt>
      <trkpt lat="45.99972" lon="6.94634">
        <ele>1466.4000244141</ele>
        <time>2010-06-27T08:23:53Z</time>
      </trkpt>
      <trkpt lat="45.99959" lon="6.94613">
        <ele>1464.8000488281</ele>
        <time>2010-06-27T08:23:59Z</time>
      </trkpt>
      <trkpt lat="45.99946" lon="6.94591">
        <ele>1463.1999511719</ele>
        <time>2010-06-27T08:24:05Z</time>
      </trkpt>
      <trkpt lat="45.99938" lon="6.94564">
        <ele>1461.4000244141</ele>
        <time>2010-06-27T08:24:11Z</time>
      </trkpt>
      <trkpt lat="45.99931" lon="6.94537">
        <ele>1459.4000244141</ele>
        <time>2010-06-27T08:24:18Z</time>
      </trkpt>
      <trkpt lat="45.99926" lon="6.94511">
        <ele>1457.4000244141</ele>
        <time>2010-06-27T08:24:25Z</time>
      </trkpt>
      <trkpt lat="45.99927" lon="6.94483">
        <ele>1455.8000488281</ele>
        <time>2010-06-27T08:24:31Z</time>
      </trkpt>
      <trkpt lat="45.99926" lon="6.94459">
        <ele>1454.4000244141</ele>
        <time>2010-06-27T08:24:36Z</time>
      </trkpt>
      <trkpt lat="45.99921" lon="6.94431">
        <ele>1452.8000488281</ele>
        <time>2010-06-27T08:24:42Z</time>
      </trkpt>
      <trkpt lat="45.99915" lon="6.94405">
        <ele>1451.1999511719</ele>
        <time>2010-06-27T08:24:48Z</time>
      </trkpt>
      <trkpt lat="45.9991" lon="6.94378">
        <ele>1448.8000488281</ele>
        <time>2010-06-27T08:24:56Z</time>
      </trkpt>
      <trkpt lat="45.9991" lon="6.94353">
        <ele>1446.4000244141</ele>
        <time>2010-06-27T08:25:04Z</time>
      </trkpt>
      <trkpt lat="45.99898" lon="6.94332">
        <ele>1444</ele>
        <time>2010-06-27T08:25:11Z</time>
      </trkpt>
      <trkpt lat="45.99884" lon="6.94315">
        <ele>1442.4000244141</ele>
        <time>2010-06-27T08:25:17Z</time>
      </trkpt>
      <trkpt lat="45.99878" lon="6.94288">
        <ele>1440.4000244141</ele>
        <time>2010-06-27T08:25:25Z</time>
      </trkpt>
      <trkpt lat="45.99874" lon="6.9426">
        <ele>1438.8000488281</ele>
        <time>2010-06-27T08:25:32Z</time>
      </trkpt>
      <trkpt lat="45.99871" lon="6.94235">
        <ele>1437.5999755859</ele>
        <time>2010-06-27T08:25:38Z</time>
      </trkpt>
      <trkpt lat="45.99865" lon="6.94206">
        <ele>1436</ele>
        <time>2010-06-27T08:25:45Z</time>
      </trkpt>
      <trkpt lat="45.99863" lon="6.94176">
        <ele>1434.1999511719</ele>
        <time>2010-06-27T08:25:52Z</time>
      </trkpt>
      <trkpt lat="45.99855" lon="6.94151">
        <ele>1433</ele>
        <time>2010-06-27T08:25:58Z</time>
      </trkpt>
      <trkpt lat="45.99843" lon="6.9413">
        <ele>1431.4000244141</ele>
        <time>2010-06-27T08:26:04Z</time>
      </trkpt>
      <trkpt lat="45.99833" lon="6.94106">
        <ele>1430</ele>
        <time>2010-06-27T08:26:10Z</time>
      </trkpt>
      <trkpt lat="45.99824" lon="6.94084">
        <ele>1428.5999755859</ele>
        <time>2010-06-27T08:26:15Z</time>
      </trkpt>
      <trkpt lat="45.99813" lon="6.94058">
        <ele>1427.1999511719</ele>
        <time>2010-06-27T08:26:21Z</time>
      </trkpt>
      <trkpt lat="45.99806" lon="6.94032">
        <ele>1425.8000488281</ele>
        <time>2010-06-27T08:26:27Z</time>
      </trkpt>
      <trkpt lat="45.998" lon="6.94005">
        <ele>1424.4000244141</ele>
        <time>2010-06-27T08:26:33Z</time>
      </trkpt>
      <trkpt lat="45.99791" lon="6.93979">
        <ele>1422.8000488281</ele>
        <time>2010-06-27T08:26:39Z</time>
      </trkpt>
      <trkpt lat="45.99781" lon="6.93954">
        <ele>1421.4000244141</ele>
        <time>2010-06-27T08:26:45Z</time>
      </trkpt>
      <trkpt lat="45.99768" lon="6.93933">
        <ele>1420</ele>
        <time>2010-06-27T08:26:51Z</time>
      </trkpt>
      <trkpt lat="45.99757" lon="6.93911">
        <ele>1418.4000244141</ele>
        <time>2010-06-27T08:26:57Z</time>
      </trkpt>
      <trkpt lat="45.99742" lon="6.93894">
        <ele>1416.8000488281</ele>
        <time>2010-06-27T08:27:03Z</time>
      </trkpt>
      <trkpt lat="45.99728" lon="6.93874">
        <ele>1415</ele>
        <time>2010-06-27T08:27:09Z</time>
      </trkpt>
      <trkpt lat="45.99714" lon="6.93852">
        <ele>1413.5999755859</ele>
        <time>2010-06-27T08:27:15Z</time>
      </trkpt>
      <trkpt lat="45.99699" lon="6.93834">
        <ele>1412</ele>
        <time>2010-06-27T08:27:21Z</time>
      </trkpt>
      <trkpt lat="45.99685" lon="6.93814">
        <ele>1410.4000244141</ele>
        <time>2010-06-27T08:27:27Z</time>
      </trkpt>
      <trkpt lat="45.99672" lon="6.93793">
        <ele>1408.8000488281</ele>
        <time>2010-06-27T08:27:33Z</time>
      </trkpt>
      <trkpt lat="45.99656" lon="6.93775">
        <ele>1407.4000244141</ele>
        <time>2010-06-27T08:27:39Z</time>
      </trkpt>
      <trkpt lat="45.99642" lon="6.93757">
        <ele>1406</ele>
        <time>2010-06-27T08:27:45Z</time>
      </trkpt>
      <trkpt lat="45.99627" lon="6.93742">
        <ele>1405.1999511719</ele>
        <time>2010-06-27T08:27:50Z</time>
      </trkpt>
      <trkpt lat="45.99615" lon="6.93722">
        <ele>1404.1999511719</ele>
        <time>2010-06-27T08:27:56Z</time>
      </trkpt>
      <trkpt lat="45.99607" lon="6.93696">
        <ele>1402.8000488281</ele>
        <time>2010-06-27T08:28:02Z</time>
      </trkpt>
      <trkpt lat="45.99596" lon="6.93673">
        <ele>1400.5999755859</ele>
        <time>2010-06-27T08:28:09Z</time>
      </trkpt>
      <trkpt lat="45.9958" lon="6.93656">
        <ele>1398.8000488281</ele>
        <time>2010-06-27T08:28:15Z</time>
      </trkpt>
      <trkpt lat="45.99564" lon="6.93638">
        <ele>1397</ele>
        <time>2010-06-27T08:28:21Z</time>
      </trkpt>
      <trkpt lat="45.9955" lon="6.93618">
        <ele>1395.1999511719</ele>
        <time>2010-06-27T08:28:27Z</time>
      </trkpt>
      <trkpt lat="45.99537" lon="6.93598">
        <ele>1394.1999511719</ele>
        <time>2010-06-27T08:28:32Z</time>
      </trkpt>
      <trkpt lat="45.99523" lon="6.93579">
        <ele>1392.5999755859</ele>
        <time>2010-06-27T08:28:38Z</time>
      </trkpt>
      <trkpt lat="45.9951" lon="6.93559">
        <ele>1391.1999511719</ele>
        <time>2010-06-27T08:28:44Z</time>
      </trkpt>
      <trkpt lat="45.99501" lon="6.93535">
        <ele>1389.8000488281</ele>
        <time>2010-06-27T08:28:50Z</time>
      </trkpt>
      <trkpt lat="45.99496" lon="6.9351">
        <ele>1388.4000244141</ele>
        <time>2010-06-27T08:28:56Z</time>
      </trkpt>
      <trkpt lat="45.99512" lon="6.93495">
        <ele>1386.8000488281</ele>
        <time>2010-06-27T08:29:03Z</time>
      </trkpt>
      <trkpt lat="45.99531" lon="6.93484">
        <ele>1385.4000244141</ele>
        <time>2010-06-27T08:29:10Z</time>
      </trkpt>
      <trkpt lat="45.99548" lon="6.93476">
        <ele>1384.4000244141</ele>
        <time>2010-06-27T08:29:16Z</time>
      </trkpt>
      <trkpt lat="45.99566" lon="6.93469">
        <ele>1383.4000244141</ele>
        <time>2010-06-27T08:29:22Z</time>
      </trkpt>
      <trkpt lat="45.99585" lon="6.93463">
        <ele>1382.4000244141</ele>
        <time>2010-06-27T08:29:29Z</time>
      </trkpt>
      <trkpt lat="45.99606" lon="6.93464">
        <ele>1381.5999755859</ele>
        <time>2010-06-27T08:29:36Z</time>
      </trkpt>
      <trkpt lat="45.99625" lon="6.93465">
        <ele>1380.8000488281</ele>
        <time>2010-06-27T08:29:43Z</time>
      </trkpt>
      <trkpt lat="45.99645" lon="6.93463">
        <ele>1380.1999511719</ele>
        <time>2010-06-27T08:29:50Z</time>
      </trkpt>
      <trkpt lat="45.99663" lon="6.9345">
        <ele>1379.5999755859</ele>
        <time>2010-06-27T08:29:57Z</time>
      </trkpt>
      <trkpt lat="45.9968" lon="6.93435">
        <ele>1379</ele>
        <time>2010-06-27T08:30:04Z</time>
      </trkpt>
      <trkpt lat="45.99697" lon="6.93419">
        <ele>1378</ele>
        <time>2010-06-27T08:30:11Z</time>
      </trkpt>
      <trkpt lat="45.99714" lon="6.93404">
        <ele>1377.1999511719</ele>
        <time>2010-06-27T08:30:18Z</time>
      </trkpt>
      <trkpt lat="45.99732" lon="6.93387">
        <ele>1376.5999755859</ele>
        <time>2010-06-27T08:30:25Z</time>
      </trkpt>
      <trkpt lat="45.99751" lon="6.93377">
        <ele>1376</ele>
        <time>2010-06-27T08:30:32Z</time>
      </trkpt>
      <trkpt lat="45.99767" lon="6.93364">
        <ele>1375.1999511719</ele>
        <time>2010-06-27T08:30:45Z</time>
      </trkpt>
      <trkpt lat="45.99768" lon="6.93361">
        <ele>1375</ele>
        <time>2010-06-27T08:30:47Z</time>
      </trkpt>
      <trkpt lat="45.9976" lon="6.93343">
        <ele>1375</ele>
        <time>2010-06-27T08:30:53Z</time>
      </trkpt>
      <trkpt lat="45.99752" lon="6.93329">
        <ele>1375</ele>
        <time>2010-06-27T08:30:57Z</time>
      </trkpt>
      <trkpt lat="45.99751" lon="6.93319">
        <ele>1375</ele>
        <time>2010-06-27T08:30:59Z</time>
      </trkpt>
      <trkpt lat="45.99744" lon="6.93295">
        <ele>1375</ele>
        <time>2010-06-27T08:31:05Z</time>
      </trkpt>
      <trkpt lat="45.99736" lon="6.93269">
        <ele>1375.4000244141</ele>
        <time>2010-06-27T08:31:12Z</time>
      </trkpt>
      <trkpt lat="45.99732" lon="6.93249">
        <ele>1375.5999755859</ele>
        <time>2010-06-27T08:31:20Z</time>
      </trkpt>
      <trkpt lat="45.9973" lon="6.93242">
        <ele>1375.8000488281</ele>
        <time>2010-06-27T08:31:23Z</time>
      </trkpt>
      <trkpt lat="45.99729" lon="6.93237">
        <ele>1375.5999755859</ele>
        <time>2010-06-27T08:31:25Z</time>
      </trkpt>
      <trkpt lat="45.99722" lon="6.93232">
        <ele>1376</ele>
        <time>2010-06-27T08:31:31Z</time>
      </trkpt>
      <trkpt lat="45.99715" lon="6.93226">
        <ele>1376.5999755859</ele>
        <time>2010-06-27T08:31:36Z</time>
      </trkpt>
      <trkpt lat="45.99713" lon="6.93225">
        <ele>1377</ele>
        <time>2010-06-27T08:31:38Z</time>
      </trkpt>
      <trkpt lat="45.99701" lon="6.93212">
        <ele>1379</ele>
        <time>2010-06-27T08:31:47Z</time>
      </trkpt>
      <trkpt lat="45.99687" lon="6.93194">
        <ele>1380.1999511719</ele>
        <time>2010-06-27T08:31:53Z</time>
      </trkpt>
      <trkpt lat="45.99676" lon="6.93173">
        <ele>1381</ele>
        <time>2010-06-27T08:31:59Z</time>
      </trkpt>
      <trkpt lat="45.9967" lon="6.93145">
        <ele>1381.5999755859</ele>
        <time>2010-06-27T08:32:06Z</time>
      </trkpt>
      <trkpt lat="45.99661" lon="6.93124">
        <ele>1383.4000244141</ele>
        <time>2010-06-27T08:32:12Z</time>
      </trkpt>
      <trkpt lat="45.99653" lon="6.93115">
        <ele>1384.1999511719</ele>
        <time>2010-06-27T08:32:17Z</time>
      </trkpt>
      <trkpt lat="45.9965" lon="6.93105">
        <ele>1385.1999511719</ele>
        <time>2010-06-27T08:32:20Z</time>
      </trkpt>
      <trkpt lat="45.99643" lon="6.93098">
        <ele>1387</ele>
        <time>2010-06-27T08:32:26Z</time>
      </trkpt>
      <trkpt lat="45.99641" lon="6.93093">
        <ele>1387.4000244141</ele>
        <time>2010-06-27T08:32:29Z</time>
      </trkpt>
      <trkpt lat="45.99637" lon="6.93084">
        <ele>1388.1999511719</ele>
        <time>2010-06-27T08:32:33Z</time>
      </trkpt>
      <trkpt lat="45.99628" lon="6.93075">
        <ele>1389.1999511719</ele>
        <time>2010-06-27T08:32:41Z</time>
      </trkpt>
      <trkpt lat="45.99626" lon="6.93064">
        <ele>1389.5999755859</ele>
        <time>2010-06-27T08:32:45Z</time>
      </trkpt>
      <trkpt lat="45.99624" lon="6.93056">
        <ele>1389.5999755859</ele>
        <time>2010-06-27T08:32:48Z</time>
      </trkpt>
      <trkpt lat="45.99624" lon="6.93054">
        <ele>1389.8000488281</ele>
        <time>2010-06-27T08:32:49Z</time>
      </trkpt>
      <trkpt lat="45.99619" lon="6.93043">
        <ele>1389.4000244141</ele>
        <time>2010-06-27T08:32:55Z</time>
      </trkpt>
      <trkpt lat="45.99618" lon="6.93041">
        <ele>1389.4000244141</ele>
        <time>2010-06-27T08:32:56Z</time>
      </trkpt>
      <trkpt lat="45.99611" lon="6.93016">
        <ele>1390</ele>
        <time>2010-06-27T08:33:08Z</time>
      </trkpt>
      <trkpt lat="45.99596" lon="6.92999">
        <ele>1392.5999755859</ele>
        <time>2010-06-27T08:33:23Z</time>
      </trkpt>
      <trkpt lat="45.99592" lon="6.92981">
        <ele>1394</ele>
        <time>2010-06-27T08:33:31Z</time>
      </trkpt>
      <trkpt lat="45.99589" lon="6.92974">
        <ele>1394.4000244141</ele>
        <time>2010-06-27T08:33:34Z</time>
      </trkpt>
      <trkpt lat="45.99577" lon="6.92952">
        <ele>1395</ele>
        <time>2010-06-27T08:33:41Z</time>
      </trkpt>
      <trkpt lat="45.99569" lon="6.92929">
        <ele>1395.5999755859</ele>
        <time>2010-06-27T08:33:48Z</time>
      </trkpt>
      <trkpt lat="45.99557" lon="6.92906">
        <ele>1396.4000244141</ele>
        <time>2010-06-27T08:33:56Z</time>
      </trkpt>
      <trkpt lat="45.99543" lon="6.92887">
        <ele>1397.8000488281</ele>
        <time>2010-06-27T08:34:03Z</time>
      </trkpt>
      <trkpt lat="45.9953" lon="6.92866">
        <ele>1398.8000488281</ele>
        <time>2010-06-27T08:34:10Z</time>
      </trkpt>
      <trkpt lat="45.99527" lon="6.92857">
        <ele>1399</ele>
        <time>2010-06-27T08:34:13Z</time>
      </trkpt>
      <trkpt lat="45.99527" lon="6.9284">
        <ele>1399.4000244141</ele>
        <time>2010-06-27T08:34:17Z</time>
      </trkpt>
      <trkpt lat="45.99518" lon="6.92816">
        <ele>1399.5999755859</ele>
        <time>2010-06-27T08:34:24Z</time>
      </trkpt>
      <trkpt lat="45.99509" lon="6.92806">
        <ele>1399.5999755859</ele>
        <time>2010-06-27T08:34:28Z</time>
      </trkpt>
      <trkpt lat="45.9951" lon="6.92798">
        <ele>1399.4000244141</ele>
        <time>2010-06-27T08:34:30Z</time>
      </trkpt>
      <trkpt lat="45.99514" lon="6.92788">
        <ele>1399.4000244141</ele>
        <time>2010-06-27T08:34:33Z</time>
      </trkpt>
      <trkpt lat="45.99517" lon="6.92777">
        <ele>1399</ele>
        <time>2010-06-27T08:34:38Z</time>
      </trkpt>
      <trkpt lat="45.99518" lon="6.92772">
        <ele>1398.5999755859</ele>
        <time>2010-06-27T08:34:48Z</time>
      </trkpt>
      <trkpt lat="45.99514" lon="6.92769">
        <ele>1396.1999511719</ele>
        <time>2010-06-27T08:36:43Z</time>
      </trkpt>
      <trkpt lat="45.99498" lon="6.92757">
        <ele>1396</ele>
        <time>2010-06-27T08:36:56Z</time>
      </trkpt>
      <trkpt lat="45.99489" lon="6.92754">
        <ele>1396</ele>
        <time>2010-06-27T08:37:02Z</time>
      </trkpt>
      <trkpt lat="45.99481" lon="6.92755">
        <ele>1395.8000488281</ele>
        <time>2010-06-27T08:37:05Z</time>
      </trkpt>
      <trkpt lat="45.99462" lon="6.92758">
        <ele>1395.8000488281</ele>
        <time>2010-06-27T08:37:11Z</time>
      </trkpt>
      <trkpt lat="45.99443" lon="6.92757">
        <ele>1396.1999511719</ele>
        <time>2010-06-27T08:37:17Z</time>
      </trkpt>
      <trkpt lat="45.99424" lon="6.92748">
        <ele>1396.1999511719</ele>
        <time>2010-06-27T08:37:24Z</time>
      </trkpt>
      <trkpt lat="45.99407" lon="6.92738">
        <ele>1396.1999511719</ele>
        <time>2010-06-27T08:37:30Z</time>
      </trkpt>
      <trkpt lat="45.9939" lon="6.92726">
        <ele>1396.1999511719</ele>
        <time>2010-06-27T08:37:37Z</time>
      </trkpt>
      <trkpt lat="45.99369" lon="6.9272">
        <ele>1396</ele>
        <time>2010-06-27T08:37:44Z</time>
      </trkpt>
      <trkpt lat="45.99349" lon="6.92722">
        <ele>1395.8000488281</ele>
        <time>2010-06-27T08:37:51Z</time>
      </trkpt>
      <trkpt lat="45.99331" lon="6.92721">
        <ele>1395.8000488281</ele>
        <time>2010-06-27T08:37:58Z</time>
      </trkpt>
      <trkpt lat="45.99314" lon="6.92712">
        <ele>1395.5999755859</ele>
        <time>2010-06-27T08:38:04Z</time>
      </trkpt>
      <trkpt lat="45.99298" lon="6.92701">
        <ele>1395.1999511719</ele>
        <time>2010-06-27T08:38:10Z</time>
      </trkpt>
      <trkpt lat="45.99279" lon="6.92694">
        <ele>1394.8000488281</ele>
        <time>2010-06-27T08:38:17Z</time>
      </trkpt>
      <trkpt lat="45.99271" lon="6.9269">
        <ele>1394.4000244141</ele>
        <time>2010-06-27T08:38:21Z</time>
      </trkpt>
      <trkpt lat="45.99261" lon="6.92683">
        <ele>1394.1999511719</ele>
        <time>2010-06-27T08:38:25Z</time>
      </trkpt>
      <trkpt lat="45.99241" lon="6.92682">
        <ele>1394.8000488281</ele>
        <time>2010-06-27T08:38:36Z</time>
      </trkpt>
      <trkpt lat="45.99239" lon="6.92682">
        <ele>1394.8000488281</ele>
        <time>2010-06-27T08:38:37Z</time>
      </trkpt>
      <trkpt lat="45.99229" lon="6.92679">
        <ele>1394.8000488281</ele>
        <time>2010-06-27T08:38:46Z</time>
      </trkpt>
      <trkpt lat="45.99228" lon="6.92678">
        <ele>1395</ele>
        <time>2010-06-27T08:38:47Z</time>
      </trkpt>
      <trkpt lat="45.99224" lon="6.92677">
        <ele>1395.4000244141</ele>
        <time>2010-06-27T08:38:52Z</time>
      </trkpt>
      <trkpt lat="45.99221" lon="6.92676">
        <ele>1395.5999755859</ele>
        <time>2010-06-27T08:38:54Z</time>
      </trkpt>
      <trkpt lat="45.99218" lon="6.92673">
        <ele>1395.5999755859</ele>
        <time>2010-06-27T08:38:57Z</time>
      </trkpt>
      <trkpt lat="45.99206" lon="6.92663">
        <ele>1396.1999511719</ele>
        <time>2010-06-27T08:39:04Z</time>
      </trkpt>
      <trkpt lat="45.99203" lon="6.92658">
        <ele>1396.4000244141</ele>
        <time>2010-06-27T08:39:06Z</time>
      </trkpt>
      <trkpt lat="45.99194" lon="6.92646">
        <ele>1396.5999755859</ele>
        <time>2010-06-27T08:39:11Z</time>
      </trkpt>
      <trkpt lat="45.99182" lon="6.92626">
        <ele>1397</ele>
        <time>2010-06-27T08:39:17Z</time>
      </trkpt>
      <trkpt lat="45.99181" lon="6.92627">
        <ele>1397</ele>
        <time>2010-06-27T08:39:18Z</time>
      </trkpt>
      <trkpt lat="45.99174" lon="6.92637">
        <ele>1396.8000488281</ele>
        <time>2010-06-27T08:39:22Z</time>
      </trkpt>
      <trkpt lat="45.99166" lon="6.92639">
        <ele>1397</ele>
        <time>2010-06-27T08:39:26Z</time>
      </trkpt>
      <trkpt lat="45.99162" lon="6.92637">
        <ele>1397</ele>
        <time>2010-06-27T08:39:28Z</time>
      </trkpt>
      <trkpt lat="45.99148" lon="6.9263">
        <ele>1397.4000244141</ele>
        <time>2010-06-27T08:39:33Z</time>
      </trkpt>
      <trkpt lat="45.99132" lon="6.92617">
        <ele>1397.5999755859</ele>
        <time>2010-06-27T08:39:40Z</time>
      </trkpt>
      <trkpt lat="45.99117" lon="6.92601">
        <ele>1398.4000244141</ele>
        <time>2010-06-27T08:39:48Z</time>
      </trkpt>
      <trkpt lat="45.99113" lon="6.92599">
        <ele>1398.4000244141</ele>
        <time>2010-06-27T08:39:50Z</time>
      </trkpt>
      <trkpt lat="45.99107" lon="6.92596">
        <ele>1398.5999755859</ele>
        <time>2010-06-27T08:39:55Z</time>
      </trkpt>
      <trkpt lat="45.99098" lon="6.92592">
        <ele>1399.1999511719</ele>
        <time>2010-06-27T08:40:01Z</time>
      </trkpt>
      <trkpt lat="45.99087" lon="6.92584">
        <ele>1399.8000488281</ele>
        <time>2010-06-27T08:40:09Z</time>
      </trkpt>
      <trkpt lat="45.99081" lon="6.92581">
        <ele>1400.4000244141</ele>
        <time>2010-06-27T08:40:13Z</time>
      </trkpt>
      <trkpt lat="45.99077" lon="6.9258">
        <ele>1400.5999755859</ele>
        <time>2010-06-27T08:40:15Z</time>
      </trkpt>
      <trkpt lat="45.99063" lon="6.92574">
        <ele>1402.1999511719</ele>
        <time>2010-06-27T08:40:24Z</time>
      </trkpt>
      <trkpt lat="45.99046" lon="6.92563">
        <ele>1404.5999755859</ele>
        <time>2010-06-27T08:40:33Z</time>
      </trkpt>
      <trkpt lat="45.99039" lon="6.92562">
        <ele>1405.5999755859</ele>
        <time>2010-06-27T08:40:36Z</time>
      </trkpt>
      <trkpt lat="45.99028" lon="6.92563">
        <ele>1407</ele>
        <time>2010-06-27T08:40:40Z</time>
      </trkpt>
      <trkpt lat="45.99025" lon="6.92563">
        <ele>1407.4000244141</ele>
        <time>2010-06-27T08:40:41Z</time>
      </trkpt>
      <trkpt lat="45.99007" lon="6.9256">
        <ele>1408.5999755859</ele>
        <time>2010-06-27T08:40:47Z</time>
      </trkpt>
      <trkpt lat="45.98989" lon="6.92553">
        <ele>1411</ele>
        <time>2010-06-27T08:40:57Z</time>
      </trkpt>
      <trkpt lat="45.98982" lon="6.92553">
        <ele>1412</ele>
        <time>2010-06-27T08:41:02Z</time>
      </trkpt>
      <trkpt lat="45.98973" lon="6.92545">
        <ele>1412.4000244141</ele>
        <time>2010-06-27T08:41:10Z</time>
      </trkpt>
      <trkpt lat="45.98955" lon="6.92538">
        <ele>1412.8000488281</ele>
        <time>2010-06-27T08:41:23Z</time>
      </trkpt>
      <trkpt lat="45.98952" lon="6.92533">
        <ele>1413.1999511719</ele>
        <time>2010-06-27T08:41:27Z</time>
      </trkpt>
      <trkpt lat="45.98948" lon="6.92529">
        <ele>1413.4000244141</ele>
        <time>2010-06-27T08:41:30Z</time>
      </trkpt>
      <trkpt lat="45.98938" lon="6.92527">
        <ele>1413.8000488281</ele>
        <time>2010-06-27T08:41:34Z</time>
      </trkpt>
      <trkpt lat="45.98923" lon="6.92526">
        <ele>1414.5999755859</ele>
        <time>2010-06-27T08:41:39Z</time>
      </trkpt>
      <trkpt lat="45.98918" lon="6.92528">
        <ele>1415</ele>
        <time>2010-06-27T08:41:41Z</time>
      </trkpt>
      <trkpt lat="45.98914" lon="6.92529">
        <ele>1415.4000244141</ele>
        <time>2010-06-27T08:41:43Z</time>
      </trkpt>
      <trkpt lat="45.98899" lon="6.9253">
        <ele>1417</ele>
        <time>2010-06-27T08:41:49Z</time>
      </trkpt>
      <trkpt lat="45.98885" lon="6.92529">
        <ele>1418.4000244141</ele>
        <time>2010-06-27T08:41:55Z</time>
      </trkpt>
      <trkpt lat="45.9888" lon="6.92528">
        <ele>1418.8000488281</ele>
        <time>2010-06-27T08:41:57Z</time>
      </trkpt>
      <trkpt lat="45.98862" lon="6.9253">
        <ele>1420.4000244141</ele>
        <time>2010-06-27T08:42:04Z</time>
      </trkpt>
      <trkpt lat="45.98851" lon="6.92532">
        <ele>1421.1999511719</ele>
        <time>2010-06-27T08:42:09Z</time>
      </trkpt>
      <trkpt lat="45.98845" lon="6.92528">
        <ele>1421.8000488281</ele>
        <time>2010-06-27T08:42:12Z</time>
      </trkpt>
      <trkpt lat="45.98844" lon="6.92525">
        <ele>1422.1999511719</ele>
        <time>2010-06-27T08:42:14Z</time>
      </trkpt>
      <trkpt lat="45.98843" lon="6.92523">
        <ele>1422.4000244141</ele>
        <time>2010-06-27T08:42:16Z</time>
      </trkpt>
      <trkpt lat="45.98831" lon="6.92512">
        <ele>1424.4000244141</ele>
        <time>2010-06-27T08:42:25Z</time>
      </trkpt>
      <trkpt lat="45.98824" lon="6.92509">
        <ele>1425.1999511719</ele>
        <time>2010-06-27T08:42:31Z</time>
      </trkpt>
      <trkpt lat="45.98822" lon="6.92507">
        <ele>1425.1999511719</ele>
        <time>2010-06-27T08:42:33Z</time>
      </trkpt>
      <trkpt lat="45.98815" lon="6.92506">
        <ele>1425.8000488281</ele>
        <time>2010-06-27T08:42:37Z</time>
      </trkpt>
      <trkpt lat="45.98813" lon="6.92505">
        <ele>1426</ele>
        <time>2010-06-27T08:42:39Z</time>
      </trkpt>
      <trkpt lat="45.98797" lon="6.92499">
        <ele>1427.1999511719</ele>
        <time>2010-06-27T08:42:49Z</time>
      </trkpt>
      <trkpt lat="45.9878" lon="6.92484">
        <ele>1428.5999755859</ele>
        <time>2010-06-27T08:42:58Z</time>
      </trkpt>
      <trkpt lat="45.98764" lon="6.9247">
        <ele>1429.5999755859</ele>
        <time>2010-06-27T08:43:06Z</time>
      </trkpt>
      <trkpt lat="45.98746" lon="6.92463">
        <ele>1430.5999755859</ele>
        <time>2010-06-27T08:43:14Z</time>
      </trkpt>
      <trkpt lat="45.98729" lon="6.92451">
        <ele>1431.5999755859</ele>
        <time>2010-06-27T08:43:22Z</time>
      </trkpt>
      <trkpt lat="45.98711" lon="6.92445">
        <ele>1433.4000244141</ele>
        <time>2010-06-27T08:43:35Z</time>
      </trkpt>
      <trkpt lat="45.987" lon="6.92436">
        <ele>1436</ele>
        <time>2010-06-27T08:43:47Z</time>
      </trkpt>
      <trkpt lat="45.98697" lon="6.92431">
        <ele>1437</ele>
        <time>2010-06-27T08:43:52Z</time>
      </trkpt>
      <trkpt lat="45.98695" lon="6.9243">
        <ele>1437.4000244141</ele>
        <time>2010-06-27T08:43:53Z</time>
      </trkpt>
      <trkpt lat="45.9869" lon="6.92427">
        <ele>1438.1999511719</ele>
        <time>2010-06-27T08:43:57Z</time>
      </trkpt>
      <trkpt lat="45.98676" lon="6.92422">
        <ele>1439.5999755859</ele>
        <time>2010-06-27T08:44:03Z</time>
      </trkpt>
      <trkpt lat="45.98658" lon="6.92412">
        <ele>1441.1999511719</ele>
        <time>2010-06-27T08:44:09Z</time>
      </trkpt>
      <trkpt lat="45.98642" lon="6.92406">
        <ele>1442.5999755859</ele>
        <time>2010-06-27T08:44:15Z</time>
      </trkpt>
      <trkpt lat="45.98625" lon="6.92395">
        <ele>1443.8000488281</ele>
        <time>2010-06-27T08:44:22Z</time>
      </trkpt>
      <trkpt lat="45.98608" lon="6.92382">
        <ele>1445.1999511719</ele>
        <time>2010-06-27T08:44:31Z</time>
      </trkpt>
      <trkpt lat="45.98589" lon="6.92378">
        <ele>1446</ele>
        <time>2010-06-27T08:44:40Z</time>
      </trkpt>
      <trkpt lat="45.98587" lon="6.92376">
        <ele>1446.1999511719</ele>
        <time>2010-06-27T08:44:41Z</time>
      </trkpt>
      <trkpt lat="45.9858" lon="6.92362">
        <ele>1446.5999755859</ele>
        <time>2010-06-27T08:44:46Z</time>
      </trkpt>
      <trkpt lat="45.98578" lon="6.92359">
        <ele>1446.8000488281</ele>
        <time>2010-06-27T08:44:47Z</time>
      </trkpt>
      <trkpt lat="45.98568" lon="6.92348">
        <ele>1447.1999511719</ele>
        <time>2010-06-27T08:44:52Z</time>
      </trkpt>
      <trkpt lat="45.98561" lon="6.92343">
        <ele>1447.5999755859</ele>
        <time>2010-06-27T08:44:55Z</time>
      </trkpt>
      <trkpt lat="45.98554" lon="6.92339">
        <ele>1448</ele>
        <time>2010-06-27T08:44:58Z</time>
      </trkpt>
      <trkpt lat="45.98546" lon="6.92333">
        <ele>1448.4000244141</ele>
        <time>2010-06-27T08:45:03Z</time>
      </trkpt>
      <trkpt lat="45.98544" lon="6.92331">
        <ele>1448.8000488281</ele>
        <time>2010-06-27T08:45:06Z</time>
      </trkpt>
      <trkpt lat="45.9853" lon="6.92313">
        <ele>1451.5999755859</ele>
        <time>2010-06-27T08:45:20Z</time>
      </trkpt>
      <trkpt lat="45.98529" lon="6.92312">
        <ele>1451.8000488281</ele>
        <time>2010-06-27T08:45:21Z</time>
      </trkpt>
      <trkpt lat="45.98514" lon="6.92305">
        <ele>1454.5999755859</ele>
        <time>2010-06-27T08:45:35Z</time>
      </trkpt>
      <trkpt lat="45.98513" lon="6.92305">
        <ele>1455</ele>
        <time>2010-06-27T08:45:36Z</time>
      </trkpt>
      <trkpt lat="45.985" lon="6.92298">
        <ele>1456.4000244141</ele>
        <time>2010-06-27T08:45:43Z</time>
      </trkpt>
      <trkpt lat="45.98499" lon="6.92298">
        <ele>1456.4000244141</ele>
        <time>2010-06-27T08:45:44Z</time>
      </trkpt>
      <trkpt lat="45.98496" lon="6.92297">
        <ele>1457</ele>
        <time>2010-06-27T08:45:46Z</time>
      </trkpt>
      <trkpt lat="45.98491" lon="6.92293">
        <ele>1457.4000244141</ele>
        <time>2010-06-27T08:45:48Z</time>
      </trkpt>
      <trkpt lat="45.98479" lon="6.92293">
        <ele>1458.5999755859</ele>
        <time>2010-06-27T08:45:52Z</time>
      </trkpt>
      <trkpt lat="45.98468" lon="6.92288">
        <ele>1458.8000488281</ele>
        <time>2010-06-27T08:45:57Z</time>
      </trkpt>
      <trkpt lat="45.98465" lon="6.92278">
        <ele>1460.4000244141</ele>
        <time>2010-06-27T08:46:04Z</time>
      </trkpt>
      <trkpt lat="45.98462" lon="6.92272">
        <ele>1461.1999511719</ele>
        <time>2010-06-27T08:46:10Z</time>
      </trkpt>
      <trkpt lat="45.98458" lon="6.9227">
        <ele>1462.1999511719</ele>
        <time>2010-06-27T08:46:14Z</time>
      </trkpt>
      <trkpt lat="45.98454" lon="6.92265">
        <ele>1463.8000488281</ele>
        <time>2010-06-27T08:46:19Z</time>
      </trkpt>
      <trkpt lat="45.98452" lon="6.92265">
        <ele>1464</ele>
        <time>2010-06-27T08:46:20Z</time>
      </trkpt>
      <trkpt lat="45.9845" lon="6.92262">
        <ele>1464.5999755859</ele>
        <time>2010-06-27T08:46:23Z</time>
      </trkpt>
      <trkpt lat="45.98443" lon="6.9226">
        <ele>1465.8000488281</ele>
        <time>2010-06-27T08:46:27Z</time>
      </trkpt>
      <trkpt lat="45.98441" lon="6.92255">
        <ele>1466</ele>
        <time>2010-06-27T08:46:29Z</time>
      </trkpt>
      <trkpt lat="45.98439" lon="6.9225">
        <ele>1466.8000488281</ele>
        <time>2010-06-27T08:46:33Z</time>
      </trkpt>
      <trkpt lat="45.98426" lon="6.92233">
        <ele>1467.4000244141</ele>
        <time>2010-06-27T08:46:42Z</time>
      </trkpt>
      <trkpt lat="45.9841" lon="6.92216">
        <ele>1467.5999755859</ele>
        <time>2010-06-27T08:46:49Z</time>
      </trkpt>
      <trkpt lat="45.98399" lon="6.92196">
        <ele>1467.4000244141</ele>
        <time>2010-06-27T08:46:56Z</time>
      </trkpt>
      <trkpt lat="45.98398" lon="6.92193">
        <ele>1467.4000244141</ele>
        <time>2010-06-27T08:46:57Z</time>
      </trkpt>
      <trkpt lat="45.98389" lon="6.92181">
        <ele>1467.4000244141</ele>
        <time>2010-06-27T08:47:02Z</time>
      </trkpt>
      <trkpt lat="45.98384" lon="6.92173">
        <ele>1467.5999755859</ele>
        <time>2010-06-27T08:47:06Z</time>
      </trkpt>
      <trkpt lat="45.98379" lon="6.92163">
        <ele>1467.8000488281</ele>
        <time>2010-06-27T08:47:10Z</time>
      </trkpt>
      <trkpt lat="45.98373" lon="6.92151">
        <ele>1467.8000488281</ele>
        <time>2010-06-27T08:47:14Z</time>
      </trkpt>
      <trkpt lat="45.98369" lon="6.92146">
        <ele>1468</ele>
        <time>2010-06-27T08:47:17Z</time>
      </trkpt>
      <trkpt lat="45.98358" lon="6.92136">
        <ele>1468.1999511719</ele>
        <time>2010-06-27T08:47:26Z</time>
      </trkpt>
      <trkpt lat="45.98347" lon="6.92127">
        <ele>1468.5999755859</ele>
        <time>2010-06-27T08:47:34Z</time>
      </trkpt>
      <trkpt lat="45.98341" lon="6.92125">
        <ele>1468.8000488281</ele>
        <time>2010-06-27T08:47:37Z</time>
      </trkpt>
      <trkpt lat="45.98335" lon="6.92121">
        <ele>1469.1999511719</ele>
        <time>2010-06-27T08:47:41Z</time>
      </trkpt>
      <trkpt lat="45.98332" lon="6.92117">
        <ele>1470.1999511719</ele>
        <time>2010-06-27T08:47:45Z</time>
      </trkpt>
      <trkpt lat="45.9833" lon="6.92115">
        <ele>1470.5999755859</ele>
        <time>2010-06-27T08:47:47Z</time>
      </trkpt>
      <trkpt lat="45.98327" lon="6.9211">
        <ele>1471.1999511719</ele>
        <time>2010-06-27T08:47:51Z</time>
      </trkpt>
      <trkpt lat="45.98323" lon="6.92101">
        <ele>1471.8000488281</ele>
        <time>2010-06-27T08:47:57Z</time>
      </trkpt>
      <trkpt lat="45.98316" lon="6.92091">
        <ele>1472.5999755859</ele>
        <time>2010-06-27T08:48:04Z</time>
      </trkpt>
      <trkpt lat="45.98315" lon="6.92091">
        <ele>1472.5999755859</ele>
        <time>2010-06-27T08:48:05Z</time>
      </trkpt>
      <trkpt lat="45.98309" lon="6.92085">
        <ele>1473</ele>
        <time>2010-06-27T08:48:11Z</time>
      </trkpt>
      <trkpt lat="45.98306" lon="6.92083">
        <ele>1473.5999755859</ele>
        <time>2010-06-27T08:48:14Z</time>
      </trkpt>
      <trkpt lat="45.983" lon="6.92078">
        <ele>1474.1999511719</ele>
        <time>2010-06-27T08:48:18Z</time>
      </trkpt>
      <trkpt lat="45.983" lon="6.92076">
        <ele>1474.4000244141</ele>
        <time>2010-06-27T08:48:19Z</time>
      </trkpt>
      <trkpt lat="45.98299" lon="6.92073">
        <ele>1474.5999755859</ele>
        <time>2010-06-27T08:48:21Z</time>
      </trkpt>
      <trkpt lat="45.98294" lon="6.92064">
        <ele>1475.8000488281</ele>
        <time>2010-06-27T08:48:27Z</time>
      </trkpt>
      <trkpt lat="45.98288" lon="6.92056">
        <ele>1477.5999755859</ele>
        <time>2010-06-27T08:48:34Z</time>
      </trkpt>
      <trkpt lat="45.98274" lon="6.92039">
        <ele>1480.8000488281</ele>
        <time>2010-06-27T08:48:45Z</time>
      </trkpt>
      <trkpt lat="45.98262" lon="6.9203">
        <ele>1483.5999755859</ele>
        <time>2010-06-27T08:48:55Z</time>
      </trkpt>
      <trkpt lat="45.98262" lon="6.92025">
        <ele>1484.5999755859</ele>
        <time>2010-06-27T08:48:59Z</time>
      </trkpt>
      <trkpt lat="45.98249" lon="6.92013">
        <ele>1485.4000244141</ele>
        <time>2010-06-27T08:49:05Z</time>
      </trkpt>
      <trkpt lat="45.98245" lon="6.92013">
        <ele>1485.5999755859</ele>
        <time>2010-06-27T08:49:06Z</time>
      </trkpt>
      <trkpt lat="45.98244" lon="6.92011">
        <ele>1486</ele>
        <time>2010-06-27T08:49:09Z</time>
      </trkpt>
      <trkpt lat="45.9824" lon="6.92003">
        <ele>1487.4000244141</ele>
        <time>2010-06-27T08:49:16Z</time>
      </trkpt>
      <trkpt lat="45.98234" lon="6.91995">
        <ele>1487.8000488281</ele>
        <time>2010-06-27T08:49:21Z</time>
      </trkpt>
      <trkpt lat="45.98234" lon="6.91993">
        <ele>1488</ele>
        <time>2010-06-27T08:49:22Z</time>
      </trkpt>
      <trkpt lat="45.98219" lon="6.9198">
        <ele>1489</ele>
        <time>2010-06-27T08:49:33Z</time>
      </trkpt>
      <trkpt lat="45.98219" lon="6.91979">
        <ele>1489.1999511719</ele>
        <time>2010-06-27T08:49:34Z</time>
      </trkpt>
      <trkpt lat="45.98214" lon="6.91975">
        <ele>1489.5999755859</ele>
        <time>2010-06-27T08:49:37Z</time>
      </trkpt>
      <trkpt lat="45.98203" lon="6.9197">
        <ele>1490.8000488281</ele>
        <time>2010-06-27T08:49:43Z</time>
      </trkpt>
      <trkpt lat="45.98199" lon="6.91967">
        <ele>1491.4000244141</ele>
        <time>2010-06-27T08:49:47Z</time>
      </trkpt>
      <trkpt lat="45.98196" lon="6.91966">
        <ele>1491.5999755859</ele>
        <time>2010-06-27T08:49:48Z</time>
      </trkpt>
      <trkpt lat="45.98185" lon="6.91956">
        <ele>1492.1999511719</ele>
        <time>2010-06-27T08:49:53Z</time>
      </trkpt>
      <trkpt lat="45.9818" lon="6.91952">
        <ele>1492.1999511719</ele>
        <time>2010-06-27T08:49:55Z</time>
      </trkpt>
      <trkpt lat="45.9817" lon="6.91939">
        <ele>1492.1999511719</ele>
        <time>2010-06-27T08:50:01Z</time>
      </trkpt>
      <trkpt lat="45.98166" lon="6.91934">
        <ele>1492.1999511719</ele>
        <time>2010-06-27T08:50:03Z</time>
      </trkpt>
      <trkpt lat="45.98159" lon="6.91925">
        <ele>1492.1999511719</ele>
        <time>2010-06-27T08:50:07Z</time>
      </trkpt>
      <trkpt lat="45.98154" lon="6.91921">
        <ele>1492.1999511719</ele>
        <time>2010-06-27T08:50:09Z</time>
      </trkpt>
      <trkpt lat="45.98144" lon="6.91901">
        <ele>1492</ele>
        <time>2010-06-27T08:50:15Z</time>
      </trkpt>
      <trkpt lat="45.98129" lon="6.91886">
        <ele>1491.5999755859</ele>
        <time>2010-06-27T08:50:24Z</time>
      </trkpt>
      <trkpt lat="45.98121" lon="6.91874">
        <ele>1491.4000244141</ele>
        <time>2010-06-27T08:50:29Z</time>
      </trkpt>
      <trkpt lat="45.98121" lon="6.91872">
        <ele>1491.1999511719</ele>
        <time>2010-06-27T08:50:30Z</time>
      </trkpt>
      <trkpt lat="45.98121" lon="6.91866">
        <ele>1491</ele>
        <time>2010-06-27T08:50:33Z</time>
      </trkpt>
      <trkpt lat="45.98113" lon="6.91842">
        <ele>1490.1999511719</ele>
        <time>2010-06-27T08:50:43Z</time>
      </trkpt>
      <trkpt lat="45.98105" lon="6.91834">
        <ele>1490</ele>
        <time>2010-06-27T08:50:47Z</time>
      </trkpt>
      <trkpt lat="45.981" lon="6.91833">
        <ele>1489.8000488281</ele>
        <time>2010-06-27T08:50:50Z</time>
      </trkpt>
      <trkpt lat="45.98095" lon="6.91833">
        <ele>1489.8000488281</ele>
        <time>2010-06-27T08:50:53Z</time>
      </trkpt>
      <trkpt lat="45.98092" lon="6.91828">
        <ele>1489.5999755859</ele>
        <time>2010-06-27T08:50:55Z</time>
      </trkpt>
      <trkpt lat="45.98089" lon="6.91824">
        <ele>1489.5999755859</ele>
        <time>2010-06-27T08:50:57Z</time>
      </trkpt>
      <trkpt lat="45.98084" lon="6.91815">
        <ele>1489.4000244141</ele>
        <time>2010-06-27T08:51:01Z</time>
      </trkpt>
      <trkpt lat="45.98081" lon="6.91807">
        <ele>1489.4000244141</ele>
        <time>2010-06-27T08:51:04Z</time>
      </trkpt>
      <trkpt lat="45.9808" lon="6.91806">
        <ele>1489.4000244141</ele>
        <time>2010-06-27T08:51:05Z</time>
      </trkpt>
      <trkpt lat="45.98071" lon="6.91793">
        <ele>1489.4000244141</ele>
        <time>2010-06-27T08:51:11Z</time>
      </trkpt>
      <trkpt lat="45.98061" lon="6.91786">
        <ele>1489.1999511719</ele>
        <time>2010-06-27T08:51:16Z</time>
      </trkpt>
      <trkpt lat="45.98055" lon="6.9178">
        <ele>1489.1999511719</ele>
        <time>2010-06-27T08:51:20Z</time>
      </trkpt>
      <trkpt lat="45.98052" lon="6.91776">
        <ele>1489.1999511719</ele>
        <time>2010-06-27T08:51:24Z</time>
      </trkpt>
      <trkpt lat="45.98048" lon="6.91771">
        <ele>1489</ele>
        <time>2010-06-27T08:51:28Z</time>
      </trkpt>
      <trkpt lat="45.98042" lon="6.91764">
        <ele>1489.5999755859</ele>
        <time>2010-06-27T08:51:35Z</time>
      </trkpt>
      <trkpt lat="45.98042" lon="6.91762">
        <ele>1489.5999755859</ele>
        <time>2010-06-27T08:51:36Z</time>
      </trkpt>
      <trkpt lat="45.98037" lon="6.91758">
        <ele>1490.4000244141</ele>
        <time>2010-06-27T08:51:44Z</time>
      </trkpt>
      <trkpt lat="45.98037" lon="6.9175">
        <ele>1490.8000488281</ele>
        <time>2010-06-27T08:51:49Z</time>
      </trkpt>
      <trkpt lat="45.98035" lon="6.91747">
        <ele>1491.4000244141</ele>
        <time>2010-06-27T08:51:52Z</time>
      </trkpt>
      <trkpt lat="45.98033" lon="6.91744">
        <ele>1491.4000244141</ele>
        <time>2010-06-27T08:51:54Z</time>
      </trkpt>
      <trkpt lat="45.98029" lon="6.91735">
        <ele>1491.4000244141</ele>
        <time>2010-06-27T08:51:58Z</time>
      </trkpt>
      <trkpt lat="45.98029" lon="6.91733">
        <ele>1491.5999755859</ele>
        <time>2010-06-27T08:51:59Z</time>
      </trkpt>
      <trkpt lat="45.98019" lon="6.9173">
        <ele>1491.8000488281</ele>
        <time>2010-06-27T08:52:04Z</time>
      </trkpt>
      <trkpt lat="45.98012" lon="6.91729">
        <ele>1491.8000488281</ele>
        <time>2010-06-27T08:52:06Z</time>
      </trkpt>
      <trkpt lat="45.98004" lon="6.91717">
        <ele>1491.8000488281</ele>
        <time>2010-06-27T08:52:12Z</time>
      </trkpt>
      <trkpt lat="45.9799" lon="6.91695">
        <ele>1492</ele>
        <time>2010-06-27T08:52:21Z</time>
      </trkpt>
      <trkpt lat="45.9799" lon="6.91695">
        <ele>1492</ele>
        <time>2010-06-27T08:52:22Z</time>
      </trkpt>
      <trkpt lat="45.97979" lon="6.91675">
        <ele>1492</ele>
        <time>2010-06-27T08:52:33Z</time>
      </trkpt>
      <trkpt lat="45.97963" lon="6.91662">
        <ele>1492.1999511719</ele>
        <time>2010-06-27T08:52:41Z</time>
      </trkpt>
      <trkpt lat="45.97953" lon="6.91655">
        <ele>1492</ele>
        <time>2010-06-27T08:52:48Z</time>
      </trkpt>
      <trkpt lat="45.97949" lon="6.91647">
        <ele>1491.8000488281</ele>
        <time>2010-06-27T08:52:52Z</time>
      </trkpt>
      <trkpt lat="45.97948" lon="6.91645">
        <ele>1491.5999755859</ele>
        <time>2010-06-27T08:52:53Z</time>
      </trkpt>
      <trkpt lat="45.97943" lon="6.91637">
        <ele>1491.1999511719</ele>
        <time>2010-06-27T08:52:59Z</time>
      </trkpt>
      <trkpt lat="45.97943" lon="6.91622">
        <ele>1490.5999755859</ele>
        <time>2010-06-27T08:53:04Z</time>
      </trkpt>
      <trkpt lat="45.97945" lon="6.91613">
        <ele>1490.1999511719</ele>
        <time>2010-06-27T08:53:07Z</time>
      </trkpt>
      <trkpt lat="45.97946" lon="6.91612">
        <ele>1490</ele>
        <time>2010-06-27T08:53:08Z</time>
      </trkpt>
      <trkpt lat="45.9795" lon="6.91598">
        <ele>1488.8000488281</ele>
        <time>2010-06-27T08:53:15Z</time>
      </trkpt>
      <trkpt lat="45.9795" lon="6.91597">
        <ele>1488.5999755859</ele>
        <time>2010-06-27T08:53:16Z</time>
      </trkpt>
      <trkpt lat="45.97946" lon="6.91596">
        <ele>1487.8000488281</ele>
        <time>2010-06-27T08:53:20Z</time>
      </trkpt>
      <trkpt lat="45.97943" lon="6.91591">
        <ele>1486.8000488281</ele>
        <time>2010-06-27T08:53:26Z</time>
      </trkpt>
      <trkpt lat="45.97938" lon="6.91589">
        <ele>1486</ele>
        <time>2010-06-27T08:53:31Z</time>
      </trkpt>
      <trkpt lat="45.97933" lon="6.91587">
        <ele>1485.4000244141</ele>
        <time>2010-06-27T08:53:34Z</time>
      </trkpt>
      <trkpt lat="45.97932" lon="6.91586">
        <ele>1485.4000244141</ele>
        <time>2010-06-27T08:53:35Z</time>
      </trkpt>
      <trkpt lat="45.97917" lon="6.91585">
        <ele>1484.5999755859</ele>
        <time>2010-06-27T08:53:41Z</time>
      </trkpt>
      <trkpt lat="45.97915" lon="6.91587">
        <ele>1484.4000244141</ele>
        <time>2010-06-27T08:53:43Z</time>
      </trkpt>
      <trkpt lat="45.9791" lon="6.91591">
        <ele>1484.1999511719</ele>
        <time>2010-06-27T08:53:46Z</time>
      </trkpt>
      <trkpt lat="45.97897" lon="6.91592">
        <ele>1483.1999511719</ele>
        <time>2010-06-27T08:53:52Z</time>
      </trkpt>
      <trkpt lat="45.97886" lon="6.91595">
        <ele>1482.5999755859</ele>
        <time>2010-06-27T08:53:56Z</time>
      </trkpt>
      <trkpt lat="45.9788" lon="6.91596">
        <ele>1482</ele>
        <time>2010-06-27T08:53:58Z</time>
      </trkpt>
      <trkpt lat="45.97869" lon="6.91594">
        <ele>1480.4000244141</ele>
        <time>2010-06-27T08:54:05Z</time>
      </trkpt>
      <trkpt lat="45.97861" lon="6.91592">
        <ele>1479.1999511719</ele>
        <time>2010-06-27T08:54:10Z</time>
      </trkpt>
      <trkpt lat="45.97857" lon="6.9159">
        <ele>1478.4000244141</ele>
        <time>2010-06-27T08:54:14Z</time>
      </trkpt>
      <trkpt lat="45.97851" lon="6.91582">
        <ele>1476.8000488281</ele>
        <time>2010-06-27T08:54:20Z</time>
      </trkpt>
      <trkpt lat="45.97855" lon="6.91573">
        <ele>1476.1999511719</ele>
        <time>2010-06-27T08:54:23Z</time>
      </trkpt>
      <trkpt lat="45.97852" lon="6.91557">
        <ele>1474.5999755859</ele>
        <time>2010-06-27T08:54:29Z</time>
      </trkpt>
      <trkpt lat="45.97846" lon="6.91548">
        <ele>1473.1999511719</ele>
        <time>2010-06-27T08:54:34Z</time>
      </trkpt>
      <trkpt lat="45.9784" lon="6.91538">
        <ele>1472.5999755859</ele>
        <time>2010-06-27T08:54:37Z</time>
      </trkpt>
      <trkpt lat="45.97834" lon="6.91533">
        <ele>1472</ele>
        <time>2010-06-27T08:54:40Z</time>
      </trkpt>
      <trkpt lat="45.97825" lon="6.9152">
        <ele>1470.1999511719</ele>
        <time>2010-06-27T08:54:47Z</time>
      </trkpt>
      <trkpt lat="45.97818" lon="6.91508">
        <ele>1468.8000488281</ele>
        <time>2010-06-27T08:54:52Z</time>
      </trkpt>
      <trkpt lat="45.97815" lon="6.91499">
        <ele>1467.8000488281</ele>
        <time>2010-06-27T08:54:56Z</time>
      </trkpt>
      <trkpt lat="45.97808" lon="6.91485">
        <ele>1466.4000244141</ele>
        <time>2010-06-27T08:55:02Z</time>
      </trkpt>
      <trkpt lat="45.97808" lon="6.91484">
        <ele>1466.1999511719</ele>
        <time>2010-06-27T08:55:03Z</time>
      </trkpt>
      <trkpt lat="45.97805" lon="6.91477">
        <ele>1465.1999511719</ele>
        <time>2010-06-27T08:55:08Z</time>
      </trkpt>
      <trkpt lat="45.978" lon="6.91462">
        <ele>1463.5999755859</ele>
        <time>2010-06-27T08:55:18Z</time>
      </trkpt>
      <trkpt lat="45.978" lon="6.91458">
        <ele>1463.1999511719</ele>
        <time>2010-06-27T08:55:20Z</time>
      </trkpt>
      <trkpt lat="45.97797" lon="6.91454">
        <ele>1462.5999755859</ele>
        <time>2010-06-27T08:55:24Z</time>
      </trkpt>
      <trkpt lat="45.97789" lon="6.91434">
        <ele>1461</ele>
        <time>2010-06-27T08:55:38Z</time>
      </trkpt>
      <trkpt lat="45.97789" lon="6.91432">
        <ele>1460.8000488281</ele>
        <time>2010-06-27T08:55:39Z</time>
      </trkpt>
      <trkpt lat="45.97786" lon="6.91427">
        <ele>1460.5999755859</ele>
        <time>2010-06-27T08:55:42Z</time>
      </trkpt>
      <trkpt lat="45.97786" lon="6.91426">
        <ele>1460.5999755859</ele>
        <time>2010-06-27T08:55:43Z</time>
      </trkpt>
      <trkpt lat="45.97782" lon="6.91411">
        <ele>1460</ele>
        <time>2010-06-27T08:55:52Z</time>
      </trkpt>
      <trkpt lat="45.97781" lon="6.91408">
        <ele>1459.8000488281</ele>
        <time>2010-06-27T08:55:54Z</time>
      </trkpt>
      <trkpt lat="45.97773" lon="6.91384">
        <ele>1459.4000244141</ele>
        <time>2010-06-27T08:56:07Z</time>
      </trkpt>
      <trkpt lat="45.97769" lon="6.91377">
        <ele>1459.4000244141</ele>
        <time>2010-06-27T08:56:11Z</time>
      </trkpt>
      <trkpt lat="45.97762" lon="6.9136">
        <ele>1460.1999511719</ele>
        <time>2010-06-27T08:56:21Z</time>
      </trkpt>
      <trkpt lat="45.9776" lon="6.91357">
        <ele>1460.4000244141</ele>
        <time>2010-06-27T08:56:24Z</time>
      </trkpt>
      <trkpt lat="45.97752" lon="6.9134">
        <ele>1461.4000244141</ele>
        <time>2010-06-27T08:56:33Z</time>
      </trkpt>
      <trkpt lat="45.97748" lon="6.91324">
        <ele>1462.5999755859</ele>
        <time>2010-06-27T08:56:41Z</time>
      </trkpt>
      <trkpt lat="45.97748" lon="6.91323">
        <ele>1462.8000488281</ele>
        <time>2010-06-27T08:56:43Z</time>
      </trkpt>
      <trkpt lat="45.97746" lon="6.91321">
        <ele>1463.4000244141</ele>
        <time>2010-06-27T08:56:46Z</time>
      </trkpt>
      <trkpt lat="45.97744" lon="6.91318">
        <ele>1463.8000488281</ele>
        <time>2010-06-27T08:56:48Z</time>
      </trkpt>
      <trkpt lat="45.97729" lon="6.91298">
        <ele>1466</ele>
        <time>2010-06-27T08:57:01Z</time>
      </trkpt>
      <trkpt lat="45.97722" lon="6.91285">
        <ele>1467.4000244141</ele>
        <time>2010-06-27T08:57:11Z</time>
      </trkpt>
      <trkpt lat="45.97719" lon="6.9128">
        <ele>1467.8000488281</ele>
        <time>2010-06-27T08:57:15Z</time>
      </trkpt>
      <trkpt lat="45.97717" lon="6.91275">
        <ele>1468.4000244141</ele>
        <time>2010-06-27T08:57:18Z</time>
      </trkpt>
      <trkpt lat="45.9771" lon="6.9126">
        <ele>1470.1999511719</ele>
        <time>2010-06-27T08:57:29Z</time>
      </trkpt>
      <trkpt lat="45.97708" lon="6.91258">
        <ele>1470.4000244141</ele>
        <time>2010-06-27T08:57:31Z</time>
      </trkpt>
      <trkpt lat="45.97699" lon="6.91243">
        <ele>1472.4000244141</ele>
        <time>2010-06-27T08:57:41Z</time>
      </trkpt>
      <trkpt lat="45.97695" lon="6.91238">
        <ele>1473.5999755859</ele>
        <time>2010-06-27T08:57:46Z</time>
      </trkpt>
      <trkpt lat="45.97693" lon="6.91234">
        <ele>1474.4000244141</ele>
        <time>2010-06-27T08:57:49Z</time>
      </trkpt>
      <trkpt lat="45.9769" lon="6.91225">
        <ele>1475.8000488281</ele>
        <time>2010-06-27T08:57:56Z</time>
      </trkpt>
      <trkpt lat="45.97689" lon="6.91224">
        <ele>1476</ele>
        <time>2010-06-27T08:57:57Z</time>
      </trkpt>
      <trkpt lat="45.97686" lon="6.91217">
        <ele>1477.4000244141</ele>
        <time>2010-06-27T08:58:02Z</time>
      </trkpt>
      <trkpt lat="45.97684" lon="6.91216">
        <ele>1477.8000488281</ele>
        <time>2010-06-27T08:58:03Z</time>
      </trkpt>
      <trkpt lat="45.9768" lon="6.91211">
        <ele>1480.8000488281</ele>
        <time>2010-06-27T08:58:10Z</time>
      </trkpt>
      <trkpt lat="45.97675" lon="6.91197">
        <ele>1483.5999755859</ele>
        <time>2010-06-27T08:58:18Z</time>
      </trkpt>
      <trkpt lat="45.97674" lon="6.91196">
        <ele>1483.8000488281</ele>
        <time>2010-06-27T08:58:19Z</time>
      </trkpt>
      <trkpt lat="45.9767" lon="6.91191">
        <ele>1485.4000244141</ele>
        <time>2010-06-27T08:58:23Z</time>
      </trkpt>
      <trkpt lat="45.97665" lon="6.91184">
        <ele>1486.8000488281</ele>
        <time>2010-06-27T08:58:28Z</time>
      </trkpt>
      <trkpt lat="45.97662" lon="6.91178">
        <ele>1489.8000488281</ele>
        <time>2010-06-27T08:58:35Z</time>
      </trkpt>
      <trkpt lat="45.97657" lon="6.91163">
        <ele>1492</ele>
        <time>2010-06-27T08:58:43Z</time>
      </trkpt>
      <trkpt lat="45.97654" lon="6.91157">
        <ele>1493</ele>
        <time>2010-06-27T08:58:47Z</time>
      </trkpt>
      <trkpt lat="45.97652" lon="6.91156">
        <ele>1493.1999511719</ele>
        <time>2010-06-27T08:58:48Z</time>
      </trkpt>
      <trkpt lat="45.9765" lon="6.91153">
        <ele>1494</ele>
        <time>2010-06-27T08:58:52Z</time>
      </trkpt>
      <trkpt lat="45.97648" lon="6.91152">
        <ele>1494.8000488281</ele>
        <time>2010-06-27T08:58:56Z</time>
      </trkpt>
      <trkpt lat="45.97643" lon="6.91157">
        <ele>1496.1999511719</ele>
        <time>2010-06-27T08:59:02Z</time>
      </trkpt>
      <trkpt lat="45.97641" lon="6.91158">
        <ele>1496.8000488281</ele>
        <time>2010-06-27T08:59:04Z</time>
      </trkpt>
      <trkpt lat="45.97638" lon="6.91158">
        <ele>1497.4000244141</ele>
        <time>2010-06-27T08:59:07Z</time>
      </trkpt>
      <trkpt lat="45.97636" lon="6.91158">
        <ele>1497.8000488281</ele>
        <time>2010-06-27T08:59:08Z</time>
      </trkpt>
      <trkpt lat="45.97631" lon="6.91156">
        <ele>1499.4000244141</ele>
        <time>2010-06-27T08:59:13Z</time>
      </trkpt>
      <trkpt lat="45.97629" lon="6.91149">
        <ele>1500.4000244141</ele>
        <time>2010-06-27T08:59:18Z</time>
      </trkpt>
      <trkpt lat="45.97625" lon="6.91148">
        <ele>1501.8000488281</ele>
        <time>2010-06-27T08:59:22Z</time>
      </trkpt>
      <trkpt lat="45.9762" lon="6.91145">
        <ele>1503.5999755859</ele>
        <time>2010-06-27T08:59:27Z</time>
      </trkpt>
      <trkpt lat="45.97616" lon="6.91143">
        <ele>1506.1999511719</ele>
        <time>2010-06-27T08:59:34Z</time>
      </trkpt>
      <trkpt lat="45.97613" lon="6.9114">
        <ele>1507.4000244141</ele>
        <time>2010-06-27T08:59:38Z</time>
      </trkpt>
      <trkpt lat="45.97612" lon="6.91139">
        <ele>1507.5999755859</ele>
        <time>2010-06-27T08:59:39Z</time>
      </trkpt>
      <trkpt lat="45.97612" lon="6.91132">
        <ele>1507.8000488281</ele>
        <time>2010-06-27T08:59:41Z</time>
      </trkpt>
      <trkpt lat="45.97611" lon="6.91127">
        <ele>1508.4000244141</ele>
        <time>2010-06-27T08:59:44Z</time>
      </trkpt>
      <trkpt lat="45.9761" lon="6.911">
        <ele>1508.8000488281</ele>
        <time>2010-06-27T08:59:52Z</time>
      </trkpt>
      <trkpt lat="45.97609" lon="6.91094">
        <ele>1509</ele>
        <time>2010-06-27T08:59:57Z</time>
      </trkpt>
      <trkpt lat="45.97609" lon="6.91088">
        <ele>1509.4000244141</ele>
        <time>2010-06-27T09:00:01Z</time>
      </trkpt>
      <trkpt lat="45.97608" lon="6.91087">
        <ele>1509.4000244141</ele>
        <time>2010-06-27T09:00:03Z</time>
      </trkpt>
      <trkpt lat="45.97606" lon="6.91079">
        <ele>1510</ele>
        <time>2010-06-27T09:00:08Z</time>
      </trkpt>
      <trkpt lat="45.97606" lon="6.91078">
        <ele>1510</ele>
        <time>2010-06-27T09:00:09Z</time>
      </trkpt>
      <trkpt lat="45.97605" lon="6.91074">
        <ele>1510.5999755859</ele>
        <time>2010-06-27T09:00:13Z</time>
      </trkpt>
      <trkpt lat="45.97594" lon="6.91067">
        <ele>1511.8000488281</ele>
        <time>2010-06-27T09:00:19Z</time>
      </trkpt>
      <trkpt lat="45.97588" lon="6.91062">
        <ele>1512.4000244141</ele>
        <time>2010-06-27T09:00:21Z</time>
      </trkpt>
      <trkpt lat="45.97574" lon="6.91053">
        <ele>1514.1999511719</ele>
        <time>2010-06-27T09:00:29Z</time>
      </trkpt>
      <trkpt lat="45.97572" lon="6.91052">
        <ele>1514.4000244141</ele>
        <time>2010-06-27T09:00:30Z</time>
      </trkpt>
      <trkpt lat="45.97566" lon="6.91045">
        <ele>1515</ele>
        <time>2010-06-27T09:00:33Z</time>
      </trkpt>
      <trkpt lat="45.97559" lon="6.91037">
        <ele>1515.5999755859</ele>
        <time>2010-06-27T09:00:36Z</time>
      </trkpt>
      <trkpt lat="45.97543" lon="6.91021">
        <ele>1516.8000488281</ele>
        <time>2010-06-27T09:00:43Z</time>
      </trkpt>
      <trkpt lat="45.97525" lon="6.91013">
        <ele>1517.8000488281</ele>
        <time>2010-06-27T09:00:50Z</time>
      </trkpt>
      <trkpt lat="45.97512" lon="6.91">
        <ele>1519.4000244141</ele>
        <time>2010-06-27T09:00:57Z</time>
      </trkpt>
      <trkpt lat="45.9751" lon="6.90994">
        <ele>1519.5999755859</ele>
        <time>2010-06-27T09:00:59Z</time>
      </trkpt>
      <trkpt lat="45.97505" lon="6.90985">
        <ele>1520</ele>
        <time>2010-06-27T09:01:01Z</time>
      </trkpt>
      <trkpt lat="45.97504" lon="6.90984">
        <ele>1520.4000244141</ele>
        <time>2010-06-27T09:01:03Z</time>
      </trkpt>
      <trkpt lat="45.97495" lon="6.90975">
        <ele>1521.1999511719</ele>
        <time>2010-06-27T09:01:08Z</time>
      </trkpt>
      <trkpt lat="45.97482" lon="6.90969">
        <ele>1521.8000488281</ele>
        <time>2010-06-27T09:01:13Z</time>
      </trkpt>
      <trkpt lat="45.9748" lon="6.90969">
        <ele>1521.8000488281</ele>
        <time>2010-06-27T09:01:14Z</time>
      </trkpt>
      <trkpt lat="45.97477" lon="6.90968">
        <ele>1521.8000488281</ele>
        <time>2010-06-27T09:01:15Z</time>
      </trkpt>
      <trkpt lat="45.97459" lon="6.90964">
        <ele>1521.5999755859</ele>
        <time>2010-06-27T09:01:23Z</time>
      </trkpt>
      <trkpt lat="45.97446" lon="6.90944">
        <ele>1520.8000488281</ele>
        <time>2010-06-27T09:01:31Z</time>
      </trkpt>
      <trkpt lat="45.97435" lon="6.90921">
        <ele>1520</ele>
        <time>2010-06-27T09:01:38Z</time>
      </trkpt>
      <trkpt lat="45.97419" lon="6.90903">
        <ele>1519.4000244141</ele>
        <time>2010-06-27T09:01:46Z</time>
      </trkpt>
      <trkpt lat="45.97416" lon="6.90904">
        <ele>1519.4000244141</ele>
        <time>2010-06-27T09:01:47Z</time>
      </trkpt>
      <trkpt lat="45.97403" lon="6.90905">
        <ele>1519.1999511719</ele>
        <time>2010-06-27T09:01:52Z</time>
      </trkpt>
      <trkpt lat="45.97401" lon="6.90903">
        <ele>1519.1999511719</ele>
        <time>2010-06-27T09:01:53Z</time>
      </trkpt>
      <trkpt lat="45.9739" lon="6.90885">
        <ele>1518.8000488281</ele>
        <time>2010-06-27T09:01:59Z</time>
      </trkpt>
      <trkpt lat="45.97387" lon="6.90882">
        <ele>1518.8000488281</ele>
        <time>2010-06-27T09:02:00Z</time>
      </trkpt>
      <trkpt lat="45.97375" lon="6.90868">
        <ele>1518.5999755859</ele>
        <time>2010-06-27T09:02:08Z</time>
      </trkpt>
      <trkpt lat="45.97374" lon="6.90862">
        <ele>1518.4000244141</ele>
        <time>2010-06-27T09:02:12Z</time>
      </trkpt>
      <trkpt lat="45.97372" lon="6.90859">
        <ele>1518.1999511719</ele>
        <time>2010-06-27T09:02:14Z</time>
      </trkpt>
      <trkpt lat="45.97369" lon="6.90854">
        <ele>1518.1999511719</ele>
        <time>2010-06-27T09:02:18Z</time>
      </trkpt>
      <trkpt lat="45.97362" lon="6.9084">
        <ele>1518</ele>
        <time>2010-06-27T09:02:28Z</time>
      </trkpt>
      <trkpt lat="45.97361" lon="6.90838">
        <ele>1518</ele>
        <time>2010-06-27T09:02:29Z</time>
      </trkpt>
      <trkpt lat="45.97347" lon="6.90823">
        <ele>1517.8000488281</ele>
        <time>2010-06-27T09:02:36Z</time>
      </trkpt>
      <trkpt lat="45.97333" lon="6.90805">
        <ele>1518.1999511719</ele>
        <time>2010-06-27T09:02:44Z</time>
      </trkpt>
      <trkpt lat="45.97316" lon="6.90791">
        <ele>1518.4000244141</ele>
        <time>2010-06-27T09:02:52Z</time>
      </trkpt>
      <trkpt lat="45.97302" lon="6.90779">
        <ele>1519</ele>
        <time>2010-06-27T09:03:00Z</time>
      </trkpt>
      <trkpt lat="45.973" lon="6.90774">
        <ele>1519</ele>
        <time>2010-06-27T09:03:01Z</time>
      </trkpt>
      <trkpt lat="45.97296" lon="6.90769">
        <ele>1519.5999755859</ele>
        <time>2010-06-27T09:03:05Z</time>
      </trkpt>
      <trkpt lat="45.9729" lon="6.90768">
        <ele>1520.8000488281</ele>
        <time>2010-06-27T09:03:09Z</time>
      </trkpt>
      <trkpt lat="45.97288" lon="6.90765">
        <ele>1521.1999511719</ele>
        <time>2010-06-27T09:03:11Z</time>
      </trkpt>
      <trkpt lat="45.97285" lon="6.90762">
        <ele>1522</ele>
        <time>2010-06-27T09:03:14Z</time>
      </trkpt>
      <trkpt lat="45.97283" lon="6.90762">
        <ele>1522.5999755859</ele>
        <time>2010-06-27T09:03:15Z</time>
      </trkpt>
      <trkpt lat="45.97279" lon="6.90759">
        <ele>1523.4000244141</ele>
        <time>2010-06-27T09:03:18Z</time>
      </trkpt>
      <trkpt lat="45.97274" lon="6.90754">
        <ele>1524.5999755859</ele>
        <time>2010-06-27T09:03:23Z</time>
      </trkpt>
      <trkpt lat="45.97266" lon="6.90753">
        <ele>1525</ele>
        <time>2010-06-27T09:03:26Z</time>
      </trkpt>
      <trkpt lat="45.9726" lon="6.90748">
        <ele>1525.1999511719</ele>
        <time>2010-06-27T09:03:29Z</time>
      </trkpt>
      <trkpt lat="45.97253" lon="6.90733">
        <ele>1525.1999511719</ele>
        <time>2010-06-27T09:03:35Z</time>
      </trkpt>
      <trkpt lat="45.97242" lon="6.90721">
        <ele>1525.4000244141</ele>
        <time>2010-06-27T09:03:41Z</time>
      </trkpt>
      <trkpt lat="45.97239" lon="6.90719">
        <ele>1525.1999511719</ele>
        <time>2010-06-27T09:03:43Z</time>
      </trkpt>
      <trkpt lat="45.97228" lon="6.9071">
        <ele>1524.8000488281</ele>
        <time>2010-06-27T09:03:47Z</time>
      </trkpt>
      <trkpt lat="45.97222" lon="6.90702">
        <ele>1524.5999755859</ele>
        <time>2010-06-27T09:03:50Z</time>
      </trkpt>
      <trkpt lat="45.97222" lon="6.90702">
        <ele>1524.5999755859</ele>
        <time>2010-06-27T09:03:51Z</time>
      </trkpt>
      <trkpt lat="45.97221" lon="6.90699">
        <ele>1524.4000244141</ele>
        <time>2010-06-27T09:03:52Z</time>
      </trkpt>
      <trkpt lat="45.97221" lon="6.9069">
        <ele>1524.1999511719</ele>
        <time>2010-06-27T09:03:56Z</time>
      </trkpt>
      <trkpt lat="45.97221" lon="6.90687">
        <ele>1524</ele>
        <time>2010-06-27T09:03:58Z</time>
      </trkpt>
      <trkpt lat="45.97222" lon="6.90681">
        <ele>1523.8000488281</ele>
        <time>2010-06-27T09:04:01Z</time>
      </trkpt>
      <trkpt lat="45.97222" lon="6.90674">
        <ele>1523.5999755859</ele>
        <time>2010-06-27T09:04:04Z</time>
      </trkpt>
      <trkpt lat="45.97224" lon="6.90667">
        <ele>1523.5999755859</ele>
        <time>2010-06-27T09:04:07Z</time>
      </trkpt>
      <trkpt lat="45.97218" lon="6.90662">
        <ele>1523.5999755859</ele>
        <time>2010-06-27T09:04:11Z</time>
      </trkpt>
      <trkpt lat="45.97215" lon="6.90657">
        <ele>1523.5999755859</ele>
        <time>2010-06-27T09:04:14Z</time>
      </trkpt>
      <trkpt lat="45.97213" lon="6.9065">
        <ele>1523.8000488281</ele>
        <time>2010-06-27T09:04:17Z</time>
      </trkpt>
      <trkpt lat="45.97211" lon="6.90643">
        <ele>1523.8000488281</ele>
        <time>2010-06-27T09:04:19Z</time>
      </trkpt>
      <trkpt lat="45.9721" lon="6.90636">
        <ele>1524.4000244141</ele>
        <time>2010-06-27T09:04:23Z</time>
      </trkpt>
      <trkpt lat="45.97208" lon="6.90631">
        <ele>1524.4000244141</ele>
        <time>2010-06-27T09:04:25Z</time>
      </trkpt>
      <trkpt lat="45.97202" lon="6.90628">
        <ele>1524.8000488281</ele>
        <time>2010-06-27T09:04:29Z</time>
      </trkpt>
      <trkpt lat="45.97192" lon="6.90618">
        <ele>1525.1999511719</ele>
        <time>2010-06-27T09:04:40Z</time>
      </trkpt>
      <trkpt lat="45.97191" lon="6.90618">
        <ele>1525.1999511719</ele>
        <time>2010-06-27T09:04:42Z</time>
      </trkpt>
      <trkpt lat="45.97186" lon="6.90615">
        <ele>1525.5999755859</ele>
        <time>2010-06-27T09:04:59Z</time>
      </trkpt>
      <trkpt lat="45.97184" lon="6.90618">
        <ele>1525.8000488281</ele>
        <time>2010-06-27T09:05:00Z</time>
      </trkpt>
      <trkpt lat="45.97181" lon="6.90622">
        <ele>1525.8000488281</ele>
        <time>2010-06-27T09:05:07Z</time>
      </trkpt>
      <trkpt lat="45.97174" lon="6.90622">
        <ele>1526</ele>
        <time>2010-06-27T09:05:14Z</time>
      </trkpt>
      <trkpt lat="45.9717" lon="6.90622">
        <ele>1526</ele>
        <time>2010-06-27T09:05:17Z</time>
      </trkpt>
      <trkpt lat="45.97161" lon="6.9063">
        <ele>1526.1999511719</ele>
        <time>2010-06-27T09:05:21Z</time>
      </trkpt>
      <trkpt lat="45.97153" lon="6.90636">
        <ele>1526.8000488281</ele>
        <time>2010-06-27T09:05:25Z</time>
      </trkpt>
      <trkpt lat="45.97152" lon="6.90631">
        <ele>1526.8000488281</ele>
        <time>2010-06-27T09:05:28Z</time>
      </trkpt>
      <trkpt lat="45.97143" lon="6.9062">
        <ele>1527.5999755859</ele>
        <time>2010-06-27T09:05:39Z</time>
      </trkpt>
      <trkpt lat="45.9714" lon="6.90618">
        <ele>1528</ele>
        <time>2010-06-27T09:05:42Z</time>
      </trkpt>
      <trkpt lat="45.97135" lon="6.90608">
        <ele>1529.1999511719</ele>
        <time>2010-06-27T09:05:52Z</time>
      </trkpt>
      <trkpt lat="45.97132" lon="6.90602">
        <ele>1530</ele>
        <time>2010-06-27T09:05:57Z</time>
      </trkpt>
      <trkpt lat="45.97131" lon="6.90599">
        <ele>1530.4000244141</ele>
        <time>2010-06-27T09:05:58Z</time>
      </trkpt>
      <trkpt lat="45.97129" lon="6.90597">
        <ele>1530.8000488281</ele>
        <time>2010-06-27T09:06:00Z</time>
      </trkpt>
      <trkpt lat="45.97128" lon="6.90596">
        <ele>1531.4000244141</ele>
        <time>2010-06-27T09:06:03Z</time>
      </trkpt>
      <trkpt lat="45.97125" lon="6.90587">
        <ele>1532.5999755859</ele>
        <time>2010-06-27T09:06:09Z</time>
      </trkpt>
      <trkpt lat="45.97123" lon="6.9058">
        <ele>1534</ele>
        <time>2010-06-27T09:06:15Z</time>
      </trkpt>
      <trkpt lat="45.9712" lon="6.90575">
        <ele>1534.8000488281</ele>
        <time>2010-06-27T09:06:18Z</time>
      </trkpt>
      <trkpt lat="45.97106" lon="6.90557">
        <ele>1537.5999755859</ele>
        <time>2010-06-27T09:06:31Z</time>
      </trkpt>
      <trkpt lat="45.97104" lon="6.90556">
        <ele>1538.5999755859</ele>
        <time>2010-06-27T09:06:34Z</time>
      </trkpt>
      <trkpt lat="45.97097" lon="6.90547">
        <ele>1541</ele>
        <time>2010-06-27T09:06:44Z</time>
      </trkpt>
      <trkpt lat="45.97097" lon="6.90541">
        <ele>1541.5999755859</ele>
        <time>2010-06-27T09:06:47Z</time>
      </trkpt>
      <trkpt lat="45.97095" lon="6.90537">
        <ele>1542.5999755859</ele>
        <time>2010-06-27T09:06:51Z</time>
      </trkpt>
      <trkpt lat="45.97094" lon="6.90534">
        <ele>1543</ele>
        <time>2010-06-27T09:06:53Z</time>
      </trkpt>
      <trkpt lat="45.97091" lon="6.90533">
        <ele>1543.8000488281</ele>
        <time>2010-06-27T09:06:56Z</time>
      </trkpt>
      <trkpt lat="45.97089" lon="6.9053">
        <ele>1544.5999755859</ele>
        <time>2010-06-27T09:07:00Z</time>
      </trkpt>
      <trkpt lat="45.97081" lon="6.90514">
        <ele>1546.8000488281</ele>
        <time>2010-06-27T09:07:14Z</time>
      </trkpt>
      <trkpt lat="45.97075" lon="6.90506">
        <ele>1548.1999511719</ele>
        <time>2010-06-27T09:07:20Z</time>
      </trkpt>
      <trkpt lat="45.97074" lon="6.90503">
        <ele>1548.5999755859</ele>
        <time>2010-06-27T09:07:22Z</time>
      </trkpt>
      <trkpt lat="45.97066" lon="6.90495">
        <ele>1549.4000244141</ele>
        <time>2010-06-27T09:07:26Z</time>
      </trkpt>
      <trkpt lat="45.97052" lon="6.90481">
        <ele>1551.4000244141</ele>
        <time>2010-06-27T09:07:36Z</time>
      </trkpt>
      <trkpt lat="45.9704" lon="6.90466">
        <ele>1553</ele>
        <time>2010-06-27T09:07:46Z</time>
      </trkpt>
      <trkpt lat="45.97039" lon="6.90464">
        <ele>1553.1999511719</ele>
        <time>2010-06-27T09:07:47Z</time>
      </trkpt>
      <trkpt lat="45.97035" lon="6.90459">
        <ele>1553.4000244141</ele>
        <time>2010-06-27T09:07:49Z</time>
      </trkpt>
      <trkpt lat="45.97022" lon="6.9045">
        <ele>1554.8000488281</ele>
        <time>2010-06-27T09:07:56Z</time>
      </trkpt>
      <trkpt lat="45.97009" lon="6.90431">
        <ele>1556.1999511719</ele>
        <time>2010-06-27T09:08:04Z</time>
      </trkpt>
      <trkpt lat="45.96997" lon="6.9041">
        <ele>1557.1999511719</ele>
        <time>2010-06-27T09:08:13Z</time>
      </trkpt>
      <trkpt lat="45.96998" lon="6.90408">
        <ele>1557.1999511719</ele>
        <time>2010-06-27T09:08:14Z</time>
      </trkpt>
      <trkpt lat="45.96997" lon="6.90402">
        <ele>1557.4000244141</ele>
        <time>2010-06-27T09:08:17Z</time>
      </trkpt>
      <trkpt lat="45.96989" lon="6.9039">
        <ele>1558</ele>
        <time>2010-06-27T09:08:23Z</time>
      </trkpt>
      <trkpt lat="45.96977" lon="6.90383">
        <ele>1558.5999755859</ele>
        <time>2010-06-27T09:08:31Z</time>
      </trkpt>
      <trkpt lat="45.96974" lon="6.90376">
        <ele>1558.8000488281</ele>
        <time>2010-06-27T09:08:35Z</time>
      </trkpt>
      <trkpt lat="45.96961" lon="6.90357">
        <ele>1558.8000488281</ele>
        <time>2010-06-27T09:08:48Z</time>
      </trkpt>
      <trkpt lat="45.96959" lon="6.90354">
        <ele>1558.8000488281</ele>
        <time>2010-06-27T09:08:50Z</time>
      </trkpt>
      <trkpt lat="45.9695" lon="6.90344">
        <ele>1559.1999511719</ele>
        <time>2010-06-27T09:08:59Z</time>
      </trkpt>
      <trkpt lat="45.96948" lon="6.90338">
        <ele>1559.4000244141</ele>
        <time>2010-06-27T09:09:03Z</time>
      </trkpt>
      <trkpt lat="45.96945" lon="6.90334">
        <ele>1559.5999755859</ele>
        <time>2010-06-27T09:09:06Z</time>
      </trkpt>
      <trkpt lat="45.96944" lon="6.90333">
        <ele>1559.5999755859</ele>
        <time>2010-06-27T09:09:07Z</time>
      </trkpt>
      <trkpt lat="45.96934" lon="6.9032">
        <ele>1560.4000244141</ele>
        <time>2010-06-27T09:09:17Z</time>
      </trkpt>
      <trkpt lat="45.96926" lon="6.90313">
        <ele>1561</ele>
        <time>2010-06-27T09:09:24Z</time>
      </trkpt>
      <trkpt lat="45.96919" lon="6.90304">
        <ele>1561.8000488281</ele>
        <time>2010-06-27T09:09:32Z</time>
      </trkpt>
      <trkpt lat="45.96918" lon="6.90302">
        <ele>1561.8000488281</ele>
        <time>2010-06-27T09:09:33Z</time>
      </trkpt>
      <trkpt lat="45.96906" lon="6.90288">
        <ele>1563.4000244141</ele>
        <time>2010-06-27T09:09:47Z</time>
      </trkpt>
      <trkpt lat="45.96889" lon="6.90274">
        <ele>1565</ele>
        <time>2010-06-27T09:10:02Z</time>
      </trkpt>
      <trkpt lat="45.96886" lon="6.90273">
        <ele>1565.4000244141</ele>
        <time>2010-06-27T09:10:05Z</time>
      </trkpt>
      <trkpt lat="45.96872" lon="6.90261">
        <ele>1567.5999755859</ele>
        <time>2010-06-27T09:10:16Z</time>
      </trkpt>
      <trkpt lat="45.96856" lon="6.90249">
        <ele>1569.5999755859</ele>
        <time>2010-06-27T09:10:23Z</time>
      </trkpt>
      <trkpt lat="45.96841" lon="6.90235">
        <ele>1572.8000488281</ele>
        <time>2010-06-27T09:10:32Z</time>
      </trkpt>
      <trkpt lat="45.96832" lon="6.9023">
        <ele>1574.4000244141</ele>
        <time>2010-06-27T09:10:36Z</time>
      </trkpt>
      <trkpt lat="45.96823" lon="6.90223">
        <ele>1576.1999511719</ele>
        <time>2010-06-27T09:10:41Z</time>
      </trkpt>
      <trkpt lat="45.9682" lon="6.90221">
        <ele>1577</ele>
        <time>2010-06-27T09:10:43Z</time>
      </trkpt>
      <trkpt lat="45.96816" lon="6.90216">
        <ele>1578.5999755859</ele>
        <time>2010-06-27T09:10:47Z</time>
      </trkpt>
      <trkpt lat="45.96808" lon="6.90207">
        <ele>1579.5999755859</ele>
        <time>2010-06-27T09:10:51Z</time>
      </trkpt>
      <trkpt lat="45.96793" lon="6.90189">
        <ele>1581.4000244141</ele>
        <time>2010-06-27T09:10:59Z</time>
      </trkpt>
      <trkpt lat="45.96775" lon="6.90176">
        <ele>1582.1999511719</ele>
        <time>2010-06-27T09:11:06Z</time>
      </trkpt>
      <trkpt lat="45.9676" lon="6.90163">
        <ele>1582.5999755859</ele>
        <time>2010-06-27T09:11:13Z</time>
      </trkpt>
      <trkpt lat="45.96752" lon="6.90163">
        <ele>1583.1999511719</ele>
        <time>2010-06-27T09:11:16Z</time>
      </trkpt>
      <trkpt lat="45.96742" lon="6.90157">
        <ele>1583</ele>
        <time>2010-06-27T09:11:20Z</time>
      </trkpt>
      <trkpt lat="45.9674" lon="6.90156">
        <ele>1583</ele>
        <time>2010-06-27T09:11:21Z</time>
      </trkpt>
      <trkpt lat="45.96732" lon="6.90152">
        <ele>1583</ele>
        <time>2010-06-27T09:11:25Z</time>
      </trkpt>
      <trkpt lat="45.96726" lon="6.90141">
        <ele>1583</ele>
        <time>2010-06-27T09:11:29Z</time>
      </trkpt>
      <trkpt lat="45.96724" lon="6.90139">
        <ele>1583</ele>
        <time>2010-06-27T09:11:30Z</time>
      </trkpt>
      <trkpt lat="45.96719" lon="6.90135">
        <ele>1582.8000488281</ele>
        <time>2010-06-27T09:11:32Z</time>
      </trkpt>
      <trkpt lat="45.96711" lon="6.90128">
        <ele>1583.1999511719</ele>
        <time>2010-06-27T09:11:40Z</time>
      </trkpt>
      <trkpt lat="45.96709" lon="6.90128">
        <ele>1583.4000244141</ele>
        <time>2010-06-27T09:11:41Z</time>
      </trkpt>
      <trkpt lat="45.96705" lon="6.90121">
        <ele>1584</ele>
        <time>2010-06-27T09:11:47Z</time>
      </trkpt>
      <trkpt lat="45.96695" lon="6.90115">
        <ele>1584.4000244141</ele>
        <time>2010-06-27T09:11:56Z</time>
      </trkpt>
      <trkpt lat="45.96695" lon="6.90114">
        <ele>1584.4000244141</ele>
        <time>2010-06-27T09:11:57Z</time>
      </trkpt>
      <trkpt lat="45.96677" lon="6.90108">
        <ele>1584.5999755859</ele>
        <time>2010-06-27T09:12:08Z</time>
      </trkpt>
      <trkpt lat="45.96659" lon="6.901">
        <ele>1584.4000244141</ele>
        <time>2010-06-27T09:12:17Z</time>
      </trkpt>
      <trkpt lat="45.96647" lon="6.90087">
        <ele>1584.1999511719</ele>
        <time>2010-06-27T09:12:24Z</time>
      </trkpt>
      <trkpt lat="45.96645" lon="6.90084">
        <ele>1584</ele>
        <time>2010-06-27T09:12:26Z</time>
      </trkpt>
      <trkpt lat="45.96638" lon="6.9008">
        <ele>1584</ele>
        <time>2010-06-27T09:12:33Z</time>
      </trkpt>
      <trkpt lat="45.96636" lon="6.90076">
        <ele>1584</ele>
        <time>2010-06-27T09:12:36Z</time>
      </trkpt>
      <trkpt lat="45.96633" lon="6.90065">
        <ele>1584</ele>
        <time>2010-06-27T09:12:44Z</time>
      </trkpt>
      <trkpt lat="45.96635" lon="6.90063">
        <ele>1584</ele>
        <time>2010-06-27T09:12:46Z</time>
      </trkpt>
      <trkpt lat="45.96638" lon="6.90061">
        <ele>1584.1999511719</ele>
        <time>2010-06-27T09:12:49Z</time>
      </trkpt>
      <trkpt lat="45.96634" lon="6.90061">
        <ele>1585</ele>
        <time>2010-06-27T09:12:53Z</time>
      </trkpt>
      <trkpt lat="45.96631" lon="6.90059">
        <ele>1585.5999755859</ele>
        <time>2010-06-27T09:12:56Z</time>
      </trkpt>
      <trkpt lat="45.96629" lon="6.9005">
        <ele>1586.5999755859</ele>
        <time>2010-06-27T09:13:01Z</time>
      </trkpt>
      <trkpt lat="45.96628" lon="6.90048">
        <ele>1587.1999511719</ele>
        <time>2010-06-27T09:13:03Z</time>
      </trkpt>
      <trkpt lat="45.96626" lon="6.90045">
        <ele>1587.8000488281</ele>
        <time>2010-06-27T09:13:06Z</time>
      </trkpt>
      <trkpt lat="45.96626" lon="6.90037">
        <ele>1588.1999511719</ele>
        <time>2010-06-27T09:13:10Z</time>
      </trkpt>
      <trkpt lat="45.96633" lon="6.90035">
        <ele>1588.4000244141</ele>
        <time>2010-06-27T09:13:18Z</time>
      </trkpt>
      <trkpt lat="45.96635" lon="6.90035">
        <ele>1588.1999511719</ele>
        <time>2010-06-27T09:13:19Z</time>
      </trkpt>
      <trkpt lat="45.96638" lon="6.90034">
        <ele>1588.1999511719</ele>
        <time>2010-06-27T09:13:22Z</time>
      </trkpt>
      <trkpt lat="45.96638" lon="6.90023">
        <ele>1590</ele>
        <time>2010-06-27T09:13:38Z</time>
      </trkpt>
      <trkpt lat="45.96637" lon="6.9002">
        <ele>1590.5999755859</ele>
        <time>2010-06-27T09:13:40Z</time>
      </trkpt>
      <trkpt lat="45.96635" lon="6.90009">
        <ele>1592</ele>
        <time>2010-06-27T09:13:50Z</time>
      </trkpt>
      <trkpt lat="45.96635" lon="6.89995">
        <ele>1592.4000244141</ele>
        <time>2010-06-27T09:14:06Z</time>
      </trkpt>
      <trkpt lat="45.96631" lon="6.89981">
        <ele>1594.4000244141</ele>
        <time>2010-06-27T09:14:19Z</time>
      </trkpt>
      <trkpt lat="45.96627" lon="6.8997">
        <ele>1596.1999511719</ele>
        <time>2010-06-27T09:14:29Z</time>
      </trkpt>
      <trkpt lat="45.96626" lon="6.89968">
        <ele>1596.8000488281</ele>
        <time>2010-06-27T09:14:31Z</time>
      </trkpt>
      <trkpt lat="45.96621" lon="6.89952">
        <ele>1599.1999511719</ele>
        <time>2010-06-27T09:14:41Z</time>
      </trkpt>
      <trkpt lat="45.9662" lon="6.89947">
        <ele>1600.5999755859</ele>
        <time>2010-06-27T09:14:47Z</time>
      </trkpt>
      <trkpt lat="45.9662" lon="6.89945">
        <ele>1601</ele>
        <time>2010-06-27T09:14:48Z</time>
      </trkpt>
      <trkpt lat="45.96619" lon="6.89942">
        <ele>1601.5999755859</ele>
        <time>2010-06-27T09:14:51Z</time>
      </trkpt>
      <trkpt lat="45.96616" lon="6.89937">
        <ele>1602.5999755859</ele>
        <time>2010-06-27T09:14:56Z</time>
      </trkpt>
      <trkpt lat="45.96614" lon="6.89931">
        <ele>1604</ele>
        <time>2010-06-27T09:15:03Z</time>
      </trkpt>
      <trkpt lat="45.96613" lon="6.89927">
        <ele>1604.8000488281</ele>
        <time>2010-06-27T09:15:07Z</time>
      </trkpt>
      <trkpt lat="45.96608" lon="6.89923">
        <ele>1605.8000488281</ele>
        <time>2010-06-27T09:15:11Z</time>
      </trkpt>
      <trkpt lat="45.96606" lon="6.89918">
        <ele>1606.5999755859</ele>
        <time>2010-06-27T09:15:14Z</time>
      </trkpt>
      <trkpt lat="45.96602" lon="6.89908">
        <ele>1608.8000488281</ele>
        <time>2010-06-27T09:15:23Z</time>
      </trkpt>
      <trkpt lat="45.96598" lon="6.89901">
        <ele>1610.4000244141</ele>
        <time>2010-06-27T09:15:30Z</time>
      </trkpt>
      <trkpt lat="45.96597" lon="6.899">
        <ele>1610.5999755859</ele>
        <time>2010-06-27T09:15:31Z</time>
      </trkpt>
      <trkpt lat="45.96595" lon="6.89891">
        <ele>1612</ele>
        <time>2010-06-27T09:15:38Z</time>
      </trkpt>
      <trkpt lat="45.96589" lon="6.89878">
        <ele>1615.1999511719</ele>
        <time>2010-06-27T09:15:51Z</time>
      </trkpt>
      <trkpt lat="45.96581" lon="6.89868">
        <ele>1618.5999755859</ele>
        <time>2010-06-27T09:16:01Z</time>
      </trkpt>
      <trkpt lat="45.9658" lon="6.89864">
        <ele>1619.8000488281</ele>
        <time>2010-06-27T09:16:04Z</time>
      </trkpt>
      <trkpt lat="45.96578" lon="6.89858">
        <ele>1621.1999511719</ele>
        <time>2010-06-27T09:16:07Z</time>
      </trkpt>
      <trkpt lat="45.96576" lon="6.89852">
        <ele>1623</ele>
        <time>2010-06-27T09:16:12Z</time>
      </trkpt>
      <trkpt lat="45.96571" lon="6.89848">
        <ele>1624.5999755859</ele>
        <time>2010-06-27T09:16:16Z</time>
      </trkpt>
      <trkpt lat="45.96566" lon="6.89836">
        <ele>1627.1999511719</ele>
        <time>2010-06-27T09:16:28Z</time>
      </trkpt>
      <trkpt lat="45.96569" lon="6.89835">
        <ele>1627.8000488281</ele>
        <time>2010-06-27T09:16:31Z</time>
      </trkpt>
      <trkpt lat="45.96572" lon="6.89829">
        <ele>1628.8000488281</ele>
        <time>2010-06-27T09:16:36Z</time>
      </trkpt>
      <trkpt lat="45.9658" lon="6.89826">
        <ele>1630</ele>
        <time>2010-06-27T09:16:41Z</time>
      </trkpt>
      <trkpt lat="45.96579" lon="6.89827">
        <ele>1630</ele>
        <time>2010-06-27T09:16:42Z</time>
      </trkpt>
      <trkpt lat="45.96583" lon="6.89827">
        <ele>1631</ele>
        <time>2010-06-27T09:16:48Z</time>
      </trkpt>
      <trkpt lat="45.96584" lon="6.89826">
        <ele>1631.4000244141</ele>
        <time>2010-06-27T09:16:49Z</time>
      </trkpt>
      <trkpt lat="45.96591" lon="6.89825">
        <ele>1633.5999755859</ele>
        <time>2010-06-27T09:17:08Z</time>
      </trkpt>
      <trkpt lat="45.9659" lon="6.89818">
        <ele>1634.5999755859</ele>
        <time>2010-06-27T09:17:14Z</time>
      </trkpt>
      <trkpt lat="45.96589" lon="6.89815">
        <ele>1635</ele>
        <time>2010-06-27T09:17:18Z</time>
      </trkpt>
      <trkpt lat="45.96587" lon="6.89812">
        <ele>1635.5999755859</ele>
        <time>2010-06-27T09:17:21Z</time>
      </trkpt>
      <trkpt lat="45.96584" lon="6.89808">
        <ele>1636.4000244141</ele>
        <time>2010-06-27T09:17:24Z</time>
      </trkpt>
      <trkpt lat="45.96582" lon="6.89804">
        <ele>1637.5999755859</ele>
        <time>2010-06-27T09:17:29Z</time>
      </trkpt>
      <trkpt lat="45.96575" lon="6.89799">
        <ele>1638.8000488281</ele>
        <time>2010-06-27T09:17:35Z</time>
      </trkpt>
      <trkpt lat="45.96571" lon="6.89798">
        <ele>1639.1999511719</ele>
        <time>2010-06-27T09:17:38Z</time>
      </trkpt>
      <trkpt lat="45.96568" lon="6.89797">
        <ele>1639.8000488281</ele>
        <time>2010-06-27T09:17:42Z</time>
      </trkpt>
      <trkpt lat="45.96567" lon="6.89797">
        <ele>1640</ele>
        <time>2010-06-27T09:17:43Z</time>
      </trkpt>
      <trkpt lat="45.9656" lon="6.89792">
        <ele>1640.8000488281</ele>
        <time>2010-06-27T09:17:48Z</time>
      </trkpt>
      <trkpt lat="45.96559" lon="6.89789">
        <ele>1641</ele>
        <time>2010-06-27T09:17:50Z</time>
      </trkpt>
      <trkpt lat="45.96556" lon="6.89785">
        <ele>1641.8000488281</ele>
        <time>2010-06-27T09:17:55Z</time>
      </trkpt>
      <trkpt lat="45.96554" lon="6.89783">
        <ele>1642</ele>
        <time>2010-06-27T09:17:58Z</time>
      </trkpt>
      <trkpt lat="45.96553" lon="6.89777">
        <ele>1642.8000488281</ele>
        <time>2010-06-27T09:18:03Z</time>
      </trkpt>
      <trkpt lat="45.96548" lon="6.89766">
        <ele>1644.5999755859</ele>
        <time>2010-06-27T09:18:14Z</time>
      </trkpt>
      <trkpt lat="45.96548" lon="6.89762">
        <ele>1645.4000244141</ele>
        <time>2010-06-27T09:18:17Z</time>
      </trkpt>
      <trkpt lat="45.96554" lon="6.89759">
        <ele>1646.8000488281</ele>
        <time>2010-06-27T09:18:24Z</time>
      </trkpt>
      <trkpt lat="45.96555" lon="6.89759">
        <ele>1647</ele>
        <time>2010-06-27T09:18:25Z</time>
      </trkpt>
      <trkpt lat="45.96563" lon="6.89759">
        <ele>1647.8000488281</ele>
        <time>2010-06-27T09:18:32Z</time>
      </trkpt>
      <trkpt lat="45.96564" lon="6.89756">
        <ele>1648.1999511719</ele>
        <time>2010-06-27T09:18:35Z</time>
      </trkpt>
      <trkpt lat="45.96563" lon="6.89755">
        <ele>1648.4000244141</ele>
        <time>2010-06-27T09:18:36Z</time>
      </trkpt>
      <trkpt lat="45.9656" lon="6.89747">
        <ele>1649.1999511719</ele>
        <time>2010-06-27T09:18:43Z</time>
      </trkpt>
      <trkpt lat="45.96557" lon="6.89745">
        <ele>1650</ele>
        <time>2010-06-27T09:18:47Z</time>
      </trkpt>
      <trkpt lat="45.96555" lon="6.89739">
        <ele>1651.4000244141</ele>
        <time>2010-06-27T09:18:52Z</time>
      </trkpt>
      <trkpt lat="45.96558" lon="6.89732">
        <ele>1653.5999755859</ele>
        <time>2010-06-27T09:19:00Z</time>
      </trkpt>
      <trkpt lat="45.96564" lon="6.8973">
        <ele>1654.4000244141</ele>
        <time>2010-06-27T09:19:07Z</time>
      </trkpt>
      <trkpt lat="45.96569" lon="6.89733">
        <ele>1655.1999511719</ele>
        <time>2010-06-27T09:19:12Z</time>
      </trkpt>
      <trkpt lat="45.96576" lon="6.89735">
        <ele>1655.5999755859</ele>
        <time>2010-06-27T09:19:17Z</time>
      </trkpt>
      <trkpt lat="45.96579" lon="6.89736">
        <ele>1656.1999511719</ele>
        <time>2010-06-27T09:19:20Z</time>
      </trkpt>
      <trkpt lat="45.96585" lon="6.89735">
        <ele>1657.8000488281</ele>
        <time>2010-06-27T09:19:26Z</time>
      </trkpt>
      <trkpt lat="45.96587" lon="6.89732">
        <ele>1658.4000244141</ele>
        <time>2010-06-27T09:19:29Z</time>
      </trkpt>
      <trkpt lat="45.96593" lon="6.89732">
        <ele>1659.4000244141</ele>
        <time>2010-06-27T09:19:33Z</time>
      </trkpt>
      <trkpt lat="45.96593" lon="6.89732">
        <ele>1659.5999755859</ele>
        <time>2010-06-27T09:19:34Z</time>
      </trkpt>
      <trkpt lat="45.96601" lon="6.89735">
        <ele>1662</ele>
        <time>2010-06-27T09:19:45Z</time>
      </trkpt>
      <trkpt lat="45.96613" lon="6.89734">
        <ele>1667</ele>
        <time>2010-06-27T09:19:59Z</time>
      </trkpt>
      <trkpt lat="45.96616" lon="6.89744">
        <ele>1669.1999511719</ele>
        <time>2010-06-27T09:20:06Z</time>
      </trkpt>
      <trkpt lat="45.96618" lon="6.89744">
        <ele>1669.5999755859</ele>
        <time>2010-06-27T09:20:07Z</time>
      </trkpt>
      <trkpt lat="45.96617" lon="6.8974">
        <ele>1671.5999755859</ele>
        <time>2010-06-27T09:20:12Z</time>
      </trkpt>
      <trkpt lat="45.96613" lon="6.89732">
        <ele>1673.1999511719</ele>
        <time>2010-06-27T09:20:16Z</time>
      </trkpt>
      <trkpt lat="45.96613" lon="6.89731">
        <ele>1673.5999755859</ele>
        <time>2010-06-27T09:20:17Z</time>
      </trkpt>
      <trkpt lat="45.96612" lon="6.89725">
        <ele>1676</ele>
        <time>2010-06-27T09:20:23Z</time>
      </trkpt>
      <trkpt lat="45.96616" lon="6.89733">
        <ele>1677.1999511719</ele>
        <time>2010-06-27T09:20:28Z</time>
      </trkpt>
      <trkpt lat="45.96628" lon="6.89734">
        <ele>1678.1999511719</ele>
        <time>2010-06-27T09:20:36Z</time>
      </trkpt>
      <trkpt lat="45.96626" lon="6.89719">
        <ele>1685.5999755859</ele>
        <time>2010-06-27T09:20:56Z</time>
      </trkpt>
      <trkpt lat="45.96628" lon="6.89718">
        <ele>1686.8000488281</ele>
        <time>2010-06-27T09:21:00Z</time>
      </trkpt>
      <trkpt lat="45.96628" lon="6.89715">
        <ele>1688</ele>
        <time>2010-06-27T09:21:03Z</time>
      </trkpt>
      <trkpt lat="45.96629" lon="6.89715">
        <ele>1688.1999511719</ele>
        <time>2010-06-27T09:21:04Z</time>
      </trkpt>
      <trkpt lat="45.96634" lon="6.89704">
        <ele>1690.4000244141</ele>
        <time>2010-06-27T09:21:14Z</time>
      </trkpt>
      <trkpt lat="45.9663" lon="6.89697">
        <ele>1692.5999755859</ele>
        <time>2010-06-27T09:21:21Z</time>
      </trkpt>
      <trkpt lat="45.96629" lon="6.89697">
        <ele>1693.5999755859</ele>
        <time>2010-06-27T09:21:24Z</time>
      </trkpt>
      <trkpt lat="45.96627" lon="6.89694">
        <ele>1694.4000244141</ele>
        <time>2010-06-27T09:21:28Z</time>
      </trkpt>
      <trkpt lat="45.96628" lon="6.89689">
        <ele>1695.1999511719</ele>
        <time>2010-06-27T09:21:33Z</time>
      </trkpt>
      <trkpt lat="45.96625" lon="6.89687">
        <ele>1696</ele>
        <time>2010-06-27T09:21:36Z</time>
      </trkpt>
      <trkpt lat="45.96622" lon="6.89687">
        <ele>1696.8000488281</ele>
        <time>2010-06-27T09:21:40Z</time>
      </trkpt>
      <trkpt lat="45.96619" lon="6.89686">
        <ele>1697.5999755859</ele>
        <time>2010-06-27T09:21:44Z</time>
      </trkpt>
      <trkpt lat="45.96619" lon="6.89682">
        <ele>1697.8000488281</ele>
        <time>2010-06-27T09:21:47Z</time>
      </trkpt>
      <trkpt lat="45.96619" lon="6.89681">
        <ele>1697.5999755859</ele>
        <time>2010-06-27T09:21:48Z</time>
      </trkpt>
      <trkpt lat="45.9662" lon="6.89678">
        <ele>1697.5999755859</ele>
        <time>2010-06-27T09:21:51Z</time>
      </trkpt>
      <trkpt lat="45.96613" lon="6.89657">
        <ele>1698.4000244141</ele>
        <time>2010-06-27T09:21:58Z</time>
      </trkpt>
      <trkpt lat="45.96603" lon="6.89634">
        <ele>1699.5999755859</ele>
        <time>2010-06-27T09:22:05Z</time>
      </trkpt>
      <trkpt lat="45.96599" lon="6.8963">
        <ele>1700</ele>
        <time>2010-06-27T09:22:08Z</time>
      </trkpt>
      <trkpt lat="45.96598" lon="6.89625">
        <ele>1700.1999511719</ele>
        <time>2010-06-27T09:22:10Z</time>
      </trkpt>
      <trkpt lat="45.96593" lon="6.89611">
        <ele>1700.8000488281</ele>
        <time>2010-06-27T09:22:15Z</time>
      </trkpt>
      <trkpt lat="45.96585" lon="6.8959">
        <ele>1702</ele>
        <time>2010-06-27T09:22:29Z</time>
      </trkpt>
      <trkpt lat="45.96584" lon="6.89588">
        <ele>1702</ele>
        <time>2010-06-27T09:22:30Z</time>
      </trkpt>
      <trkpt lat="45.96579" lon="6.89579">
        <ele>1702.8000488281</ele>
        <time>2010-06-27T09:22:38Z</time>
      </trkpt>
      <trkpt lat="45.96574" lon="6.89575">
        <ele>1703.4000244141</ele>
        <time>2010-06-27T09:22:43Z</time>
      </trkpt>
      <trkpt lat="45.96571" lon="6.89573">
        <ele>1703.8000488281</ele>
        <time>2010-06-27T09:22:47Z</time>
      </trkpt>
      <trkpt lat="45.96567" lon="6.89572">
        <ele>1704.4000244141</ele>
        <time>2010-06-27T09:22:50Z</time>
      </trkpt>
      <trkpt lat="45.96556" lon="6.89558">
        <ele>1705.8000488281</ele>
        <time>2010-06-27T09:23:02Z</time>
      </trkpt>
      <trkpt lat="45.96546" lon="6.89546">
        <ele>1706.8000488281</ele>
        <time>2010-06-27T09:23:13Z</time>
      </trkpt>
      <trkpt lat="45.96544" lon="6.89541">
        <ele>1706.8000488281</ele>
        <time>2010-06-27T09:23:17Z</time>
      </trkpt>
      <trkpt lat="45.96544" lon="6.89537">
        <ele>1707</ele>
        <time>2010-06-27T09:23:19Z</time>
      </trkpt>
      <trkpt lat="45.96542" lon="6.89534">
        <ele>1707.1999511719</ele>
        <time>2010-06-27T09:23:21Z</time>
      </trkpt>
      <trkpt lat="45.96538" lon="6.89523">
        <ele>1708</ele>
        <time>2010-06-27T09:23:30Z</time>
      </trkpt>
      <trkpt lat="45.96534" lon="6.89517">
        <ele>1708.8000488281</ele>
        <time>2010-06-27T09:23:36Z</time>
      </trkpt>
      <trkpt lat="45.96533" lon="6.89515">
        <ele>1709.1999511719</ele>
        <time>2010-06-27T09:23:39Z</time>
      </trkpt>
      <trkpt lat="45.96529" lon="6.89503">
        <ele>1711</ele>
        <time>2010-06-27T09:23:50Z</time>
      </trkpt>
      <trkpt lat="45.96528" lon="6.89499">
        <ele>1711.8000488281</ele>
        <time>2010-06-27T09:23:53Z</time>
      </trkpt>
      <trkpt lat="45.96528" lon="6.89494">
        <ele>1712.4000244141</ele>
        <time>2010-06-27T09:23:56Z</time>
      </trkpt>
      <trkpt lat="45.96526" lon="6.89492">
        <ele>1713.1999511719</ele>
        <time>2010-06-27T09:23:59Z</time>
      </trkpt>
      <trkpt lat="45.96526" lon="6.89492">
        <ele>1713.5999755859</ele>
        <time>2010-06-27T09:24:00Z</time>
      </trkpt>
      <trkpt lat="45.9651" lon="6.8948">
        <ele>1717.8000488281</ele>
        <time>2010-06-27T09:24:19Z</time>
      </trkpt>
      <trkpt lat="45.96509" lon="6.89477">
        <ele>1718.4000244141</ele>
        <time>2010-06-27T09:24:22Z</time>
      </trkpt>
      <trkpt lat="45.9651" lon="6.89472">
        <ele>1719.4000244141</ele>
        <time>2010-06-27T09:24:26Z</time>
      </trkpt>
      <trkpt lat="45.96508" lon="6.89471">
        <ele>1720.4000244141</ele>
        <time>2010-06-27T09:24:29Z</time>
      </trkpt>
      <trkpt lat="45.96505" lon="6.89471">
        <ele>1721.4000244141</ele>
        <time>2010-06-27T09:24:33Z</time>
      </trkpt>
      <trkpt lat="45.96504" lon="6.89467">
        <ele>1722.5999755859</ele>
        <time>2010-06-27T09:24:37Z</time>
      </trkpt>
      <trkpt lat="45.96504" lon="6.89466">
        <ele>1722.8000488281</ele>
        <time>2010-06-27T09:24:38Z</time>
      </trkpt>
      <trkpt lat="45.96506" lon="6.89463">
        <ele>1723.8000488281</ele>
        <time>2010-06-27T09:24:41Z</time>
      </trkpt>
      <trkpt lat="45.96505" lon="6.89454">
        <ele>1725.5999755859</ele>
        <time>2010-06-27T09:24:50Z</time>
      </trkpt>
      <trkpt lat="45.965" lon="6.89451">
        <ele>1726.8000488281</ele>
        <time>2010-06-27T09:24:54Z</time>
      </trkpt>
      <trkpt lat="45.96492" lon="6.89447">
        <ele>1729.1999511719</ele>
        <time>2010-06-27T09:25:02Z</time>
      </trkpt>
      <trkpt lat="45.96491" lon="6.89441">
        <ele>1730.1999511719</ele>
        <time>2010-06-27T09:25:06Z</time>
      </trkpt>
      <trkpt lat="45.96491" lon="6.8944">
        <ele>1730.5999755859</ele>
        <time>2010-06-27T09:25:07Z</time>
      </trkpt>
      <trkpt lat="45.96489" lon="6.89431">
        <ele>1732.4000244141</ele>
        <time>2010-06-27T09:25:14Z</time>
      </trkpt>
      <trkpt lat="45.96486" lon="6.89422">
        <ele>1734</ele>
        <time>2010-06-27T09:25:21Z</time>
      </trkpt>
      <trkpt lat="45.96482" lon="6.89415">
        <ele>1736.8000488281</ele>
        <time>2010-06-27T09:25:31Z</time>
      </trkpt>
      <trkpt lat="45.96482" lon="6.894">
        <ele>1738.4000244141</ele>
        <time>2010-06-27T09:25:40Z</time>
      </trkpt>
      <trkpt lat="45.96482" lon="6.89399">
        <ele>1738.5999755859</ele>
        <time>2010-06-27T09:25:41Z</time>
      </trkpt>
      <trkpt lat="45.9648" lon="6.89392">
        <ele>1739</ele>
        <time>2010-06-27T09:25:45Z</time>
      </trkpt>
      <trkpt lat="45.96473" lon="6.89375">
        <ele>1740</ele>
        <time>2010-06-27T09:25:55Z</time>
      </trkpt>
      <trkpt lat="45.9646" lon="6.89358">
        <ele>1741.8000488281</ele>
        <time>2010-06-27T09:26:09Z</time>
      </trkpt>
      <trkpt lat="45.96452" lon="6.89334">
        <ele>1743.5999755859</ele>
        <time>2010-06-27T09:26:24Z</time>
      </trkpt>
      <trkpt lat="45.96447" lon="6.89307">
        <ele>1746.4000244141</ele>
        <time>2010-06-27T09:26:42Z</time>
      </trkpt>
      <trkpt lat="45.96442" lon="6.89282">
        <ele>1749.5999755859</ele>
        <time>2010-06-27T09:26:59Z</time>
      </trkpt>
      <trkpt lat="45.9644" lon="6.89265">
        <ele>1752.4000244141</ele>
        <time>2010-06-27T09:27:10Z</time>
      </trkpt>
      <trkpt lat="45.9644" lon="6.89257">
        <ele>1753.5999755859</ele>
        <time>2010-06-27T09:27:16Z</time>
      </trkpt>
      <trkpt lat="45.96438" lon="6.89232">
        <ele>1756.8000488281</ele>
        <time>2010-06-27T09:27:31Z</time>
      </trkpt>
      <trkpt lat="45.96434" lon="6.89206">
        <ele>1760.5999755859</ele>
        <time>2010-06-27T09:27:50Z</time>
      </trkpt>
      <trkpt lat="45.96427" lon="6.89182">
        <ele>1765</ele>
        <time>2010-06-27T09:28:06Z</time>
      </trkpt>
      <trkpt lat="45.96425" lon="6.89172">
        <ele>1767</ele>
        <time>2010-06-27T09:28:13Z</time>
      </trkpt>
      <trkpt lat="45.96423" lon="6.89164">
        <ele>1768</ele>
        <time>2010-06-27T09:28:18Z</time>
      </trkpt>
      <trkpt lat="45.96422" lon="6.89157">
        <ele>1768.8000488281</ele>
        <time>2010-06-27T09:28:23Z</time>
      </trkpt>
      <trkpt lat="45.96416" lon="6.89131">
        <ele>1772.8000488281</ele>
        <time>2010-06-27T09:28:40Z</time>
      </trkpt>
      <trkpt lat="45.96415" lon="6.89125">
        <ele>1774</ele>
        <time>2010-06-27T09:28:45Z</time>
      </trkpt>
      <trkpt lat="45.96409" lon="6.89107">
        <ele>1777.1999511719</ele>
        <time>2010-06-27T09:28:58Z</time>
      </trkpt>
      <trkpt lat="45.96405" lon="6.89081">
        <ele>1781</ele>
        <time>2010-06-27T09:29:16Z</time>
      </trkpt>
      <trkpt lat="45.96404" lon="6.89054">
        <ele>1784.1999511719</ele>
        <time>2010-06-27T09:29:33Z</time>
      </trkpt>
      <trkpt lat="45.96405" lon="6.89053">
        <ele>1784.4000244141</ele>
        <time>2010-06-27T09:29:35Z</time>
      </trkpt>
      <trkpt lat="45.96404" lon="6.89049">
        <ele>1785</ele>
        <time>2010-06-27T09:29:38Z</time>
      </trkpt>
      <trkpt lat="45.964" lon="6.89042">
        <ele>1786</ele>
        <time>2010-06-27T09:29:43Z</time>
      </trkpt>
      <trkpt lat="45.96395" lon="6.89033">
        <ele>1786.8000488281</ele>
        <time>2010-06-27T09:29:50Z</time>
      </trkpt>
      <trkpt lat="45.96395" lon="6.89032">
        <ele>1787</ele>
        <time>2010-06-27T09:29:51Z</time>
      </trkpt>
      <trkpt lat="45.9639" lon="6.89024">
        <ele>1788</ele>
        <time>2010-06-27T09:29:57Z</time>
      </trkpt>
      <trkpt lat="45.96385" lon="6.89014">
        <ele>1790.1999511719</ele>
        <time>2010-06-27T09:30:07Z</time>
      </trkpt>
      <trkpt lat="45.96384" lon="6.89012">
        <ele>1790.5999755859</ele>
        <time>2010-06-27T09:30:09Z</time>
      </trkpt>
      <trkpt lat="45.96376" lon="6.88989">
        <ele>1796.1999511719</ele>
        <time>2010-06-27T09:30:30Z</time>
      </trkpt>
      <trkpt lat="45.96369" lon="6.88975">
        <ele>1798.8000488281</ele>
        <time>2010-06-27T09:30:43Z</time>
      </trkpt>
      <trkpt lat="45.96367" lon="6.88973">
        <ele>1799.4000244141</ele>
        <time>2010-06-27T09:30:45Z</time>
      </trkpt>
      <trkpt lat="45.96365" lon="6.88968">
        <ele>1801</ele>
        <time>2010-06-27T09:30:51Z</time>
      </trkpt>
      <trkpt lat="45.96365" lon="6.88965">
        <ele>1801.8000488281</ele>
        <time>2010-06-27T09:30:54Z</time>
      </trkpt>
      <trkpt lat="45.96358" lon="6.88943">
        <ele>1807</ele>
        <time>2010-06-27T09:31:16Z</time>
      </trkpt>
      <trkpt lat="45.96357" lon="6.88938">
        <ele>1807.5999755859</ele>
        <time>2010-06-27T09:31:20Z</time>
      </trkpt>
      <trkpt lat="45.9635" lon="6.8892">
        <ele>1809.8000488281</ele>
        <time>2010-06-27T09:31:36Z</time>
      </trkpt>
      <trkpt lat="45.96343" lon="6.88897">
        <ele>1813.4000244141</ele>
        <time>2010-06-27T09:31:56Z</time>
      </trkpt>
      <trkpt lat="45.96335" lon="6.88871">
        <ele>1817.8000488281</ele>
        <time>2010-06-27T09:32:18Z</time>
      </trkpt>
      <trkpt lat="45.96333" lon="6.88868">
        <ele>1818.4000244141</ele>
        <time>2010-06-27T09:32:21Z</time>
      </trkpt>
      <trkpt lat="45.96332" lon="6.88866">
        <ele>1819</ele>
        <time>2010-06-27T09:32:23Z</time>
      </trkpt>
      <trkpt lat="45.96325" lon="6.88849">
        <ele>1822</ele>
        <time>2010-06-27T09:32:38Z</time>
      </trkpt>
      <trkpt lat="45.96314" lon="6.88828">
        <ele>1826</ele>
        <time>2010-06-27T09:32:54Z</time>
      </trkpt>
      <trkpt lat="45.96305" lon="6.88804">
        <ele>1828.8000488281</ele>
        <time>2010-06-27T09:33:11Z</time>
      </trkpt>
      <trkpt lat="45.96292" lon="6.88784">
        <ele>1831.1999511719</ele>
        <time>2010-06-27T09:33:26Z</time>
      </trkpt>
      <trkpt lat="45.9628" lon="6.88765">
        <ele>1834.4000244141</ele>
        <time>2010-06-27T09:33:42Z</time>
      </trkpt>
      <trkpt lat="45.96262" lon="6.88774">
        <ele>1838.5999755859</ele>
        <time>2010-06-27T09:33:57Z</time>
      </trkpt>
      <trkpt lat="45.96243" lon="6.88778">
        <ele>1840.5999755859</ele>
        <time>2010-06-27T09:34:05Z</time>
      </trkpt>
      <trkpt lat="45.96225" lon="6.88768">
        <ele>1843</ele>
        <time>2010-06-27T09:34:18Z</time>
      </trkpt>
      <trkpt lat="45.9621" lon="6.88755">
        <ele>1846.4000244141</ele>
        <time>2010-06-27T09:34:34Z</time>
      </trkpt>
      <trkpt lat="45.96204" lon="6.88747">
        <ele>1848</ele>
        <time>2010-06-27T09:34:43Z</time>
      </trkpt>
      <trkpt lat="45.96201" lon="6.8875">
        <ele>1849</ele>
        <time>2010-06-27T09:34:47Z</time>
      </trkpt>
      <trkpt lat="45.96197" lon="6.88748">
        <ele>1849.4000244141</ele>
        <time>2010-06-27T09:34:52Z</time>
      </trkpt>
      <trkpt lat="45.96196" lon="6.88744">
        <ele>1849.8000488281</ele>
        <time>2010-06-27T09:34:54Z</time>
      </trkpt>
      <trkpt lat="45.96196" lon="6.8874">
        <ele>1849.8000488281</ele>
        <time>2010-06-27T09:34:55Z</time>
      </trkpt>
      <trkpt lat="45.96194" lon="6.88722">
        <ele>1849.4000244141</ele>
        <time>2010-06-27T09:35:01Z</time>
      </trkpt>
      <trkpt lat="45.96193" lon="6.88717">
        <ele>1849.8000488281</ele>
        <time>2010-06-27T09:35:04Z</time>
      </trkpt>
      <trkpt lat="45.9619" lon="6.88691">
        <ele>1853</ele>
        <time>2010-06-27T09:35:22Z</time>
      </trkpt>
      <trkpt lat="45.96189" lon="6.88665">
        <ele>1855.1999511719</ele>
        <time>2010-06-27T09:35:39Z</time>
      </trkpt>
      <trkpt lat="45.96189" lon="6.88663">
        <ele>1855.1999511719</ele>
        <time>2010-06-27T09:35:40Z</time>
      </trkpt>
      <trkpt lat="45.96191" lon="6.88656">
        <ele>1855.4000244141</ele>
        <time>2010-06-27T09:35:45Z</time>
      </trkpt>
      <trkpt lat="45.96193" lon="6.88639">
        <ele>1856.8000488281</ele>
        <time>2010-06-27T09:35:57Z</time>
      </trkpt>
      <trkpt lat="45.96195" lon="6.88633">
        <ele>1858</ele>
        <time>2010-06-27T09:36:02Z</time>
      </trkpt>
      <trkpt lat="45.96196" lon="6.88632">
        <ele>1858</ele>
        <time>2010-06-27T09:36:03Z</time>
      </trkpt>
      <trkpt lat="45.96198" lon="6.88613">
        <ele>1860.1999511719</ele>
        <time>2010-06-27T09:36:17Z</time>
      </trkpt>
      <trkpt lat="45.96196" lon="6.88609">
        <ele>1860.5999755859</ele>
        <time>2010-06-27T09:36:21Z</time>
      </trkpt>
      <trkpt lat="45.96194" lon="6.8861">
        <ele>1860.8000488281</ele>
        <time>2010-06-27T09:36:23Z</time>
      </trkpt>
      <trkpt lat="45.96183" lon="6.88622">
        <ele>1862.4000244141</ele>
        <time>2010-06-27T09:36:35Z</time>
      </trkpt>
      <trkpt lat="45.96169" lon="6.88639">
        <ele>1866</ele>
        <time>2010-06-27T09:36:52Z</time>
      </trkpt>
      <trkpt lat="45.96153" lon="6.88655">
        <ele>1869</ele>
        <time>2010-06-27T09:37:10Z</time>
      </trkpt>
      <trkpt lat="45.96138" lon="6.8867">
        <ele>1871.4000244141</ele>
        <time>2010-06-27T09:37:24Z</time>
      </trkpt>
      <trkpt lat="45.96121" lon="6.88681">
        <ele>1873</ele>
        <time>2010-06-27T09:37:35Z</time>
      </trkpt>
      <trkpt lat="45.96106" lon="6.88698">
        <ele>1874.5999755859</ele>
        <time>2010-06-27T09:37:43Z</time>
      </trkpt>
      <trkpt lat="45.96092" lon="6.88719">
        <ele>1875.8000488281</ele>
        <time>2010-06-27T09:37:51Z</time>
      </trkpt>
      <trkpt lat="45.96077" lon="6.88731">
        <ele>1875.8000488281</ele>
        <time>2010-06-27T09:37:59Z</time>
      </trkpt>
      <trkpt lat="45.96058" lon="6.88736">
        <ele>1875.4000244141</ele>
        <time>2010-06-27T09:38:07Z</time>
      </trkpt>
      <trkpt lat="45.9604" lon="6.88746">
        <ele>1874.8000488281</ele>
        <time>2010-06-27T09:38:14Z</time>
      </trkpt>
      <trkpt lat="45.96022" lon="6.88755">
        <ele>1874</ele>
        <time>2010-06-27T09:38:22Z</time>
      </trkpt>
      <trkpt lat="45.96021" lon="6.88754">
        <ele>1873.8000488281</ele>
        <time>2010-06-27T09:38:24Z</time>
      </trkpt>
      <trkpt lat="45.96015" lon="6.8875">
        <ele>1873</ele>
        <time>2010-06-27T09:38:31Z</time>
      </trkpt>
      <trkpt lat="45.96012" lon="6.88752">
        <ele>1873</ele>
        <time>2010-06-27T09:38:34Z</time>
      </trkpt>
      <trkpt lat="45.96008" lon="6.88752">
        <ele>1873.1999511719</ele>
        <time>2010-06-27T09:38:41Z</time>
      </trkpt>
      <trkpt lat="45.96003" lon="6.88751">
        <ele>1874.1999511719</ele>
        <time>2010-06-27T09:38:47Z</time>
      </trkpt>
      <trkpt lat="45.95991" lon="6.88745">
        <ele>1878.5999755859</ele>
        <time>2010-06-27T09:40:25Z</time>
      </trkpt>
      <trkpt lat="45.9599" lon="6.88744">
        <ele>1878.5999755859</ele>
        <time>2010-06-27T09:40:26Z</time>
      </trkpt>
      <trkpt lat="45.95987" lon="6.88732">
        <ele>1878.8000488281</ele>
        <time>2010-06-27T09:40:35Z</time>
      </trkpt>
      <trkpt lat="45.9599" lon="6.88729">
        <ele>1878.8000488281</ele>
        <time>2010-06-27T09:40:39Z</time>
      </trkpt>
      <trkpt lat="45.95992" lon="6.88726">
        <ele>1878.8000488281</ele>
        <time>2010-06-27T09:40:43Z</time>
      </trkpt>
      <trkpt lat="45.95993" lon="6.88726">
        <ele>1878.5999755859</ele>
        <time>2010-06-27T09:40:46Z</time>
      </trkpt>
      <trkpt lat="45.96001" lon="6.88728">
        <ele>1878.1999511719</ele>
        <time>2010-06-27T09:40:56Z</time>
      </trkpt>
      <trkpt lat="45.95998" lon="6.88728">
        <ele>1878</ele>
        <time>2010-06-27T09:41:01Z</time>
      </trkpt>
      <trkpt lat="45.95989" lon="6.88723">
        <ele>1878</ele>
        <time>2010-06-27T09:41:11Z</time>
      </trkpt>
      <trkpt lat="45.95982" lon="6.88721">
        <ele>1885.8000488281</ele>
        <time>2010-06-27T09:41:44Z</time>
      </trkpt>
      <trkpt lat="45.95981" lon="6.88718">
        <ele>1886.5999755859</ele>
        <time>2010-06-27T09:41:46Z</time>
      </trkpt>
      <trkpt lat="45.95982" lon="6.88714">
        <ele>1888.1999511719</ele>
        <time>2010-06-27T09:41:50Z</time>
      </trkpt>
      <trkpt lat="45.95987" lon="6.88717">
        <ele>1892.5999755859</ele>
        <time>2010-06-27T09:42:10Z</time>
      </trkpt>
      <trkpt lat="45.95995" lon="6.88719">
        <ele>1890.4000244141</ele>
        <time>2010-06-27T09:42:38Z</time>
      </trkpt>
      <trkpt lat="45.95995" lon="6.88712">
        <ele>1890</ele>
        <time>2010-06-27T09:42:42Z</time>
      </trkpt>
      <trkpt lat="45.95992" lon="6.88687">
        <ele>1889.4000244141</ele>
        <time>2010-06-27T09:42:50Z</time>
      </trkpt>
      <trkpt lat="45.95998" lon="6.88664">
        <ele>1888.8000488281</ele>
        <time>2010-06-27T09:42:56Z</time>
      </trkpt>
      <trkpt lat="45.95999" lon="6.88661">
        <ele>1888.8000488281</ele>
        <time>2010-06-27T09:42:57Z</time>
      </trkpt>
      <trkpt lat="45.96001" lon="6.88642">
        <ele>1888.1999511719</ele>
        <time>2010-06-27T09:43:02Z</time>
      </trkpt>
      <trkpt lat="45.96" lon="6.88634">
        <ele>1888</ele>
        <time>2010-06-27T09:43:04Z</time>
      </trkpt>
      <trkpt lat="45.9599" lon="6.88609">
        <ele>1887.1999511719</ele>
        <time>2010-06-27T09:43:12Z</time>
      </trkpt>
      <trkpt lat="45.95972" lon="6.88596">
        <ele>1886.1999511719</ele>
        <time>2010-06-27T09:43:20Z</time>
      </trkpt>
      <trkpt lat="45.95966" lon="6.88589">
        <ele>1885.8000488281</ele>
        <time>2010-06-27T09:43:24Z</time>
      </trkpt>
      <trkpt lat="45.95966" lon="6.88583">
        <ele>1885.4000244141</ele>
        <time>2010-06-27T09:43:26Z</time>
      </trkpt>
      <trkpt lat="45.95964" lon="6.88573">
        <ele>1885</ele>
        <time>2010-06-27T09:43:29Z</time>
      </trkpt>
      <trkpt lat="45.95954" lon="6.88551">
        <ele>1884</ele>
        <time>2010-06-27T09:43:36Z</time>
      </trkpt>
      <trkpt lat="45.95945" lon="6.88534">
        <ele>1882.8000488281</ele>
        <time>2010-06-27T09:43:43Z</time>
      </trkpt>
      <trkpt lat="45.95943" lon="6.88529">
        <ele>1882.4000244141</ele>
        <time>2010-06-27T09:43:47Z</time>
      </trkpt>
      <trkpt lat="45.95943" lon="6.88528">
        <ele>1882.1999511719</ele>
        <time>2010-06-27T09:43:48Z</time>
      </trkpt>
      <trkpt lat="45.9594" lon="6.8852">
        <ele>1881.5999755859</ele>
        <time>2010-06-27T09:43:54Z</time>
      </trkpt>
      <trkpt lat="45.95935" lon="6.88506">
        <ele>1881</ele>
        <time>2010-06-27T09:44:01Z</time>
      </trkpt>
      <trkpt lat="45.95917" lon="6.88493">
        <ele>1879.8000488281</ele>
        <time>2010-06-27T09:44:10Z</time>
      </trkpt>
      <trkpt lat="45.95903" lon="6.88472">
        <ele>1878.5999755859</ele>
        <time>2010-06-27T09:44:17Z</time>
      </trkpt>
      <trkpt lat="45.95892" lon="6.88448">
        <ele>1877.5999755859</ele>
        <time>2010-06-27T09:44:24Z</time>
      </trkpt>
      <trkpt lat="45.95893" lon="6.88433">
        <ele>1876.8000488281</ele>
        <time>2010-06-27T09:44:30Z</time>
      </trkpt>
      <trkpt lat="45.95894" lon="6.88421">
        <ele>1876.4000244141</ele>
        <time>2010-06-27T09:44:34Z</time>
      </trkpt>
      <trkpt lat="45.95888" lon="6.88394">
        <ele>1875.4000244141</ele>
        <time>2010-06-27T09:44:43Z</time>
      </trkpt>
      <trkpt lat="45.95887" lon="6.88376">
        <ele>1875</ele>
        <time>2010-06-27T09:44:48Z</time>
      </trkpt>
      <trkpt lat="45.95891" lon="6.88372">
        <ele>1875</ele>
        <time>2010-06-27T09:44:50Z</time>
      </trkpt>
      <trkpt lat="45.95889" lon="6.88363">
        <ele>1874.8000488281</ele>
        <time>2010-06-27T09:44:54Z</time>
      </trkpt>
      <trkpt lat="45.95889" lon="6.88361">
        <ele>1874.5999755859</ele>
        <time>2010-06-27T09:44:55Z</time>
      </trkpt>
      <trkpt lat="45.95885" lon="6.88348">
        <ele>1874.4000244141</ele>
        <time>2010-06-27T09:45:02Z</time>
      </trkpt>
      <trkpt lat="45.95874" lon="6.88327">
        <ele>1874.4000244141</ele>
        <time>2010-06-27T09:45:11Z</time>
      </trkpt>
      <trkpt lat="45.95869" lon="6.88299">
        <ele>1874.1999511719</ele>
        <time>2010-06-27T09:45:20Z</time>
      </trkpt>
      <trkpt lat="45.95861" lon="6.88275">
        <ele>1874.1999511719</ele>
        <time>2010-06-27T09:45:28Z</time>
      </trkpt>
      <trkpt lat="45.95853" lon="6.88258">
        <ele>1874.1999511719</ele>
        <time>2010-06-27T09:45:35Z</time>
      </trkpt>
      <trkpt lat="45.95852" lon="6.88251">
        <ele>1874</ele>
        <time>2010-06-27T09:45:38Z</time>
      </trkpt>
      <trkpt lat="45.95852" lon="6.88244">
        <ele>1874</ele>
        <time>2010-06-27T09:45:40Z</time>
      </trkpt>
      <trkpt lat="45.95848" lon="6.88226">
        <ele>1873.8000488281</ele>
        <time>2010-06-27T09:45:45Z</time>
      </trkpt>
      <trkpt lat="45.95837" lon="6.88202">
        <ele>1874.1999511719</ele>
        <time>2010-06-27T09:45:52Z</time>
      </trkpt>
      <trkpt lat="45.95837" lon="6.88199">
        <ele>1874.1999511719</ele>
        <time>2010-06-27T09:45:53Z</time>
      </trkpt>
      <trkpt lat="45.95834" lon="6.88175">
        <ele>1874.4000244141</ele>
        <time>2010-06-27T09:46:02Z</time>
      </trkpt>
      <trkpt lat="45.95832" lon="6.8815">
        <ele>1874.5999755859</ele>
        <time>2010-06-27T09:46:10Z</time>
      </trkpt>
      <trkpt lat="45.95827" lon="6.88123">
        <ele>1874.8000488281</ele>
        <time>2010-06-27T09:46:18Z</time>
      </trkpt>
      <trkpt lat="45.95834" lon="6.88099">
        <ele>1874.8000488281</ele>
        <time>2010-06-27T09:46:27Z</time>
      </trkpt>
      <trkpt lat="45.95835" lon="6.88092">
        <ele>1874.5999755859</ele>
        <time>2010-06-27T09:46:32Z</time>
      </trkpt>
      <trkpt lat="45.95835" lon="6.88085">
        <ele>1874</ele>
        <time>2010-06-27T09:46:46Z</time>
      </trkpt>
      <trkpt lat="45.95837" lon="6.88074">
        <ele>1873.5999755859</ele>
        <time>2010-06-27T09:46:55Z</time>
      </trkpt>
      <trkpt lat="45.95839" lon="6.88072">
        <ele>1873</ele>
        <time>2010-06-27T09:47:01Z</time>
      </trkpt>
      <trkpt lat="45.95839" lon="6.88072">
        <ele>1872.4000244141</ele>
        <time>2010-06-27T09:47:05Z</time>
      </trkpt>
      <trkpt lat="45.95834" lon="6.88076">
        <ele>1871.8000488281</ele>
        <time>2010-06-27T09:47:10Z</time>
      </trkpt>
      <trkpt lat="45.95835" lon="6.88075">
        <ele>1871.5999755859</ele>
        <time>2010-06-27T09:47:11Z</time>
      </trkpt>
      <trkpt lat="45.95841" lon="6.88065">
        <ele>1871.1999511719</ele>
        <time>2010-06-27T09:47:14Z</time>
      </trkpt>
      <trkpt lat="45.9585" lon="6.88052">
        <ele>1870.4000244141</ele>
        <time>2010-06-27T09:47:20Z</time>
      </trkpt>
      <trkpt lat="45.95855" lon="6.88047">
        <ele>1869.8000488281</ele>
        <time>2010-06-27T09:47:24Z</time>
      </trkpt>
      <trkpt lat="45.95856" lon="6.88047">
        <ele>1869.5999755859</ele>
        <time>2010-06-27T09:47:25Z</time>
      </trkpt>
      <trkpt lat="45.95858" lon="6.88044">
        <ele>1869.1999511719</ele>
        <time>2010-06-27T09:47:28Z</time>
      </trkpt>
      <trkpt lat="45.95867" lon="6.88038">
        <ele>1868.1999511719</ele>
        <time>2010-06-27T09:47:36Z</time>
      </trkpt>
      <trkpt lat="45.95871" lon="6.88033">
        <ele>1867.8000488281</ele>
        <time>2010-06-27T09:47:40Z</time>
      </trkpt>
      <trkpt lat="45.95874" lon="6.88027">
        <ele>1867.4000244141</ele>
        <time>2010-06-27T09:47:44Z</time>
      </trkpt>
      <trkpt lat="45.95875" lon="6.88024">
        <ele>1867.1999511719</ele>
        <time>2010-06-27T09:47:46Z</time>
      </trkpt>
      <trkpt lat="45.9588" lon="6.8801">
        <ele>1866.5999755859</ele>
        <time>2010-06-27T09:47:56Z</time>
      </trkpt>
      <trkpt lat="45.95884" lon="6.87994">
        <ele>1866</ele>
        <time>2010-06-27T09:48:05Z</time>
      </trkpt>
      <trkpt lat="45.95884" lon="6.87988">
        <ele>1866</ele>
        <time>2010-06-27T09:48:09Z</time>
      </trkpt>
      <trkpt lat="45.95884" lon="6.87987">
        <ele>1866</ele>
        <time>2010-06-27T09:48:10Z</time>
      </trkpt>
      <trkpt lat="45.95884" lon="6.87985">
        <ele>1866</ele>
        <time>2010-06-27T09:48:11Z</time>
      </trkpt>
      <trkpt lat="45.95897" lon="6.87967">
        <ele>1867.1999511719</ele>
        <time>2010-06-27T09:48:22Z</time>
      </trkpt>
      <trkpt lat="45.95898" lon="6.87964">
        <ele>1867.5999755859</ele>
        <time>2010-06-27T09:48:24Z</time>
      </trkpt>
      <trkpt lat="45.95902" lon="6.87963">
        <ele>1868</ele>
        <time>2010-06-27T09:48:28Z</time>
      </trkpt>
      <trkpt lat="45.9591" lon="6.87948">
        <ele>1868.8000488281</ele>
        <time>2010-06-27T09:48:38Z</time>
      </trkpt>
      <trkpt lat="45.95911" lon="6.87943">
        <ele>1869.1999511719</ele>
        <time>2010-06-27T09:48:41Z</time>
      </trkpt>
      <trkpt lat="45.95919" lon="6.87925">
        <ele>1869.4000244141</ele>
        <time>2010-06-27T09:48:49Z</time>
      </trkpt>
      <trkpt lat="45.95924" lon="6.879">
        <ele>1870</ele>
        <time>2010-06-27T09:48:58Z</time>
      </trkpt>
      <trkpt lat="45.95925" lon="6.87893">
        <ele>1870.1999511719</ele>
        <time>2010-06-27T09:49:02Z</time>
      </trkpt>
      <trkpt lat="45.95924" lon="6.87888">
        <ele>1870.1999511719</ele>
        <time>2010-06-27T09:49:06Z</time>
      </trkpt>
      <trkpt lat="45.95927" lon="6.87884">
        <ele>1870.1999511719</ele>
        <time>2010-06-27T09:49:10Z</time>
      </trkpt>
      <trkpt lat="45.95927" lon="6.87878">
        <ele>1870.1999511719</ele>
        <time>2010-06-27T09:49:14Z</time>
      </trkpt>
      <trkpt lat="45.95927" lon="6.87876">
        <ele>1870.1999511719</ele>
        <time>2010-06-27T09:49:15Z</time>
      </trkpt>
      <trkpt lat="45.95926" lon="6.87871">
        <ele>1870.5999755859</ele>
        <time>2010-06-27T09:49:18Z</time>
      </trkpt>
      <trkpt lat="45.95926" lon="6.8786">
        <ele>1870.5999755859</ele>
        <time>2010-06-27T09:49:25Z</time>
      </trkpt>
      <trkpt lat="45.95922" lon="6.8785">
        <ele>1871.4000244141</ele>
        <time>2010-06-27T09:49:30Z</time>
      </trkpt>
      <trkpt lat="45.95927" lon="6.8784">
        <ele>1871.8000488281</ele>
        <time>2010-06-27T09:49:38Z</time>
      </trkpt>
      <trkpt lat="45.95928" lon="6.87832">
        <ele>1872</ele>
        <time>2010-06-27T09:49:43Z</time>
      </trkpt>
      <trkpt lat="45.95927" lon="6.87824">
        <ele>1872.4000244141</ele>
        <time>2010-06-27T09:49:46Z</time>
      </trkpt>
      <trkpt lat="45.95926" lon="6.87812">
        <ele>1872.4000244141</ele>
        <time>2010-06-27T09:49:50Z</time>
      </trkpt>
      <trkpt lat="45.95918" lon="6.87804">
        <ele>1872.8000488281</ele>
        <time>2010-06-27T09:49:54Z</time>
      </trkpt>
      <trkpt lat="45.95907" lon="6.87796">
        <ele>1873.1999511719</ele>
        <time>2010-06-27T09:49:58Z</time>
      </trkpt>
      <trkpt lat="45.959" lon="6.8779">
        <ele>1873.4000244141</ele>
        <time>2010-06-27T09:50:01Z</time>
      </trkpt>
      <trkpt lat="45.95889" lon="6.87768">
        <ele>1874.1999511719</ele>
        <time>2010-06-27T09:50:08Z</time>
      </trkpt>
      <trkpt lat="45.95871" lon="6.87757">
        <ele>1874.8000488281</ele>
        <time>2010-06-27T09:50:15Z</time>
      </trkpt>
      <trkpt lat="45.95853" lon="6.87744">
        <ele>1875.4000244141</ele>
        <time>2010-06-27T09:50:22Z</time>
      </trkpt>
      <trkpt lat="45.95838" lon="6.8773">
        <ele>1876.4000244141</ele>
        <time>2010-06-27T09:50:29Z</time>
      </trkpt>
      <trkpt lat="45.9584" lon="6.87715">
        <ele>1876.8000488281</ele>
        <time>2010-06-27T09:50:33Z</time>
      </trkpt>
      <trkpt lat="45.95844" lon="6.87705">
        <ele>1877.1999511719</ele>
        <time>2010-06-27T09:50:36Z</time>
      </trkpt>
      <trkpt lat="45.95856" lon="6.87684">
        <ele>1877.4000244141</ele>
        <time>2010-06-27T09:50:43Z</time>
      </trkpt>
      <trkpt lat="45.95866" lon="6.8766">
        <ele>1877.1999511719</ele>
        <time>2010-06-27T09:50:50Z</time>
      </trkpt>
      <trkpt lat="45.95872" lon="6.87635">
        <ele>1877.5999755859</ele>
        <time>2010-06-27T09:50:57Z</time>
      </trkpt>
      <trkpt lat="45.95879" lon="6.87609">
        <ele>1878</ele>
        <time>2010-06-27T09:51:05Z</time>
      </trkpt>
      <trkpt lat="45.95879" lon="6.87583">
        <ele>1878.8000488281</ele>
        <time>2010-06-27T09:51:13Z</time>
      </trkpt>
      <trkpt lat="45.95877" lon="6.87578">
        <ele>1879</ele>
        <time>2010-06-27T09:51:15Z</time>
      </trkpt>
      <trkpt lat="45.95873" lon="6.87559">
        <ele>1879.5999755859</ele>
        <time>2010-06-27T09:51:25Z</time>
      </trkpt>
      <trkpt lat="45.95866" lon="6.87535">
        <ele>1879.4000244141</ele>
        <time>2010-06-27T09:51:35Z</time>
      </trkpt>
      <trkpt lat="45.95853" lon="6.87514">
        <ele>1879.4000244141</ele>
        <time>2010-06-27T09:51:43Z</time>
      </trkpt>
      <trkpt lat="45.95851" lon="6.87511">
        <ele>1879.4000244141</ele>
        <time>2010-06-27T09:51:44Z</time>
      </trkpt>
      <trkpt lat="45.95842" lon="6.87491">
        <ele>1879</ele>
        <time>2010-06-27T09:51:52Z</time>
      </trkpt>
      <trkpt lat="45.9583" lon="6.87488">
        <ele>1878.8000488281</ele>
        <time>2010-06-27T09:52:01Z</time>
      </trkpt>
      <trkpt lat="45.95824" lon="6.87487">
        <ele>1878.5999755859</ele>
        <time>2010-06-27T09:52:06Z</time>
      </trkpt>
      <trkpt lat="45.95807" lon="6.87482">
        <ele>1878</ele>
        <time>2010-06-27T09:52:16Z</time>
      </trkpt>
      <trkpt lat="45.95788" lon="6.87472">
        <ele>1877.4000244141</ele>
        <time>2010-06-27T09:52:24Z</time>
      </trkpt>
      <trkpt lat="45.95771" lon="6.87458">
        <ele>1877.1999511719</ele>
        <time>2010-06-27T09:52:32Z</time>
      </trkpt>
      <trkpt lat="45.95758" lon="6.8744">
        <ele>1877.1999511719</ele>
        <time>2010-06-27T09:52:41Z</time>
      </trkpt>
      <trkpt lat="45.95757" lon="6.8744">
        <ele>1877.1999511719</ele>
        <time>2010-06-27T09:52:42Z</time>
      </trkpt>
      <trkpt lat="45.95751" lon="6.87433">
        <ele>1877</ele>
        <time>2010-06-27T09:52:48Z</time>
      </trkpt>
      <trkpt lat="45.95741" lon="6.87429">
        <ele>1876.8000488281</ele>
        <time>2010-06-27T09:52:54Z</time>
      </trkpt>
      <trkpt lat="45.95735" lon="6.87426">
        <ele>1876.8000488281</ele>
        <time>2010-06-27T09:52:57Z</time>
      </trkpt>
      <trkpt lat="45.95724" lon="6.87421">
        <ele>1876.8000488281</ele>
        <time>2010-06-27T09:53:02Z</time>
      </trkpt>
      <trkpt lat="45.95707" lon="6.87407">
        <ele>1877.8000488281</ele>
        <time>2010-06-27T09:53:11Z</time>
      </trkpt>
      <trkpt lat="45.95694" lon="6.87386">
        <ele>1878.4000244141</ele>
        <time>2010-06-27T09:53:23Z</time>
      </trkpt>
      <trkpt lat="45.95693" lon="6.87384">
        <ele>1878.5999755859</ele>
        <time>2010-06-27T09:53:24Z</time>
      </trkpt>
      <trkpt lat="45.95686" lon="6.87376">
        <ele>1878.5999755859</ele>
        <time>2010-06-27T09:53:29Z</time>
      </trkpt>
      <trkpt lat="45.95682" lon="6.87367">
        <ele>1878.5999755859</ele>
        <time>2010-06-27T09:53:33Z</time>
      </trkpt>
      <trkpt lat="45.95664" lon="6.87361">
        <ele>1878.1999511719</ele>
        <time>2010-06-27T09:53:44Z</time>
      </trkpt>
      <trkpt lat="45.95663" lon="6.87362">
        <ele>1878.1999511719</ele>
        <time>2010-06-27T09:53:45Z</time>
      </trkpt>
      <trkpt lat="45.95659" lon="6.87364">
        <ele>1878</ele>
        <time>2010-06-27T09:53:47Z</time>
      </trkpt>
      <trkpt lat="45.95646" lon="6.87369">
        <ele>1877.5999755859</ele>
        <time>2010-06-27T09:53:55Z</time>
      </trkpt>
      <trkpt lat="45.95626" lon="6.87367">
        <ele>1877.1999511719</ele>
        <time>2010-06-27T09:54:03Z</time>
      </trkpt>
      <trkpt lat="45.95609" lon="6.87366">
        <ele>1877.1999511719</ele>
        <time>2010-06-27T09:54:11Z</time>
      </trkpt>
      <trkpt lat="45.95589" lon="6.87361">
        <ele>1877.1999511719</ele>
        <time>2010-06-27T09:54:20Z</time>
      </trkpt>
      <trkpt lat="45.95571" lon="6.87356">
        <ele>1877.1999511719</ele>
        <time>2010-06-27T09:54:28Z</time>
      </trkpt>
      <trkpt lat="45.95552" lon="6.87346">
        <ele>1877</ele>
        <time>2010-06-27T09:54:36Z</time>
      </trkpt>
      <trkpt lat="45.95533" lon="6.87342">
        <ele>1877</ele>
        <time>2010-06-27T09:54:44Z</time>
      </trkpt>
      <trkpt lat="45.95528" lon="6.87342">
        <ele>1877</ele>
        <time>2010-06-27T09:54:46Z</time>
      </trkpt>
      <trkpt lat="45.95514" lon="6.87337">
        <ele>1877</ele>
        <time>2010-06-27T09:54:52Z</time>
      </trkpt>
      <trkpt lat="45.95495" lon="6.87331">
        <ele>1876.8000488281</ele>
        <time>2010-06-27T09:55:00Z</time>
      </trkpt>
      <trkpt lat="45.95477" lon="6.87328">
        <ele>1876.8000488281</ele>
        <time>2010-06-27T09:55:08Z</time>
      </trkpt>
      <trkpt lat="45.95463" lon="6.8733">
        <ele>1876.5999755859</ele>
        <time>2010-06-27T09:55:14Z</time>
      </trkpt>
      <trkpt lat="45.95461" lon="6.87326">
        <ele>1876.5999755859</ele>
        <time>2010-06-27T09:55:16Z</time>
      </trkpt>
      <trkpt lat="45.95457" lon="6.87311">
        <ele>1876.4000244141</ele>
        <time>2010-06-27T09:55:21Z</time>
      </trkpt>
      <trkpt lat="45.95452" lon="6.87302">
        <ele>1876.1999511719</ele>
        <time>2010-06-27T09:55:25Z</time>
      </trkpt>
      <trkpt lat="45.95441" lon="6.8728">
        <ele>1875.5999755859</ele>
        <time>2010-06-27T09:55:34Z</time>
      </trkpt>
      <trkpt lat="45.95432" lon="6.8727">
        <ele>1874.8000488281</ele>
        <time>2010-06-27T09:55:40Z</time>
      </trkpt>
      <trkpt lat="45.9543" lon="6.87267">
        <ele>1874.5999755859</ele>
        <time>2010-06-27T09:55:42Z</time>
      </trkpt>
      <trkpt lat="45.95428" lon="6.87261">
        <ele>1874.4000244141</ele>
        <time>2010-06-27T09:55:44Z</time>
      </trkpt>
      <trkpt lat="45.95419" lon="6.87251">
        <ele>1873.8000488281</ele>
        <time>2010-06-27T09:55:49Z</time>
      </trkpt>
      <trkpt lat="45.95418" lon="6.87241">
        <ele>1873.4000244141</ele>
        <time>2010-06-27T09:55:53Z</time>
      </trkpt>
      <trkpt lat="45.95416" lon="6.87234">
        <ele>1873</ele>
        <time>2010-06-27T09:55:56Z</time>
      </trkpt>
      <trkpt lat="45.95407" lon="6.87218">
        <ele>1872.4000244141</ele>
        <time>2010-06-27T09:56:02Z</time>
      </trkpt>
      <trkpt lat="45.95399" lon="6.87194">
        <ele>1871.5999755859</ele>
        <time>2010-06-27T09:56:11Z</time>
      </trkpt>
      <trkpt lat="45.95383" lon="6.87185">
        <ele>1870.5999755859</ele>
        <time>2010-06-27T09:56:19Z</time>
      </trkpt>
      <trkpt lat="45.95364" lon="6.87189">
        <ele>1869.1999511719</ele>
        <time>2010-06-27T09:56:30Z</time>
      </trkpt>
      <trkpt lat="45.95362" lon="6.87186">
        <ele>1868.8000488281</ele>
        <time>2010-06-27T09:56:32Z</time>
      </trkpt>
      <trkpt lat="45.9536" lon="6.87182">
        <ele>1868.4000244141</ele>
        <time>2010-06-27T09:56:36Z</time>
      </trkpt>
      <trkpt lat="45.95359" lon="6.8718">
        <ele>1868.4000244141</ele>
        <time>2010-06-27T09:56:37Z</time>
      </trkpt>
      <trkpt lat="45.95351" lon="6.87176">
        <ele>1867.8000488281</ele>
        <time>2010-06-27T09:56:43Z</time>
      </trkpt>
      <trkpt lat="45.9535" lon="6.87176">
        <ele>1867.5999755859</ele>
        <time>2010-06-27T09:56:44Z</time>
      </trkpt>
      <trkpt lat="45.95345" lon="6.87177">
        <ele>1867.4000244141</ele>
        <time>2010-06-27T09:56:46Z</time>
      </trkpt>
      <trkpt lat="45.95337" lon="6.87184">
        <ele>1867.1999511719</ele>
        <time>2010-06-27T09:56:50Z</time>
      </trkpt>
      <trkpt lat="45.95333" lon="6.8719">
        <ele>1867</ele>
        <time>2010-06-27T09:56:52Z</time>
      </trkpt>
      <trkpt lat="45.95326" lon="6.87193">
        <ele>1866.8000488281</ele>
        <time>2010-06-27T09:56:55Z</time>
      </trkpt>
      <trkpt lat="45.95321" lon="6.87178">
        <ele>1866.4000244141</ele>
        <time>2010-06-27T09:57:01Z</time>
      </trkpt>
      <trkpt lat="45.95309" lon="6.87157">
        <ele>1866.1999511719</ele>
        <time>2010-06-27T09:57:09Z</time>
      </trkpt>
      <trkpt lat="45.95304" lon="6.87149">
        <ele>1866</ele>
        <time>2010-06-27T09:57:16Z</time>
      </trkpt>
      <trkpt lat="45.95302" lon="6.87135">
        <ele>1866.8000488281</ele>
        <time>2010-06-27T09:57:23Z</time>
      </trkpt>
      <trkpt lat="45.953" lon="6.87124">
        <ele>1868.8000488281</ele>
        <time>2010-06-27T09:57:27Z</time>
      </trkpt>
      <trkpt lat="45.95298" lon="6.87115">
        <ele>1869.1999511719</ele>
        <time>2010-06-27T09:57:30Z</time>
      </trkpt>
      <trkpt lat="45.95295" lon="6.8711">
        <ele>1869.1999511719</ele>
        <time>2010-06-27T09:57:32Z</time>
      </trkpt>
      <trkpt lat="45.95283" lon="6.87105">
        <ele>1869.4000244141</ele>
        <time>2010-06-27T09:57:37Z</time>
      </trkpt>
      <trkpt lat="45.95277" lon="6.87102">
        <ele>1869.4000244141</ele>
        <time>2010-06-27T09:57:42Z</time>
      </trkpt>
      <trkpt lat="45.95266" lon="6.87082">
        <ele>1869.5999755859</ele>
        <time>2010-06-27T09:57:50Z</time>
      </trkpt>
      <trkpt lat="45.95247" lon="6.87087">
        <ele>1869.1999511719</ele>
        <time>2010-06-27T09:57:58Z</time>
      </trkpt>
      <trkpt lat="45.95245" lon="6.87086">
        <ele>1869.1999511719</ele>
        <time>2010-06-27T09:58:00Z</time>
      </trkpt>
      <trkpt lat="45.9523" lon="6.87089">
        <ele>1868.8000488281</ele>
        <time>2010-06-27T09:58:07Z</time>
      </trkpt>
      <trkpt lat="45.95214" lon="6.87076">
        <ele>1868.1999511719</ele>
        <time>2010-06-27T09:58:15Z</time>
      </trkpt>
      <trkpt lat="45.95202" lon="6.87081">
        <ele>1867.8000488281</ele>
        <time>2010-06-27T09:58:20Z</time>
      </trkpt>
      <trkpt lat="45.95194" lon="6.87086">
        <ele>1867.5999755859</ele>
        <time>2010-06-27T09:58:23Z</time>
      </trkpt>
      <trkpt lat="45.95175" lon="6.87086">
        <ele>1866.8000488281</ele>
        <time>2010-06-27T09:58:33Z</time>
      </trkpt>
      <trkpt lat="45.95158" lon="6.87075">
        <ele>1865.8000488281</ele>
        <time>2010-06-27T09:58:49Z</time>
      </trkpt>
      <trkpt lat="45.95151" lon="6.87078">
        <ele>1865.4000244141</ele>
        <time>2010-06-27T09:58:56Z</time>
      </trkpt>
      <trkpt lat="45.95147" lon="6.87083">
        <ele>1865.4000244141</ele>
        <time>2010-06-27T09:59:01Z</time>
      </trkpt>
      <trkpt lat="45.95143" lon="6.87084">
        <ele>1865.1999511719</ele>
        <time>2010-06-27T09:59:05Z</time>
      </trkpt>
      <trkpt lat="45.95141" lon="6.87086">
        <ele>1865.1999511719</ele>
        <time>2010-06-27T09:59:07Z</time>
      </trkpt>
      <trkpt lat="45.95139" lon="6.87087">
        <ele>1865</ele>
        <time>2010-06-27T09:59:11Z</time>
      </trkpt>
      <trkpt lat="45.95139" lon="6.87083">
        <ele>1865.4000244141</ele>
        <time>2010-06-27T09:59:14Z</time>
      </trkpt>
      <trkpt lat="45.95137" lon="6.87076">
        <ele>1865.8000488281</ele>
        <time>2010-06-27T09:59:17Z</time>
      </trkpt>
      <trkpt lat="45.95141" lon="6.87069">
        <ele>1865.4000244141</ele>
        <time>2010-06-27T09:59:20Z</time>
      </trkpt>
      <trkpt lat="45.95139" lon="6.87047">
        <ele>1865.1999511719</ele>
        <time>2010-06-27T09:59:30Z</time>
      </trkpt>
      <trkpt lat="45.95138" lon="6.87049">
        <ele>1865.1999511719</ele>
        <time>2010-06-27T09:59:31Z</time>
      </trkpt>
      <trkpt lat="45.95135" lon="6.87054">
        <ele>1865.1999511719</ele>
        <time>2010-06-27T09:59:33Z</time>
      </trkpt>
      <trkpt lat="45.95131" lon="6.87061">
        <ele>1865</ele>
        <time>2010-06-27T09:59:37Z</time>
      </trkpt>
      <trkpt lat="45.9513" lon="6.87051">
        <ele>1864.8000488281</ele>
        <time>2010-06-27T09:59:40Z</time>
      </trkpt>
      <trkpt lat="45.9513" lon="6.87048">
        <ele>1864.8000488281</ele>
        <time>2010-06-27T09:59:41Z</time>
      </trkpt>
      <trkpt lat="45.95129" lon="6.87025">
        <ele>1864.8000488281</ele>
        <time>2010-06-27T09:59:48Z</time>
      </trkpt>
      <trkpt lat="45.9513" lon="6.86998">
        <ele>1864.8000488281</ele>
        <time>2010-06-27T09:59:56Z</time>
      </trkpt>
      <trkpt lat="45.95128" lon="6.86993">
        <ele>1864.8000488281</ele>
        <time>2010-06-27T09:59:58Z</time>
      </trkpt>
      <trkpt lat="45.95128" lon="6.86978">
        <ele>1864</ele>
        <time>2010-06-27T10:00:04Z</time>
      </trkpt>
      <trkpt lat="45.95127" lon="6.86982">
        <ele>1863.8000488281</ele>
        <time>2010-06-27T10:00:06Z</time>
      </trkpt>
      <trkpt lat="45.95127" lon="6.86985">
        <ele>1863.4000244141</ele>
        <time>2010-06-27T10:00:07Z</time>
      </trkpt>
      <trkpt lat="45.95129" lon="6.86992">
        <ele>1862.8000488281</ele>
        <time>2010-06-27T10:00:10Z</time>
      </trkpt>
      <trkpt lat="45.95123" lon="6.86981">
        <ele>1861</ele>
        <time>2010-06-27T10:00:16Z</time>
      </trkpt>
      <trkpt lat="45.95122" lon="6.86975">
        <ele>1860.5999755859</ele>
        <time>2010-06-27T10:00:18Z</time>
      </trkpt>
      <trkpt lat="45.95122" lon="6.86949">
        <ele>1858.5999755859</ele>
        <time>2010-06-27T10:00:26Z</time>
      </trkpt>
      <trkpt lat="45.95123" lon="6.86936">
        <ele>1857.5999755859</ele>
        <time>2010-06-27T10:00:31Z</time>
      </trkpt>
      <trkpt lat="45.95112" lon="6.86933">
        <ele>1856.8000488281</ele>
        <time>2010-06-27T10:00:36Z</time>
      </trkpt>
      <trkpt lat="45.95109" lon="6.86933">
        <ele>1856.4000244141</ele>
        <time>2010-06-27T10:00:38Z</time>
      </trkpt>
      <trkpt lat="45.95108" lon="6.8693">
        <ele>1855.8000488281</ele>
        <time>2010-06-27T10:00:40Z</time>
      </trkpt>
      <trkpt lat="45.95105" lon="6.86925">
        <ele>1855.1999511719</ele>
        <time>2010-06-27T10:00:43Z</time>
      </trkpt>
      <trkpt lat="45.95097" lon="6.86927">
        <ele>1854.1999511719</ele>
        <time>2010-06-27T10:00:47Z</time>
      </trkpt>
      <trkpt lat="45.95092" lon="6.8693">
        <ele>1853.5999755859</ele>
        <time>2010-06-27T10:00:49Z</time>
      </trkpt>
      <trkpt lat="45.95091" lon="6.8693">
        <ele>1853.4000244141</ele>
        <time>2010-06-27T10:00:50Z</time>
      </trkpt>
      <trkpt lat="45.95079" lon="6.86927">
        <ele>1851.4000244141</ele>
        <time>2010-06-27T10:00:57Z</time>
      </trkpt>
      <trkpt lat="45.95064" lon="6.8693">
        <ele>1848</ele>
        <time>2010-06-27T10:01:07Z</time>
      </trkpt>
      <trkpt lat="45.95062" lon="6.86931">
        <ele>1847.8000488281</ele>
        <time>2010-06-27T10:01:08Z</time>
      </trkpt>
      <trkpt lat="45.95043" lon="6.86924">
        <ele>1845.1999511719</ele>
        <time>2010-06-27T10:01:16Z</time>
      </trkpt>
      <trkpt lat="45.9503" lon="6.86905">
        <ele>1842.4000244141</ele>
        <time>2010-06-27T10:01:25Z</time>
      </trkpt>
      <trkpt lat="45.95029" lon="6.86903">
        <ele>1841.8000488281</ele>
        <time>2010-06-27T10:01:27Z</time>
      </trkpt>
      <trkpt lat="45.95028" lon="6.86899">
        <ele>1841</ele>
        <time>2010-06-27T10:01:30Z</time>
      </trkpt>
      <trkpt lat="45.9502" lon="6.86883">
        <ele>1839.1999511719</ele>
        <time>2010-06-27T10:01:36Z</time>
      </trkpt>
      <trkpt lat="45.95014" lon="6.86875">
        <ele>1838.1999511719</ele>
        <time>2010-06-27T10:01:40Z</time>
      </trkpt>
      <trkpt lat="45.95004" lon="6.86868">
        <ele>1836.8000488281</ele>
        <time>2010-06-27T10:01:45Z</time>
      </trkpt>
      <trkpt lat="45.94989" lon="6.86854">
        <ele>1834.8000488281</ele>
        <time>2010-06-27T10:01:53Z</time>
      </trkpt>
      <trkpt lat="45.94974" lon="6.86838">
        <ele>1832.1999511719</ele>
        <time>2010-06-27T10:02:04Z</time>
      </trkpt>
      <trkpt lat="45.94965" lon="6.86832">
        <ele>1830.1999511719</ele>
        <time>2010-06-27T10:02:13Z</time>
      </trkpt>
      <trkpt lat="45.9496" lon="6.86824">
        <ele>1828.5999755859</ele>
        <time>2010-06-27T10:02:19Z</time>
      </trkpt>
      <trkpt lat="45.94957" lon="6.86822">
        <ele>1827.8000488281</ele>
        <time>2010-06-27T10:02:22Z</time>
      </trkpt>
      <trkpt lat="45.9495" lon="6.86817">
        <ele>1826.4000244141</ele>
        <time>2010-06-27T10:02:29Z</time>
      </trkpt>
      <trkpt lat="45.94944" lon="6.86812">
        <ele>1825</ele>
        <time>2010-06-27T10:02:36Z</time>
      </trkpt>
      <trkpt lat="45.94932" lon="6.8681">
        <ele>1823.4000244141</ele>
        <time>2010-06-27T10:02:46Z</time>
      </trkpt>
      <trkpt lat="45.94926" lon="6.86805">
        <ele>1822.8000488281</ele>
        <time>2010-06-27T10:02:52Z</time>
      </trkpt>
      <trkpt lat="45.94924" lon="6.86799">
        <ele>1822.1999511719</ele>
        <time>2010-06-27T10:02:56Z</time>
      </trkpt>
      <trkpt lat="45.94915" lon="6.86787">
        <ele>1821</ele>
        <time>2010-06-27T10:03:08Z</time>
      </trkpt>
      <trkpt lat="45.94905" lon="6.86784">
        <ele>1820.5999755859</ele>
        <time>2010-06-27T10:03:17Z</time>
      </trkpt>
      <trkpt lat="45.94904" lon="6.86782">
        <ele>1820.4000244141</ele>
        <time>2010-06-27T10:03:19Z</time>
      </trkpt>
      <trkpt lat="45.94899" lon="6.86777">
        <ele>1820.5999755859</ele>
        <time>2010-06-27T10:03:25Z</time>
      </trkpt>
      <trkpt lat="45.94893" lon="6.86776">
        <ele>1821</ele>
        <time>2010-06-27T10:03:30Z</time>
      </trkpt>
      <trkpt lat="45.94891" lon="6.86775">
        <ele>1821.1999511719</ele>
        <time>2010-06-27T10:03:32Z</time>
      </trkpt>
      <trkpt lat="45.94886" lon="6.86769">
        <ele>1822</ele>
        <time>2010-06-27T10:03:37Z</time>
      </trkpt>
      <trkpt lat="45.94885" lon="6.86767">
        <ele>1822.4000244141</ele>
        <time>2010-06-27T10:03:39Z</time>
      </trkpt>
      <trkpt lat="45.94883" lon="6.86765">
        <ele>1822.5999755859</ele>
        <time>2010-06-27T10:03:41Z</time>
      </trkpt>
      <trkpt lat="45.94876" lon="6.86761">
        <ele>1823.5999755859</ele>
        <time>2010-06-27T10:03:48Z</time>
      </trkpt>
      <trkpt lat="45.94871" lon="6.86745">
        <ele>1824.8000488281</ele>
        <time>2010-06-27T10:04:02Z</time>
      </trkpt>
      <trkpt lat="45.94862" lon="6.86722">
        <ele>1825.1999511719</ele>
        <time>2010-06-27T10:04:16Z</time>
      </trkpt>
      <trkpt lat="45.94855" lon="6.86712">
        <ele>1826.1999511719</ele>
        <time>2010-06-27T10:04:26Z</time>
      </trkpt>
      <trkpt lat="45.94849" lon="6.86708">
        <ele>1827.1999511719</ele>
        <time>2010-06-27T10:04:32Z</time>
      </trkpt>
      <trkpt lat="45.94848" lon="6.86707">
        <ele>1827.8000488281</ele>
        <time>2010-06-27T10:04:34Z</time>
      </trkpt>
      <trkpt lat="45.94847" lon="6.86705">
        <ele>1827.8000488281</ele>
        <time>2010-06-27T10:04:35Z</time>
      </trkpt>
      <trkpt lat="45.94847" lon="6.86696">
        <ele>1829.8000488281</ele>
        <time>2010-06-27T10:04:43Z</time>
      </trkpt>
      <trkpt lat="45.94845" lon="6.86689">
        <ele>1830.4000244141</ele>
        <time>2010-06-27T10:04:47Z</time>
      </trkpt>
      <trkpt lat="45.94842" lon="6.86681">
        <ele>1831</ele>
        <time>2010-06-27T10:04:51Z</time>
      </trkpt>
      <trkpt lat="45.94829" lon="6.86663">
        <ele>1833.5999755859</ele>
        <time>2010-06-27T10:05:05Z</time>
      </trkpt>
      <trkpt lat="45.94821" lon="6.86661">
        <ele>1834.5999755859</ele>
        <time>2010-06-27T10:05:12Z</time>
      </trkpt>
      <trkpt lat="45.94813" lon="6.86658">
        <ele>1836</ele>
        <time>2010-06-27T10:05:19Z</time>
      </trkpt>
      <trkpt lat="45.94812" lon="6.86658">
        <ele>1836.1999511719</ele>
        <time>2010-06-27T10:05:20Z</time>
      </trkpt>
      <trkpt lat="45.94807" lon="6.86657">
        <ele>1836.5999755859</ele>
        <time>2010-06-27T10:05:24Z</time>
      </trkpt>
      <trkpt lat="45.94806" lon="6.86657">
        <ele>1837</ele>
        <time>2010-06-27T10:05:26Z</time>
      </trkpt>
      <trkpt lat="45.94801" lon="6.86658">
        <ele>1838.1999511719</ele>
        <time>2010-06-27T10:05:31Z</time>
      </trkpt>
      <trkpt lat="45.94793" lon="6.86658">
        <ele>1839.5999755859</ele>
        <time>2010-06-27T10:05:38Z</time>
      </trkpt>
      <trkpt lat="45.94793" lon="6.86657">
        <ele>1839.8000488281</ele>
        <time>2010-06-27T10:05:39Z</time>
      </trkpt>
      <trkpt lat="45.94778" lon="6.8665">
        <ele>1841.5999755859</ele>
        <time>2010-06-27T10:05:49Z</time>
      </trkpt>
      <trkpt lat="45.94776" lon="6.86648">
        <ele>1841.5999755859</ele>
        <time>2010-06-27T10:05:50Z</time>
      </trkpt>
      <trkpt lat="45.94773" lon="6.86642">
        <ele>1841.8000488281</ele>
        <time>2010-06-27T10:05:52Z</time>
      </trkpt>
      <trkpt lat="45.94766" lon="6.86632">
        <ele>1842.4000244141</ele>
        <time>2010-06-27T10:05:58Z</time>
      </trkpt>
      <trkpt lat="45.94752" lon="6.86634">
        <ele>1843.4000244141</ele>
        <time>2010-06-27T10:06:10Z</time>
      </trkpt>
      <trkpt lat="45.9475" lon="6.8663">
        <ele>1844</ele>
        <time>2010-06-27T10:06:12Z</time>
      </trkpt>
      <trkpt lat="45.94749" lon="6.86629">
        <ele>1844</ele>
        <time>2010-06-27T10:06:13Z</time>
      </trkpt>
      <trkpt lat="45.94738" lon="6.86624">
        <ele>1844.8000488281</ele>
        <time>2010-06-27T10:06:18Z</time>
      </trkpt>
      <trkpt lat="45.94733" lon="6.86627">
        <ele>1845.4000244141</ele>
        <time>2010-06-27T10:06:21Z</time>
      </trkpt>
      <trkpt lat="45.9473" lon="6.86629">
        <ele>1846</ele>
        <time>2010-06-27T10:06:24Z</time>
      </trkpt>
      <trkpt lat="45.94725" lon="6.86629">
        <ele>1847</ele>
        <time>2010-06-27T10:06:28Z</time>
      </trkpt>
      <trkpt lat="45.94719" lon="6.86625">
        <ele>1848</ele>
        <time>2010-06-27T10:06:33Z</time>
      </trkpt>
      <trkpt lat="45.94715" lon="6.86621">
        <ele>1848.8000488281</ele>
        <time>2010-06-27T10:06:37Z</time>
      </trkpt>
      <trkpt lat="45.94715" lon="6.86619">
        <ele>1849</ele>
        <time>2010-06-27T10:06:38Z</time>
      </trkpt>
      <trkpt lat="45.9471" lon="6.86613">
        <ele>1849.8000488281</ele>
        <time>2010-06-27T10:06:43Z</time>
      </trkpt>
      <trkpt lat="45.94707" lon="6.86611">
        <ele>1850.4000244141</ele>
        <time>2010-06-27T10:06:45Z</time>
      </trkpt>
      <trkpt lat="45.94705" lon="6.866">
        <ele>1850</ele>
        <time>2010-06-27T10:06:50Z</time>
      </trkpt>
      <trkpt lat="45.94704" lon="6.86599">
        <ele>1850.1999511719</ele>
        <time>2010-06-27T10:06:51Z</time>
      </trkpt>
      <trkpt lat="45.94703" lon="6.86597">
        <ele>1850.4000244141</ele>
        <time>2010-06-27T10:06:52Z</time>
      </trkpt>
      <trkpt lat="45.94701" lon="6.8659">
        <ele>1851.8000488281</ele>
        <time>2010-06-27T10:06:56Z</time>
      </trkpt>
      <trkpt lat="45.947" lon="6.86583">
        <ele>1852.8000488281</ele>
        <time>2010-06-27T10:07:00Z</time>
      </trkpt>
      <trkpt lat="45.94693" lon="6.86578">
        <ele>1858.5999755859</ele>
        <time>2010-06-27T10:07:08Z</time>
      </trkpt>
      <trkpt lat="45.9469" lon="6.86571">
        <ele>1860</ele>
        <time>2010-06-27T10:07:11Z</time>
      </trkpt>
      <trkpt lat="45.94687" lon="6.8656">
        <ele>1864.5999755859</ele>
        <time>2010-06-27T10:07:16Z</time>
      </trkpt>
      <trkpt lat="45.94686" lon="6.86555">
        <ele>1867.5999755859</ele>
        <time>2010-06-27T10:07:18Z</time>
      </trkpt>
      <trkpt lat="45.94679" lon="6.86546">
        <ele>1874.1999511719</ele>
        <time>2010-06-27T10:07:22Z</time>
      </trkpt>
      <trkpt lat="45.94672" lon="6.86518">
        <ele>1889</ele>
        <time>2010-06-27T10:07:37Z</time>
      </trkpt>
      <trkpt lat="45.94671" lon="6.86514">
        <ele>1888.8000488281</ele>
        <time>2010-06-27T10:07:41Z</time>
      </trkpt>
      <trkpt lat="45.94672" lon="6.86504">
        <ele>1888.4000244141</ele>
        <time>2010-06-27T10:07:46Z</time>
      </trkpt>
      <trkpt lat="45.94664" lon="6.86491">
        <ele>1886.5999755859</ele>
        <time>2010-06-27T10:07:56Z</time>
      </trkpt>
      <trkpt lat="45.94663" lon="6.8647">
        <ele>1884</ele>
        <time>2010-06-27T10:08:08Z</time>
      </trkpt>
      <trkpt lat="45.94659" lon="6.86465">
        <ele>1883.5999755859</ele>
        <time>2010-06-27T10:08:10Z</time>
      </trkpt>
      <trkpt lat="45.94643" lon="6.86449">
        <ele>1882.5999755859</ele>
        <time>2010-06-27T10:08:20Z</time>
      </trkpt>
      <trkpt lat="45.94641" lon="6.86444">
        <ele>1881.5999755859</ele>
        <time>2010-06-27T10:08:27Z</time>
      </trkpt>
      <trkpt lat="45.94631" lon="6.8643">
        <ele>1880.1999511719</ele>
        <time>2010-06-27T10:08:37Z</time>
      </trkpt>
      <trkpt lat="45.9463" lon="6.86429">
        <ele>1880</ele>
        <time>2010-06-27T10:08:38Z</time>
      </trkpt>
      <trkpt lat="45.94619" lon="6.86426">
        <ele>1879</ele>
        <time>2010-06-27T10:08:47Z</time>
      </trkpt>
      <trkpt lat="45.94611" lon="6.86424">
        <ele>1878.5999755859</ele>
        <time>2010-06-27T10:08:53Z</time>
      </trkpt>
      <trkpt lat="45.94602" lon="6.86407">
        <ele>1877.5999755859</ele>
        <time>2010-06-27T10:09:15Z</time>
      </trkpt>
      <trkpt lat="45.94604" lon="6.86404">
        <ele>1877.5999755859</ele>
        <time>2010-06-27T10:09:17Z</time>
      </trkpt>
      <trkpt lat="45.94609" lon="6.86396">
        <ele>1878.4000244141</ele>
        <time>2010-06-27T10:09:24Z</time>
      </trkpt>
      <trkpt lat="45.94611" lon="6.86392">
        <ele>1878.8000488281</ele>
        <time>2010-06-27T10:09:27Z</time>
      </trkpt>
      <trkpt lat="45.94613" lon="6.86386">
        <ele>1879.1999511719</ele>
        <time>2010-06-27T10:09:31Z</time>
      </trkpt>
      <trkpt lat="45.94616" lon="6.86383">
        <ele>1879.5999755859</ele>
        <time>2010-06-27T10:09:34Z</time>
      </trkpt>
      <trkpt lat="45.94619" lon="6.86374">
        <ele>1880</ele>
        <time>2010-06-27T10:09:40Z</time>
      </trkpt>
      <trkpt lat="45.94622" lon="6.86365">
        <ele>1881</ele>
        <time>2010-06-27T10:09:46Z</time>
      </trkpt>
      <trkpt lat="45.94622" lon="6.86364">
        <ele>1881</ele>
        <time>2010-06-27T10:09:47Z</time>
      </trkpt>
      <trkpt lat="45.94624" lon="6.86359">
        <ele>1881.5999755859</ele>
        <time>2010-06-27T10:09:50Z</time>
      </trkpt>
      <trkpt lat="45.94624" lon="6.8634">
        <ele>1884</ele>
        <time>2010-06-27T10:10:02Z</time>
      </trkpt>
      <trkpt lat="45.94622" lon="6.86329">
        <ele>1886.1999511719</ele>
        <time>2010-06-27T10:10:09Z</time>
      </trkpt>
      <trkpt lat="45.9462" lon="6.86324">
        <ele>1888.8000488281</ele>
        <time>2010-06-27T10:10:13Z</time>
      </trkpt>
      <trkpt lat="45.94619" lon="6.86321">
        <ele>1891.4000244141</ele>
        <time>2010-06-27T10:10:17Z</time>
      </trkpt>
      <trkpt lat="45.94621" lon="6.86316">
        <ele>1895</ele>
        <time>2010-06-27T10:10:24Z</time>
      </trkpt>
      <trkpt lat="45.94621" lon="6.86312">
        <ele>1896.4000244141</ele>
        <time>2010-06-27T10:10:28Z</time>
      </trkpt>
      <trkpt lat="45.94621" lon="6.86309">
        <ele>1897.1999511719</ele>
        <time>2010-06-27T10:10:31Z</time>
      </trkpt>
      <trkpt lat="45.94622" lon="6.86297">
        <ele>1898.1999511719</ele>
        <time>2010-06-27T10:10:37Z</time>
      </trkpt>
      <trkpt lat="45.94624" lon="6.86291">
        <ele>1898.8000488281</ele>
        <time>2010-06-27T10:10:42Z</time>
      </trkpt>
      <trkpt lat="45.94633" lon="6.86281">
        <ele>1899.5999755859</ele>
        <time>2010-06-27T10:10:52Z</time>
      </trkpt>
      <trkpt lat="45.94637" lon="6.86276">
        <ele>1900.4000244141</ele>
        <time>2010-06-27T10:10:58Z</time>
      </trkpt>
      <trkpt lat="45.94638" lon="6.86274">
        <ele>1900.8000488281</ele>
        <time>2010-06-27T10:11:01Z</time>
      </trkpt>
      <trkpt lat="45.94643" lon="6.86269">
        <ele>1902.1999511719</ele>
        <time>2010-06-27T10:11:07Z</time>
      </trkpt>
      <trkpt lat="45.94648" lon="6.86261">
        <ele>1903.5999755859</ele>
        <time>2010-06-27T10:11:12Z</time>
      </trkpt>
      <trkpt lat="45.94649" lon="6.86254">
        <ele>1903.8000488281</ele>
        <time>2010-06-27T10:11:14Z</time>
      </trkpt>
      <trkpt lat="45.9465" lon="6.86224">
        <ele>1904.8000488281</ele>
        <time>2010-06-27T10:11:22Z</time>
      </trkpt>
      <trkpt lat="45.94648" lon="6.86197">
        <ele>1905</ele>
        <time>2010-06-27T10:11:30Z</time>
      </trkpt>
      <trkpt lat="45.94647" lon="6.8617">
        <ele>1904.5999755859</ele>
        <time>2010-06-27T10:11:37Z</time>
      </trkpt>
      <trkpt lat="45.94647" lon="6.86143">
        <ele>1904.1999511719</ele>
        <time>2010-06-27T10:11:44Z</time>
      </trkpt>
      <trkpt lat="45.94645" lon="6.86117">
        <ele>1903.5999755859</ele>
        <time>2010-06-27T10:11:51Z</time>
      </trkpt>
      <trkpt lat="45.94642" lon="6.8609">
        <ele>1902.8000488281</ele>
        <time>2010-06-27T10:11:58Z</time>
      </trkpt>
      <trkpt lat="45.94638" lon="6.86061">
        <ele>1901.4000244141</ele>
        <time>2010-06-27T10:12:06Z</time>
      </trkpt>
      <trkpt lat="45.94636" lon="6.86033">
        <ele>1900</ele>
        <time>2010-06-27T10:12:14Z</time>
      </trkpt>
      <trkpt lat="45.94635" lon="6.86007">
        <ele>1898.5999755859</ele>
        <time>2010-06-27T10:12:21Z</time>
      </trkpt>
      <trkpt lat="45.94629" lon="6.85979">
        <ele>1897</ele>
        <time>2010-06-27T10:12:28Z</time>
      </trkpt>
      <trkpt lat="45.9462" lon="6.85956">
        <ele>1895.8000488281</ele>
        <time>2010-06-27T10:12:34Z</time>
      </trkpt>
      <trkpt lat="45.94606" lon="6.85937">
        <ele>1894</ele>
        <time>2010-06-27T10:12:41Z</time>
      </trkpt>
      <trkpt lat="45.94591" lon="6.85919">
        <ele>1892</ele>
        <time>2010-06-27T10:12:48Z</time>
      </trkpt>
      <trkpt lat="45.94574" lon="6.85903">
        <ele>1890</ele>
        <time>2010-06-27T10:12:55Z</time>
      </trkpt>
      <trkpt lat="45.94557" lon="6.85889">
        <ele>1888</ele>
        <time>2010-06-27T10:13:02Z</time>
      </trkpt>
      <trkpt lat="45.94542" lon="6.85871">
        <ele>1886</ele>
        <time>2010-06-27T10:13:09Z</time>
      </trkpt>
      <trkpt lat="45.94526" lon="6.85853">
        <ele>1884</ele>
        <time>2010-06-27T10:13:16Z</time>
      </trkpt>
      <trkpt lat="45.9451" lon="6.85834">
        <ele>1882</ele>
        <time>2010-06-27T10:13:23Z</time>
      </trkpt>
      <trkpt lat="45.94494" lon="6.85818">
        <ele>1880.1999511719</ele>
        <time>2010-06-27T10:13:30Z</time>
      </trkpt>
      <trkpt lat="45.94476" lon="6.85815">
        <ele>1878.1999511719</ele>
        <time>2010-06-27T10:13:37Z</time>
      </trkpt>
      <trkpt lat="45.9446" lon="6.858">
        <ele>1876.1999511719</ele>
        <time>2010-06-27T10:13:44Z</time>
      </trkpt>
      <trkpt lat="45.94443" lon="6.85787">
        <ele>1874.4000244141</ele>
        <time>2010-06-27T10:13:51Z</time>
      </trkpt>
      <trkpt lat="45.94426" lon="6.85776">
        <ele>1872.5999755859</ele>
        <time>2010-06-27T10:13:58Z</time>
      </trkpt>
      <trkpt lat="45.94411" lon="6.85758">
        <ele>1871.1999511719</ele>
        <time>2010-06-27T10:14:05Z</time>
      </trkpt>
      <trkpt lat="45.94409" lon="6.85731">
        <ele>1869</ele>
        <time>2010-06-27T10:14:17Z</time>
      </trkpt>
      <trkpt lat="45.94411" lon="6.85704">
        <ele>1867.4000244141</ele>
        <time>2010-06-27T10:14:33Z</time>
      </trkpt>
      <trkpt lat="45.94411" lon="6.85702">
        <ele>1867.1999511719</ele>
        <time>2010-06-27T10:14:35Z</time>
      </trkpt>
      <trkpt lat="45.94413" lon="6.85685">
        <ele>1867</ele>
        <time>2010-06-27T10:14:47Z</time>
      </trkpt>
      <trkpt lat="45.94414" lon="6.85678">
        <ele>1867.1999511719</ele>
        <time>2010-06-27T10:14:52Z</time>
      </trkpt>
      <trkpt lat="45.94413" lon="6.8567">
        <ele>1867.5999755859</ele>
        <time>2010-06-27T10:14:57Z</time>
      </trkpt>
      <trkpt lat="45.9441" lon="6.85652">
        <ele>1868.4000244141</ele>
        <time>2010-06-27T10:15:07Z</time>
      </trkpt>
      <trkpt lat="45.94398" lon="6.85633">
        <ele>1870.8000488281</ele>
        <time>2010-06-27T10:15:27Z</time>
      </trkpt>
      <trkpt lat="45.94381" lon="6.85622">
        <ele>1872</ele>
        <time>2010-06-27T10:15:42Z</time>
      </trkpt>
      <trkpt lat="45.94362" lon="6.85617">
        <ele>1871.8000488281</ele>
        <time>2010-06-27T10:15:56Z</time>
      </trkpt>
      <trkpt lat="45.94344" lon="6.85621">
        <ele>1871.5999755859</ele>
        <time>2010-06-27T10:16:10Z</time>
      </trkpt>
      <trkpt lat="45.94328" lon="6.85634">
        <ele>1871.5999755859</ele>
        <time>2010-06-27T10:16:23Z</time>
      </trkpt>
      <trkpt lat="45.94318" lon="6.85643">
        <ele>1871.8000488281</ele>
        <time>2010-06-27T10:16:32Z</time>
      </trkpt>
      <trkpt lat="45.94312" lon="6.85648">
        <ele>1872.1999511719</ele>
        <time>2010-06-27T10:16:39Z</time>
      </trkpt>
      <trkpt lat="45.94296" lon="6.85665">
        <ele>1873.1999511719</ele>
        <time>2010-06-27T10:16:48Z</time>
      </trkpt>
      <trkpt lat="45.94278" lon="6.85678">
        <ele>1874</ele>
        <time>2010-06-27T10:16:56Z</time>
      </trkpt>
      <trkpt lat="45.9426" lon="6.85688">
        <ele>1875.5999755859</ele>
        <time>2010-06-27T10:17:06Z</time>
      </trkpt>
      <trkpt lat="45.94258" lon="6.85689">
        <ele>1875.8000488281</ele>
        <time>2010-06-27T10:17:08Z</time>
      </trkpt>
      <trkpt lat="45.94244" lon="6.857">
        <ele>1877.4000244141</ele>
        <time>2010-06-27T10:17:20Z</time>
      </trkpt>
      <trkpt lat="45.9423" lon="6.85716">
        <ele>1878.8000488281</ele>
        <time>2010-06-27T10:17:34Z</time>
      </trkpt>
      <trkpt lat="45.94213" lon="6.85727">
        <ele>1881</ele>
        <time>2010-06-27T10:17:49Z</time>
      </trkpt>
      <trkpt lat="45.94195" lon="6.85731">
        <ele>1882.1999511719</ele>
        <time>2010-06-27T10:17:59Z</time>
      </trkpt>
      <trkpt lat="45.94176" lon="6.85726">
        <ele>1883.5999755859</ele>
        <time>2010-06-27T10:18:07Z</time>
      </trkpt>
      <trkpt lat="45.94158" lon="6.85717">
        <ele>1885.8000488281</ele>
        <time>2010-06-27T10:18:16Z</time>
      </trkpt>
      <trkpt lat="45.94143" lon="6.85702">
        <ele>1890</ele>
        <time>2010-06-27T10:18:32Z</time>
      </trkpt>
      <trkpt lat="45.94129" lon="6.85685">
        <ele>1894.4000244141</ele>
        <time>2010-06-27T10:18:49Z</time>
      </trkpt>
      <trkpt lat="45.94123" lon="6.85679">
        <ele>1896.1999511719</ele>
        <time>2010-06-27T10:18:56Z</time>
      </trkpt>
      <trkpt lat="45.94113" lon="6.85672">
        <ele>1899.1999511719</ele>
        <time>2010-06-27T10:19:08Z</time>
      </trkpt>
      <trkpt lat="45.94096" lon="6.85661">
        <ele>1903.5999755859</ele>
        <time>2010-06-27T10:19:25Z</time>
      </trkpt>
      <trkpt lat="45.94089" lon="6.85651">
        <ele>1905.8000488281</ele>
        <time>2010-06-27T10:19:33Z</time>
      </trkpt>
      <trkpt lat="45.94082" lon="6.85644">
        <ele>1907.4000244141</ele>
        <time>2010-06-27T10:19:39Z</time>
      </trkpt>
      <trkpt lat="45.94065" lon="6.85634">
        <ele>1909.5999755859</ele>
        <time>2010-06-27T10:19:52Z</time>
      </trkpt>
      <trkpt lat="45.94047" lon="6.85639">
        <ele>1910.5999755859</ele>
        <time>2010-06-27T10:20:05Z</time>
      </trkpt>
      <trkpt lat="45.94032" lon="6.85653">
        <ele>1911.1999511719</ele>
        <time>2010-06-27T10:20:19Z</time>
      </trkpt>
      <trkpt lat="45.94015" lon="6.85665">
        <ele>1912.4000244141</ele>
        <time>2010-06-27T10:20:34Z</time>
      </trkpt>
      <trkpt lat="45.93998" lon="6.85671">
        <ele>1914.1999511719</ele>
        <time>2010-06-27T10:20:48Z</time>
      </trkpt>
      <trkpt lat="45.9398" lon="6.85675">
        <ele>1917</ele>
        <time>2010-06-27T10:21:05Z</time>
      </trkpt>
      <trkpt lat="45.93961" lon="6.85676">
        <ele>1920.4000244141</ele>
        <time>2010-06-27T10:21:23Z</time>
      </trkpt>
      <trkpt lat="45.93943" lon="6.85668">
        <ele>1925.5999755859</ele>
        <time>2010-06-27T10:21:42Z</time>
      </trkpt>
      <trkpt lat="45.93927" lon="6.85655">
        <ele>1930.4000244141</ele>
        <time>2010-06-27T10:22:01Z</time>
      </trkpt>
      <trkpt lat="45.93909" lon="6.85646">
        <ele>1934</ele>
        <time>2010-06-27T10:22:19Z</time>
      </trkpt>
      <trkpt lat="45.93892" lon="6.85642">
        <ele>1937.8000488281</ele>
        <time>2010-06-27T10:22:34Z</time>
      </trkpt>
      <trkpt lat="45.9389" lon="6.85642">
        <ele>1938</ele>
        <time>2010-06-27T10:22:35Z</time>
      </trkpt>
      <trkpt lat="45.93873" lon="6.85633">
        <ele>1941.5999755859</ele>
        <time>2010-06-27T10:22:50Z</time>
      </trkpt>
      <trkpt lat="45.93861" lon="6.85614">
        <ele>1945</ele>
        <time>2010-06-27T10:23:04Z</time>
      </trkpt>
      <trkpt lat="45.93849" lon="6.85595">
        <ele>1949</ele>
        <time>2010-06-27T10:23:19Z</time>
      </trkpt>
      <trkpt lat="45.93857" lon="6.85572">
        <ele>1953.5999755859</ele>
        <time>2010-06-27T10:23:36Z</time>
      </trkpt>
      <trkpt lat="45.93863" lon="6.85566">
        <ele>1955.1999511719</ele>
        <time>2010-06-27T10:23:43Z</time>
      </trkpt>
      <trkpt lat="45.93871" lon="6.85554">
        <ele>1957</ele>
        <time>2010-06-27T10:23:54Z</time>
      </trkpt>
      <trkpt lat="45.93874" lon="6.85551">
        <ele>1957.5999755859</ele>
        <time>2010-06-27T10:23:57Z</time>
      </trkpt>
      <trkpt lat="45.93886" lon="6.85537">
        <ele>1959.1999511719</ele>
        <time>2010-06-27T10:24:13Z</time>
      </trkpt>
      <trkpt lat="45.93901" lon="6.85524">
        <ele>1961.1999511719</ele>
        <time>2010-06-27T10:24:27Z</time>
      </trkpt>
      <trkpt lat="45.93917" lon="6.85512">
        <ele>1962.8000488281</ele>
        <time>2010-06-27T10:24:35Z</time>
      </trkpt>
      <trkpt lat="45.93931" lon="6.8549">
        <ele>1964.1999511719</ele>
        <time>2010-06-27T10:24:43Z</time>
      </trkpt>
      <trkpt lat="45.93938" lon="6.85466">
        <ele>1967</ele>
        <time>2010-06-27T10:24:59Z</time>
      </trkpt>
      <trkpt lat="45.93941" lon="6.8544">
        <ele>1970.1999511719</ele>
        <time>2010-06-27T10:25:13Z</time>
      </trkpt>
      <trkpt lat="45.93943" lon="6.85427">
        <ele>1972</ele>
        <time>2010-06-27T10:25:21Z</time>
      </trkpt>
      <trkpt lat="45.9394" lon="6.85418">
        <ele>1974</ele>
        <time>2010-06-27T10:25:29Z</time>
      </trkpt>
      <trkpt lat="45.93939" lon="6.85416">
        <ele>1974.5999755859</ele>
        <time>2010-06-27T10:25:31Z</time>
      </trkpt>
      <trkpt lat="45.93938" lon="6.85414">
        <ele>1975.1999511719</ele>
        <time>2010-06-27T10:25:33Z</time>
      </trkpt>
      <trkpt lat="45.93935" lon="6.8541">
        <ele>1976.1999511719</ele>
        <time>2010-06-27T10:25:37Z</time>
      </trkpt>
      <trkpt lat="45.93925" lon="6.85401">
        <ele>1979.1999511719</ele>
        <time>2010-06-27T10:25:50Z</time>
      </trkpt>
      <trkpt lat="45.93925" lon="6.854">
        <ele>1979.4000244141</ele>
        <time>2010-06-27T10:25:51Z</time>
      </trkpt>
      <trkpt lat="45.93922" lon="6.85397">
        <ele>1980.5999755859</ele>
        <time>2010-06-27T10:25:56Z</time>
      </trkpt>
      <trkpt lat="45.93913" lon="6.85388">
        <ele>1982.8000488281</ele>
        <time>2010-06-27T10:26:08Z</time>
      </trkpt>
      <trkpt lat="45.9391" lon="6.85385">
        <ele>1983.4000244141</ele>
        <time>2010-06-27T10:26:12Z</time>
      </trkpt>
      <trkpt lat="45.93893" lon="6.85373">
        <ele>1987</ele>
        <time>2010-06-27T10:26:34Z</time>
      </trkpt>
      <trkpt lat="45.93875" lon="6.85371">
        <ele>1988.5999755859</ele>
        <time>2010-06-27T10:26:50Z</time>
      </trkpt>
      <trkpt lat="45.93857" lon="6.85375">
        <ele>1990</ele>
        <time>2010-06-27T10:27:06Z</time>
      </trkpt>
      <trkpt lat="45.93842" lon="6.85376">
        <ele>1991.4000244141</ele>
        <time>2010-06-27T10:27:22Z</time>
      </trkpt>
      <trkpt lat="45.93839" lon="6.85376">
        <ele>1991.8000488281</ele>
        <time>2010-06-27T10:27:25Z</time>
      </trkpt>
      <trkpt lat="45.93838" lon="6.85376">
        <ele>1992</ele>
        <time>2010-06-27T10:27:26Z</time>
      </trkpt>
      <trkpt lat="45.93821" lon="6.85369">
        <ele>1995.5999755859</ele>
        <time>2010-06-27T10:27:49Z</time>
      </trkpt>
      <trkpt lat="45.93807" lon="6.85367">
        <ele>1999.5999755859</ele>
        <time>2010-06-27T10:28:07Z</time>
      </trkpt>
      <trkpt lat="45.93803" lon="6.85366">
        <ele>2000.8000488281</ele>
        <time>2010-06-27T10:28:12Z</time>
      </trkpt>
      <trkpt lat="45.93802" lon="6.85366">
        <ele>2001</ele>
        <time>2010-06-27T10:28:13Z</time>
      </trkpt>
      <trkpt lat="45.93796" lon="6.85367">
        <ele>2002.1999511719</ele>
        <time>2010-06-27T10:28:20Z</time>
      </trkpt>
      <trkpt lat="45.93784" lon="6.8537">
        <ele>2004.5999755859</ele>
        <time>2010-06-27T10:28:32Z</time>
      </trkpt>
      <trkpt lat="45.93768" lon="6.85384">
        <ele>2006.8000488281</ele>
        <time>2010-06-27T10:28:46Z</time>
      </trkpt>
      <trkpt lat="45.93756" lon="6.85404">
        <ele>2008.8000488281</ele>
        <time>2010-06-27T10:28:55Z</time>
      </trkpt>
      <trkpt lat="45.93744" lon="6.85423">
        <ele>2011.5999755859</ele>
        <time>2010-06-27T10:29:08Z</time>
      </trkpt>
      <trkpt lat="45.93744" lon="6.85424">
        <ele>2011.8000488281</ele>
        <time>2010-06-27T10:29:10Z</time>
      </trkpt>
      <trkpt lat="45.93742" lon="6.85424">
        <ele>2012.1999511719</ele>
        <time>2010-06-27T10:29:12Z</time>
      </trkpt>
      <trkpt lat="45.93739" lon="6.85427">
        <ele>2013.5999755859</ele>
        <time>2010-06-27T10:29:23Z</time>
      </trkpt>
      <trkpt lat="45.93736" lon="6.85428">
        <ele>2014</ele>
        <time>2010-06-27T10:29:28Z</time>
      </trkpt>
      <trkpt lat="45.93727" lon="6.85429">
        <ele>2015</ele>
        <time>2010-06-27T10:29:40Z</time>
      </trkpt>
      <trkpt lat="45.93723" lon="6.85429">
        <ele>2016.5999755859</ele>
        <time>2010-06-27T10:29:54Z</time>
      </trkpt>
    </trkseg>
  </trk>
</gpx>